<?xml version="1.0" encoding="UTF-8" standalone="no" ?>
<gpx xmlns="http://www.topografix.com/GPX/1/1" xmlns:xsi="http://www.w3.org/2001/XMLSchema-instance" xsi:schemaLocation="http://www.topografix.com/GPX/1/1 http://www.topografix.com/GPX/1/1/gpx.xsd" version="1.1" creator="VisuGPX - https://www.visugpx.com">
  <metadata>
    <name>Trace SaintéLyon Ste cath-bornand 27-10-2010</name>
    <desc><![CDATA[Trace SaintéLyon Ste cath-bornand 27-10-2010

8 coureurs 1 VTT... parfois porté  !! ]]></desc>
  </metadata>
  <trk>
    <name><![CDATA[BBBBBBB10 17:00:48]]></name>
    <trkseg>
      <trkpt lat="45.59551" lon="4.56768">
        <ele>699.5</ele>
        <time>2010-10-28T11:32:55Z</time>
      </trkpt>
      <trkpt lat="45.59551" lon="4.56768">
        <ele>696.13</ele>
        <time>2010-10-28T11:33:06Z</time>
      </trkpt>
      <trkpt lat="45.59552" lon="4.56768">
        <ele>699.5</ele>
        <time>2010-10-28T11:33:18Z</time>
      </trkpt>
      <trkpt lat="45.59549" lon="4.56769">
        <ele>698.53</ele>
        <time>2010-10-28T11:34:02Z</time>
      </trkpt>
      <trkpt lat="45.59549" lon="4.56769">
        <ele>699.02</ele>
        <time>2010-10-28T11:34:32Z</time>
      </trkpt>
      <trkpt lat="45.59549" lon="4.56766">
        <ele>698.53</ele>
        <time>2010-10-28T11:34:35Z</time>
      </trkpt>
      <trkpt lat="45.59549" lon="4.56761">
        <ele>699.02</ele>
        <time>2010-10-28T11:34:38Z</time>
      </trkpt>
      <trkpt lat="45.59545" lon="4.56746">
        <ele>699.02</ele>
        <time>2010-10-28T11:34:44Z</time>
      </trkpt>
      <trkpt lat="45.59543" lon="4.56727">
        <ele>699.02</ele>
        <time>2010-10-28T11:34:49Z</time>
      </trkpt>
      <trkpt lat="45.59547" lon="4.56717">
        <ele>698.53</ele>
        <time>2010-10-28T11:34:53Z</time>
      </trkpt>
      <trkpt lat="45.59549" lon="4.56716">
        <ele>698.53</ele>
        <time>2010-10-28T11:35:03Z</time>
      </trkpt>
      <trkpt lat="45.59548" lon="4.56721">
        <ele>698.05</ele>
        <time>2010-10-28T11:35:06Z</time>
      </trkpt>
      <trkpt lat="45.59555" lon="4.56749">
        <ele>698.53</ele>
        <time>2010-10-28T11:35:17Z</time>
      </trkpt>
      <trkpt lat="45.59557" lon="4.56772">
        <ele>698.53</ele>
        <time>2010-10-28T11:35:25Z</time>
      </trkpt>
      <trkpt lat="45.59558" lon="4.56779">
        <ele>698.05</ele>
        <time>2010-10-28T11:35:27Z</time>
      </trkpt>
      <trkpt lat="45.59556" lon="4.5679">
        <ele>699.02</ele>
        <time>2010-10-28T11:35:30Z</time>
      </trkpt>
      <trkpt lat="45.59563" lon="4.56809">
        <ele>699.02</ele>
        <time>2010-10-28T11:35:36Z</time>
      </trkpt>
      <trkpt lat="45.59585" lon="4.56848">
        <ele>698.05</ele>
        <time>2010-10-28T11:35:50Z</time>
      </trkpt>
      <trkpt lat="45.59594" lon="4.56889">
        <ele>697.09</ele>
        <time>2010-10-28T11:36:02Z</time>
      </trkpt>
      <trkpt lat="45.59598" lon="4.56935">
        <ele>696.61</ele>
        <time>2010-10-28T11:36:14Z</time>
      </trkpt>
      <trkpt lat="45.59599" lon="4.56952">
        <ele>696.61</ele>
        <time>2010-10-28T11:36:19Z</time>
      </trkpt>
      <trkpt lat="45.59611" lon="4.56992">
        <ele>697.09</ele>
        <time>2010-10-28T11:36:31Z</time>
      </trkpt>
      <trkpt lat="45.59612" lon="4.56994">
        <ele>697.57</ele>
        <time>2010-10-28T11:36:32Z</time>
      </trkpt>
      <trkpt lat="45.59634" lon="4.57033">
        <ele>699.02</ele>
        <time>2010-10-28T11:36:45Z</time>
      </trkpt>
      <trkpt lat="45.59657" lon="4.57056">
        <ele>699.02</ele>
        <time>2010-10-28T11:36:56Z</time>
      </trkpt>
      <trkpt lat="45.59672" lon="4.57067">
        <ele>699.02</ele>
        <time>2010-10-28T11:37:03Z</time>
      </trkpt>
      <trkpt lat="45.59688" lon="4.57081">
        <ele>699.5</ele>
        <time>2010-10-28T11:37:11Z</time>
      </trkpt>
      <trkpt lat="45.59716" lon="4.57103">
        <ele>700.94</ele>
        <time>2010-10-28T11:37:24Z</time>
      </trkpt>
      <trkpt lat="45.5974" lon="4.57108">
        <ele>699.02</ele>
        <time>2010-10-28T11:37:34Z</time>
      </trkpt>
      <trkpt lat="45.59766" lon="4.57114">
        <ele>699.02</ele>
        <time>2010-10-28T11:37:44Z</time>
      </trkpt>
      <trkpt lat="45.59791" lon="4.57117">
        <ele>698.53</ele>
        <time>2010-10-28T11:37:54Z</time>
      </trkpt>
      <trkpt lat="45.59815" lon="4.57108">
        <ele>699.02</ele>
        <time>2010-10-28T11:38:04Z</time>
      </trkpt>
      <trkpt lat="45.59837" lon="4.57095">
        <ele>699.5</ele>
        <time>2010-10-28T11:38:13Z</time>
      </trkpt>
      <trkpt lat="45.59852" lon="4.57088">
        <ele>699.5</ele>
        <time>2010-10-28T11:38:19Z</time>
      </trkpt>
      <trkpt lat="45.59865" lon="4.57087">
        <ele>700.46</ele>
        <time>2010-10-28T11:38:24Z</time>
      </trkpt>
      <trkpt lat="45.59882" lon="4.57085">
        <ele>699.5</ele>
        <time>2010-10-28T11:38:31Z</time>
      </trkpt>
      <trkpt lat="45.59915" lon="4.57096">
        <ele>697.57</ele>
        <time>2010-10-28T11:38:43Z</time>
      </trkpt>
      <trkpt lat="45.59928" lon="4.57099">
        <ele>697.09</ele>
        <time>2010-10-28T11:38:48Z</time>
      </trkpt>
      <trkpt lat="45.59941" lon="4.57114">
        <ele>697.09</ele>
        <time>2010-10-28T11:38:54Z</time>
      </trkpt>
      <trkpt lat="45.59948" lon="4.57138">
        <ele>693.73</ele>
        <time>2010-10-28T11:39:01Z</time>
      </trkpt>
      <trkpt lat="45.59953" lon="4.57154">
        <ele>694.69</ele>
        <time>2010-10-28T11:39:05Z</time>
      </trkpt>
      <trkpt lat="45.59961" lon="4.57189">
        <ele>693.73</ele>
        <time>2010-10-28T11:39:14Z</time>
      </trkpt>
      <trkpt lat="45.59971" lon="4.57232">
        <ele>693.25</ele>
        <time>2010-10-28T11:39:25Z</time>
      </trkpt>
      <trkpt lat="45.59971" lon="4.57271">
        <ele>691.81</ele>
        <time>2010-10-28T11:39:34Z</time>
      </trkpt>
      <trkpt lat="45.5997" lon="4.5731">
        <ele>691.33</ele>
        <time>2010-10-28T11:39:43Z</time>
      </trkpt>
      <trkpt lat="45.59982" lon="4.57346">
        <ele>691.81</ele>
        <time>2010-10-28T11:39:52Z</time>
      </trkpt>
      <trkpt lat="45.59982" lon="4.57349">
        <ele>691.81</ele>
        <time>2010-10-28T11:39:53Z</time>
      </trkpt>
      <trkpt lat="45.59995" lon="4.57386">
        <ele>694.21</ele>
        <time>2010-10-28T11:40:04Z</time>
      </trkpt>
      <trkpt lat="45.59998" lon="4.57397">
        <ele>694.21</ele>
        <time>2010-10-28T11:40:07Z</time>
      </trkpt>
      <trkpt lat="45.6" lon="4.57413">
        <ele>694.69</ele>
        <time>2010-10-28T11:40:11Z</time>
      </trkpt>
      <trkpt lat="45.60001" lon="4.57421">
        <ele>693.73</ele>
        <time>2010-10-28T11:40:13Z</time>
      </trkpt>
      <trkpt lat="45.60006" lon="4.57457">
        <ele>693.25</ele>
        <time>2010-10-28T11:40:22Z</time>
      </trkpt>
      <trkpt lat="45.60006" lon="4.5746">
        <ele>693.25</ele>
        <time>2010-10-28T11:40:23Z</time>
      </trkpt>
      <trkpt lat="45.60006" lon="4.57473">
        <ele>691.81</ele>
        <time>2010-10-28T11:40:26Z</time>
      </trkpt>
      <trkpt lat="45.60007" lon="4.57482">
        <ele>692.29</ele>
        <time>2010-10-28T11:40:28Z</time>
      </trkpt>
      <trkpt lat="45.60011" lon="4.57511">
        <ele>690.84</ele>
        <time>2010-10-28T11:40:35Z</time>
      </trkpt>
      <trkpt lat="45.60022" lon="4.57551">
        <ele>690.36</ele>
        <time>2010-10-28T11:40:44Z</time>
      </trkpt>
      <trkpt lat="45.60034" lon="4.57579">
        <ele>688.92</ele>
        <time>2010-10-28T11:40:51Z</time>
      </trkpt>
      <trkpt lat="45.60037" lon="4.57584">
        <ele>689.4</ele>
        <time>2010-10-28T11:40:52Z</time>
      </trkpt>
      <trkpt lat="45.60039" lon="4.57588">
        <ele>689.4</ele>
        <time>2010-10-28T11:40:53Z</time>
      </trkpt>
      <trkpt lat="45.60039" lon="4.57591">
        <ele>688.92</ele>
        <time>2010-10-28T11:40:54Z</time>
      </trkpt>
      <trkpt lat="45.6004" lon="4.57595">
        <ele>688.44</ele>
        <time>2010-10-28T11:40:55Z</time>
      </trkpt>
      <trkpt lat="45.6004" lon="4.57598">
        <ele>689.4</ele>
        <time>2010-10-28T11:40:56Z</time>
      </trkpt>
      <trkpt lat="45.60042" lon="4.57602">
        <ele>687.96</ele>
        <time>2010-10-28T11:40:57Z</time>
      </trkpt>
      <trkpt lat="45.60043" lon="4.57605">
        <ele>687.96</ele>
        <time>2010-10-28T11:40:58Z</time>
      </trkpt>
      <trkpt lat="45.60045" lon="4.57607">
        <ele>687</ele>
        <time>2010-10-28T11:40:59Z</time>
      </trkpt>
      <trkpt lat="45.60046" lon="4.5761">
        <ele>687</ele>
        <time>2010-10-28T11:41:00Z</time>
      </trkpt>
      <trkpt lat="45.60049" lon="4.57612">
        <ele>687.48</ele>
        <time>2010-10-28T11:41:01Z</time>
      </trkpt>
      <trkpt lat="45.60059" lon="4.57633">
        <ele>687.48</ele>
        <time>2010-10-28T11:41:06Z</time>
      </trkpt>
      <trkpt lat="45.60061" lon="4.57637">
        <ele>687</ele>
        <time>2010-10-28T11:41:07Z</time>
      </trkpt>
      <trkpt lat="45.60063" lon="4.5764">
        <ele>686.52</ele>
        <time>2010-10-28T11:41:08Z</time>
      </trkpt>
      <trkpt lat="45.60065" lon="4.57644">
        <ele>686.52</ele>
        <time>2010-10-28T11:41:09Z</time>
      </trkpt>
      <trkpt lat="45.60067" lon="4.57647">
        <ele>686.52</ele>
        <time>2010-10-28T11:41:10Z</time>
      </trkpt>
      <trkpt lat="45.60069" lon="4.5765">
        <ele>686.52</ele>
        <time>2010-10-28T11:41:11Z</time>
      </trkpt>
      <trkpt lat="45.60081" lon="4.57666">
        <ele>686.04</ele>
        <time>2010-10-28T11:41:16Z</time>
      </trkpt>
      <trkpt lat="45.60082" lon="4.57668">
        <ele>685.56</ele>
        <time>2010-10-28T11:41:17Z</time>
      </trkpt>
      <trkpt lat="45.60084" lon="4.57671">
        <ele>685.56</ele>
        <time>2010-10-28T11:41:18Z</time>
      </trkpt>
      <trkpt lat="45.60085" lon="4.57674">
        <ele>686.04</ele>
        <time>2010-10-28T11:41:19Z</time>
      </trkpt>
      <trkpt lat="45.60086" lon="4.57677">
        <ele>686.04</ele>
        <time>2010-10-28T11:41:20Z</time>
      </trkpt>
      <trkpt lat="45.60087" lon="4.57681">
        <ele>685.08</ele>
        <time>2010-10-28T11:41:21Z</time>
      </trkpt>
      <trkpt lat="45.60089" lon="4.57684">
        <ele>686.52</ele>
        <time>2010-10-28T11:41:22Z</time>
      </trkpt>
      <trkpt lat="45.60091" lon="4.57687">
        <ele>685.56</ele>
        <time>2010-10-28T11:41:23Z</time>
      </trkpt>
      <trkpt lat="45.60093" lon="4.5769">
        <ele>685.08</ele>
        <time>2010-10-28T11:41:24Z</time>
      </trkpt>
      <trkpt lat="45.60092" lon="4.57693">
        <ele>686.04</ele>
        <time>2010-10-28T11:41:25Z</time>
      </trkpt>
      <trkpt lat="45.60093" lon="4.57701">
        <ele>684.6</ele>
        <time>2010-10-28T11:41:27Z</time>
      </trkpt>
      <trkpt lat="45.60095" lon="4.57706">
        <ele>685.56</ele>
        <time>2010-10-28T11:41:28Z</time>
      </trkpt>
      <trkpt lat="45.60096" lon="4.5771">
        <ele>686.04</ele>
        <time>2010-10-28T11:41:29Z</time>
      </trkpt>
      <trkpt lat="45.60098" lon="4.57715">
        <ele>686.52</ele>
        <time>2010-10-28T11:41:30Z</time>
      </trkpt>
      <trkpt lat="45.60099" lon="4.5772">
        <ele>686.04</ele>
        <time>2010-10-28T11:41:31Z</time>
      </trkpt>
      <trkpt lat="45.601" lon="4.57724">
        <ele>686.04</ele>
        <time>2010-10-28T11:41:32Z</time>
      </trkpt>
      <trkpt lat="45.60101" lon="4.57728">
        <ele>686.52</ele>
        <time>2010-10-28T11:41:33Z</time>
      </trkpt>
      <trkpt lat="45.60103" lon="4.57733">
        <ele>686.04</ele>
        <time>2010-10-28T11:41:34Z</time>
      </trkpt>
      <trkpt lat="45.60104" lon="4.57737">
        <ele>685.56</ele>
        <time>2010-10-28T11:41:35Z</time>
      </trkpt>
      <trkpt lat="45.60105" lon="4.57742">
        <ele>686.04</ele>
        <time>2010-10-28T11:41:36Z</time>
      </trkpt>
      <trkpt lat="45.60107" lon="4.57777">
        <ele>685.08</ele>
        <time>2010-10-28T11:41:44Z</time>
      </trkpt>
      <trkpt lat="45.60106" lon="4.57782">
        <ele>685.08</ele>
        <time>2010-10-28T11:41:45Z</time>
      </trkpt>
      <trkpt lat="45.60105" lon="4.57786">
        <ele>685.08</ele>
        <time>2010-10-28T11:41:46Z</time>
      </trkpt>
      <trkpt lat="45.60103" lon="4.57791">
        <ele>685.56</ele>
        <time>2010-10-28T11:41:47Z</time>
      </trkpt>
      <trkpt lat="45.60101" lon="4.57794">
        <ele>685.56</ele>
        <time>2010-10-28T11:41:48Z</time>
      </trkpt>
      <trkpt lat="45.60099" lon="4.57797">
        <ele>684.6</ele>
        <time>2010-10-28T11:41:49Z</time>
      </trkpt>
      <trkpt lat="45.60097" lon="4.578">
        <ele>686.04</ele>
        <time>2010-10-28T11:41:50Z</time>
      </trkpt>
      <trkpt lat="45.60094" lon="4.57804">
        <ele>686.04</ele>
        <time>2010-10-28T11:41:51Z</time>
      </trkpt>
      <trkpt lat="45.60092" lon="4.57806">
        <ele>686.04</ele>
        <time>2010-10-28T11:41:52Z</time>
      </trkpt>
      <trkpt lat="45.60081" lon="4.57818">
        <ele>687.48</ele>
        <time>2010-10-28T11:41:57Z</time>
      </trkpt>
      <trkpt lat="45.60075" lon="4.57826">
        <ele>688.44</ele>
        <time>2010-10-28T11:42:00Z</time>
      </trkpt>
      <trkpt lat="45.60073" lon="4.5783">
        <ele>688.92</ele>
        <time>2010-10-28T11:42:02Z</time>
      </trkpt>
      <trkpt lat="45.60072" lon="4.57832">
        <ele>689.4</ele>
        <time>2010-10-28T11:42:03Z</time>
      </trkpt>
      <trkpt lat="45.60071" lon="4.57836">
        <ele>690.36</ele>
        <time>2010-10-28T11:42:04Z</time>
      </trkpt>
      <trkpt lat="45.6007" lon="4.57839">
        <ele>689.4</ele>
        <time>2010-10-28T11:42:05Z</time>
      </trkpt>
      <trkpt lat="45.6007" lon="4.57841">
        <ele>690.84</ele>
        <time>2010-10-28T11:42:06Z</time>
      </trkpt>
      <trkpt lat="45.60064" lon="4.57853">
        <ele>691.81</ele>
        <time>2010-10-28T11:42:10Z</time>
      </trkpt>
      <trkpt lat="45.60063" lon="4.57856">
        <ele>692.29</ele>
        <time>2010-10-28T11:42:11Z</time>
      </trkpt>
      <trkpt lat="45.60062" lon="4.5786">
        <ele>692.77</ele>
        <time>2010-10-28T11:42:12Z</time>
      </trkpt>
      <trkpt lat="45.60061" lon="4.57862">
        <ele>692.77</ele>
        <time>2010-10-28T11:42:13Z</time>
      </trkpt>
      <trkpt lat="45.60061" lon="4.57865">
        <ele>693.73</ele>
        <time>2010-10-28T11:42:14Z</time>
      </trkpt>
      <trkpt lat="45.60061" lon="4.57869">
        <ele>694.21</ele>
        <time>2010-10-28T11:42:15Z</time>
      </trkpt>
      <trkpt lat="45.60059" lon="4.57886">
        <ele>695.65</ele>
        <time>2010-10-28T11:42:20Z</time>
      </trkpt>
      <trkpt lat="45.60059" lon="4.5789">
        <ele>695.65</ele>
        <time>2010-10-28T11:42:21Z</time>
      </trkpt>
      <trkpt lat="45.60059" lon="4.57893">
        <ele>696.13</ele>
        <time>2010-10-28T11:42:22Z</time>
      </trkpt>
      <trkpt lat="45.60058" lon="4.57896">
        <ele>697.57</ele>
        <time>2010-10-28T11:42:23Z</time>
      </trkpt>
      <trkpt lat="45.60059" lon="4.579">
        <ele>697.09</ele>
        <time>2010-10-28T11:42:24Z</time>
      </trkpt>
      <trkpt lat="45.60059" lon="4.57903">
        <ele>696.13</ele>
        <time>2010-10-28T11:42:25Z</time>
      </trkpt>
      <trkpt lat="45.60061" lon="4.57907">
        <ele>697.09</ele>
        <time>2010-10-28T11:42:26Z</time>
      </trkpt>
      <trkpt lat="45.60063" lon="4.57911">
        <ele>696.61</ele>
        <time>2010-10-28T11:42:27Z</time>
      </trkpt>
      <trkpt lat="45.60064" lon="4.57915">
        <ele>698.05</ele>
        <time>2010-10-28T11:42:28Z</time>
      </trkpt>
      <trkpt lat="45.60064" lon="4.57919">
        <ele>697.09</ele>
        <time>2010-10-28T11:42:29Z</time>
      </trkpt>
      <trkpt lat="45.60065" lon="4.57922">
        <ele>698.05</ele>
        <time>2010-10-28T11:42:30Z</time>
      </trkpt>
      <trkpt lat="45.60065" lon="4.57926">
        <ele>698.05</ele>
        <time>2010-10-28T11:42:31Z</time>
      </trkpt>
      <trkpt lat="45.60066" lon="4.5793">
        <ele>698.05</ele>
        <time>2010-10-28T11:42:32Z</time>
      </trkpt>
      <trkpt lat="45.60067" lon="4.57934">
        <ele>698.53</ele>
        <time>2010-10-28T11:42:33Z</time>
      </trkpt>
      <trkpt lat="45.60073" lon="4.57956">
        <ele>701.9</ele>
        <time>2010-10-28T11:42:39Z</time>
      </trkpt>
      <trkpt lat="45.60074" lon="4.57958">
        <ele>701.9</ele>
        <time>2010-10-28T11:42:40Z</time>
      </trkpt>
      <trkpt lat="45.60079" lon="4.57986">
        <ele>703.34</ele>
        <time>2010-10-28T11:42:49Z</time>
      </trkpt>
      <trkpt lat="45.60081" lon="4.58016">
        <ele>702.86</ele>
        <time>2010-10-28T11:42:57Z</time>
      </trkpt>
      <trkpt lat="45.60084" lon="4.58033">
        <ele>703.82</ele>
        <time>2010-10-28T11:43:02Z</time>
      </trkpt>
      <trkpt lat="45.60084" lon="4.58036">
        <ele>703.34</ele>
        <time>2010-10-28T11:43:03Z</time>
      </trkpt>
      <trkpt lat="45.60084" lon="4.58044">
        <ele>703.82</ele>
        <time>2010-10-28T11:43:05Z</time>
      </trkpt>
      <trkpt lat="45.60088" lon="4.58065">
        <ele>704.3</ele>
        <time>2010-10-28T11:43:12Z</time>
      </trkpt>
      <trkpt lat="45.60087" lon="4.58068">
        <ele>703.34</ele>
        <time>2010-10-28T11:43:13Z</time>
      </trkpt>
      <trkpt lat="45.60088" lon="4.58072">
        <ele>703.34</ele>
        <time>2010-10-28T11:43:14Z</time>
      </trkpt>
      <trkpt lat="45.60088" lon="4.58075">
        <ele>704.3</ele>
        <time>2010-10-28T11:43:15Z</time>
      </trkpt>
      <trkpt lat="45.60089" lon="4.58077">
        <ele>704.3</ele>
        <time>2010-10-28T11:43:16Z</time>
      </trkpt>
      <trkpt lat="45.60089" lon="4.5808">
        <ele>703.82</ele>
        <time>2010-10-28T11:43:17Z</time>
      </trkpt>
      <trkpt lat="45.60089" lon="4.58082">
        <ele>705.26</ele>
        <time>2010-10-28T11:43:18Z</time>
      </trkpt>
      <trkpt lat="45.60089" lon="4.58085">
        <ele>705.26</ele>
        <time>2010-10-28T11:43:19Z</time>
      </trkpt>
      <trkpt lat="45.60089" lon="4.58087">
        <ele>705.26</ele>
        <time>2010-10-28T11:43:20Z</time>
      </trkpt>
      <trkpt lat="45.60089" lon="4.5809">
        <ele>705.26</ele>
        <time>2010-10-28T11:43:21Z</time>
      </trkpt>
      <trkpt lat="45.60088" lon="4.58093">
        <ele>706.23</ele>
        <time>2010-10-28T11:43:22Z</time>
      </trkpt>
      <trkpt lat="45.60088" lon="4.58094">
        <ele>706.23</ele>
        <time>2010-10-28T11:43:23Z</time>
      </trkpt>
      <trkpt lat="45.60088" lon="4.58097">
        <ele>706.71</ele>
        <time>2010-10-28T11:43:24Z</time>
      </trkpt>
      <trkpt lat="45.60088" lon="4.58099">
        <ele>706.23</ele>
        <time>2010-10-28T11:43:25Z</time>
      </trkpt>
      <trkpt lat="45.60088" lon="4.58101">
        <ele>707.19</ele>
        <time>2010-10-28T11:43:26Z</time>
      </trkpt>
      <trkpt lat="45.60088" lon="4.58104">
        <ele>707.67</ele>
        <time>2010-10-28T11:43:27Z</time>
      </trkpt>
      <trkpt lat="45.60088" lon="4.58107">
        <ele>707.67</ele>
        <time>2010-10-28T11:43:28Z</time>
      </trkpt>
      <trkpt lat="45.60087" lon="4.5811">
        <ele>708.63</ele>
        <time>2010-10-28T11:43:29Z</time>
      </trkpt>
      <trkpt lat="45.60087" lon="4.58113">
        <ele>708.15</ele>
        <time>2010-10-28T11:43:30Z</time>
      </trkpt>
      <trkpt lat="45.60087" lon="4.58122">
        <ele>710.55</ele>
        <time>2010-10-28T11:43:33Z</time>
      </trkpt>
      <trkpt lat="45.60087" lon="4.58125">
        <ele>711.03</ele>
        <time>2010-10-28T11:43:34Z</time>
      </trkpt>
      <trkpt lat="45.60087" lon="4.58128">
        <ele>709.59</ele>
        <time>2010-10-28T11:43:35Z</time>
      </trkpt>
      <trkpt lat="45.60088" lon="4.5813">
        <ele>710.55</ele>
        <time>2010-10-28T11:43:36Z</time>
      </trkpt>
      <trkpt lat="45.60088" lon="4.58133">
        <ele>709.59</ele>
        <time>2010-10-28T11:43:37Z</time>
      </trkpt>
      <trkpt lat="45.60091" lon="4.58151">
        <ele>711.99</ele>
        <time>2010-10-28T11:43:42Z</time>
      </trkpt>
      <trkpt lat="45.60091" lon="4.58154">
        <ele>711.51</ele>
        <time>2010-10-28T11:43:43Z</time>
      </trkpt>
      <trkpt lat="45.60091" lon="4.58156">
        <ele>711.51</ele>
        <time>2010-10-28T11:43:44Z</time>
      </trkpt>
      <trkpt lat="45.6009" lon="4.58159">
        <ele>711.99</ele>
        <time>2010-10-28T11:43:45Z</time>
      </trkpt>
      <trkpt lat="45.6009" lon="4.58162">
        <ele>712.47</ele>
        <time>2010-10-28T11:43:46Z</time>
      </trkpt>
      <trkpt lat="45.60091" lon="4.58169">
        <ele>712.47</ele>
        <time>2010-10-28T11:43:48Z</time>
      </trkpt>
      <trkpt lat="45.60091" lon="4.58173">
        <ele>711.99</ele>
        <time>2010-10-28T11:43:49Z</time>
      </trkpt>
      <trkpt lat="45.60094" lon="4.58195">
        <ele>712.95</ele>
        <time>2010-10-28T11:43:55Z</time>
      </trkpt>
      <trkpt lat="45.60093" lon="4.58198">
        <ele>714.4</ele>
        <time>2010-10-28T11:43:56Z</time>
      </trkpt>
      <trkpt lat="45.60094" lon="4.58201">
        <ele>713.44</ele>
        <time>2010-10-28T11:43:57Z</time>
      </trkpt>
      <trkpt lat="45.60094" lon="4.58205">
        <ele>713.92</ele>
        <time>2010-10-28T11:43:58Z</time>
      </trkpt>
      <trkpt lat="45.60095" lon="4.58208">
        <ele>713.44</ele>
        <time>2010-10-28T11:43:59Z</time>
      </trkpt>
      <trkpt lat="45.60095" lon="4.58212">
        <ele>714.4</ele>
        <time>2010-10-28T11:44:00Z</time>
      </trkpt>
      <trkpt lat="45.60096" lon="4.58215">
        <ele>714.4</ele>
        <time>2010-10-28T11:44:01Z</time>
      </trkpt>
      <trkpt lat="45.60096" lon="4.58225">
        <ele>715.84</ele>
        <time>2010-10-28T11:44:04Z</time>
      </trkpt>
      <trkpt lat="45.60096" lon="4.58227">
        <ele>715.36</ele>
        <time>2010-10-28T11:44:05Z</time>
      </trkpt>
      <trkpt lat="45.60096" lon="4.5823">
        <ele>716.32</ele>
        <time>2010-10-28T11:44:06Z</time>
      </trkpt>
      <trkpt lat="45.60097" lon="4.58234">
        <ele>716.32</ele>
        <time>2010-10-28T11:44:07Z</time>
      </trkpt>
      <trkpt lat="45.60103" lon="4.58255">
        <ele>716.8</ele>
        <time>2010-10-28T11:44:13Z</time>
      </trkpt>
      <trkpt lat="45.60105" lon="4.58258">
        <ele>717.28</ele>
        <time>2010-10-28T11:44:14Z</time>
      </trkpt>
      <trkpt lat="45.60107" lon="4.58262">
        <ele>718.24</ele>
        <time>2010-10-28T11:44:15Z</time>
      </trkpt>
      <trkpt lat="45.6011" lon="4.58284">
        <ele>720.16</ele>
        <time>2010-10-28T11:44:22Z</time>
      </trkpt>
      <trkpt lat="45.60109" lon="4.58287">
        <ele>721.13</ele>
        <time>2010-10-28T11:44:23Z</time>
      </trkpt>
      <trkpt lat="45.60108" lon="4.5829">
        <ele>721.13</ele>
        <time>2010-10-28T11:44:24Z</time>
      </trkpt>
      <trkpt lat="45.60108" lon="4.58293">
        <ele>720.65</ele>
        <time>2010-10-28T11:44:25Z</time>
      </trkpt>
      <trkpt lat="45.60109" lon="4.58297">
        <ele>721.61</ele>
        <time>2010-10-28T11:44:26Z</time>
      </trkpt>
      <trkpt lat="45.60109" lon="4.583">
        <ele>721.13</ele>
        <time>2010-10-28T11:44:27Z</time>
      </trkpt>
      <trkpt lat="45.60114" lon="4.5831">
        <ele>719.68</ele>
        <time>2010-10-28T11:44:31Z</time>
      </trkpt>
      <trkpt lat="45.60116" lon="4.58309">
        <ele>721.61</ele>
        <time>2010-10-28T11:44:32Z</time>
      </trkpt>
      <trkpt lat="45.60117" lon="4.58308">
        <ele>722.09</ele>
        <time>2010-10-28T11:44:33Z</time>
      </trkpt>
      <trkpt lat="45.60118" lon="4.58307">
        <ele>722.09</ele>
        <time>2010-10-28T11:44:34Z</time>
      </trkpt>
      <trkpt lat="45.60119" lon="4.58303">
        <ele>722.09</ele>
        <time>2010-10-28T11:44:36Z</time>
      </trkpt>
      <trkpt lat="45.60118" lon="4.583">
        <ele>722.09</ele>
        <time>2010-10-28T11:44:37Z</time>
      </trkpt>
      <trkpt lat="45.60119" lon="4.58297">
        <ele>723.05</ele>
        <time>2010-10-28T11:44:38Z</time>
      </trkpt>
      <trkpt lat="45.6012" lon="4.58295">
        <ele>723.05</ele>
        <time>2010-10-28T11:44:39Z</time>
      </trkpt>
      <trkpt lat="45.60121" lon="4.58292">
        <ele>723.05</ele>
        <time>2010-10-28T11:44:40Z</time>
      </trkpt>
      <trkpt lat="45.60122" lon="4.5829">
        <ele>723.53</ele>
        <time>2010-10-28T11:44:41Z</time>
      </trkpt>
      <trkpt lat="45.60123" lon="4.58288">
        <ele>724.49</ele>
        <time>2010-10-28T11:44:42Z</time>
      </trkpt>
      <trkpt lat="45.60124" lon="4.58286">
        <ele>723.05</ele>
        <time>2010-10-28T11:44:43Z</time>
      </trkpt>
      <trkpt lat="45.60125" lon="4.58284">
        <ele>724.01</ele>
        <time>2010-10-28T11:44:44Z</time>
      </trkpt>
      <trkpt lat="45.60126" lon="4.58281">
        <ele>724.97</ele>
        <time>2010-10-28T11:44:45Z</time>
      </trkpt>
      <trkpt lat="45.60127" lon="4.58279">
        <ele>724.49</ele>
        <time>2010-10-28T11:44:46Z</time>
      </trkpt>
      <trkpt lat="45.60127" lon="4.58274">
        <ele>724.97</ele>
        <time>2010-10-28T11:44:48Z</time>
      </trkpt>
      <trkpt lat="45.60127" lon="4.58271">
        <ele>725.45</ele>
        <time>2010-10-28T11:44:49Z</time>
      </trkpt>
      <trkpt lat="45.60128" lon="4.58269">
        <ele>725.45</ele>
        <time>2010-10-28T11:44:50Z</time>
      </trkpt>
      <trkpt lat="45.60129" lon="4.58266">
        <ele>725.93</ele>
        <time>2010-10-28T11:44:51Z</time>
      </trkpt>
      <trkpt lat="45.6013" lon="4.58264">
        <ele>726.41</ele>
        <time>2010-10-28T11:44:52Z</time>
      </trkpt>
      <trkpt lat="45.60131" lon="4.58262">
        <ele>726.41</ele>
        <time>2010-10-28T11:44:53Z</time>
      </trkpt>
      <trkpt lat="45.60131" lon="4.5826">
        <ele>726.41</ele>
        <time>2010-10-28T11:44:54Z</time>
      </trkpt>
      <trkpt lat="45.60131" lon="4.58252">
        <ele>726.89</ele>
        <time>2010-10-28T11:44:57Z</time>
      </trkpt>
      <trkpt lat="45.60133" lon="4.5825">
        <ele>727.86</ele>
        <time>2010-10-28T11:44:58Z</time>
      </trkpt>
      <trkpt lat="45.60134" lon="4.58248">
        <ele>727.86</ele>
        <time>2010-10-28T11:44:59Z</time>
      </trkpt>
      <trkpt lat="45.60134" lon="4.58246">
        <ele>728.34</ele>
        <time>2010-10-28T11:45:00Z</time>
      </trkpt>
      <trkpt lat="45.60139" lon="4.58223">
        <ele>730.26</ele>
        <time>2010-10-28T11:45:08Z</time>
      </trkpt>
      <trkpt lat="45.60139" lon="4.58221">
        <ele>731.22</ele>
        <time>2010-10-28T11:45:09Z</time>
      </trkpt>
      <trkpt lat="45.60139" lon="4.58218">
        <ele>731.22</ele>
        <time>2010-10-28T11:45:10Z</time>
      </trkpt>
      <trkpt lat="45.60141" lon="4.58203">
        <ele>732.18</ele>
        <time>2010-10-28T11:45:16Z</time>
      </trkpt>
      <trkpt lat="45.60142" lon="4.58201">
        <ele>732.18</ele>
        <time>2010-10-28T11:45:17Z</time>
      </trkpt>
      <trkpt lat="45.60143" lon="4.58199">
        <ele>732.66</ele>
        <time>2010-10-28T11:45:18Z</time>
      </trkpt>
      <trkpt lat="45.60142" lon="4.58197">
        <ele>732.18</ele>
        <time>2010-10-28T11:45:19Z</time>
      </trkpt>
      <trkpt lat="45.60142" lon="4.58195">
        <ele>733.14</ele>
        <time>2010-10-28T11:45:20Z</time>
      </trkpt>
      <trkpt lat="45.60141" lon="4.58192">
        <ele>732.66</ele>
        <time>2010-10-28T11:45:21Z</time>
      </trkpt>
      <trkpt lat="45.6014" lon="4.5819">
        <ele>733.14</ele>
        <time>2010-10-28T11:45:22Z</time>
      </trkpt>
      <trkpt lat="45.6014" lon="4.58187">
        <ele>733.62</ele>
        <time>2010-10-28T11:45:23Z</time>
      </trkpt>
      <trkpt lat="45.6014" lon="4.58185">
        <ele>734.1</ele>
        <time>2010-10-28T11:45:24Z</time>
      </trkpt>
      <trkpt lat="45.6014" lon="4.58181">
        <ele>734.58</ele>
        <time>2010-10-28T11:45:26Z</time>
      </trkpt>
      <trkpt lat="45.60143" lon="4.58165">
        <ele>736.99</ele>
        <time>2010-10-28T11:45:31Z</time>
      </trkpt>
      <trkpt lat="45.60145" lon="4.58161">
        <ele>736.99</ele>
        <time>2010-10-28T11:45:32Z</time>
      </trkpt>
      <trkpt lat="45.60145" lon="4.58157">
        <ele>736.03</ele>
        <time>2010-10-28T11:45:33Z</time>
      </trkpt>
      <trkpt lat="45.60146" lon="4.58155">
        <ele>736.03</ele>
        <time>2010-10-28T11:45:34Z</time>
      </trkpt>
      <trkpt lat="45.60146" lon="4.58153">
        <ele>735.07</ele>
        <time>2010-10-28T11:45:35Z</time>
      </trkpt>
      <trkpt lat="45.60146" lon="4.58151">
        <ele>736.99</ele>
        <time>2010-10-28T11:45:36Z</time>
      </trkpt>
      <trkpt lat="45.60145" lon="4.58148">
        <ele>736.99</ele>
        <time>2010-10-28T11:45:37Z</time>
      </trkpt>
      <trkpt lat="45.60145" lon="4.58145">
        <ele>736.99</ele>
        <time>2010-10-28T11:45:38Z</time>
      </trkpt>
      <trkpt lat="45.60146" lon="4.58142">
        <ele>736.99</ele>
        <time>2010-10-28T11:45:39Z</time>
      </trkpt>
      <trkpt lat="45.60147" lon="4.58137">
        <ele>737.47</ele>
        <time>2010-10-28T11:45:40Z</time>
      </trkpt>
      <trkpt lat="45.60148" lon="4.58134">
        <ele>737.95</ele>
        <time>2010-10-28T11:45:41Z</time>
      </trkpt>
      <trkpt lat="45.60149" lon="4.58131">
        <ele>737.95</ele>
        <time>2010-10-28T11:45:42Z</time>
      </trkpt>
      <trkpt lat="45.60156" lon="4.58115">
        <ele>739.87</ele>
        <time>2010-10-28T11:45:48Z</time>
      </trkpt>
      <trkpt lat="45.60156" lon="4.58112">
        <ele>739.39</ele>
        <time>2010-10-28T11:45:49Z</time>
      </trkpt>
      <trkpt lat="45.60157" lon="4.58108">
        <ele>740.35</ele>
        <time>2010-10-28T11:45:50Z</time>
      </trkpt>
      <trkpt lat="45.60158" lon="4.58097">
        <ele>740.35</ele>
        <time>2010-10-28T11:45:53Z</time>
      </trkpt>
      <trkpt lat="45.60157" lon="4.58094">
        <ele>739.87</ele>
        <time>2010-10-28T11:45:54Z</time>
      </trkpt>
      <trkpt lat="45.60157" lon="4.58091">
        <ele>739.39</ele>
        <time>2010-10-28T11:45:55Z</time>
      </trkpt>
      <trkpt lat="45.60157" lon="4.58088">
        <ele>740.83</ele>
        <time>2010-10-28T11:45:56Z</time>
      </trkpt>
      <trkpt lat="45.60157" lon="4.58085">
        <ele>741.79</ele>
        <time>2010-10-28T11:45:57Z</time>
      </trkpt>
      <trkpt lat="45.60156" lon="4.58082">
        <ele>740.35</ele>
        <time>2010-10-28T11:45:58Z</time>
      </trkpt>
      <trkpt lat="45.60156" lon="4.58079">
        <ele>740.35</ele>
        <time>2010-10-28T11:45:59Z</time>
      </trkpt>
      <trkpt lat="45.60157" lon="4.58075">
        <ele>741.31</ele>
        <time>2010-10-28T11:46:00Z</time>
      </trkpt>
      <trkpt lat="45.60158" lon="4.58073">
        <ele>741.31</ele>
        <time>2010-10-28T11:46:01Z</time>
      </trkpt>
      <trkpt lat="45.60159" lon="4.58069">
        <ele>741.31</ele>
        <time>2010-10-28T11:46:02Z</time>
      </trkpt>
      <trkpt lat="45.6016" lon="4.58064">
        <ele>743.24</ele>
        <time>2010-10-28T11:46:04Z</time>
      </trkpt>
      <trkpt lat="45.60161" lon="4.58061">
        <ele>741.79</ele>
        <time>2010-10-28T11:46:05Z</time>
      </trkpt>
      <trkpt lat="45.60161" lon="4.58058">
        <ele>742.76</ele>
        <time>2010-10-28T11:46:06Z</time>
      </trkpt>
      <trkpt lat="45.60163" lon="4.58046">
        <ele>744.68</ele>
        <time>2010-10-28T11:46:11Z</time>
      </trkpt>
      <trkpt lat="45.60163" lon="4.58044">
        <ele>744.68</ele>
        <time>2010-10-28T11:46:12Z</time>
      </trkpt>
      <trkpt lat="45.60163" lon="4.58042">
        <ele>745.16</ele>
        <time>2010-10-28T11:46:13Z</time>
      </trkpt>
      <trkpt lat="45.60163" lon="4.5804">
        <ele>745.64</ele>
        <time>2010-10-28T11:46:14Z</time>
      </trkpt>
      <trkpt lat="45.60163" lon="4.58037">
        <ele>745.64</ele>
        <time>2010-10-28T11:46:15Z</time>
      </trkpt>
      <trkpt lat="45.60164" lon="4.58034">
        <ele>746.12</ele>
        <time>2010-10-28T11:46:16Z</time>
      </trkpt>
      <trkpt lat="45.60165" lon="4.58031">
        <ele>748.04</ele>
        <time>2010-10-28T11:46:17Z</time>
      </trkpt>
      <trkpt lat="45.60167" lon="4.58028">
        <ele>747.08</ele>
        <time>2010-10-28T11:46:18Z</time>
      </trkpt>
      <trkpt lat="45.60168" lon="4.58026">
        <ele>745.64</ele>
        <time>2010-10-28T11:46:19Z</time>
      </trkpt>
      <trkpt lat="45.60169" lon="4.58019">
        <ele>748.04</ele>
        <time>2010-10-28T11:46:22Z</time>
      </trkpt>
      <trkpt lat="45.60169" lon="4.58016">
        <ele>748.52</ele>
        <time>2010-10-28T11:46:23Z</time>
      </trkpt>
      <trkpt lat="45.60171" lon="4.58013">
        <ele>748.52</ele>
        <time>2010-10-28T11:46:24Z</time>
      </trkpt>
      <trkpt lat="45.60182" lon="4.57996">
        <ele>752.37</ele>
        <time>2010-10-28T11:46:32Z</time>
      </trkpt>
      <trkpt lat="45.60198" lon="4.5799">
        <ele>754.29</ele>
        <time>2010-10-28T11:46:42Z</time>
      </trkpt>
      <trkpt lat="45.602" lon="4.57989">
        <ele>753.33</ele>
        <time>2010-10-28T11:46:43Z</time>
      </trkpt>
      <trkpt lat="45.60202" lon="4.57987">
        <ele>753.33</ele>
        <time>2010-10-28T11:46:44Z</time>
      </trkpt>
      <trkpt lat="45.60204" lon="4.57985">
        <ele>752.85</ele>
        <time>2010-10-28T11:46:45Z</time>
      </trkpt>
      <trkpt lat="45.60207" lon="4.57982">
        <ele>752.37</ele>
        <time>2010-10-28T11:46:46Z</time>
      </trkpt>
      <trkpt lat="45.6021" lon="4.57977">
        <ele>753.81</ele>
        <time>2010-10-28T11:46:48Z</time>
      </trkpt>
      <trkpt lat="45.60211" lon="4.57974">
        <ele>752.85</ele>
        <time>2010-10-28T11:46:49Z</time>
      </trkpt>
      <trkpt lat="45.60212" lon="4.57972">
        <ele>751.89</ele>
        <time>2010-10-28T11:46:50Z</time>
      </trkpt>
      <trkpt lat="45.60224" lon="4.57948">
        <ele>753.33</ele>
        <time>2010-10-28T11:46:59Z</time>
      </trkpt>
      <trkpt lat="45.60233" lon="4.5792">
        <ele>752.85</ele>
        <time>2010-10-28T11:47:08Z</time>
      </trkpt>
      <trkpt lat="45.60234" lon="4.57917">
        <ele>753.81</ele>
        <time>2010-10-28T11:47:09Z</time>
      </trkpt>
      <trkpt lat="45.60235" lon="4.57914">
        <ele>753.33</ele>
        <time>2010-10-28T11:47:10Z</time>
      </trkpt>
      <trkpt lat="45.60236" lon="4.57911">
        <ele>753.81</ele>
        <time>2010-10-28T11:47:11Z</time>
      </trkpt>
      <trkpt lat="45.60238" lon="4.57907">
        <ele>753.33</ele>
        <time>2010-10-28T11:47:12Z</time>
      </trkpt>
      <trkpt lat="45.60239" lon="4.57904">
        <ele>753.81</ele>
        <time>2010-10-28T11:47:13Z</time>
      </trkpt>
      <trkpt lat="45.6024" lon="4.57902">
        <ele>753.33</ele>
        <time>2010-10-28T11:47:14Z</time>
      </trkpt>
      <trkpt lat="45.6024" lon="4.57899">
        <ele>753.81</ele>
        <time>2010-10-28T11:47:15Z</time>
      </trkpt>
      <trkpt lat="45.60242" lon="4.57884">
        <ele>753.81</ele>
        <time>2010-10-28T11:47:20Z</time>
      </trkpt>
      <trkpt lat="45.60242" lon="4.5788">
        <ele>755.25</ele>
        <time>2010-10-28T11:47:21Z</time>
      </trkpt>
      <trkpt lat="45.60242" lon="4.57877">
        <ele>755.25</ele>
        <time>2010-10-28T11:47:22Z</time>
      </trkpt>
      <trkpt lat="45.60242" lon="4.57874">
        <ele>754.77</ele>
        <time>2010-10-28T11:47:23Z</time>
      </trkpt>
      <trkpt lat="45.60242" lon="4.57871">
        <ele>755.25</ele>
        <time>2010-10-28T11:47:24Z</time>
      </trkpt>
      <trkpt lat="45.60245" lon="4.57852">
        <ele>756.21</ele>
        <time>2010-10-28T11:47:30Z</time>
      </trkpt>
      <trkpt lat="45.60245" lon="4.57849">
        <ele>756.21</ele>
        <time>2010-10-28T11:47:31Z</time>
      </trkpt>
      <trkpt lat="45.60246" lon="4.57846">
        <ele>756.21</ele>
        <time>2010-10-28T11:47:32Z</time>
      </trkpt>
      <trkpt lat="45.60246" lon="4.57843">
        <ele>756.69</ele>
        <time>2010-10-28T11:47:33Z</time>
      </trkpt>
      <trkpt lat="45.60246" lon="4.5784">
        <ele>757.18</ele>
        <time>2010-10-28T11:47:34Z</time>
      </trkpt>
      <trkpt lat="45.60246" lon="4.57836">
        <ele>757.18</ele>
        <time>2010-10-28T11:47:35Z</time>
      </trkpt>
      <trkpt lat="45.60246" lon="4.57823">
        <ele>758.62</ele>
        <time>2010-10-28T11:47:40Z</time>
      </trkpt>
      <trkpt lat="45.60245" lon="4.5782">
        <ele>759.1</ele>
        <time>2010-10-28T11:47:41Z</time>
      </trkpt>
      <trkpt lat="45.60244" lon="4.57817">
        <ele>759.58</ele>
        <time>2010-10-28T11:47:42Z</time>
      </trkpt>
      <trkpt lat="45.60243" lon="4.57814">
        <ele>759.58</ele>
        <time>2010-10-28T11:47:43Z</time>
      </trkpt>
      <trkpt lat="45.60243" lon="4.57811">
        <ele>760.54</ele>
        <time>2010-10-28T11:47:44Z</time>
      </trkpt>
      <trkpt lat="45.60242" lon="4.57807">
        <ele>760.06</ele>
        <time>2010-10-28T11:47:45Z</time>
      </trkpt>
      <trkpt lat="45.60241" lon="4.57803">
        <ele>759.1</ele>
        <time>2010-10-28T11:47:46Z</time>
      </trkpt>
      <trkpt lat="45.60241" lon="4.578">
        <ele>759.58</ele>
        <time>2010-10-28T11:47:47Z</time>
      </trkpt>
      <trkpt lat="45.60242" lon="4.57797">
        <ele>759.58</ele>
        <time>2010-10-28T11:47:48Z</time>
      </trkpt>
      <trkpt lat="45.60244" lon="4.57794">
        <ele>760.06</ele>
        <time>2010-10-28T11:47:49Z</time>
      </trkpt>
      <trkpt lat="45.60244" lon="4.5779">
        <ele>761.5</ele>
        <time>2010-10-28T11:47:50Z</time>
      </trkpt>
      <trkpt lat="45.60244" lon="4.57788">
        <ele>761.02</ele>
        <time>2010-10-28T11:47:51Z</time>
      </trkpt>
      <trkpt lat="45.60244" lon="4.57788">
        <ele>761.5</ele>
        <time>2010-10-28T11:47:55Z</time>
      </trkpt>
      <trkpt lat="45.60245" lon="4.5779">
        <ele>761.02</ele>
        <time>2010-10-28T11:47:56Z</time>
      </trkpt>
      <trkpt lat="45.60245" lon="4.57792">
        <ele>761.02</ele>
        <time>2010-10-28T11:47:58Z</time>
      </trkpt>
      <trkpt lat="45.60245" lon="4.57794">
        <ele>761.02</ele>
        <time>2010-10-28T11:47:59Z</time>
      </trkpt>
      <trkpt lat="45.60246" lon="4.57796">
        <ele>761.5</ele>
        <time>2010-10-28T11:48:00Z</time>
      </trkpt>
      <trkpt lat="45.60246" lon="4.57798">
        <ele>761.02</ele>
        <time>2010-10-28T11:48:01Z</time>
      </trkpt>
      <trkpt lat="45.60248" lon="4.57804">
        <ele>761.5</ele>
        <time>2010-10-28T11:48:04Z</time>
      </trkpt>
      <trkpt lat="45.60248" lon="4.57806">
        <ele>761.5</ele>
        <time>2010-10-28T11:48:05Z</time>
      </trkpt>
      <trkpt lat="45.6025" lon="4.57812">
        <ele>761.98</ele>
        <time>2010-10-28T11:48:15Z</time>
      </trkpt>
      <trkpt lat="45.6025" lon="4.57814">
        <ele>761.5</ele>
        <time>2010-10-28T11:48:35Z</time>
      </trkpt>
      <trkpt lat="45.60253" lon="4.57821">
        <ele>761.98</ele>
        <time>2010-10-28T11:48:40Z</time>
      </trkpt>
      <trkpt lat="45.60255" lon="4.57824">
        <ele>761.5</ele>
        <time>2010-10-28T11:48:43Z</time>
      </trkpt>
      <trkpt lat="45.60263" lon="4.57839">
        <ele>761.5</ele>
        <time>2010-10-28T11:48:50Z</time>
      </trkpt>
      <trkpt lat="45.60276" lon="4.57877">
        <ele>761.02</ele>
        <time>2010-10-28T11:49:01Z</time>
      </trkpt>
      <trkpt lat="45.6029" lon="4.57907">
        <ele>762.46</ele>
        <time>2010-10-28T11:49:11Z</time>
      </trkpt>
      <trkpt lat="45.60297" lon="4.57926">
        <ele>762.94</ele>
        <time>2010-10-28T11:49:17Z</time>
      </trkpt>
      <trkpt lat="45.60299" lon="4.57933">
        <ele>763.42</ele>
        <time>2010-10-28T11:49:19Z</time>
      </trkpt>
      <trkpt lat="45.60308" lon="4.57961">
        <ele>763.42</ele>
        <time>2010-10-28T11:49:28Z</time>
      </trkpt>
      <trkpt lat="45.60311" lon="4.57975">
        <ele>763.42</ele>
        <time>2010-10-28T11:49:32Z</time>
      </trkpt>
      <trkpt lat="45.60316" lon="4.58004">
        <ele>764.39</ele>
        <time>2010-10-28T11:49:41Z</time>
      </trkpt>
      <trkpt lat="45.6032" lon="4.58015">
        <ele>765.83</ele>
        <time>2010-10-28T11:49:45Z</time>
      </trkpt>
      <trkpt lat="45.60325" lon="4.5803">
        <ele>766.79</ele>
        <time>2010-10-28T11:49:51Z</time>
      </trkpt>
      <trkpt lat="45.60328" lon="4.58036">
        <ele>767.75</ele>
        <time>2010-10-28T11:49:53Z</time>
      </trkpt>
      <trkpt lat="45.60334" lon="4.58063">
        <ele>768.71</ele>
        <time>2010-10-28T11:50:02Z</time>
      </trkpt>
      <trkpt lat="45.60338" lon="4.58079">
        <ele>769.19</ele>
        <time>2010-10-28T11:50:07Z</time>
      </trkpt>
      <trkpt lat="45.60343" lon="4.58091">
        <ele>769.67</ele>
        <time>2010-10-28T11:50:11Z</time>
      </trkpt>
      <trkpt lat="45.60351" lon="4.58111">
        <ele>770.15</ele>
        <time>2010-10-28T11:50:17Z</time>
      </trkpt>
      <trkpt lat="45.6036" lon="4.58141">
        <ele>771.11</ele>
        <time>2010-10-28T11:50:27Z</time>
      </trkpt>
      <trkpt lat="45.60364" lon="4.58164">
        <ele>771.11</ele>
        <time>2010-10-28T11:50:33Z</time>
      </trkpt>
      <trkpt lat="45.60368" lon="4.58196">
        <ele>770.63</ele>
        <time>2010-10-28T11:50:42Z</time>
      </trkpt>
      <trkpt lat="45.60376" lon="4.58228">
        <ele>770.63</ele>
        <time>2010-10-28T11:50:51Z</time>
      </trkpt>
      <trkpt lat="45.60384" lon="4.58267">
        <ele>769.67</ele>
        <time>2010-10-28T11:51:02Z</time>
      </trkpt>
      <trkpt lat="45.60387" lon="4.58283">
        <ele>769.19</ele>
        <time>2010-10-28T11:51:07Z</time>
      </trkpt>
      <trkpt lat="45.60395" lon="4.58297">
        <ele>770.15</ele>
        <time>2010-10-28T11:51:11Z</time>
      </trkpt>
      <trkpt lat="45.60406" lon="4.58315">
        <ele>770.15</ele>
        <time>2010-10-28T11:51:17Z</time>
      </trkpt>
      <trkpt lat="45.60414" lon="4.58327">
        <ele>770.15</ele>
        <time>2010-10-28T11:51:22Z</time>
      </trkpt>
      <trkpt lat="45.60422" lon="4.58343">
        <ele>770.63</ele>
        <time>2010-10-28T11:51:27Z</time>
      </trkpt>
      <trkpt lat="45.60424" lon="4.58367">
        <ele>771.6</ele>
        <time>2010-10-28T11:51:33Z</time>
      </trkpt>
      <trkpt lat="45.60433" lon="4.58388">
        <ele>771.6</ele>
        <time>2010-10-28T11:51:40Z</time>
      </trkpt>
      <trkpt lat="45.60447" lon="4.58412">
        <ele>772.08</ele>
        <time>2010-10-28T11:51:49Z</time>
      </trkpt>
      <trkpt lat="45.60452" lon="4.58424">
        <ele>773.52</ele>
        <time>2010-10-28T11:51:53Z</time>
      </trkpt>
      <trkpt lat="45.60461" lon="4.58445">
        <ele>774</ele>
        <time>2010-10-28T11:52:00Z</time>
      </trkpt>
      <trkpt lat="45.60463" lon="4.58451">
        <ele>773.04</ele>
        <time>2010-10-28T11:52:02Z</time>
      </trkpt>
      <trkpt lat="45.60471" lon="4.58468">
        <ele>774.48</ele>
        <time>2010-10-28T11:52:09Z</time>
      </trkpt>
      <trkpt lat="45.60473" lon="4.58473">
        <ele>774.96</ele>
        <time>2010-10-28T11:52:11Z</time>
      </trkpt>
      <trkpt lat="45.6048" lon="4.58505">
        <ele>775.44</ele>
        <time>2010-10-28T11:52:20Z</time>
      </trkpt>
      <trkpt lat="45.60487" lon="4.58527">
        <ele>775.92</ele>
        <time>2010-10-28T11:52:27Z</time>
      </trkpt>
      <trkpt lat="45.60496" lon="4.58554">
        <ele>775.92</ele>
        <time>2010-10-28T11:52:35Z</time>
      </trkpt>
      <trkpt lat="45.60502" lon="4.58572">
        <ele>775.92</ele>
        <time>2010-10-28T11:52:41Z</time>
      </trkpt>
      <trkpt lat="45.60505" lon="4.58578">
        <ele>776.88</ele>
        <time>2010-10-28T11:52:43Z</time>
      </trkpt>
      <trkpt lat="45.6051" lon="4.58594">
        <ele>776.88</ele>
        <time>2010-10-28T11:52:48Z</time>
      </trkpt>
      <trkpt lat="45.60512" lon="4.58604">
        <ele>777.84</ele>
        <time>2010-10-28T11:52:51Z</time>
      </trkpt>
      <trkpt lat="45.60514" lon="4.58615">
        <ele>778.32</ele>
        <time>2010-10-28T11:52:54Z</time>
      </trkpt>
      <trkpt lat="45.60519" lon="4.58631">
        <ele>778.32</ele>
        <time>2010-10-28T11:52:59Z</time>
      </trkpt>
      <trkpt lat="45.60524" lon="4.58647">
        <ele>779.29</ele>
        <time>2010-10-28T11:53:04Z</time>
      </trkpt>
      <trkpt lat="45.6054" lon="4.58672">
        <ele>780.25</ele>
        <time>2010-10-28T11:53:13Z</time>
      </trkpt>
      <trkpt lat="45.60553" lon="4.58691">
        <ele>780.73</ele>
        <time>2010-10-28T11:53:21Z</time>
      </trkpt>
      <trkpt lat="45.60562" lon="4.58699">
        <ele>781.21</ele>
        <time>2010-10-28T11:53:25Z</time>
      </trkpt>
      <trkpt lat="45.60566" lon="4.58703">
        <ele>782.65</ele>
        <time>2010-10-28T11:53:27Z</time>
      </trkpt>
      <trkpt lat="45.60574" lon="4.5871">
        <ele>781.21</ele>
        <time>2010-10-28T11:53:31Z</time>
      </trkpt>
      <trkpt lat="45.60592" lon="4.58725">
        <ele>782.17</ele>
        <time>2010-10-28T11:53:40Z</time>
      </trkpt>
      <trkpt lat="45.60608" lon="4.58743">
        <ele>782.17</ele>
        <time>2010-10-28T11:53:48Z</time>
      </trkpt>
      <trkpt lat="45.60612" lon="4.58747">
        <ele>783.13</ele>
        <time>2010-10-28T11:53:50Z</time>
      </trkpt>
      <trkpt lat="45.60625" lon="4.58757">
        <ele>782.65</ele>
        <time>2010-10-28T11:53:56Z</time>
      </trkpt>
      <trkpt lat="45.60648" lon="4.58782">
        <ele>783.13</ele>
        <time>2010-10-28T11:54:08Z</time>
      </trkpt>
      <trkpt lat="45.6066" lon="4.5881">
        <ele>781.21</ele>
        <time>2010-10-28T11:54:17Z</time>
      </trkpt>
      <trkpt lat="45.60673" lon="4.58841">
        <ele>779.29</ele>
        <time>2010-10-28T11:54:26Z</time>
      </trkpt>
      <trkpt lat="45.60678" lon="4.58855">
        <ele>778.32</ele>
        <time>2010-10-28T11:54:30Z</time>
      </trkpt>
      <trkpt lat="45.60689" lon="4.58885">
        <ele>777.84</ele>
        <time>2010-10-28T11:54:39Z</time>
      </trkpt>
      <trkpt lat="45.60705" lon="4.58912">
        <ele>775.44</ele>
        <time>2010-10-28T11:54:48Z</time>
      </trkpt>
      <trkpt lat="45.60728" lon="4.58939">
        <ele>772.56</ele>
        <time>2010-10-28T11:54:59Z</time>
      </trkpt>
      <trkpt lat="45.60749" lon="4.58961">
        <ele>770.63</ele>
        <time>2010-10-28T11:55:08Z</time>
      </trkpt>
      <trkpt lat="45.60774" lon="4.58983">
        <ele>769.19</ele>
        <time>2010-10-28T11:55:18Z</time>
      </trkpt>
      <trkpt lat="45.60794" lon="4.58994">
        <ele>766.79</ele>
        <time>2010-10-28T11:55:26Z</time>
      </trkpt>
      <trkpt lat="45.60811" lon="4.58996">
        <ele>769.19</ele>
        <time>2010-10-28T11:55:33Z</time>
      </trkpt>
      <trkpt lat="45.60837" lon="4.59013">
        <ele>769.19</ele>
        <time>2010-10-28T11:55:44Z</time>
      </trkpt>
      <trkpt lat="45.60854" lon="4.59036">
        <ele>772.56</ele>
        <time>2010-10-28T11:55:53Z</time>
      </trkpt>
      <trkpt lat="45.60869" lon="4.59064">
        <ele>774</ele>
        <time>2010-10-28T11:56:03Z</time>
      </trkpt>
      <trkpt lat="45.60873" lon="4.59079">
        <ele>776.4</ele>
        <time>2010-10-28T11:56:08Z</time>
      </trkpt>
      <trkpt lat="45.60874" lon="4.59083">
        <ele>775.44</ele>
        <time>2010-10-28T11:56:09Z</time>
      </trkpt>
      <trkpt lat="45.60879" lon="4.591">
        <ele>776.4</ele>
        <time>2010-10-28T11:56:14Z</time>
      </trkpt>
      <trkpt lat="45.60886" lon="4.5912">
        <ele>776.4</ele>
        <time>2010-10-28T11:56:20Z</time>
      </trkpt>
      <trkpt lat="45.60889" lon="4.5913">
        <ele>778.32</ele>
        <time>2010-10-28T11:56:23Z</time>
      </trkpt>
      <trkpt lat="45.60893" lon="4.59147">
        <ele>776.4</ele>
        <time>2010-10-28T11:56:28Z</time>
      </trkpt>
      <trkpt lat="45.60897" lon="4.59185">
        <ele>777.36</ele>
        <time>2010-10-28T11:56:39Z</time>
      </trkpt>
      <trkpt lat="45.60894" lon="4.59216">
        <ele>775.44</ele>
        <time>2010-10-28T11:56:48Z</time>
      </trkpt>
      <trkpt lat="45.60891" lon="4.5924">
        <ele>774</ele>
        <time>2010-10-28T11:56:54Z</time>
      </trkpt>
      <trkpt lat="45.60889" lon="4.59264">
        <ele>773.52</ele>
        <time>2010-10-28T11:57:00Z</time>
      </trkpt>
      <trkpt lat="45.60888" lon="4.5928">
        <ele>771.6</ele>
        <time>2010-10-28T11:57:04Z</time>
      </trkpt>
      <trkpt lat="45.60888" lon="4.59292">
        <ele>772.08</ele>
        <time>2010-10-28T11:57:07Z</time>
      </trkpt>
      <trkpt lat="45.60884" lon="4.59332">
        <ele>770.63</ele>
        <time>2010-10-28T11:57:17Z</time>
      </trkpt>
      <trkpt lat="45.60884" lon="4.59344">
        <ele>772.08</ele>
        <time>2010-10-28T11:57:20Z</time>
      </trkpt>
      <trkpt lat="45.60881" lon="4.59371">
        <ele>772.56</ele>
        <time>2010-10-28T11:57:27Z</time>
      </trkpt>
      <trkpt lat="45.60874" lon="4.59404">
        <ele>772.08</ele>
        <time>2010-10-28T11:57:36Z</time>
      </trkpt>
      <trkpt lat="45.60867" lon="4.59441">
        <ele>772.56</ele>
        <time>2010-10-28T11:57:46Z</time>
      </trkpt>
      <trkpt lat="45.60866" lon="4.59473">
        <ele>771.11</ele>
        <time>2010-10-28T11:57:55Z</time>
      </trkpt>
      <trkpt lat="45.60868" lon="4.59492">
        <ele>773.52</ele>
        <time>2010-10-28T11:58:00Z</time>
      </trkpt>
      <trkpt lat="45.6087" lon="4.5951">
        <ele>772.08</ele>
        <time>2010-10-28T11:58:05Z</time>
      </trkpt>
      <trkpt lat="45.60876" lon="4.59537">
        <ele>772.08</ele>
        <time>2010-10-28T11:58:12Z</time>
      </trkpt>
      <trkpt lat="45.60878" lon="4.59555">
        <ele>772.08</ele>
        <time>2010-10-28T11:58:19Z</time>
      </trkpt>
      <trkpt lat="45.60891" lon="4.59583">
        <ele>773.04</ele>
        <time>2010-10-28T11:58:29Z</time>
      </trkpt>
      <trkpt lat="45.60906" lon="4.59608">
        <ele>772.08</ele>
        <time>2010-10-28T11:58:38Z</time>
      </trkpt>
      <trkpt lat="45.60932" lon="4.5963">
        <ele>773.04</ele>
        <time>2010-10-28T11:58:49Z</time>
      </trkpt>
      <trkpt lat="45.60934" lon="4.59634">
        <ele>773.04</ele>
        <time>2010-10-28T11:58:52Z</time>
      </trkpt>
      <trkpt lat="45.60943" lon="4.59667">
        <ele>769.67</ele>
        <time>2010-10-28T11:59:02Z</time>
      </trkpt>
      <trkpt lat="45.60955" lon="4.59691">
        <ele>769.67</ele>
        <time>2010-10-28T11:59:10Z</time>
      </trkpt>
      <trkpt lat="45.60961" lon="4.59708">
        <ele>768.23</ele>
        <time>2010-10-28T11:59:15Z</time>
      </trkpt>
      <trkpt lat="45.60967" lon="4.59715">
        <ele>768.23</ele>
        <time>2010-10-28T11:59:18Z</time>
      </trkpt>
      <trkpt lat="45.60978" lon="4.5975">
        <ele>766.31</ele>
        <time>2010-10-28T11:59:27Z</time>
      </trkpt>
      <trkpt lat="45.60979" lon="4.59754">
        <ele>766.31</ele>
        <time>2010-10-28T11:59:28Z</time>
      </trkpt>
      <trkpt lat="45.60982" lon="4.59761">
        <ele>765.35</ele>
        <time>2010-10-28T11:59:30Z</time>
      </trkpt>
      <trkpt lat="45.60992" lon="4.5977">
        <ele>763.9</ele>
        <time>2010-10-28T11:59:34Z</time>
      </trkpt>
      <trkpt lat="45.61" lon="4.59775">
        <ele>762.94</ele>
        <time>2010-10-28T11:59:37Z</time>
      </trkpt>
      <trkpt lat="45.61024" lon="4.5978">
        <ele>759.1</ele>
        <time>2010-10-28T11:59:46Z</time>
      </trkpt>
      <trkpt lat="45.61028" lon="4.59799">
        <ele>759.1</ele>
        <time>2010-10-28T11:59:51Z</time>
      </trkpt>
      <trkpt lat="45.61024" lon="4.59818">
        <ele>758.14</ele>
        <time>2010-10-28T11:59:56Z</time>
      </trkpt>
      <trkpt lat="45.61016" lon="4.59865">
        <ele>757.18</ele>
        <time>2010-10-28T12:00:07Z</time>
      </trkpt>
      <trkpt lat="45.61011" lon="4.59892">
        <ele>759.1</ele>
        <time>2010-10-28T12:00:14Z</time>
      </trkpt>
      <trkpt lat="45.61023" lon="4.59921">
        <ele>760.54</ele>
        <time>2010-10-28T12:00:23Z</time>
      </trkpt>
      <trkpt lat="45.61031" lon="4.59942">
        <ele>762.46</ele>
        <time>2010-10-28T12:00:30Z</time>
      </trkpt>
      <trkpt lat="45.61038" lon="4.59952">
        <ele>763.42</ele>
        <time>2010-10-28T12:00:34Z</time>
      </trkpt>
      <trkpt lat="45.61039" lon="4.59955">
        <ele>763.42</ele>
        <time>2010-10-28T12:00:35Z</time>
      </trkpt>
      <trkpt lat="45.61046" lon="4.59964">
        <ele>763.9</ele>
        <time>2010-10-28T12:00:39Z</time>
      </trkpt>
      <trkpt lat="45.6106" lon="4.59986">
        <ele>764.39</ele>
        <time>2010-10-28T12:00:48Z</time>
      </trkpt>
      <trkpt lat="45.61072" lon="4.60001">
        <ele>763.42</ele>
        <time>2010-10-28T12:00:54Z</time>
      </trkpt>
      <trkpt lat="45.61098" lon="4.60024">
        <ele>763.42</ele>
        <time>2010-10-28T12:01:05Z</time>
      </trkpt>
      <trkpt lat="45.61122" lon="4.6004">
        <ele>762.46</ele>
        <time>2010-10-28T12:01:16Z</time>
      </trkpt>
      <trkpt lat="45.61144" lon="4.60048">
        <ele>759.58</ele>
        <time>2010-10-28T12:01:24Z</time>
      </trkpt>
      <trkpt lat="45.61147" lon="4.6005">
        <ele>759.58</ele>
        <time>2010-10-28T12:01:26Z</time>
      </trkpt>
      <trkpt lat="45.61161" lon="4.60054">
        <ele>757.18</ele>
        <time>2010-10-28T12:01:32Z</time>
      </trkpt>
      <trkpt lat="45.61167" lon="4.6006">
        <ele>755.73</ele>
        <time>2010-10-28T12:01:35Z</time>
      </trkpt>
      <trkpt lat="45.61174" lon="4.6008">
        <ele>756.69</ele>
        <time>2010-10-28T12:01:40Z</time>
      </trkpt>
      <trkpt lat="45.61176" lon="4.60087">
        <ele>756.21</ele>
        <time>2010-10-28T12:01:42Z</time>
      </trkpt>
      <trkpt lat="45.61178" lon="4.60095">
        <ele>756.21</ele>
        <time>2010-10-28T12:01:44Z</time>
      </trkpt>
      <trkpt lat="45.61179" lon="4.60112">
        <ele>755.25</ele>
        <time>2010-10-28T12:01:48Z</time>
      </trkpt>
      <trkpt lat="45.61186" lon="4.60137">
        <ele>751.41</ele>
        <time>2010-10-28T12:01:55Z</time>
      </trkpt>
      <trkpt lat="45.61192" lon="4.60178">
        <ele>749</ele>
        <time>2010-10-28T12:02:05Z</time>
      </trkpt>
      <trkpt lat="45.61196" lon="4.60214">
        <ele>748.04</ele>
        <time>2010-10-28T12:02:13Z</time>
      </trkpt>
      <trkpt lat="45.61199" lon="4.60223">
        <ele>746.12</ele>
        <time>2010-10-28T12:02:15Z</time>
      </trkpt>
      <trkpt lat="45.61205" lon="4.60242">
        <ele>745.64</ele>
        <time>2010-10-28T12:02:20Z</time>
      </trkpt>
      <trkpt lat="45.61207" lon="4.60248">
        <ele>745.16</ele>
        <time>2010-10-28T12:02:22Z</time>
      </trkpt>
      <trkpt lat="45.6121" lon="4.60272">
        <ele>743.24</ele>
        <time>2010-10-28T12:02:29Z</time>
      </trkpt>
      <trkpt lat="45.61229" lon="4.60297">
        <ele>743.24</ele>
        <time>2010-10-28T12:02:39Z</time>
      </trkpt>
      <trkpt lat="45.61232" lon="4.60302">
        <ele>743.72</ele>
        <time>2010-10-28T12:02:41Z</time>
      </trkpt>
      <trkpt lat="45.61237" lon="4.60313">
        <ele>743.72</ele>
        <time>2010-10-28T12:02:45Z</time>
      </trkpt>
      <trkpt lat="45.61242" lon="4.60323">
        <ele>742.76</ele>
        <time>2010-10-28T12:02:48Z</time>
      </trkpt>
      <trkpt lat="45.61251" lon="4.60336">
        <ele>742.76</ele>
        <time>2010-10-28T12:02:53Z</time>
      </trkpt>
      <trkpt lat="45.61277" lon="4.60356">
        <ele>742.28</ele>
        <time>2010-10-28T12:03:04Z</time>
      </trkpt>
      <trkpt lat="45.61287" lon="4.60365">
        <ele>742.28</ele>
        <time>2010-10-28T12:03:09Z</time>
      </trkpt>
      <trkpt lat="45.61294" lon="4.60392">
        <ele>745.64</ele>
        <time>2010-10-28T12:03:19Z</time>
      </trkpt>
      <trkpt lat="45.61294" lon="4.60394">
        <ele>744.68</ele>
        <time>2010-10-28T12:03:20Z</time>
      </trkpt>
      <trkpt lat="45.61295" lon="4.60427">
        <ele>744.2</ele>
        <time>2010-10-28T12:03:29Z</time>
      </trkpt>
      <trkpt lat="45.61301" lon="4.60466">
        <ele>744.2</ele>
        <time>2010-10-28T12:03:38Z</time>
      </trkpt>
      <trkpt lat="45.61302" lon="4.60492">
        <ele>746.12</ele>
        <time>2010-10-28T12:03:45Z</time>
      </trkpt>
      <trkpt lat="45.61303" lon="4.60498">
        <ele>745.64</ele>
        <time>2010-10-28T12:03:47Z</time>
      </trkpt>
      <trkpt lat="45.61312" lon="4.60517">
        <ele>748.04</ele>
        <time>2010-10-28T12:03:54Z</time>
      </trkpt>
      <trkpt lat="45.61317" lon="4.60536">
        <ele>749</ele>
        <time>2010-10-28T12:04:00Z</time>
      </trkpt>
      <trkpt lat="45.61332" lon="4.60552">
        <ele>746.6</ele>
        <time>2010-10-28T12:04:08Z</time>
      </trkpt>
      <trkpt lat="45.61354" lon="4.60572">
        <ele>745.64</ele>
        <time>2010-10-28T12:04:19Z</time>
      </trkpt>
      <trkpt lat="45.61356" lon="4.60572">
        <ele>745.64</ele>
        <time>2010-10-28T12:04:20Z</time>
      </trkpt>
      <trkpt lat="45.61381" lon="4.60577">
        <ele>747.08</ele>
        <time>2010-10-28T12:04:32Z</time>
      </trkpt>
      <trkpt lat="45.61386" lon="4.6058">
        <ele>748.04</ele>
        <time>2010-10-28T12:04:35Z</time>
      </trkpt>
      <trkpt lat="45.61413" lon="4.60581">
        <ele>749</ele>
        <time>2010-10-28T12:04:45Z</time>
      </trkpt>
      <trkpt lat="45.61433" lon="4.60585">
        <ele>747.08</ele>
        <time>2010-10-28T12:04:53Z</time>
      </trkpt>
      <trkpt lat="45.61455" lon="4.60575">
        <ele>746.12</ele>
        <time>2010-10-28T12:05:05Z</time>
      </trkpt>
      <trkpt lat="45.61457" lon="4.60575">
        <ele>746.12</ele>
        <time>2010-10-28T12:05:06Z</time>
      </trkpt>
      <trkpt lat="45.61474" lon="4.60576">
        <ele>746.6</ele>
        <time>2010-10-28T12:05:11Z</time>
      </trkpt>
      <trkpt lat="45.61491" lon="4.60583">
        <ele>747.56</ele>
        <time>2010-10-28T12:05:17Z</time>
      </trkpt>
      <trkpt lat="45.6151" lon="4.60607">
        <ele>748.04</ele>
        <time>2010-10-28T12:05:25Z</time>
      </trkpt>
      <trkpt lat="45.61523" lon="4.60617">
        <ele>747.56</ele>
        <time>2010-10-28T12:05:32Z</time>
      </trkpt>
      <trkpt lat="45.61527" lon="4.60622">
        <ele>746.12</ele>
        <time>2010-10-28T12:05:34Z</time>
      </trkpt>
      <trkpt lat="45.61535" lon="4.60627">
        <ele>745.64</ele>
        <time>2010-10-28T12:05:38Z</time>
      </trkpt>
      <trkpt lat="45.6154" lon="4.60629">
        <ele>744.68</ele>
        <time>2010-10-28T12:05:41Z</time>
      </trkpt>
      <trkpt lat="45.61565" lon="4.60644">
        <ele>742.28</ele>
        <time>2010-10-28T12:05:52Z</time>
      </trkpt>
      <trkpt lat="45.61584" lon="4.6067">
        <ele>741.31</ele>
        <time>2010-10-28T12:06:02Z</time>
      </trkpt>
      <trkpt lat="45.61604" lon="4.60699">
        <ele>739.39</ele>
        <time>2010-10-28T12:06:12Z</time>
      </trkpt>
      <trkpt lat="45.61607" lon="4.60702">
        <ele>738.91</ele>
        <time>2010-10-28T12:06:14Z</time>
      </trkpt>
      <trkpt lat="45.61615" lon="4.60712">
        <ele>738.91</ele>
        <time>2010-10-28T12:06:18Z</time>
      </trkpt>
      <trkpt lat="45.61634" lon="4.60734">
        <ele>739.39</ele>
        <time>2010-10-28T12:06:27Z</time>
      </trkpt>
      <trkpt lat="45.61639" lon="4.6074">
        <ele>739.87</ele>
        <time>2010-10-28T12:06:29Z</time>
      </trkpt>
      <trkpt lat="45.61663" lon="4.60764">
        <ele>737.95</ele>
        <time>2010-10-28T12:06:40Z</time>
      </trkpt>
      <trkpt lat="45.61667" lon="4.60763">
        <ele>737.95</ele>
        <time>2010-10-28T12:06:42Z</time>
      </trkpt>
      <trkpt lat="45.61673" lon="4.60762">
        <ele>740.83</ele>
        <time>2010-10-28T12:06:48Z</time>
      </trkpt>
      <trkpt lat="45.61685" lon="4.60759">
        <ele>741.79</ele>
        <time>2010-10-28T12:06:57Z</time>
      </trkpt>
      <trkpt lat="45.61693" lon="4.60747">
        <ele>744.2</ele>
        <time>2010-10-28T12:07:08Z</time>
      </trkpt>
      <trkpt lat="45.61711" lon="4.60738">
        <ele>746.6</ele>
        <time>2010-10-28T12:07:16Z</time>
      </trkpt>
      <trkpt lat="45.61736" lon="4.60744">
        <ele>749</ele>
        <time>2010-10-28T12:07:26Z</time>
      </trkpt>
      <trkpt lat="45.61774" lon="4.60752">
        <ele>751.41</ele>
        <time>2010-10-28T12:07:35Z</time>
      </trkpt>
      <trkpt lat="45.61779" lon="4.60753">
        <ele>751.41</ele>
        <time>2010-10-28T12:07:36Z</time>
      </trkpt>
      <trkpt lat="45.61801" lon="4.60755">
        <ele>754.77</ele>
        <time>2010-10-28T12:07:43Z</time>
      </trkpt>
      <trkpt lat="45.6181" lon="4.60754">
        <ele>755.25</ele>
        <time>2010-10-28T12:07:47Z</time>
      </trkpt>
      <trkpt lat="45.61815" lon="4.6075">
        <ele>756.69</ele>
        <time>2010-10-28T12:07:51Z</time>
      </trkpt>
      <trkpt lat="45.6182" lon="4.60745">
        <ele>758.62</ele>
        <time>2010-10-28T12:07:55Z</time>
      </trkpt>
      <trkpt lat="45.6183" lon="4.60732">
        <ele>761.5</ele>
        <time>2010-10-28T12:08:02Z</time>
      </trkpt>
      <trkpt lat="45.61837" lon="4.60725">
        <ele>761.98</ele>
        <time>2010-10-28T12:08:08Z</time>
      </trkpt>
      <trkpt lat="45.61853" lon="4.60726">
        <ele>761.02</ele>
        <time>2010-10-28T12:08:18Z</time>
      </trkpt>
      <trkpt lat="45.61866" lon="4.60726">
        <ele>760.06</ele>
        <time>2010-10-28T12:08:35Z</time>
      </trkpt>
      <trkpt lat="45.61871" lon="4.60728">
        <ele>757.66</ele>
        <time>2010-10-28T12:08:45Z</time>
      </trkpt>
      <trkpt lat="45.61873" lon="4.60729">
        <ele>757.18</ele>
        <time>2010-10-28T12:08:47Z</time>
      </trkpt>
      <trkpt lat="45.61874" lon="4.60731">
        <ele>755.73</ele>
        <time>2010-10-28T12:08:52Z</time>
      </trkpt>
      <trkpt lat="45.61878" lon="4.60737">
        <ele>752.37</ele>
        <time>2010-10-28T12:09:08Z</time>
      </trkpt>
      <trkpt lat="45.61878" lon="4.60737">
        <ele>752.37</ele>
        <time>2010-10-28T12:09:09Z</time>
      </trkpt>
      <trkpt lat="45.6188" lon="4.6074">
        <ele>750.45</ele>
        <time>2010-10-28T12:09:12Z</time>
      </trkpt>
      <trkpt lat="45.61884" lon="4.60747">
        <ele>746.6</ele>
        <time>2010-10-28T12:09:17Z</time>
      </trkpt>
      <trkpt lat="45.61886" lon="4.60752">
        <ele>745.16</ele>
        <time>2010-10-28T12:09:19Z</time>
      </trkpt>
      <trkpt lat="45.61891" lon="4.60761">
        <ele>742.76</ele>
        <time>2010-10-28T12:09:24Z</time>
      </trkpt>
      <trkpt lat="45.61891" lon="4.60764">
        <ele>739.39</ele>
        <time>2010-10-28T12:09:30Z</time>
      </trkpt>
      <trkpt lat="45.61891" lon="4.60766">
        <ele>736.03</ele>
        <time>2010-10-28T12:09:44Z</time>
      </trkpt>
      <trkpt lat="45.61896" lon="4.60781">
        <ele>734.1</ele>
        <time>2010-10-28T12:09:54Z</time>
      </trkpt>
      <trkpt lat="45.61898" lon="4.60782">
        <ele>733.62</ele>
        <time>2010-10-28T12:09:55Z</time>
      </trkpt>
      <trkpt lat="45.61904" lon="4.60783">
        <ele>732.18</ele>
        <time>2010-10-28T12:09:58Z</time>
      </trkpt>
      <trkpt lat="45.61908" lon="4.60784">
        <ele>732.66</ele>
        <time>2010-10-28T12:10:00Z</time>
      </trkpt>
      <trkpt lat="45.61919" lon="4.60796">
        <ele>729.78</ele>
        <time>2010-10-28T12:10:06Z</time>
      </trkpt>
      <trkpt lat="45.61936" lon="4.60809">
        <ele>726.41</ele>
        <time>2010-10-28T12:10:18Z</time>
      </trkpt>
      <trkpt lat="45.61942" lon="4.60815">
        <ele>723.53</ele>
        <time>2010-10-28T12:10:30Z</time>
      </trkpt>
      <trkpt lat="45.61949" lon="4.60816">
        <ele>722.09</ele>
        <time>2010-10-28T12:10:34Z</time>
      </trkpt>
      <trkpt lat="45.61958" lon="4.60819">
        <ele>721.13</ele>
        <time>2010-10-28T12:10:37Z</time>
      </trkpt>
      <trkpt lat="45.61965" lon="4.60823">
        <ele>719.68</ele>
        <time>2010-10-28T12:10:40Z</time>
      </trkpt>
      <trkpt lat="45.61984" lon="4.6083">
        <ele>717.28</ele>
        <time>2010-10-28T12:10:50Z</time>
      </trkpt>
      <trkpt lat="45.61985" lon="4.60833">
        <ele>715.84</ele>
        <time>2010-10-28T12:11:02Z</time>
      </trkpt>
      <trkpt lat="45.61986" lon="4.60837">
        <ele>713.92</ele>
        <time>2010-10-28T12:11:04Z</time>
      </trkpt>
      <trkpt lat="45.6199" lon="4.60839">
        <ele>712.47</ele>
        <time>2010-10-28T12:11:07Z</time>
      </trkpt>
      <trkpt lat="45.61997" lon="4.60842">
        <ele>710.55</ele>
        <time>2010-10-28T12:11:10Z</time>
      </trkpt>
      <trkpt lat="45.62" lon="4.60843">
        <ele>710.07</ele>
        <time>2010-10-28T12:11:11Z</time>
      </trkpt>
      <trkpt lat="45.62009" lon="4.60843">
        <ele>709.11</ele>
        <time>2010-10-28T12:11:14Z</time>
      </trkpt>
      <trkpt lat="45.62029" lon="4.60844">
        <ele>707.67</ele>
        <time>2010-10-28T12:11:23Z</time>
      </trkpt>
      <trkpt lat="45.62051" lon="4.60852">
        <ele>706.71</ele>
        <time>2010-10-28T12:11:30Z</time>
      </trkpt>
      <trkpt lat="45.6205" lon="4.60856">
        <ele>705.75</ele>
        <time>2010-10-28T12:11:33Z</time>
      </trkpt>
      <trkpt lat="45.62051" lon="4.60862">
        <ele>704.3</ele>
        <time>2010-10-28T12:11:36Z</time>
      </trkpt>
      <trkpt lat="45.62051" lon="4.60871">
        <ele>702.38</ele>
        <time>2010-10-28T12:11:40Z</time>
      </trkpt>
      <trkpt lat="45.62047" lon="4.60877">
        <ele>700.94</ele>
        <time>2010-10-28T12:11:43Z</time>
      </trkpt>
      <trkpt lat="45.62043" lon="4.60882">
        <ele>699.5</ele>
        <time>2010-10-28T12:11:46Z</time>
      </trkpt>
      <trkpt lat="45.62044" lon="4.6089">
        <ele>699.98</ele>
        <time>2010-10-28T12:12:06Z</time>
      </trkpt>
      <trkpt lat="45.62045" lon="4.60892">
        <ele>699.98</ele>
        <time>2010-10-28T12:12:37Z</time>
      </trkpt>
      <trkpt lat="45.62047" lon="4.6091">
        <ele>698.05</ele>
        <time>2010-10-28T12:13:15Z</time>
      </trkpt>
      <trkpt lat="45.62046" lon="4.60919">
        <ele>696.61</ele>
        <time>2010-10-28T12:13:19Z</time>
      </trkpt>
      <trkpt lat="45.62042" lon="4.60923">
        <ele>695.17</ele>
        <time>2010-10-28T12:13:22Z</time>
      </trkpt>
      <trkpt lat="45.62037" lon="4.60929">
        <ele>694.21</ele>
        <time>2010-10-28T12:13:27Z</time>
      </trkpt>
      <trkpt lat="45.62029" lon="4.60976">
        <ele>691.33</ele>
        <time>2010-10-28T12:13:39Z</time>
      </trkpt>
      <trkpt lat="45.62026" lon="4.60984">
        <ele>691.81</ele>
        <time>2010-10-28T12:13:41Z</time>
      </trkpt>
      <trkpt lat="45.62016" lon="4.61017">
        <ele>689.88</ele>
        <time>2010-10-28T12:13:51Z</time>
      </trkpt>
      <trkpt lat="45.62012" lon="4.61033">
        <ele>687.96</ele>
        <time>2010-10-28T12:13:57Z</time>
      </trkpt>
      <trkpt lat="45.62008" lon="4.6105">
        <ele>687</ele>
        <time>2010-10-28T12:14:01Z</time>
      </trkpt>
      <trkpt lat="45.62005" lon="4.61069">
        <ele>684.12</ele>
        <time>2010-10-28T12:14:06Z</time>
      </trkpt>
      <trkpt lat="45.61997" lon="4.61092">
        <ele>682.19</ele>
        <time>2010-10-28T12:14:13Z</time>
      </trkpt>
      <trkpt lat="45.61996" lon="4.61111">
        <ele>679.31</ele>
        <time>2010-10-28T12:14:19Z</time>
      </trkpt>
      <trkpt lat="45.61996" lon="4.61132">
        <ele>677.39</ele>
        <time>2010-10-28T12:14:26Z</time>
      </trkpt>
      <trkpt lat="45.62003" lon="4.61145">
        <ele>674.98</ele>
        <time>2010-10-28T12:14:32Z</time>
      </trkpt>
      <trkpt lat="45.62008" lon="4.61152">
        <ele>673.54</ele>
        <time>2010-10-28T12:14:35Z</time>
      </trkpt>
      <trkpt lat="45.62018" lon="4.61166">
        <ele>671.62</ele>
        <time>2010-10-28T12:14:42Z</time>
      </trkpt>
      <trkpt lat="45.6203" lon="4.61186">
        <ele>669.7</ele>
        <time>2010-10-28T12:14:48Z</time>
      </trkpt>
      <trkpt lat="45.62041" lon="4.61197">
        <ele>668.25</ele>
        <time>2010-10-28T12:14:52Z</time>
      </trkpt>
      <trkpt lat="45.62047" lon="4.61203">
        <ele>667.29</ele>
        <time>2010-10-28T12:14:54Z</time>
      </trkpt>
      <trkpt lat="45.62054" lon="4.61212">
        <ele>664.89</ele>
        <time>2010-10-28T12:14:58Z</time>
      </trkpt>
      <trkpt lat="45.62059" lon="4.61222">
        <ele>661.52</ele>
        <time>2010-10-28T12:15:04Z</time>
      </trkpt>
      <trkpt lat="45.6206" lon="4.61222">
        <ele>661.04</ele>
        <time>2010-10-28T12:15:05Z</time>
      </trkpt>
      <trkpt lat="45.62071" lon="4.61228">
        <ele>660.56</ele>
        <time>2010-10-28T12:15:10Z</time>
      </trkpt>
      <trkpt lat="45.62076" lon="4.61233">
        <ele>659.6</ele>
        <time>2010-10-28T12:15:12Z</time>
      </trkpt>
      <trkpt lat="45.62094" lon="4.61252">
        <ele>657.68</ele>
        <time>2010-10-28T12:15:19Z</time>
      </trkpt>
      <trkpt lat="45.62118" lon="4.61278">
        <ele>655.76</ele>
        <time>2010-10-28T12:15:29Z</time>
      </trkpt>
      <trkpt lat="45.62122" lon="4.61283">
        <ele>655.28</ele>
        <time>2010-10-28T12:15:31Z</time>
      </trkpt>
      <trkpt lat="45.62142" lon="4.61314">
        <ele>653.83</ele>
        <time>2010-10-28T12:15:40Z</time>
      </trkpt>
      <trkpt lat="45.6217" lon="4.61351">
        <ele>652.39</ele>
        <time>2010-10-28T12:15:51Z</time>
      </trkpt>
      <trkpt lat="45.62177" lon="4.61363">
        <ele>650.47</ele>
        <time>2010-10-28T12:15:55Z</time>
      </trkpt>
      <trkpt lat="45.62192" lon="4.6138">
        <ele>648.07</ele>
        <time>2010-10-28T12:16:01Z</time>
      </trkpt>
      <trkpt lat="45.6221" lon="4.61396">
        <ele>645.66</ele>
        <time>2010-10-28T12:16:08Z</time>
      </trkpt>
      <trkpt lat="45.62241" lon="4.61409">
        <ele>643.26</ele>
        <time>2010-10-28T12:16:19Z</time>
      </trkpt>
      <trkpt lat="45.62247" lon="4.61414">
        <ele>641.82</ele>
        <time>2010-10-28T12:16:21Z</time>
      </trkpt>
      <trkpt lat="45.62258" lon="4.61429">
        <ele>639.89</ele>
        <time>2010-10-28T12:16:25Z</time>
      </trkpt>
      <trkpt lat="45.62272" lon="4.61443">
        <ele>638.93</ele>
        <time>2010-10-28T12:16:29Z</time>
      </trkpt>
      <trkpt lat="45.6228" lon="4.61456">
        <ele>636.53</ele>
        <time>2010-10-28T12:16:32Z</time>
      </trkpt>
      <trkpt lat="45.62285" lon="4.61461">
        <ele>638.45</ele>
        <time>2010-10-28T12:16:33Z</time>
      </trkpt>
      <trkpt lat="45.6229" lon="4.6147">
        <ele>637.01</ele>
        <time>2010-10-28T12:16:35Z</time>
      </trkpt>
      <trkpt lat="45.62291" lon="4.61476">
        <ele>637.49</ele>
        <time>2010-10-28T12:16:36Z</time>
      </trkpt>
      <trkpt lat="45.62291" lon="4.61482">
        <ele>637.01</ele>
        <time>2010-10-28T12:16:41Z</time>
      </trkpt>
      <trkpt lat="45.6229" lon="4.61482">
        <ele>637.01</ele>
        <time>2010-10-28T12:16:42Z</time>
      </trkpt>
      <trkpt lat="45.62287" lon="4.61484">
        <ele>636.05</ele>
        <time>2010-10-28T12:16:45Z</time>
      </trkpt>
      <trkpt lat="45.62287" lon="4.61486">
        <ele>636.05</ele>
        <time>2010-10-28T12:16:46Z</time>
      </trkpt>
      <trkpt lat="45.62288" lon="4.61488">
        <ele>635.09</ele>
        <time>2010-10-28T12:16:47Z</time>
      </trkpt>
      <trkpt lat="45.62289" lon="4.6149">
        <ele>635.09</ele>
        <time>2010-10-28T12:16:48Z</time>
      </trkpt>
      <trkpt lat="45.62291" lon="4.61492">
        <ele>634.61</ele>
        <time>2010-10-28T12:16:49Z</time>
      </trkpt>
      <trkpt lat="45.62292" lon="4.61494">
        <ele>634.13</ele>
        <time>2010-10-28T12:16:50Z</time>
      </trkpt>
      <trkpt lat="45.62294" lon="4.61496">
        <ele>634.13</ele>
        <time>2010-10-28T12:16:51Z</time>
      </trkpt>
      <trkpt lat="45.62296" lon="4.61498">
        <ele>632.68</ele>
        <time>2010-10-28T12:16:52Z</time>
      </trkpt>
      <trkpt lat="45.62298" lon="4.61499">
        <ele>633.65</ele>
        <time>2010-10-28T12:16:53Z</time>
      </trkpt>
      <trkpt lat="45.623" lon="4.61501">
        <ele>632.68</ele>
        <time>2010-10-28T12:16:54Z</time>
      </trkpt>
      <trkpt lat="45.62303" lon="4.61504">
        <ele>631.24</ele>
        <time>2010-10-28T12:16:55Z</time>
      </trkpt>
      <trkpt lat="45.62305" lon="4.61507">
        <ele>631.72</ele>
        <time>2010-10-28T12:16:56Z</time>
      </trkpt>
      <trkpt lat="45.62307" lon="4.6151">
        <ele>631.24</ele>
        <time>2010-10-28T12:16:57Z</time>
      </trkpt>
      <trkpt lat="45.62309" lon="4.61513">
        <ele>631.24</ele>
        <time>2010-10-28T12:16:58Z</time>
      </trkpt>
      <trkpt lat="45.6231" lon="4.61516">
        <ele>630.76</ele>
        <time>2010-10-28T12:16:59Z</time>
      </trkpt>
      <trkpt lat="45.62312" lon="4.61519">
        <ele>629.8</ele>
        <time>2010-10-28T12:17:00Z</time>
      </trkpt>
      <trkpt lat="45.62313" lon="4.61522">
        <ele>630.28</ele>
        <time>2010-10-28T12:17:01Z</time>
      </trkpt>
      <trkpt lat="45.62314" lon="4.61525">
        <ele>629.8</ele>
        <time>2010-10-28T12:17:02Z</time>
      </trkpt>
      <trkpt lat="45.62315" lon="4.61529">
        <ele>628.84</ele>
        <time>2010-10-28T12:17:03Z</time>
      </trkpt>
      <trkpt lat="45.62316" lon="4.61534">
        <ele>628.84</ele>
        <time>2010-10-28T12:17:04Z</time>
      </trkpt>
      <trkpt lat="45.62316" lon="4.61538">
        <ele>627.88</ele>
        <time>2010-10-28T12:17:05Z</time>
      </trkpt>
      <trkpt lat="45.62319" lon="4.61548">
        <ele>626.92</ele>
        <time>2010-10-28T12:17:08Z</time>
      </trkpt>
      <trkpt lat="45.6232" lon="4.61552">
        <ele>626.92</ele>
        <time>2010-10-28T12:17:09Z</time>
      </trkpt>
      <trkpt lat="45.6232" lon="4.61556">
        <ele>625.96</ele>
        <time>2010-10-28T12:17:10Z</time>
      </trkpt>
      <trkpt lat="45.62321" lon="4.61559">
        <ele>625.96</ele>
        <time>2010-10-28T12:17:11Z</time>
      </trkpt>
      <trkpt lat="45.62323" lon="4.61562">
        <ele>625.96</ele>
        <time>2010-10-28T12:17:12Z</time>
      </trkpt>
      <trkpt lat="45.62325" lon="4.61564">
        <ele>624.99</ele>
        <time>2010-10-28T12:17:13Z</time>
      </trkpt>
      <trkpt lat="45.62352" lon="4.61585">
        <ele>622.11</ele>
        <time>2010-10-28T12:17:24Z</time>
      </trkpt>
      <trkpt lat="45.62377" lon="4.61594">
        <ele>620.19</ele>
        <time>2010-10-28T12:17:33Z</time>
      </trkpt>
      <trkpt lat="45.62391" lon="4.61599">
        <ele>619.23</ele>
        <time>2010-10-28T12:17:39Z</time>
      </trkpt>
      <trkpt lat="45.62391" lon="4.616">
        <ele>620.19</ele>
        <time>2010-10-28T12:17:40Z</time>
      </trkpt>
      <trkpt lat="45.62392" lon="4.61601">
        <ele>619.71</ele>
        <time>2010-10-28T12:17:41Z</time>
      </trkpt>
      <trkpt lat="45.62394" lon="4.616">
        <ele>620.19</ele>
        <time>2010-10-28T12:17:42Z</time>
      </trkpt>
      <trkpt lat="45.62397" lon="4.616">
        <ele>619.23</ele>
        <time>2010-10-28T12:17:43Z</time>
      </trkpt>
      <trkpt lat="45.624" lon="4.61599">
        <ele>619.23</ele>
        <time>2010-10-28T12:17:44Z</time>
      </trkpt>
      <trkpt lat="45.62403" lon="4.61599">
        <ele>619.23</ele>
        <time>2010-10-28T12:17:45Z</time>
      </trkpt>
      <trkpt lat="45.62406" lon="4.616">
        <ele>618.75</ele>
        <time>2010-10-28T12:17:46Z</time>
      </trkpt>
      <trkpt lat="45.62408" lon="4.616">
        <ele>617.78</ele>
        <time>2010-10-28T12:17:47Z</time>
      </trkpt>
      <trkpt lat="45.62411" lon="4.61601">
        <ele>618.75</ele>
        <time>2010-10-28T12:17:48Z</time>
      </trkpt>
      <trkpt lat="45.62413" lon="4.61602">
        <ele>618.26</ele>
        <time>2010-10-28T12:17:49Z</time>
      </trkpt>
      <trkpt lat="45.62416" lon="4.61602">
        <ele>617.78</ele>
        <time>2010-10-28T12:17:50Z</time>
      </trkpt>
      <trkpt lat="45.62419" lon="4.61601">
        <ele>617.78</ele>
        <time>2010-10-28T12:17:51Z</time>
      </trkpt>
      <trkpt lat="45.62422" lon="4.616">
        <ele>618.26</ele>
        <time>2010-10-28T12:17:52Z</time>
      </trkpt>
      <trkpt lat="45.6245" lon="4.61579">
        <ele>616.82</ele>
        <time>2010-10-28T12:18:02Z</time>
      </trkpt>
      <trkpt lat="45.62475" lon="4.61567">
        <ele>617.78</ele>
        <time>2010-10-28T12:18:12Z</time>
      </trkpt>
      <trkpt lat="45.62481" lon="4.61564">
        <ele>618.26</ele>
        <time>2010-10-28T12:18:15Z</time>
      </trkpt>
      <trkpt lat="45.62484" lon="4.61563">
        <ele>617.78</ele>
        <time>2010-10-28T12:18:16Z</time>
      </trkpt>
      <trkpt lat="45.62487" lon="4.61561">
        <ele>618.26</ele>
        <time>2010-10-28T12:18:17Z</time>
      </trkpt>
      <trkpt lat="45.62489" lon="4.6156">
        <ele>617.78</ele>
        <time>2010-10-28T12:18:18Z</time>
      </trkpt>
      <trkpt lat="45.62491" lon="4.61559">
        <ele>617.78</ele>
        <time>2010-10-28T12:18:19Z</time>
      </trkpt>
      <trkpt lat="45.62493" lon="4.61557">
        <ele>618.26</ele>
        <time>2010-10-28T12:18:20Z</time>
      </trkpt>
      <trkpt lat="45.62496" lon="4.61555">
        <ele>618.26</ele>
        <time>2010-10-28T12:18:21Z</time>
      </trkpt>
      <trkpt lat="45.62498" lon="4.61553">
        <ele>619.71</ele>
        <time>2010-10-28T12:18:22Z</time>
      </trkpt>
      <trkpt lat="45.62501" lon="4.61551">
        <ele>617.78</ele>
        <time>2010-10-28T12:18:23Z</time>
      </trkpt>
      <trkpt lat="45.62508" lon="4.61547">
        <ele>619.23</ele>
        <time>2010-10-28T12:18:26Z</time>
      </trkpt>
      <trkpt lat="45.62511" lon="4.61546">
        <ele>619.71</ele>
        <time>2010-10-28T12:18:27Z</time>
      </trkpt>
      <trkpt lat="45.62513" lon="4.61545">
        <ele>620.19</ele>
        <time>2010-10-28T12:18:28Z</time>
      </trkpt>
      <trkpt lat="45.62516" lon="4.61544">
        <ele>619.71</ele>
        <time>2010-10-28T12:18:29Z</time>
      </trkpt>
      <trkpt lat="45.62519" lon="4.61543">
        <ele>620.19</ele>
        <time>2010-10-28T12:18:30Z</time>
      </trkpt>
      <trkpt lat="45.62532" lon="4.61537">
        <ele>620.19</ele>
        <time>2010-10-28T12:18:36Z</time>
      </trkpt>
      <trkpt lat="45.62534" lon="4.61536">
        <ele>620.67</ele>
        <time>2010-10-28T12:18:37Z</time>
      </trkpt>
      <trkpt lat="45.62557" lon="4.61534">
        <ele>619.23</ele>
        <time>2010-10-28T12:18:46Z</time>
      </trkpt>
      <trkpt lat="45.62562" lon="4.61534">
        <ele>618.26</ele>
        <time>2010-10-28T12:18:48Z</time>
      </trkpt>
      <trkpt lat="45.62565" lon="4.61533">
        <ele>617.78</ele>
        <time>2010-10-28T12:18:49Z</time>
      </trkpt>
      <trkpt lat="45.62588" lon="4.61541">
        <ele>618.75</ele>
        <time>2010-10-28T12:18:57Z</time>
      </trkpt>
      <trkpt lat="45.62602" lon="4.61554">
        <ele>618.26</ele>
        <time>2010-10-28T12:19:03Z</time>
      </trkpt>
      <trkpt lat="45.62626" lon="4.61579">
        <ele>619.23</ele>
        <time>2010-10-28T12:19:13Z</time>
      </trkpt>
      <trkpt lat="45.62632" lon="4.61586">
        <ele>617.78</ele>
        <time>2010-10-28T12:19:16Z</time>
      </trkpt>
      <trkpt lat="45.62635" lon="4.61588">
        <ele>616.82</ele>
        <time>2010-10-28T12:19:17Z</time>
      </trkpt>
      <trkpt lat="45.62637" lon="4.61591">
        <ele>618.26</ele>
        <time>2010-10-28T12:19:18Z</time>
      </trkpt>
      <trkpt lat="45.62638" lon="4.61594">
        <ele>616.82</ele>
        <time>2010-10-28T12:19:19Z</time>
      </trkpt>
      <trkpt lat="45.6264" lon="4.61598">
        <ele>617.78</ele>
        <time>2010-10-28T12:19:20Z</time>
      </trkpt>
      <trkpt lat="45.62641" lon="4.61605">
        <ele>617.3</ele>
        <time>2010-10-28T12:19:22Z</time>
      </trkpt>
      <trkpt lat="45.62641" lon="4.61608">
        <ele>616.82</ele>
        <time>2010-10-28T12:19:23Z</time>
      </trkpt>
      <trkpt lat="45.62641" lon="4.61613">
        <ele>616.34</ele>
        <time>2010-10-28T12:19:24Z</time>
      </trkpt>
      <trkpt lat="45.62639" lon="4.6163">
        <ele>614.9</ele>
        <time>2010-10-28T12:19:28Z</time>
      </trkpt>
      <trkpt lat="45.62639" lon="4.61634">
        <ele>613.94</ele>
        <time>2010-10-28T12:19:29Z</time>
      </trkpt>
      <trkpt lat="45.62639" lon="4.61638">
        <ele>612.98</ele>
        <time>2010-10-28T12:19:30Z</time>
      </trkpt>
      <trkpt lat="45.62638" lon="4.61643">
        <ele>612.98</ele>
        <time>2010-10-28T12:19:31Z</time>
      </trkpt>
      <trkpt lat="45.62638" lon="4.61648">
        <ele>612.98</ele>
        <time>2010-10-28T12:19:32Z</time>
      </trkpt>
      <trkpt lat="45.62639" lon="4.61653">
        <ele>612.5</ele>
        <time>2010-10-28T12:19:33Z</time>
      </trkpt>
      <trkpt lat="45.62639" lon="4.61657">
        <ele>612.98</ele>
        <time>2010-10-28T12:19:34Z</time>
      </trkpt>
      <trkpt lat="45.62641" lon="4.61661">
        <ele>612.5</ele>
        <time>2010-10-28T12:19:35Z</time>
      </trkpt>
      <trkpt lat="45.62643" lon="4.61665">
        <ele>612.98</ele>
        <time>2010-10-28T12:19:36Z</time>
      </trkpt>
      <trkpt lat="45.62647" lon="4.61674">
        <ele>612.98</ele>
        <time>2010-10-28T12:19:39Z</time>
      </trkpt>
      <trkpt lat="45.62649" lon="4.61676">
        <ele>614.42</ele>
        <time>2010-10-28T12:19:40Z</time>
      </trkpt>
      <trkpt lat="45.62651" lon="4.61678">
        <ele>612.98</ele>
        <time>2010-10-28T12:19:41Z</time>
      </trkpt>
      <trkpt lat="45.62654" lon="4.61681">
        <ele>613.46</ele>
        <time>2010-10-28T12:19:42Z</time>
      </trkpt>
      <trkpt lat="45.62655" lon="4.61684">
        <ele>614.42</ele>
        <time>2010-10-28T12:19:43Z</time>
      </trkpt>
      <trkpt lat="45.62656" lon="4.61688">
        <ele>613.46</ele>
        <time>2010-10-28T12:19:44Z</time>
      </trkpt>
      <trkpt lat="45.62658" lon="4.61691">
        <ele>614.42</ele>
        <time>2010-10-28T12:19:45Z</time>
      </trkpt>
      <trkpt lat="45.62659" lon="4.61694">
        <ele>615.38</ele>
        <time>2010-10-28T12:19:46Z</time>
      </trkpt>
      <trkpt lat="45.62661" lon="4.61698">
        <ele>614.9</ele>
        <time>2010-10-28T12:19:47Z</time>
      </trkpt>
      <trkpt lat="45.62663" lon="4.61701">
        <ele>614.42</ele>
        <time>2010-10-28T12:19:48Z</time>
      </trkpt>
      <trkpt lat="45.62665" lon="4.61704">
        <ele>614.42</ele>
        <time>2010-10-28T12:19:49Z</time>
      </trkpt>
      <trkpt lat="45.62667" lon="4.61708">
        <ele>614.42</ele>
        <time>2010-10-28T12:19:50Z</time>
      </trkpt>
      <trkpt lat="45.62669" lon="4.61711">
        <ele>613.94</ele>
        <time>2010-10-28T12:19:51Z</time>
      </trkpt>
      <trkpt lat="45.62678" lon="4.6173">
        <ele>614.42</ele>
        <time>2010-10-28T12:19:57Z</time>
      </trkpt>
      <trkpt lat="45.6268" lon="4.61733">
        <ele>613.46</ele>
        <time>2010-10-28T12:19:58Z</time>
      </trkpt>
      <trkpt lat="45.62685" lon="4.61755">
        <ele>614.42</ele>
        <time>2010-10-28T12:20:03Z</time>
      </trkpt>
      <trkpt lat="45.62687" lon="4.61758">
        <ele>612.98</ele>
        <time>2010-10-28T12:20:04Z</time>
      </trkpt>
      <trkpt lat="45.62688" lon="4.61761">
        <ele>613.94</ele>
        <time>2010-10-28T12:20:05Z</time>
      </trkpt>
      <trkpt lat="45.62689" lon="4.61765">
        <ele>613.94</ele>
        <time>2010-10-28T12:20:06Z</time>
      </trkpt>
      <trkpt lat="45.6269" lon="4.61769">
        <ele>613.46</ele>
        <time>2010-10-28T12:20:07Z</time>
      </trkpt>
      <trkpt lat="45.62693" lon="4.61793">
        <ele>612.5</ele>
        <time>2010-10-28T12:20:13Z</time>
      </trkpt>
      <trkpt lat="45.62693" lon="4.61798">
        <ele>612.5</ele>
        <time>2010-10-28T12:20:14Z</time>
      </trkpt>
      <trkpt lat="45.62695" lon="4.61803">
        <ele>611.54</ele>
        <time>2010-10-28T12:20:15Z</time>
      </trkpt>
      <trkpt lat="45.62708" lon="4.61844">
        <ele>610.09</ele>
        <time>2010-10-28T12:20:25Z</time>
      </trkpt>
      <trkpt lat="45.62711" lon="4.61855">
        <ele>608.17</ele>
        <time>2010-10-28T12:20:28Z</time>
      </trkpt>
      <trkpt lat="45.62714" lon="4.61863">
        <ele>606.25</ele>
        <time>2010-10-28T12:20:30Z</time>
      </trkpt>
      <trkpt lat="45.62726" lon="4.61893">
        <ele>604.81</ele>
        <time>2010-10-28T12:20:37Z</time>
      </trkpt>
      <trkpt lat="45.6275" lon="4.6192">
        <ele>601.44</ele>
        <time>2010-10-28T12:20:47Z</time>
      </trkpt>
      <trkpt lat="45.62752" lon="4.61922">
        <ele>601.44</ele>
        <time>2010-10-28T12:20:48Z</time>
      </trkpt>
      <trkpt lat="45.62773" lon="4.61937">
        <ele>598.08</ele>
        <time>2010-10-28T12:20:56Z</time>
      </trkpt>
      <trkpt lat="45.62789" lon="4.61951">
        <ele>594.71</ele>
        <time>2010-10-28T12:21:02Z</time>
      </trkpt>
      <trkpt lat="45.62803" lon="4.61963">
        <ele>591.35</ele>
        <time>2010-10-28T12:21:07Z</time>
      </trkpt>
      <trkpt lat="45.62808" lon="4.61969">
        <ele>590.87</ele>
        <time>2010-10-28T12:21:09Z</time>
      </trkpt>
      <trkpt lat="45.62816" lon="4.61976">
        <ele>587.02</ele>
        <time>2010-10-28T12:21:12Z</time>
      </trkpt>
      <trkpt lat="45.62818" lon="4.61978">
        <ele>587.02</ele>
        <time>2010-10-28T12:21:13Z</time>
      </trkpt>
      <trkpt lat="45.62836" lon="4.61982">
        <ele>582.22</ele>
        <time>2010-10-28T12:21:18Z</time>
      </trkpt>
      <trkpt lat="45.62839" lon="4.61981">
        <ele>583.66</ele>
        <time>2010-10-28T12:21:19Z</time>
      </trkpt>
      <trkpt lat="45.62856" lon="4.61972">
        <ele>579.81</ele>
        <time>2010-10-28T12:21:25Z</time>
      </trkpt>
      <trkpt lat="45.62859" lon="4.61969">
        <ele>579.81</ele>
        <time>2010-10-28T12:21:26Z</time>
      </trkpt>
      <trkpt lat="45.62869" lon="4.61964">
        <ele>575.97</ele>
        <time>2010-10-28T12:21:29Z</time>
      </trkpt>
      <trkpt lat="45.62888" lon="4.61939">
        <ele>573.56</ele>
        <time>2010-10-28T12:21:37Z</time>
      </trkpt>
      <trkpt lat="45.62895" lon="4.61925">
        <ele>572.6</ele>
        <time>2010-10-28T12:21:41Z</time>
      </trkpt>
      <trkpt lat="45.62905" lon="4.6191">
        <ele>572.12</ele>
        <time>2010-10-28T12:21:46Z</time>
      </trkpt>
      <trkpt lat="45.62923" lon="4.61887">
        <ele>570.68</ele>
        <time>2010-10-28T12:21:54Z</time>
      </trkpt>
      <trkpt lat="45.62932" lon="4.61876">
        <ele>569.72</ele>
        <time>2010-10-28T12:21:58Z</time>
      </trkpt>
      <trkpt lat="45.62942" lon="4.61853">
        <ele>568.76</ele>
        <time>2010-10-28T12:22:06Z</time>
      </trkpt>
      <trkpt lat="45.62944" lon="4.61836">
        <ele>568.28</ele>
        <time>2010-10-28T12:22:10Z</time>
      </trkpt>
      <trkpt lat="45.6296" lon="4.6179">
        <ele>567.32</ele>
        <time>2010-10-28T12:22:22Z</time>
      </trkpt>
      <trkpt lat="45.6296" lon="4.61785">
        <ele>565.87</ele>
        <time>2010-10-28T12:22:23Z</time>
      </trkpt>
      <trkpt lat="45.62977" lon="4.61745">
        <ele>566.35</ele>
        <time>2010-10-28T12:22:32Z</time>
      </trkpt>
      <trkpt lat="45.62992" lon="4.61713">
        <ele>565.39</ele>
        <time>2010-10-28T12:22:41Z</time>
      </trkpt>
      <trkpt lat="45.62994" lon="4.617">
        <ele>564.43</ele>
        <time>2010-10-28T12:22:45Z</time>
      </trkpt>
      <trkpt lat="45.6302" lon="4.61664">
        <ele>563.95</ele>
        <time>2010-10-28T12:22:56Z</time>
      </trkpt>
      <trkpt lat="45.63024" lon="4.61657">
        <ele>564.91</ele>
        <time>2010-10-28T12:23:02Z</time>
      </trkpt>
      <trkpt lat="45.63023" lon="4.61658">
        <ele>564.91</ele>
        <time>2010-10-28T12:23:07Z</time>
      </trkpt>
      <trkpt lat="45.63022" lon="4.61659">
        <ele>564.43</ele>
        <time>2010-10-28T12:23:08Z</time>
      </trkpt>
      <trkpt lat="45.63021" lon="4.6166">
        <ele>565.87</ele>
        <time>2010-10-28T12:23:09Z</time>
      </trkpt>
      <trkpt lat="45.6302" lon="4.61662">
        <ele>565.39</ele>
        <time>2010-10-28T12:23:10Z</time>
      </trkpt>
      <trkpt lat="45.63016" lon="4.61663">
        <ele>565.87</ele>
        <time>2010-10-28T12:23:12Z</time>
      </trkpt>
      <trkpt lat="45.63039" lon="4.61668">
        <ele>567.32</ele>
        <time>2010-10-28T12:23:16Z</time>
      </trkpt>
      <trkpt lat="45.63061" lon="4.6169">
        <ele>568.28</ele>
        <time>2010-10-28T12:23:24Z</time>
      </trkpt>
      <trkpt lat="45.6308" lon="4.61718">
        <ele>568.28</ele>
        <time>2010-10-28T12:23:34Z</time>
      </trkpt>
      <trkpt lat="45.63096" lon="4.6173">
        <ele>571.64</ele>
        <time>2010-10-28T12:23:40Z</time>
      </trkpt>
      <trkpt lat="45.631" lon="4.61736">
        <ele>571.16</ele>
        <time>2010-10-28T12:23:42Z</time>
      </trkpt>
      <trkpt lat="45.63114" lon="4.61778">
        <ele>569.24</ele>
        <time>2010-10-28T12:23:55Z</time>
      </trkpt>
      <trkpt lat="45.63115" lon="4.6178">
        <ele>569.72</ele>
        <time>2010-10-28T12:23:57Z</time>
      </trkpt>
      <trkpt lat="45.63118" lon="4.6177">
        <ele>569.24</ele>
        <time>2010-10-28T12:24:02Z</time>
      </trkpt>
      <trkpt lat="45.63118" lon="4.61767">
        <ele>571.64</ele>
        <time>2010-10-28T12:24:03Z</time>
      </trkpt>
      <trkpt lat="45.63118" lon="4.61765">
        <ele>570.2</ele>
        <time>2010-10-28T12:24:04Z</time>
      </trkpt>
      <trkpt lat="45.63118" lon="4.61756">
        <ele>572.12</ele>
        <time>2010-10-28T12:24:07Z</time>
      </trkpt>
      <trkpt lat="45.63116" lon="4.61748">
        <ele>573.08</ele>
        <time>2010-10-28T12:24:10Z</time>
      </trkpt>
      <trkpt lat="45.63114" lon="4.61724">
        <ele>576.93</ele>
        <time>2010-10-28T12:24:16Z</time>
      </trkpt>
      <trkpt lat="45.63115" lon="4.61718">
        <ele>576.45</ele>
        <time>2010-10-28T12:24:18Z</time>
      </trkpt>
      <trkpt lat="45.63116" lon="4.61707">
        <ele>577.89</ele>
        <time>2010-10-28T12:24:22Z</time>
      </trkpt>
      <trkpt lat="45.63122" lon="4.61679">
        <ele>580.77</ele>
        <time>2010-10-28T12:24:32Z</time>
      </trkpt>
      <trkpt lat="45.63122" lon="4.61673">
        <ele>581.25</ele>
        <time>2010-10-28T12:24:34Z</time>
      </trkpt>
      <trkpt lat="45.63123" lon="4.61672">
        <ele>581.73</ele>
        <time>2010-10-28T12:24:35Z</time>
      </trkpt>
      <trkpt lat="45.63138" lon="4.61663">
        <ele>583.66</ele>
        <time>2010-10-28T12:24:42Z</time>
      </trkpt>
      <trkpt lat="45.63143" lon="4.61662">
        <ele>584.62</ele>
        <time>2010-10-28T12:24:44Z</time>
      </trkpt>
      <trkpt lat="45.63153" lon="4.61659">
        <ele>586.54</ele>
        <time>2010-10-28T12:24:48Z</time>
      </trkpt>
      <trkpt lat="45.63158" lon="4.61653">
        <ele>587.02</ele>
        <time>2010-10-28T12:24:51Z</time>
      </trkpt>
      <trkpt lat="45.63172" lon="4.61634">
        <ele>588.46</ele>
        <time>2010-10-28T12:25:00Z</time>
      </trkpt>
      <trkpt lat="45.63177" lon="4.61621">
        <ele>589.91</ele>
        <time>2010-10-28T12:25:06Z</time>
      </trkpt>
      <trkpt lat="45.63177" lon="4.61601">
        <ele>590.87</ele>
        <time>2010-10-28T12:25:12Z</time>
      </trkpt>
      <trkpt lat="45.6318" lon="4.61586">
        <ele>591.83</ele>
        <time>2010-10-28T12:25:17Z</time>
      </trkpt>
      <trkpt lat="45.63189" lon="4.61554">
        <ele>594.71</ele>
        <time>2010-10-28T12:25:30Z</time>
      </trkpt>
      <trkpt lat="45.63189" lon="4.61551">
        <ele>595.19</ele>
        <time>2010-10-28T12:25:31Z</time>
      </trkpt>
      <trkpt lat="45.63188" lon="4.61547">
        <ele>596.64</ele>
        <time>2010-10-28T12:25:33Z</time>
      </trkpt>
      <trkpt lat="45.6321" lon="4.61534">
        <ele>597.12</ele>
        <time>2010-10-28T12:25:41Z</time>
      </trkpt>
      <trkpt lat="45.63214" lon="4.61516">
        <ele>600</ele>
        <time>2010-10-28T12:25:49Z</time>
      </trkpt>
      <trkpt lat="45.63214" lon="4.61513">
        <ele>601.44</ele>
        <time>2010-10-28T12:25:51Z</time>
      </trkpt>
      <trkpt lat="45.63216" lon="4.61511">
        <ele>600.96</ele>
        <time>2010-10-28T12:25:52Z</time>
      </trkpt>
      <trkpt lat="45.63256" lon="4.61502">
        <ele>601.44</ele>
        <time>2010-10-28T12:26:02Z</time>
      </trkpt>
      <trkpt lat="45.63267" lon="4.61502">
        <ele>602.88</ele>
        <time>2010-10-28T12:26:05Z</time>
      </trkpt>
      <trkpt lat="45.63287" lon="4.61508">
        <ele>604.33</ele>
        <time>2010-10-28T12:26:11Z</time>
      </trkpt>
      <trkpt lat="45.63313" lon="4.61528">
        <ele>607.69</ele>
        <time>2010-10-28T12:26:20Z</time>
      </trkpt>
      <trkpt lat="45.63338" lon="4.61556">
        <ele>609.61</ele>
        <time>2010-10-28T12:26:30Z</time>
      </trkpt>
      <trkpt lat="45.63339" lon="4.61557">
        <ele>610.57</ele>
        <time>2010-10-28T12:26:31Z</time>
      </trkpt>
      <trkpt lat="45.63345" lon="4.61562">
        <ele>610.09</ele>
        <time>2010-10-28T12:26:43Z</time>
      </trkpt>
      <trkpt lat="45.63347" lon="4.61563">
        <ele>610.09</ele>
        <time>2010-10-28T12:26:54Z</time>
      </trkpt>
      <trkpt lat="45.63346" lon="4.61562">
        <ele>610.09</ele>
        <time>2010-10-28T12:27:22Z</time>
      </trkpt>
      <trkpt lat="45.63349" lon="4.61566">
        <ele>610.57</ele>
        <time>2010-10-28T12:27:34Z</time>
      </trkpt>
      <trkpt lat="45.63351" lon="4.61569">
        <ele>610.09</ele>
        <time>2010-10-28T12:28:09Z</time>
      </trkpt>
      <trkpt lat="45.63354" lon="4.61572">
        <ele>609.13</ele>
        <time>2010-10-28T12:28:11Z</time>
      </trkpt>
      <trkpt lat="45.63365" lon="4.61581">
        <ele>607.69</ele>
        <time>2010-10-28T12:28:17Z</time>
      </trkpt>
      <trkpt lat="45.63378" lon="4.61588">
        <ele>605.77</ele>
        <time>2010-10-28T12:28:23Z</time>
      </trkpt>
      <trkpt lat="45.63392" lon="4.61593">
        <ele>604.33</ele>
        <time>2010-10-28T12:28:29Z</time>
      </trkpt>
      <trkpt lat="45.63416" lon="4.61593">
        <ele>601.92</ele>
        <time>2010-10-28T12:28:37Z</time>
      </trkpt>
      <trkpt lat="45.63432" lon="4.61588">
        <ele>600</ele>
        <time>2010-10-28T12:28:43Z</time>
      </trkpt>
      <trkpt lat="45.63442" lon="4.61578">
        <ele>599.04</ele>
        <time>2010-10-28T12:28:48Z</time>
      </trkpt>
      <trkpt lat="45.63443" lon="4.61572">
        <ele>598.08</ele>
        <time>2010-10-28T12:28:50Z</time>
      </trkpt>
      <trkpt lat="45.63441" lon="4.6155">
        <ele>597.12</ele>
        <time>2010-10-28T12:28:57Z</time>
      </trkpt>
      <trkpt lat="45.63439" lon="4.61527">
        <ele>594.23</ele>
        <time>2010-10-28T12:29:05Z</time>
      </trkpt>
      <trkpt lat="45.63457" lon="4.615">
        <ele>593.75</ele>
        <time>2010-10-28T12:29:12Z</time>
      </trkpt>
      <trkpt lat="45.63457" lon="4.61483">
        <ele>591.83</ele>
        <time>2010-10-28T12:29:16Z</time>
      </trkpt>
      <trkpt lat="45.63461" lon="4.61467">
        <ele>591.35</ele>
        <time>2010-10-28T12:29:20Z</time>
      </trkpt>
      <trkpt lat="45.63471" lon="4.61458">
        <ele>590.87</ele>
        <time>2010-10-28T12:29:24Z</time>
      </trkpt>
      <trkpt lat="45.63486" lon="4.61457">
        <ele>590.87</ele>
        <time>2010-10-28T12:29:29Z</time>
      </trkpt>
      <trkpt lat="45.63519" lon="4.61458">
        <ele>591.35</ele>
        <time>2010-10-28T12:29:37Z</time>
      </trkpt>
      <trkpt lat="45.63536" lon="4.61458">
        <ele>591.35</ele>
        <time>2010-10-28T12:29:47Z</time>
      </trkpt>
      <trkpt lat="45.63538" lon="4.61456">
        <ele>590.87</ele>
        <time>2010-10-28T12:30:00Z</time>
      </trkpt>
      <trkpt lat="45.63553" lon="4.61455">
        <ele>591.83</ele>
        <time>2010-10-28T12:30:16Z</time>
      </trkpt>
      <trkpt lat="45.63578" lon="4.61466">
        <ele>595.19</ele>
        <time>2010-10-28T12:30:28Z</time>
      </trkpt>
      <trkpt lat="45.63584" lon="4.61471">
        <ele>595.19</ele>
        <time>2010-10-28T12:30:30Z</time>
      </trkpt>
      <trkpt lat="45.63602" lon="4.61476">
        <ele>594.71</ele>
        <time>2010-10-28T12:30:32Z</time>
      </trkpt>
      <trkpt lat="45.63611" lon="4.61478">
        <ele>595.19</ele>
        <time>2010-10-28T12:30:33Z</time>
      </trkpt>
      <trkpt lat="45.63616" lon="4.6148">
        <ele>596.15</ele>
        <time>2010-10-28T12:30:34Z</time>
      </trkpt>
      <trkpt lat="45.6362" lon="4.61482">
        <ele>596.15</ele>
        <time>2010-10-28T12:30:35Z</time>
      </trkpt>
      <trkpt lat="45.63622" lon="4.61484">
        <ele>596.15</ele>
        <time>2010-10-28T12:30:36Z</time>
      </trkpt>
      <trkpt lat="45.63624" lon="4.61485">
        <ele>596.15</ele>
        <time>2010-10-28T12:30:37Z</time>
      </trkpt>
      <trkpt lat="45.63627" lon="4.61487">
        <ele>595.67</ele>
        <time>2010-10-28T12:30:38Z</time>
      </trkpt>
      <trkpt lat="45.63648" lon="4.61503">
        <ele>595.67</ele>
        <time>2010-10-28T12:30:46Z</time>
      </trkpt>
      <trkpt lat="45.63655" lon="4.61501">
        <ele>595.19</ele>
        <time>2010-10-28T12:30:49Z</time>
      </trkpt>
      <trkpt lat="45.63657" lon="4.61501">
        <ele>594.71</ele>
        <time>2010-10-28T12:30:50Z</time>
      </trkpt>
      <trkpt lat="45.6366" lon="4.615">
        <ele>595.19</ele>
        <time>2010-10-28T12:30:51Z</time>
      </trkpt>
      <trkpt lat="45.63663" lon="4.61498">
        <ele>594.23</ele>
        <time>2010-10-28T12:30:52Z</time>
      </trkpt>
      <trkpt lat="45.63665" lon="4.61497">
        <ele>595.19</ele>
        <time>2010-10-28T12:30:53Z</time>
      </trkpt>
      <trkpt lat="45.63668" lon="4.61495">
        <ele>593.75</ele>
        <time>2010-10-28T12:30:54Z</time>
      </trkpt>
      <trkpt lat="45.6367" lon="4.61494">
        <ele>594.71</ele>
        <time>2010-10-28T12:30:55Z</time>
      </trkpt>
      <trkpt lat="45.63673" lon="4.61492">
        <ele>595.19</ele>
        <time>2010-10-28T12:30:56Z</time>
      </trkpt>
      <trkpt lat="45.63676" lon="4.61491">
        <ele>595.19</ele>
        <time>2010-10-28T12:30:57Z</time>
      </trkpt>
      <trkpt lat="45.6368" lon="4.6149">
        <ele>595.67</ele>
        <time>2010-10-28T12:30:58Z</time>
      </trkpt>
      <trkpt lat="45.63683" lon="4.61489">
        <ele>596.15</ele>
        <time>2010-10-28T12:30:59Z</time>
      </trkpt>
      <trkpt lat="45.63686" lon="4.61489">
        <ele>596.64</ele>
        <time>2010-10-28T12:31:00Z</time>
      </trkpt>
      <trkpt lat="45.63689" lon="4.61488">
        <ele>593.27</ele>
        <time>2010-10-28T12:31:01Z</time>
      </trkpt>
      <trkpt lat="45.63692" lon="4.61487">
        <ele>596.15</ele>
        <time>2010-10-28T12:31:02Z</time>
      </trkpt>
      <trkpt lat="45.63694" lon="4.61485">
        <ele>596.64</ele>
        <time>2010-10-28T12:31:03Z</time>
      </trkpt>
      <trkpt lat="45.63712" lon="4.61477">
        <ele>597.6</ele>
        <time>2010-10-28T12:31:10Z</time>
      </trkpt>
      <trkpt lat="45.63714" lon="4.61476">
        <ele>597.6</ele>
        <time>2010-10-28T12:31:11Z</time>
      </trkpt>
      <trkpt lat="45.63718" lon="4.61474">
        <ele>596.64</ele>
        <time>2010-10-28T12:31:13Z</time>
      </trkpt>
      <trkpt lat="45.63721" lon="4.61473">
        <ele>597.6</ele>
        <time>2010-10-28T12:31:14Z</time>
      </trkpt>
      <trkpt lat="45.63724" lon="4.61473">
        <ele>600.96</ele>
        <time>2010-10-28T12:31:15Z</time>
      </trkpt>
      <trkpt lat="45.63726" lon="4.61472">
        <ele>599.04</ele>
        <time>2010-10-28T12:31:16Z</time>
      </trkpt>
      <trkpt lat="45.63727" lon="4.61471">
        <ele>598.56</ele>
        <time>2010-10-28T12:31:17Z</time>
      </trkpt>
      <trkpt lat="45.63732" lon="4.6147">
        <ele>598.56</ele>
        <time>2010-10-28T12:31:21Z</time>
      </trkpt>
      <trkpt lat="45.63743" lon="4.61474">
        <ele>600.96</ele>
        <time>2010-10-28T12:31:26Z</time>
      </trkpt>
      <trkpt lat="45.63752" lon="4.61483">
        <ele>602.4</ele>
        <time>2010-10-28T12:31:31Z</time>
      </trkpt>
      <trkpt lat="45.63753" lon="4.61485">
        <ele>602.4</ele>
        <time>2010-10-28T12:31:32Z</time>
      </trkpt>
      <trkpt lat="45.63755" lon="4.61488">
        <ele>602.4</ele>
        <time>2010-10-28T12:31:33Z</time>
      </trkpt>
      <trkpt lat="45.63758" lon="4.61491">
        <ele>603.36</ele>
        <time>2010-10-28T12:31:34Z</time>
      </trkpt>
      <trkpt lat="45.63759" lon="4.61495">
        <ele>603.85</ele>
        <time>2010-10-28T12:31:35Z</time>
      </trkpt>
      <trkpt lat="45.63762" lon="4.61498">
        <ele>602.88</ele>
        <time>2010-10-28T12:31:36Z</time>
      </trkpt>
      <trkpt lat="45.63764" lon="4.61501">
        <ele>604.33</ele>
        <time>2010-10-28T12:31:37Z</time>
      </trkpt>
      <trkpt lat="45.63766" lon="4.61504">
        <ele>603.36</ele>
        <time>2010-10-28T12:31:38Z</time>
      </trkpt>
      <trkpt lat="45.63767" lon="4.61507">
        <ele>603.85</ele>
        <time>2010-10-28T12:31:39Z</time>
      </trkpt>
      <trkpt lat="45.63768" lon="4.6151">
        <ele>604.81</ele>
        <time>2010-10-28T12:31:40Z</time>
      </trkpt>
      <trkpt lat="45.63769" lon="4.61513">
        <ele>604.81</ele>
        <time>2010-10-28T12:31:41Z</time>
      </trkpt>
      <trkpt lat="45.6377" lon="4.61516">
        <ele>605.29</ele>
        <time>2010-10-28T12:31:42Z</time>
      </trkpt>
      <trkpt lat="45.6377" lon="4.61518">
        <ele>604.33</ele>
        <time>2010-10-28T12:31:43Z</time>
      </trkpt>
      <trkpt lat="45.63771" lon="4.61527">
        <ele>606.25</ele>
        <time>2010-10-28T12:31:46Z</time>
      </trkpt>
      <trkpt lat="45.63771" lon="4.61546">
        <ele>609.61</ele>
        <time>2010-10-28T12:31:53Z</time>
      </trkpt>
      <trkpt lat="45.63774" lon="4.61562">
        <ele>611.06</ele>
        <time>2010-10-28T12:31:59Z</time>
      </trkpt>
      <trkpt lat="45.63779" lon="4.61566">
        <ele>611.06</ele>
        <time>2010-10-28T12:32:00Z</time>
      </trkpt>
      <trkpt lat="45.63783" lon="4.6157">
        <ele>612.02</ele>
        <time>2010-10-28T12:32:01Z</time>
      </trkpt>
      <trkpt lat="45.63785" lon="4.61573">
        <ele>612.5</ele>
        <time>2010-10-28T12:32:02Z</time>
      </trkpt>
      <trkpt lat="45.63787" lon="4.61575">
        <ele>612.98</ele>
        <time>2010-10-28T12:32:03Z</time>
      </trkpt>
      <trkpt lat="45.63788" lon="4.61579">
        <ele>612.98</ele>
        <time>2010-10-28T12:32:04Z</time>
      </trkpt>
      <trkpt lat="45.6379" lon="4.61582">
        <ele>613.46</ele>
        <time>2010-10-28T12:32:05Z</time>
      </trkpt>
      <trkpt lat="45.63793" lon="4.61592">
        <ele>615.38</ele>
        <time>2010-10-28T12:32:08Z</time>
      </trkpt>
      <trkpt lat="45.63796" lon="4.61594">
        <ele>614.9</ele>
        <time>2010-10-28T12:32:10Z</time>
      </trkpt>
      <trkpt lat="45.638" lon="4.61592">
        <ele>615.38</ele>
        <time>2010-10-28T12:32:13Z</time>
      </trkpt>
      <trkpt lat="45.63804" lon="4.61588">
        <ele>617.78</ele>
        <time>2010-10-28T12:32:15Z</time>
      </trkpt>
      <trkpt lat="45.63809" lon="4.61579">
        <ele>618.26</ele>
        <time>2010-10-28T12:32:18Z</time>
      </trkpt>
      <trkpt lat="45.63822" lon="4.61562">
        <ele>621.63</ele>
        <time>2010-10-28T12:32:25Z</time>
      </trkpt>
      <trkpt lat="45.63837" lon="4.61545">
        <ele>624.99</ele>
        <time>2010-10-28T12:32:33Z</time>
      </trkpt>
      <trkpt lat="45.63844" lon="4.61538">
        <ele>626.44</ele>
        <time>2010-10-28T12:32:37Z</time>
      </trkpt>
      <trkpt lat="45.63846" lon="4.61533">
        <ele>627.88</ele>
        <time>2010-10-28T12:32:40Z</time>
      </trkpt>
      <trkpt lat="45.63848" lon="4.6153">
        <ele>629.32</ele>
        <time>2010-10-28T12:32:43Z</time>
      </trkpt>
      <trkpt lat="45.63854" lon="4.61523">
        <ele>629.32</ele>
        <time>2010-10-28T12:32:47Z</time>
      </trkpt>
      <trkpt lat="45.6386" lon="4.61512">
        <ele>628.84</ele>
        <time>2010-10-28T12:32:54Z</time>
      </trkpt>
      <trkpt lat="45.63866" lon="4.61506">
        <ele>630.28</ele>
        <time>2010-10-28T12:33:00Z</time>
      </trkpt>
      <trkpt lat="45.6387" lon="4.61504">
        <ele>630.28</ele>
        <time>2010-10-28T12:33:03Z</time>
      </trkpt>
      <trkpt lat="45.6388" lon="4.61497">
        <ele>631.24</ele>
        <time>2010-10-28T12:33:13Z</time>
      </trkpt>
      <trkpt lat="45.63884" lon="4.61499">
        <ele>631.72</ele>
        <time>2010-10-28T12:33:28Z</time>
      </trkpt>
      <trkpt lat="45.63884" lon="4.61499">
        <ele>632.2</ele>
        <time>2010-10-28T12:34:08Z</time>
      </trkpt>
      <trkpt lat="45.63884" lon="4.61499">
        <ele>632.2</ele>
        <time>2010-10-28T12:34:09Z</time>
      </trkpt>
      <trkpt lat="45.63889" lon="4.61522">
        <ele>631.72</ele>
        <time>2010-10-28T12:34:17Z</time>
      </trkpt>
      <trkpt lat="45.63894" lon="4.61555">
        <ele>633.65</ele>
        <time>2010-10-28T12:34:27Z</time>
      </trkpt>
      <trkpt lat="45.63901" lon="4.61577">
        <ele>635.57</ele>
        <time>2010-10-28T12:34:34Z</time>
      </trkpt>
      <trkpt lat="45.63904" lon="4.61587">
        <ele>636.53</ele>
        <time>2010-10-28T12:34:37Z</time>
      </trkpt>
      <trkpt lat="45.63907" lon="4.61595">
        <ele>636.53</ele>
        <time>2010-10-28T12:34:40Z</time>
      </trkpt>
      <trkpt lat="45.63911" lon="4.61614">
        <ele>637.97</ele>
        <time>2010-10-28T12:34:46Z</time>
      </trkpt>
      <trkpt lat="45.63913" lon="4.61623">
        <ele>637.97</ele>
        <time>2010-10-28T12:34:49Z</time>
      </trkpt>
      <trkpt lat="45.63905" lon="4.61651">
        <ele>639.41</ele>
        <time>2010-10-28T12:34:58Z</time>
      </trkpt>
      <trkpt lat="45.63901" lon="4.6166">
        <ele>638.93</ele>
        <time>2010-10-28T12:35:01Z</time>
      </trkpt>
      <trkpt lat="45.63897" lon="4.61686">
        <ele>638.45</ele>
        <time>2010-10-28T12:35:08Z</time>
      </trkpt>
      <trkpt lat="45.63895" lon="4.61702">
        <ele>637.97</ele>
        <time>2010-10-28T12:35:13Z</time>
      </trkpt>
      <trkpt lat="45.63892" lon="4.61731">
        <ele>638.45</ele>
        <time>2010-10-28T12:35:21Z</time>
      </trkpt>
      <trkpt lat="45.63892" lon="4.61738">
        <ele>637.49</ele>
        <time>2010-10-28T12:35:23Z</time>
      </trkpt>
      <trkpt lat="45.63886" lon="4.61771">
        <ele>637.97</ele>
        <time>2010-10-28T12:35:32Z</time>
      </trkpt>
      <trkpt lat="45.63879" lon="4.61795">
        <ele>637.97</ele>
        <time>2010-10-28T12:35:39Z</time>
      </trkpt>
      <trkpt lat="45.63874" lon="4.61823">
        <ele>638.93</ele>
        <time>2010-10-28T12:35:47Z</time>
      </trkpt>
      <trkpt lat="45.63873" lon="4.6183">
        <ele>639.41</ele>
        <time>2010-10-28T12:35:49Z</time>
      </trkpt>
      <trkpt lat="45.63867" lon="4.61855">
        <ele>639.89</ele>
        <time>2010-10-28T12:35:56Z</time>
      </trkpt>
      <trkpt lat="45.63866" lon="4.61886">
        <ele>637.97</ele>
        <time>2010-10-28T12:36:04Z</time>
      </trkpt>
      <trkpt lat="45.63868" lon="4.61897">
        <ele>635.57</ele>
        <time>2010-10-28T12:36:07Z</time>
      </trkpt>
      <trkpt lat="45.63886" lon="4.6194">
        <ele>633.65</ele>
        <time>2010-10-28T12:36:18Z</time>
      </trkpt>
      <trkpt lat="45.63894" lon="4.61973">
        <ele>632.68</ele>
        <time>2010-10-28T12:36:26Z</time>
      </trkpt>
      <trkpt lat="45.63896" lon="4.61982">
        <ele>633.65</ele>
        <time>2010-10-28T12:36:28Z</time>
      </trkpt>
      <trkpt lat="45.63892" lon="4.62024">
        <ele>632.2</ele>
        <time>2010-10-28T12:36:39Z</time>
      </trkpt>
      <trkpt lat="45.63879" lon="4.62048">
        <ele>633.65</ele>
        <time>2010-10-28T12:36:46Z</time>
      </trkpt>
      <trkpt lat="45.63869" lon="4.62065">
        <ele>632.2</ele>
        <time>2010-10-28T12:36:52Z</time>
      </trkpt>
      <trkpt lat="45.6386" lon="4.62082">
        <ele>632.2</ele>
        <time>2010-10-28T12:36:57Z</time>
      </trkpt>
      <trkpt lat="45.63856" lon="4.62088">
        <ele>630.76</ele>
        <time>2010-10-28T12:36:59Z</time>
      </trkpt>
      <trkpt lat="45.63835" lon="4.62113">
        <ele>630.76</ele>
        <time>2010-10-28T12:37:09Z</time>
      </trkpt>
      <trkpt lat="45.63819" lon="4.62134">
        <ele>630.28</ele>
        <time>2010-10-28T12:37:17Z</time>
      </trkpt>
      <trkpt lat="45.63805" lon="4.6216">
        <ele>629.8</ele>
        <time>2010-10-28T12:37:25Z</time>
      </trkpt>
      <trkpt lat="45.63792" lon="4.62191">
        <ele>629.32</ele>
        <time>2010-10-28T12:37:34Z</time>
      </trkpt>
      <trkpt lat="45.63778" lon="4.62222">
        <ele>628.36</ele>
        <time>2010-10-28T12:37:43Z</time>
      </trkpt>
      <trkpt lat="45.6376" lon="4.62255">
        <ele>629.32</ele>
        <time>2010-10-28T12:37:53Z</time>
      </trkpt>
      <trkpt lat="45.63749" lon="4.62275">
        <ele>628.36</ele>
        <time>2010-10-28T12:38:00Z</time>
      </trkpt>
      <trkpt lat="45.63744" lon="4.62281">
        <ele>627.4</ele>
        <time>2010-10-28T12:38:02Z</time>
      </trkpt>
      <trkpt lat="45.63741" lon="4.62285">
        <ele>627.4</ele>
        <time>2010-10-28T12:38:03Z</time>
      </trkpt>
      <trkpt lat="45.63739" lon="4.62289">
        <ele>627.4</ele>
        <time>2010-10-28T12:38:04Z</time>
      </trkpt>
      <trkpt lat="45.63737" lon="4.62293">
        <ele>625.96</ele>
        <time>2010-10-28T12:38:05Z</time>
      </trkpt>
      <trkpt lat="45.63735" lon="4.62297">
        <ele>626.92</ele>
        <time>2010-10-28T12:38:06Z</time>
      </trkpt>
      <trkpt lat="45.63733" lon="4.623">
        <ele>625.96</ele>
        <time>2010-10-28T12:38:07Z</time>
      </trkpt>
      <trkpt lat="45.63732" lon="4.62304">
        <ele>626.44</ele>
        <time>2010-10-28T12:38:08Z</time>
      </trkpt>
      <trkpt lat="45.6373" lon="4.62307">
        <ele>625.47</ele>
        <time>2010-10-28T12:38:09Z</time>
      </trkpt>
      <trkpt lat="45.63728" lon="4.6231">
        <ele>624.99</ele>
        <time>2010-10-28T12:38:10Z</time>
      </trkpt>
      <trkpt lat="45.63727" lon="4.62314">
        <ele>625.47</ele>
        <time>2010-10-28T12:38:11Z</time>
      </trkpt>
      <trkpt lat="45.63726" lon="4.62318">
        <ele>624.03</ele>
        <time>2010-10-28T12:38:12Z</time>
      </trkpt>
      <trkpt lat="45.63724" lon="4.62322">
        <ele>624.51</ele>
        <time>2010-10-28T12:38:13Z</time>
      </trkpt>
      <trkpt lat="45.63723" lon="4.62326">
        <ele>624.03</ele>
        <time>2010-10-28T12:38:14Z</time>
      </trkpt>
      <trkpt lat="45.63722" lon="4.62329">
        <ele>622.59</ele>
        <time>2010-10-28T12:38:15Z</time>
      </trkpt>
      <trkpt lat="45.6372" lon="4.62334">
        <ele>623.55</ele>
        <time>2010-10-28T12:38:16Z</time>
      </trkpt>
      <trkpt lat="45.63719" lon="4.62338">
        <ele>623.07</ele>
        <time>2010-10-28T12:38:17Z</time>
      </trkpt>
      <trkpt lat="45.63721" lon="4.62368">
        <ele>622.11</ele>
        <time>2010-10-28T12:38:24Z</time>
      </trkpt>
      <trkpt lat="45.63727" lon="4.62386">
        <ele>620.67</ele>
        <time>2010-10-28T12:38:29Z</time>
      </trkpt>
      <trkpt lat="45.63729" lon="4.62388">
        <ele>620.19</ele>
        <time>2010-10-28T12:38:30Z</time>
      </trkpt>
      <trkpt lat="45.63731" lon="4.62391">
        <ele>619.23</ele>
        <time>2010-10-28T12:38:31Z</time>
      </trkpt>
      <trkpt lat="45.6374" lon="4.6242">
        <ele>618.26</ele>
        <time>2010-10-28T12:38:38Z</time>
      </trkpt>
      <trkpt lat="45.63739" lon="4.62424">
        <ele>618.26</ele>
        <time>2010-10-28T12:38:39Z</time>
      </trkpt>
      <trkpt lat="45.6374" lon="4.62428">
        <ele>618.26</ele>
        <time>2010-10-28T12:38:40Z</time>
      </trkpt>
      <trkpt lat="45.63741" lon="4.62431">
        <ele>618.75</ele>
        <time>2010-10-28T12:38:44Z</time>
      </trkpt>
      <trkpt lat="45.63744" lon="4.62433">
        <ele>618.26</ele>
        <time>2010-10-28T12:38:46Z</time>
      </trkpt>
      <trkpt lat="45.63746" lon="4.62437">
        <ele>618.75</ele>
        <time>2010-10-28T12:38:50Z</time>
      </trkpt>
      <trkpt lat="45.63745" lon="4.62448">
        <ele>617.78</ele>
        <time>2010-10-28T12:38:59Z</time>
      </trkpt>
      <trkpt lat="45.63744" lon="4.6245">
        <ele>618.75</ele>
        <time>2010-10-28T12:39:00Z</time>
      </trkpt>
      <trkpt lat="45.63743" lon="4.62452">
        <ele>618.26</ele>
        <time>2010-10-28T12:39:01Z</time>
      </trkpt>
      <trkpt lat="45.63742" lon="4.62455">
        <ele>618.26</ele>
        <time>2010-10-28T12:39:02Z</time>
      </trkpt>
      <trkpt lat="45.63741" lon="4.62457">
        <ele>618.75</ele>
        <time>2010-10-28T12:39:03Z</time>
      </trkpt>
      <trkpt lat="45.6374" lon="4.62459">
        <ele>618.75</ele>
        <time>2010-10-28T12:39:04Z</time>
      </trkpt>
      <trkpt lat="45.63739" lon="4.6246">
        <ele>618.75</ele>
        <time>2010-10-28T12:39:05Z</time>
      </trkpt>
      <trkpt lat="45.63738" lon="4.62462">
        <ele>619.71</ele>
        <time>2010-10-28T12:39:06Z</time>
      </trkpt>
      <trkpt lat="45.63736" lon="4.62463">
        <ele>619.23</ele>
        <time>2010-10-28T12:39:07Z</time>
      </trkpt>
      <trkpt lat="45.63735" lon="4.62465">
        <ele>619.23</ele>
        <time>2010-10-28T12:39:08Z</time>
      </trkpt>
      <trkpt lat="45.63733" lon="4.62468">
        <ele>619.23</ele>
        <time>2010-10-28T12:39:09Z</time>
      </trkpt>
      <trkpt lat="45.63731" lon="4.6247">
        <ele>619.23</ele>
        <time>2010-10-28T12:39:10Z</time>
      </trkpt>
      <trkpt lat="45.63729" lon="4.62473">
        <ele>619.23</ele>
        <time>2010-10-28T12:39:11Z</time>
      </trkpt>
      <trkpt lat="45.6371" lon="4.62499">
        <ele>616.82</ele>
        <time>2010-10-28T12:39:21Z</time>
      </trkpt>
      <trkpt lat="45.63696" lon="4.62508">
        <ele>614.9</ele>
        <time>2010-10-28T12:39:27Z</time>
      </trkpt>
      <trkpt lat="45.63694" lon="4.6251">
        <ele>614.42</ele>
        <time>2010-10-28T12:39:28Z</time>
      </trkpt>
      <trkpt lat="45.63692" lon="4.62514">
        <ele>613.94</ele>
        <time>2010-10-28T12:39:29Z</time>
      </trkpt>
      <trkpt lat="45.63691" lon="4.62517">
        <ele>614.9</ele>
        <time>2010-10-28T12:39:30Z</time>
      </trkpt>
      <trkpt lat="45.6369" lon="4.6252">
        <ele>615.38</ele>
        <time>2010-10-28T12:39:31Z</time>
      </trkpt>
      <trkpt lat="45.63689" lon="4.62523">
        <ele>615.38</ele>
        <time>2010-10-28T12:39:32Z</time>
      </trkpt>
      <trkpt lat="45.63688" lon="4.62526">
        <ele>614.9</ele>
        <time>2010-10-28T12:39:33Z</time>
      </trkpt>
      <trkpt lat="45.63688" lon="4.62529">
        <ele>616.34</ele>
        <time>2010-10-28T12:39:34Z</time>
      </trkpt>
      <trkpt lat="45.63688" lon="4.62533">
        <ele>615.86</ele>
        <time>2010-10-28T12:39:35Z</time>
      </trkpt>
      <trkpt lat="45.63687" lon="4.62537">
        <ele>616.82</ele>
        <time>2010-10-28T12:39:36Z</time>
      </trkpt>
      <trkpt lat="45.63686" lon="4.6254">
        <ele>618.26</ele>
        <time>2010-10-28T12:39:37Z</time>
      </trkpt>
      <trkpt lat="45.63672" lon="4.62574">
        <ele>616.34</ele>
        <time>2010-10-28T12:39:47Z</time>
      </trkpt>
      <trkpt lat="45.63666" lon="4.62589">
        <ele>614.42</ele>
        <time>2010-10-28T12:39:51Z</time>
      </trkpt>
      <trkpt lat="45.63665" lon="4.62593">
        <ele>615.38</ele>
        <time>2010-10-28T12:39:52Z</time>
      </trkpt>
      <trkpt lat="45.63664" lon="4.62598">
        <ele>614.42</ele>
        <time>2010-10-28T12:39:53Z</time>
      </trkpt>
      <trkpt lat="45.63663" lon="4.62602">
        <ele>613.94</ele>
        <time>2010-10-28T12:39:54Z</time>
      </trkpt>
      <trkpt lat="45.63661" lon="4.62606">
        <ele>615.38</ele>
        <time>2010-10-28T12:39:55Z</time>
      </trkpt>
      <trkpt lat="45.6366" lon="4.62611">
        <ele>614.9</ele>
        <time>2010-10-28T12:39:56Z</time>
      </trkpt>
      <trkpt lat="45.63659" lon="4.62615">
        <ele>613.94</ele>
        <time>2010-10-28T12:39:57Z</time>
      </trkpt>
      <trkpt lat="45.63658" lon="4.62619">
        <ele>615.38</ele>
        <time>2010-10-28T12:39:58Z</time>
      </trkpt>
      <trkpt lat="45.63651" lon="4.62642">
        <ele>612.02</ele>
        <time>2010-10-28T12:40:04Z</time>
      </trkpt>
      <trkpt lat="45.63646" lon="4.62653">
        <ele>610.09</ele>
        <time>2010-10-28T12:40:07Z</time>
      </trkpt>
      <trkpt lat="45.63645" lon="4.62657">
        <ele>610.57</ele>
        <time>2010-10-28T12:40:08Z</time>
      </trkpt>
      <trkpt lat="45.63642" lon="4.62665">
        <ele>609.61</ele>
        <time>2010-10-28T12:40:10Z</time>
      </trkpt>
      <trkpt lat="45.6364" lon="4.6267">
        <ele>610.57</ele>
        <time>2010-10-28T12:40:11Z</time>
      </trkpt>
      <trkpt lat="45.63639" lon="4.62675">
        <ele>607.69</ele>
        <time>2010-10-28T12:40:12Z</time>
      </trkpt>
      <trkpt lat="45.63637" lon="4.62679">
        <ele>607.21</ele>
        <time>2010-10-28T12:40:13Z</time>
      </trkpt>
      <trkpt lat="45.63636" lon="4.62684">
        <ele>607.21</ele>
        <time>2010-10-28T12:40:14Z</time>
      </trkpt>
      <trkpt lat="45.63635" lon="4.62687">
        <ele>605.77</ele>
        <time>2010-10-28T12:40:15Z</time>
      </trkpt>
      <trkpt lat="45.63634" lon="4.6269">
        <ele>606.73</ele>
        <time>2010-10-28T12:40:16Z</time>
      </trkpt>
      <trkpt lat="45.63632" lon="4.62698">
        <ele>605.77</ele>
        <time>2010-10-28T12:40:18Z</time>
      </trkpt>
      <trkpt lat="45.6363" lon="4.62702">
        <ele>604.33</ele>
        <time>2010-10-28T12:40:19Z</time>
      </trkpt>
      <trkpt lat="45.63628" lon="4.62705">
        <ele>604.81</ele>
        <time>2010-10-28T12:40:20Z</time>
      </trkpt>
      <trkpt lat="45.63627" lon="4.62709">
        <ele>604.33</ele>
        <time>2010-10-28T12:40:21Z</time>
      </trkpt>
      <trkpt lat="45.63625" lon="4.62711">
        <ele>604.33</ele>
        <time>2010-10-28T12:40:22Z</time>
      </trkpt>
      <trkpt lat="45.63621" lon="4.62714">
        <ele>603.85</ele>
        <time>2010-10-28T12:40:23Z</time>
      </trkpt>
      <trkpt lat="45.63618" lon="4.62719">
        <ele>602.88</ele>
        <time>2010-10-28T12:40:24Z</time>
      </trkpt>
      <trkpt lat="45.63605" lon="4.62735">
        <ele>599.52</ele>
        <time>2010-10-28T12:40:29Z</time>
      </trkpt>
      <trkpt lat="45.63601" lon="4.62743">
        <ele>600</ele>
        <time>2010-10-28T12:40:31Z</time>
      </trkpt>
      <trkpt lat="45.63599" lon="4.62747">
        <ele>598.56</ele>
        <time>2010-10-28T12:40:32Z</time>
      </trkpt>
      <trkpt lat="45.63597" lon="4.6275">
        <ele>597.12</ele>
        <time>2010-10-28T12:40:33Z</time>
      </trkpt>
      <trkpt lat="45.63595" lon="4.62754">
        <ele>597.6</ele>
        <time>2010-10-28T12:40:34Z</time>
      </trkpt>
      <trkpt lat="45.63593" lon="4.62757">
        <ele>597.12</ele>
        <time>2010-10-28T12:40:35Z</time>
      </trkpt>
      <trkpt lat="45.63591" lon="4.62761">
        <ele>598.08</ele>
        <time>2010-10-28T12:40:36Z</time>
      </trkpt>
      <trkpt lat="45.63589" lon="4.62765">
        <ele>597.12</ele>
        <time>2010-10-28T12:40:37Z</time>
      </trkpt>
      <trkpt lat="45.63587" lon="4.62768">
        <ele>595.19</ele>
        <time>2010-10-28T12:40:38Z</time>
      </trkpt>
      <trkpt lat="45.63586" lon="4.62773">
        <ele>595.67</ele>
        <time>2010-10-28T12:40:39Z</time>
      </trkpt>
      <trkpt lat="45.63585" lon="4.62777">
        <ele>595.19</ele>
        <time>2010-10-28T12:40:40Z</time>
      </trkpt>
      <trkpt lat="45.63584" lon="4.62781">
        <ele>593.27</ele>
        <time>2010-10-28T12:40:41Z</time>
      </trkpt>
      <trkpt lat="45.63583" lon="4.62785">
        <ele>593.27</ele>
        <time>2010-10-28T12:40:42Z</time>
      </trkpt>
      <trkpt lat="45.63582" lon="4.62791">
        <ele>592.79</ele>
        <time>2010-10-28T12:40:43Z</time>
      </trkpt>
      <trkpt lat="45.63581" lon="4.62795">
        <ele>591.83</ele>
        <time>2010-10-28T12:40:44Z</time>
      </trkpt>
      <trkpt lat="45.63581" lon="4.628">
        <ele>591.83</ele>
        <time>2010-10-28T12:40:45Z</time>
      </trkpt>
      <trkpt lat="45.63581" lon="4.62815">
        <ele>589.91</ele>
        <time>2010-10-28T12:40:48Z</time>
      </trkpt>
      <trkpt lat="45.6358" lon="4.62834">
        <ele>588.46</ele>
        <time>2010-10-28T12:40:52Z</time>
      </trkpt>
      <trkpt lat="45.6358" lon="4.62839">
        <ele>588.95</ele>
        <time>2010-10-28T12:40:53Z</time>
      </trkpt>
      <trkpt lat="45.63579" lon="4.62844">
        <ele>587.98</ele>
        <time>2010-10-28T12:40:54Z</time>
      </trkpt>
      <trkpt lat="45.63579" lon="4.62849">
        <ele>587.02</ele>
        <time>2010-10-28T12:40:55Z</time>
      </trkpt>
      <trkpt lat="45.63578" lon="4.62853">
        <ele>587.98</ele>
        <time>2010-10-28T12:40:56Z</time>
      </trkpt>
      <trkpt lat="45.63577" lon="4.62857">
        <ele>587.02</ele>
        <time>2010-10-28T12:40:57Z</time>
      </trkpt>
      <trkpt lat="45.63576" lon="4.62861">
        <ele>585.1</ele>
        <time>2010-10-28T12:40:58Z</time>
      </trkpt>
      <trkpt lat="45.63575" lon="4.62866">
        <ele>586.54</ele>
        <time>2010-10-28T12:40:59Z</time>
      </trkpt>
      <trkpt lat="45.63573" lon="4.62872">
        <ele>585.58</ele>
        <time>2010-10-28T12:41:00Z</time>
      </trkpt>
      <trkpt lat="45.63567" lon="4.62886">
        <ele>583.18</ele>
        <time>2010-10-28T12:41:03Z</time>
      </trkpt>
      <trkpt lat="45.63561" lon="4.62899">
        <ele>581.25</ele>
        <time>2010-10-28T12:41:06Z</time>
      </trkpt>
      <trkpt lat="45.6355" lon="4.62915">
        <ele>577.41</ele>
        <time>2010-10-28T12:41:10Z</time>
      </trkpt>
      <trkpt lat="45.63544" lon="4.62922">
        <ele>576.93</ele>
        <time>2010-10-28T12:41:12Z</time>
      </trkpt>
      <trkpt lat="45.63543" lon="4.62927">
        <ele>575.49</ele>
        <time>2010-10-28T12:41:13Z</time>
      </trkpt>
      <trkpt lat="45.63542" lon="4.62932">
        <ele>575.01</ele>
        <time>2010-10-28T12:41:14Z</time>
      </trkpt>
      <trkpt lat="45.63543" lon="4.62936">
        <ele>575.01</ele>
        <time>2010-10-28T12:41:16Z</time>
      </trkpt>
      <trkpt lat="45.63545" lon="4.62937">
        <ele>574.04</ele>
        <time>2010-10-28T12:41:17Z</time>
      </trkpt>
      <trkpt lat="45.63547" lon="4.6294">
        <ele>575.97</ele>
        <time>2010-10-28T12:41:18Z</time>
      </trkpt>
      <trkpt lat="45.63549" lon="4.62941">
        <ele>575.49</ele>
        <time>2010-10-28T12:41:19Z</time>
      </trkpt>
      <trkpt lat="45.63551" lon="4.62943">
        <ele>575.97</ele>
        <time>2010-10-28T12:41:20Z</time>
      </trkpt>
      <trkpt lat="45.63553" lon="4.62945">
        <ele>575.49</ele>
        <time>2010-10-28T12:41:21Z</time>
      </trkpt>
      <trkpt lat="45.63556" lon="4.62946">
        <ele>576.45</ele>
        <time>2010-10-28T12:41:22Z</time>
      </trkpt>
      <trkpt lat="45.63558" lon="4.62947">
        <ele>576.93</ele>
        <time>2010-10-28T12:41:23Z</time>
      </trkpt>
      <trkpt lat="45.6356" lon="4.62948">
        <ele>577.41</ele>
        <time>2010-10-28T12:41:24Z</time>
      </trkpt>
      <trkpt lat="45.63563" lon="4.62949">
        <ele>577.41</ele>
        <time>2010-10-28T12:41:25Z</time>
      </trkpt>
      <trkpt lat="45.63586" lon="4.62956">
        <ele>577.89</ele>
        <time>2010-10-28T12:41:34Z</time>
      </trkpt>
      <trkpt lat="45.63606" lon="4.62958">
        <ele>579.81</ele>
        <time>2010-10-28T12:41:42Z</time>
      </trkpt>
      <trkpt lat="45.63609" lon="4.62958">
        <ele>579.81</ele>
        <time>2010-10-28T12:41:43Z</time>
      </trkpt>
      <trkpt lat="45.63629" lon="4.62958">
        <ele>581.25</ele>
        <time>2010-10-28T12:41:51Z</time>
      </trkpt>
      <trkpt lat="45.63631" lon="4.62957">
        <ele>580.77</ele>
        <time>2010-10-28T12:41:52Z</time>
      </trkpt>
      <trkpt lat="45.63633" lon="4.62957">
        <ele>581.25</ele>
        <time>2010-10-28T12:41:53Z</time>
      </trkpt>
      <trkpt lat="45.63636" lon="4.62956">
        <ele>581.73</ele>
        <time>2010-10-28T12:41:54Z</time>
      </trkpt>
      <trkpt lat="45.63646" lon="4.62954">
        <ele>580.77</ele>
        <time>2010-10-28T12:41:59Z</time>
      </trkpt>
      <trkpt lat="45.63648" lon="4.62953">
        <ele>581.25</ele>
        <time>2010-10-28T12:42:00Z</time>
      </trkpt>
      <trkpt lat="45.6365" lon="4.62952">
        <ele>581.73</ele>
        <time>2010-10-28T12:42:01Z</time>
      </trkpt>
      <trkpt lat="45.63668" lon="4.62951">
        <ele>581.73</ele>
        <time>2010-10-28T12:42:08Z</time>
      </trkpt>
      <trkpt lat="45.63698" lon="4.62954">
        <ele>582.22</ele>
        <time>2010-10-28T12:42:17Z</time>
      </trkpt>
      <trkpt lat="45.63722" lon="4.62971">
        <ele>584.14</ele>
        <time>2010-10-28T12:42:28Z</time>
      </trkpt>
      <trkpt lat="45.6375" lon="4.62983">
        <ele>585.58</ele>
        <time>2010-10-28T12:42:37Z</time>
      </trkpt>
      <trkpt lat="45.63753" lon="4.62985">
        <ele>586.06</ele>
        <time>2010-10-28T12:42:38Z</time>
      </trkpt>
      <trkpt lat="45.63756" lon="4.62991">
        <ele>587.02</ele>
        <time>2010-10-28T12:42:40Z</time>
      </trkpt>
      <trkpt lat="45.63767" lon="4.63024">
        <ele>589.91</ele>
        <time>2010-10-28T12:42:49Z</time>
      </trkpt>
      <trkpt lat="45.6377" lon="4.6303">
        <ele>590.87</ele>
        <time>2010-10-28T12:42:51Z</time>
      </trkpt>
      <trkpt lat="45.63778" lon="4.63048">
        <ele>595.19</ele>
        <time>2010-10-28T12:42:58Z</time>
      </trkpt>
      <trkpt lat="45.63783" lon="4.63055">
        <ele>597.12</ele>
        <time>2010-10-28T12:43:01Z</time>
      </trkpt>
      <trkpt lat="45.63788" lon="4.63068">
        <ele>600</ele>
        <time>2010-10-28T12:43:06Z</time>
      </trkpt>
      <trkpt lat="45.63794" lon="4.63085">
        <ele>602.4</ele>
        <time>2010-10-28T12:43:12Z</time>
      </trkpt>
      <trkpt lat="45.638" lon="4.63097">
        <ele>604.81</ele>
        <time>2010-10-28T12:43:17Z</time>
      </trkpt>
      <trkpt lat="45.63813" lon="4.63109">
        <ele>607.69</ele>
        <time>2010-10-28T12:43:23Z</time>
      </trkpt>
      <trkpt lat="45.63816" lon="4.6311">
        <ele>608.17</ele>
        <time>2010-10-28T12:43:27Z</time>
      </trkpt>
      <trkpt lat="45.63821" lon="4.63111">
        <ele>609.61</ele>
        <time>2010-10-28T12:43:32Z</time>
      </trkpt>
      <trkpt lat="45.63828" lon="4.63107">
        <ele>611.06</ele>
        <time>2010-10-28T12:43:38Z</time>
      </trkpt>
      <trkpt lat="45.63833" lon="4.63106">
        <ele>611.54</ele>
        <time>2010-10-28T12:43:42Z</time>
      </trkpt>
      <trkpt lat="45.63846" lon="4.63098">
        <ele>614.9</ele>
        <time>2010-10-28T12:43:52Z</time>
      </trkpt>
      <trkpt lat="45.63854" lon="4.6309">
        <ele>615.86</ele>
        <time>2010-10-28T12:43:59Z</time>
      </trkpt>
      <trkpt lat="45.63869" lon="4.63082">
        <ele>618.75</ele>
        <time>2010-10-28T12:44:12Z</time>
      </trkpt>
      <trkpt lat="45.63878" lon="4.63075">
        <ele>621.15</ele>
        <time>2010-10-28T12:44:21Z</time>
      </trkpt>
      <trkpt lat="45.63886" lon="4.63074">
        <ele>622.11</ele>
        <time>2010-10-28T12:44:31Z</time>
      </trkpt>
      <trkpt lat="45.63888" lon="4.63074">
        <ele>622.59</ele>
        <time>2010-10-28T12:45:27Z</time>
      </trkpt>
      <trkpt lat="45.63893" lon="4.63073">
        <ele>623.07</ele>
        <time>2010-10-28T12:46:08Z</time>
      </trkpt>
      <trkpt lat="45.63911" lon="4.63066">
        <ele>626.44</ele>
        <time>2010-10-28T12:46:19Z</time>
      </trkpt>
      <trkpt lat="45.63928" lon="4.63064">
        <ele>628.36</ele>
        <time>2010-10-28T12:46:25Z</time>
      </trkpt>
      <trkpt lat="45.63934" lon="4.63064">
        <ele>628.36</ele>
        <time>2010-10-28T12:46:28Z</time>
      </trkpt>
      <trkpt lat="45.63946" lon="4.63057">
        <ele>629.32</ele>
        <time>2010-10-28T12:46:33Z</time>
      </trkpt>
      <trkpt lat="45.63957" lon="4.63049">
        <ele>630.76</ele>
        <time>2010-10-28T12:46:38Z</time>
      </trkpt>
      <trkpt lat="45.63967" lon="4.63045">
        <ele>633.17</ele>
        <time>2010-10-28T12:46:43Z</time>
      </trkpt>
      <trkpt lat="45.63968" lon="4.63044">
        <ele>633.17</ele>
        <time>2010-10-28T12:46:44Z</time>
      </trkpt>
      <trkpt lat="45.63981" lon="4.63035">
        <ele>635.09</ele>
        <time>2010-10-28T12:46:52Z</time>
      </trkpt>
      <trkpt lat="45.63993" lon="4.63028">
        <ele>637.49</ele>
        <time>2010-10-28T12:46:57Z</time>
      </trkpt>
      <trkpt lat="45.64013" lon="4.63015">
        <ele>635.57</ele>
        <time>2010-10-28T12:47:12Z</time>
      </trkpt>
      <trkpt lat="45.64024" lon="4.63011">
        <ele>635.57</ele>
        <time>2010-10-28T12:47:16Z</time>
      </trkpt>
      <trkpt lat="45.64032" lon="4.63007">
        <ele>633.65</ele>
        <time>2010-10-28T12:47:20Z</time>
      </trkpt>
      <trkpt lat="45.64034" lon="4.63004">
        <ele>633.65</ele>
        <time>2010-10-28T12:47:22Z</time>
      </trkpt>
      <trkpt lat="45.6404" lon="4.63">
        <ele>633.17</ele>
        <time>2010-10-28T12:47:25Z</time>
      </trkpt>
      <trkpt lat="45.64042" lon="4.62997">
        <ele>632.2</ele>
        <time>2010-10-28T12:47:27Z</time>
      </trkpt>
      <trkpt lat="45.64046" lon="4.62993">
        <ele>632.2</ele>
        <time>2010-10-28T12:47:29Z</time>
      </trkpt>
      <trkpt lat="45.64056" lon="4.62982">
        <ele>632.68</ele>
        <time>2010-10-28T12:47:35Z</time>
      </trkpt>
      <trkpt lat="45.64059" lon="4.6298">
        <ele>632.2</ele>
        <time>2010-10-28T12:47:36Z</time>
      </trkpt>
      <trkpt lat="45.64063" lon="4.62977">
        <ele>631.24</ele>
        <time>2010-10-28T12:47:40Z</time>
      </trkpt>
      <trkpt lat="45.64071" lon="4.62971">
        <ele>631.24</ele>
        <time>2010-10-28T12:47:43Z</time>
      </trkpt>
      <trkpt lat="45.64083" lon="4.62962">
        <ele>632.2</ele>
        <time>2010-10-28T12:47:48Z</time>
      </trkpt>
      <trkpt lat="45.64107" lon="4.62951">
        <ele>630.76</ele>
        <time>2010-10-28T12:47:56Z</time>
      </trkpt>
      <trkpt lat="45.64123" lon="4.62949">
        <ele>630.76</ele>
        <time>2010-10-28T12:48:00Z</time>
      </trkpt>
      <trkpt lat="45.64153" lon="4.62934">
        <ele>630.28</ele>
        <time>2010-10-28T12:48:06Z</time>
      </trkpt>
      <trkpt lat="45.64192" lon="4.62924">
        <ele>629.32</ele>
        <time>2010-10-28T12:48:15Z</time>
      </trkpt>
      <trkpt lat="45.64203" lon="4.62917">
        <ele>627.4</ele>
        <time>2010-10-28T12:48:20Z</time>
      </trkpt>
      <trkpt lat="45.64233" lon="4.62896">
        <ele>624.51</ele>
        <time>2010-10-28T12:48:32Z</time>
      </trkpt>
      <trkpt lat="45.64236" lon="4.62894">
        <ele>624.03</ele>
        <time>2010-10-28T12:48:33Z</time>
      </trkpt>
      <trkpt lat="45.64253" lon="4.62883">
        <ele>623.55</ele>
        <time>2010-10-28T12:48:39Z</time>
      </trkpt>
      <trkpt lat="45.64271" lon="4.62868">
        <ele>621.15</ele>
        <time>2010-10-28T12:48:47Z</time>
      </trkpt>
      <trkpt lat="45.64282" lon="4.62863">
        <ele>621.15</ele>
        <time>2010-10-28T12:48:55Z</time>
      </trkpt>
      <trkpt lat="45.64283" lon="4.62874">
        <ele>620.19</ele>
        <time>2010-10-28T12:49:02Z</time>
      </trkpt>
      <trkpt lat="45.64284" lon="4.62879">
        <ele>620.19</ele>
        <time>2010-10-28T12:49:04Z</time>
      </trkpt>
      <trkpt lat="45.64285" lon="4.62889">
        <ele>619.71</ele>
        <time>2010-10-28T12:49:08Z</time>
      </trkpt>
      <trkpt lat="45.64291" lon="4.62912">
        <ele>618.26</ele>
        <time>2010-10-28T12:49:16Z</time>
      </trkpt>
      <trkpt lat="45.64294" lon="4.62918">
        <ele>618.26</ele>
        <time>2010-10-28T12:49:18Z</time>
      </trkpt>
      <trkpt lat="45.64304" lon="4.62941">
        <ele>618.26</ele>
        <time>2010-10-28T12:49:27Z</time>
      </trkpt>
      <trkpt lat="45.64309" lon="4.62956">
        <ele>617.3</ele>
        <time>2010-10-28T12:49:32Z</time>
      </trkpt>
      <trkpt lat="45.64313" lon="4.62972">
        <ele>617.3</ele>
        <time>2010-10-28T12:49:37Z</time>
      </trkpt>
      <trkpt lat="45.64315" lon="4.62984">
        <ele>617.3</ele>
        <time>2010-10-28T12:49:41Z</time>
      </trkpt>
      <trkpt lat="45.64319" lon="4.62997">
        <ele>617.78</ele>
        <time>2010-10-28T12:49:45Z</time>
      </trkpt>
      <trkpt lat="45.64321" lon="4.63011">
        <ele>616.82</ele>
        <time>2010-10-28T12:49:49Z</time>
      </trkpt>
      <trkpt lat="45.64325" lon="4.63045">
        <ele>617.78</ele>
        <time>2010-10-28T12:49:58Z</time>
      </trkpt>
      <trkpt lat="45.64336" lon="4.63081">
        <ele>618.75</ele>
        <time>2010-10-28T12:50:08Z</time>
      </trkpt>
      <trkpt lat="45.6435" lon="4.63112">
        <ele>617.3</ele>
        <time>2010-10-28T12:50:19Z</time>
      </trkpt>
      <trkpt lat="45.64365" lon="4.63136">
        <ele>617.3</ele>
        <time>2010-10-28T12:50:29Z</time>
      </trkpt>
      <trkpt lat="45.64374" lon="4.63145">
        <ele>618.26</ele>
        <time>2010-10-28T12:50:33Z</time>
      </trkpt>
      <trkpt lat="45.64395" lon="4.63171">
        <ele>616.82</ele>
        <time>2010-10-28T12:50:44Z</time>
      </trkpt>
      <trkpt lat="45.64417" lon="4.63198">
        <ele>616.82</ele>
        <time>2010-10-28T12:50:55Z</time>
      </trkpt>
      <trkpt lat="45.64439" lon="4.63223">
        <ele>614.9</ele>
        <time>2010-10-28T12:51:05Z</time>
      </trkpt>
      <trkpt lat="45.64441" lon="4.63226">
        <ele>615.38</ele>
        <time>2010-10-28T12:51:06Z</time>
      </trkpt>
      <trkpt lat="45.64446" lon="4.63235">
        <ele>614.9</ele>
        <time>2010-10-28T12:51:09Z</time>
      </trkpt>
      <trkpt lat="45.64472" lon="4.63245">
        <ele>612.5</ele>
        <time>2010-10-28T12:51:18Z</time>
      </trkpt>
      <trkpt lat="45.64494" lon="4.6325">
        <ele>612.02</ele>
        <time>2010-10-28T12:51:25Z</time>
      </trkpt>
      <trkpt lat="45.64524" lon="4.63271">
        <ele>610.57</ele>
        <time>2010-10-28T12:51:36Z</time>
      </trkpt>
      <trkpt lat="45.64544" lon="4.6329">
        <ele>610.09</ele>
        <time>2010-10-28T12:51:45Z</time>
      </trkpt>
      <trkpt lat="45.64565" lon="4.63334">
        <ele>609.13</ele>
        <time>2010-10-28T12:51:57Z</time>
      </trkpt>
      <trkpt lat="45.64566" lon="4.63343">
        <ele>608.65</ele>
        <time>2010-10-28T12:51:59Z</time>
      </trkpt>
      <trkpt lat="45.64578" lon="4.63383">
        <ele>608.17</ele>
        <time>2010-10-28T12:52:09Z</time>
      </trkpt>
      <trkpt lat="45.64579" lon="4.63386">
        <ele>608.17</ele>
        <time>2010-10-28T12:52:10Z</time>
      </trkpt>
      <trkpt lat="45.64583" lon="4.63419">
        <ele>607.69</ele>
        <time>2010-10-28T12:52:18Z</time>
      </trkpt>
      <trkpt lat="45.64586" lon="4.63462">
        <ele>606.73</ele>
        <time>2010-10-28T12:52:26Z</time>
      </trkpt>
      <trkpt lat="45.64587" lon="4.6348">
        <ele>606.25</ele>
        <time>2010-10-28T12:52:30Z</time>
      </trkpt>
      <trkpt lat="45.64587" lon="4.63485">
        <ele>607.21</ele>
        <time>2010-10-28T12:52:31Z</time>
      </trkpt>
      <trkpt lat="45.64587" lon="4.63489">
        <ele>607.21</ele>
        <time>2010-10-28T12:52:32Z</time>
      </trkpt>
      <trkpt lat="45.64587" lon="4.63493">
        <ele>607.69</ele>
        <time>2010-10-28T12:52:33Z</time>
      </trkpt>
      <trkpt lat="45.64586" lon="4.63496">
        <ele>607.21</ele>
        <time>2010-10-28T12:52:34Z</time>
      </trkpt>
      <trkpt lat="45.64586" lon="4.63501">
        <ele>606.73</ele>
        <time>2010-10-28T12:52:35Z</time>
      </trkpt>
      <trkpt lat="45.64585" lon="4.63505">
        <ele>606.25</ele>
        <time>2010-10-28T12:52:36Z</time>
      </trkpt>
      <trkpt lat="45.64587" lon="4.63549">
        <ele>605.29</ele>
        <time>2010-10-28T12:52:45Z</time>
      </trkpt>
      <trkpt lat="45.64588" lon="4.63583">
        <ele>603.36</ele>
        <time>2010-10-28T12:52:52Z</time>
      </trkpt>
      <trkpt lat="45.64592" lon="4.6362">
        <ele>600.48</ele>
        <time>2010-10-28T12:53:00Z</time>
      </trkpt>
      <trkpt lat="45.64597" lon="4.63658">
        <ele>597.12</ele>
        <time>2010-10-28T12:53:08Z</time>
      </trkpt>
      <trkpt lat="45.64604" lon="4.63683">
        <ele>595.67</ele>
        <time>2010-10-28T12:53:14Z</time>
      </trkpt>
      <trkpt lat="45.64605" lon="4.63688">
        <ele>596.15</ele>
        <time>2010-10-28T12:53:15Z</time>
      </trkpt>
      <trkpt lat="45.64606" lon="4.63693">
        <ele>595.19</ele>
        <time>2010-10-28T12:53:16Z</time>
      </trkpt>
      <trkpt lat="45.64608" lon="4.63697">
        <ele>593.75</ele>
        <time>2010-10-28T12:53:17Z</time>
      </trkpt>
      <trkpt lat="45.6461" lon="4.63701">
        <ele>594.71</ele>
        <time>2010-10-28T12:53:18Z</time>
      </trkpt>
      <trkpt lat="45.64612" lon="4.63706">
        <ele>595.19</ele>
        <time>2010-10-28T12:53:19Z</time>
      </trkpt>
      <trkpt lat="45.64616" lon="4.63715">
        <ele>593.75</ele>
        <time>2010-10-28T12:53:21Z</time>
      </trkpt>
      <trkpt lat="45.64633" lon="4.63742">
        <ele>589.91</ele>
        <time>2010-10-28T12:53:28Z</time>
      </trkpt>
      <trkpt lat="45.64637" lon="4.63746">
        <ele>590.39</ele>
        <time>2010-10-28T12:53:29Z</time>
      </trkpt>
      <trkpt lat="45.64653" lon="4.63766">
        <ele>588.46</ele>
        <time>2010-10-28T12:53:34Z</time>
      </trkpt>
      <trkpt lat="45.64656" lon="4.63769">
        <ele>587.98</ele>
        <time>2010-10-28T12:53:35Z</time>
      </trkpt>
      <trkpt lat="45.6466" lon="4.63771">
        <ele>587.5</ele>
        <time>2010-10-28T12:53:36Z</time>
      </trkpt>
      <trkpt lat="45.6468" lon="4.63778">
        <ele>585.58</ele>
        <time>2010-10-28T12:53:41Z</time>
      </trkpt>
      <trkpt lat="45.64684" lon="4.63779">
        <ele>586.54</ele>
        <time>2010-10-28T12:53:42Z</time>
      </trkpt>
      <trkpt lat="45.64689" lon="4.6378">
        <ele>586.54</ele>
        <time>2010-10-28T12:53:43Z</time>
      </trkpt>
      <trkpt lat="45.64704" lon="4.63787">
        <ele>583.18</ele>
        <time>2010-10-28T12:53:47Z</time>
      </trkpt>
      <trkpt lat="45.64714" lon="4.63794">
        <ele>582.7</ele>
        <time>2010-10-28T12:53:50Z</time>
      </trkpt>
      <trkpt lat="45.64718" lon="4.63796">
        <ele>582.22</ele>
        <time>2010-10-28T12:53:51Z</time>
      </trkpt>
      <trkpt lat="45.64721" lon="4.63799">
        <ele>580.77</ele>
        <time>2010-10-28T12:53:52Z</time>
      </trkpt>
      <trkpt lat="45.64725" lon="4.63802">
        <ele>581.25</ele>
        <time>2010-10-28T12:53:53Z</time>
      </trkpt>
      <trkpt lat="45.64728" lon="4.63805">
        <ele>580.77</ele>
        <time>2010-10-28T12:53:54Z</time>
      </trkpt>
      <trkpt lat="45.64731" lon="4.63809">
        <ele>579.81</ele>
        <time>2010-10-28T12:53:55Z</time>
      </trkpt>
      <trkpt lat="45.64734" lon="4.63813">
        <ele>580.77</ele>
        <time>2010-10-28T12:53:56Z</time>
      </trkpt>
      <trkpt lat="45.64737" lon="4.63818">
        <ele>579.33</ele>
        <time>2010-10-28T12:53:57Z</time>
      </trkpt>
      <trkpt lat="45.64741" lon="4.63823">
        <ele>578.85</ele>
        <time>2010-10-28T12:53:58Z</time>
      </trkpt>
      <trkpt lat="45.64744" lon="4.63828">
        <ele>578.37</ele>
        <time>2010-10-28T12:53:59Z</time>
      </trkpt>
      <trkpt lat="45.64746" lon="4.63833">
        <ele>578.85</ele>
        <time>2010-10-28T12:54:00Z</time>
      </trkpt>
      <trkpt lat="45.64749" lon="4.63838">
        <ele>578.37</ele>
        <time>2010-10-28T12:54:01Z</time>
      </trkpt>
      <trkpt lat="45.64752" lon="4.63843">
        <ele>577.89</ele>
        <time>2010-10-28T12:54:02Z</time>
      </trkpt>
      <trkpt lat="45.64755" lon="4.63848">
        <ele>576.93</ele>
        <time>2010-10-28T12:54:03Z</time>
      </trkpt>
      <trkpt lat="45.64758" lon="4.63853">
        <ele>575.49</ele>
        <time>2010-10-28T12:54:04Z</time>
      </trkpt>
      <trkpt lat="45.64761" lon="4.63859">
        <ele>576.45</ele>
        <time>2010-10-28T12:54:05Z</time>
      </trkpt>
      <trkpt lat="45.64764" lon="4.63864">
        <ele>575.49</ele>
        <time>2010-10-28T12:54:06Z</time>
      </trkpt>
      <trkpt lat="45.64767" lon="4.6387">
        <ele>575.49</ele>
        <time>2010-10-28T12:54:07Z</time>
      </trkpt>
      <trkpt lat="45.64769" lon="4.63876">
        <ele>575.01</ele>
        <time>2010-10-28T12:54:08Z</time>
      </trkpt>
      <trkpt lat="45.64772" lon="4.63882">
        <ele>574.53</ele>
        <time>2010-10-28T12:54:09Z</time>
      </trkpt>
      <trkpt lat="45.64776" lon="4.63888">
        <ele>574.04</ele>
        <time>2010-10-28T12:54:10Z</time>
      </trkpt>
      <trkpt lat="45.6478" lon="4.63893">
        <ele>572.6</ele>
        <time>2010-10-28T12:54:11Z</time>
      </trkpt>
      <trkpt lat="45.64783" lon="4.63898">
        <ele>573.08</ele>
        <time>2010-10-28T12:54:12Z</time>
      </trkpt>
      <trkpt lat="45.64787" lon="4.63904">
        <ele>572.12</ele>
        <time>2010-10-28T12:54:13Z</time>
      </trkpt>
      <trkpt lat="45.6479" lon="4.63909">
        <ele>571.64</ele>
        <time>2010-10-28T12:54:14Z</time>
      </trkpt>
      <trkpt lat="45.64794" lon="4.63914">
        <ele>572.12</ele>
        <time>2010-10-28T12:54:15Z</time>
      </trkpt>
      <trkpt lat="45.64798" lon="4.63918">
        <ele>571.16</ele>
        <time>2010-10-28T12:54:16Z</time>
      </trkpt>
      <trkpt lat="45.64802" lon="4.63924">
        <ele>571.16</ele>
        <time>2010-10-28T12:54:17Z</time>
      </trkpt>
      <trkpt lat="45.64806" lon="4.63929">
        <ele>569.72</ele>
        <time>2010-10-28T12:54:18Z</time>
      </trkpt>
      <trkpt lat="45.6481" lon="4.63934">
        <ele>570.68</ele>
        <time>2010-10-28T12:54:19Z</time>
      </trkpt>
      <trkpt lat="45.64815" lon="4.63946">
        <ele>568.28</ele>
        <time>2010-10-28T12:54:21Z</time>
      </trkpt>
      <trkpt lat="45.64827" lon="4.63964">
        <ele>567.32</ele>
        <time>2010-10-28T12:54:25Z</time>
      </trkpt>
      <trkpt lat="45.64831" lon="4.63969">
        <ele>565.87</ele>
        <time>2010-10-28T12:54:26Z</time>
      </trkpt>
      <trkpt lat="45.64834" lon="4.63973">
        <ele>565.87</ele>
        <time>2010-10-28T12:54:27Z</time>
      </trkpt>
      <trkpt lat="45.64837" lon="4.63978">
        <ele>564.91</ele>
        <time>2010-10-28T12:54:28Z</time>
      </trkpt>
      <trkpt lat="45.6484" lon="4.63983">
        <ele>565.39</ele>
        <time>2010-10-28T12:54:29Z</time>
      </trkpt>
      <trkpt lat="45.64842" lon="4.63988">
        <ele>563.95</ele>
        <time>2010-10-28T12:54:30Z</time>
      </trkpt>
      <trkpt lat="45.64844" lon="4.63992">
        <ele>562.51</ele>
        <time>2010-10-28T12:54:31Z</time>
      </trkpt>
      <trkpt lat="45.64846" lon="4.63997">
        <ele>566.35</ele>
        <time>2010-10-28T12:54:32Z</time>
      </trkpt>
      <trkpt lat="45.64849" lon="4.64002">
        <ele>563.47</ele>
        <time>2010-10-28T12:54:33Z</time>
      </trkpt>
      <trkpt lat="45.64852" lon="4.64008">
        <ele>564.91</ele>
        <time>2010-10-28T12:54:34Z</time>
      </trkpt>
      <trkpt lat="45.64854" lon="4.64014">
        <ele>563.47</ele>
        <time>2010-10-28T12:54:35Z</time>
      </trkpt>
      <trkpt lat="45.64856" lon="4.6402">
        <ele>562.51</ele>
        <time>2010-10-28T12:54:36Z</time>
      </trkpt>
      <trkpt lat="45.64858" lon="4.64025">
        <ele>561.55</ele>
        <time>2010-10-28T12:54:37Z</time>
      </trkpt>
      <trkpt lat="45.6486" lon="4.6403">
        <ele>562.03</ele>
        <time>2010-10-28T12:54:38Z</time>
      </trkpt>
      <trkpt lat="45.64862" lon="4.64034">
        <ele>561.55</ele>
        <time>2010-10-28T12:54:39Z</time>
      </trkpt>
      <trkpt lat="45.64867" lon="4.64045">
        <ele>561.07</ele>
        <time>2010-10-28T12:54:41Z</time>
      </trkpt>
      <trkpt lat="45.64881" lon="4.64073">
        <ele>561.55</ele>
        <time>2010-10-28T12:54:48Z</time>
      </trkpt>
      <trkpt lat="45.64887" lon="4.64085">
        <ele>560.11</ele>
        <time>2010-10-28T12:54:52Z</time>
      </trkpt>
      <trkpt lat="45.64889" lon="4.64088">
        <ele>559.62</ele>
        <time>2010-10-28T12:54:53Z</time>
      </trkpt>
      <trkpt lat="45.6489" lon="4.64091">
        <ele>560.11</ele>
        <time>2010-10-28T12:54:54Z</time>
      </trkpt>
      <trkpt lat="45.64894" lon="4.64098">
        <ele>560.59</ele>
        <time>2010-10-28T12:54:56Z</time>
      </trkpt>
      <trkpt lat="45.64896" lon="4.64102">
        <ele>559.62</ele>
        <time>2010-10-28T12:54:57Z</time>
      </trkpt>
      <trkpt lat="45.64898" lon="4.64106">
        <ele>560.11</ele>
        <time>2010-10-28T12:54:58Z</time>
      </trkpt>
      <trkpt lat="45.649" lon="4.64109">
        <ele>559.14</ele>
        <time>2010-10-28T12:54:59Z</time>
      </trkpt>
      <trkpt lat="45.64901" lon="4.64112">
        <ele>559.14</ele>
        <time>2010-10-28T12:55:00Z</time>
      </trkpt>
      <trkpt lat="45.64903" lon="4.64115">
        <ele>559.14</ele>
        <time>2010-10-28T12:55:01Z</time>
      </trkpt>
      <trkpt lat="45.64906" lon="4.64118">
        <ele>558.66</ele>
        <time>2010-10-28T12:55:02Z</time>
      </trkpt>
      <trkpt lat="45.64908" lon="4.64122">
        <ele>559.14</ele>
        <time>2010-10-28T12:55:03Z</time>
      </trkpt>
      <trkpt lat="45.6491" lon="4.64125">
        <ele>559.62</ele>
        <time>2010-10-28T12:55:04Z</time>
      </trkpt>
      <trkpt lat="45.64912" lon="4.64128">
        <ele>559.62</ele>
        <time>2010-10-28T12:55:05Z</time>
      </trkpt>
      <trkpt lat="45.64914" lon="4.64132">
        <ele>559.62</ele>
        <time>2010-10-28T12:55:06Z</time>
      </trkpt>
      <trkpt lat="45.64921" lon="4.64149">
        <ele>559.14</ele>
        <time>2010-10-28T12:55:11Z</time>
      </trkpt>
      <trkpt lat="45.64922" lon="4.64152">
        <ele>558.66</ele>
        <time>2010-10-28T12:55:12Z</time>
      </trkpt>
      <trkpt lat="45.64928" lon="4.64182">
        <ele>558.66</ele>
        <time>2010-10-28T12:55:19Z</time>
      </trkpt>
      <trkpt lat="45.64928" lon="4.64187">
        <ele>559.14</ele>
        <time>2010-10-28T12:55:20Z</time>
      </trkpt>
      <trkpt lat="45.64929" lon="4.64192">
        <ele>558.66</ele>
        <time>2010-10-28T12:55:21Z</time>
      </trkpt>
      <trkpt lat="45.6493" lon="4.64196">
        <ele>558.66</ele>
        <time>2010-10-28T12:55:22Z</time>
      </trkpt>
      <trkpt lat="45.64931" lon="4.64201">
        <ele>559.14</ele>
        <time>2010-10-28T12:55:23Z</time>
      </trkpt>
      <trkpt lat="45.64932" lon="4.64205">
        <ele>558.66</ele>
        <time>2010-10-28T12:55:24Z</time>
      </trkpt>
      <trkpt lat="45.64933" lon="4.64209">
        <ele>558.66</ele>
        <time>2010-10-28T12:55:25Z</time>
      </trkpt>
      <trkpt lat="45.64938" lon="4.64238">
        <ele>558.18</ele>
        <time>2010-10-28T12:55:38Z</time>
      </trkpt>
      <trkpt lat="45.64939" lon="4.64241">
        <ele>558.66</ele>
        <time>2010-10-28T12:55:42Z</time>
      </trkpt>
      <trkpt lat="45.64941" lon="4.64245">
        <ele>558.66</ele>
        <time>2010-10-28T12:55:49Z</time>
      </trkpt>
      <trkpt lat="45.64943" lon="4.64246">
        <ele>557.7</ele>
        <time>2010-10-28T12:56:04Z</time>
      </trkpt>
      <trkpt lat="45.64944" lon="4.64247">
        <ele>558.18</ele>
        <time>2010-10-28T12:56:05Z</time>
      </trkpt>
      <trkpt lat="45.64949" lon="4.64253">
        <ele>557.7</ele>
        <time>2010-10-28T12:56:09Z</time>
      </trkpt>
      <trkpt lat="45.6495" lon="4.64255">
        <ele>557.22</ele>
        <time>2010-10-28T12:56:11Z</time>
      </trkpt>
      <trkpt lat="45.64951" lon="4.64256">
        <ele>557.22</ele>
        <time>2010-10-28T12:56:12Z</time>
      </trkpt>
      <trkpt lat="45.64947" lon="4.64254">
        <ele>557.7</ele>
        <time>2010-10-28T12:56:21Z</time>
      </trkpt>
      <trkpt lat="45.64947" lon="4.64255">
        <ele>557.22</ele>
        <time>2010-10-28T12:56:38Z</time>
      </trkpt>
      <trkpt lat="45.6495" lon="4.64261">
        <ele>557.7</ele>
        <time>2010-10-28T12:56:42Z</time>
      </trkpt>
      <trkpt lat="45.64952" lon="4.64264">
        <ele>557.22</ele>
        <time>2010-10-28T12:56:43Z</time>
      </trkpt>
      <trkpt lat="45.64953" lon="4.64266">
        <ele>557.22</ele>
        <time>2010-10-28T12:56:44Z</time>
      </trkpt>
      <trkpt lat="45.64955" lon="4.6427">
        <ele>556.74</ele>
        <time>2010-10-28T12:56:45Z</time>
      </trkpt>
      <trkpt lat="45.64957" lon="4.64272">
        <ele>556.26</ele>
        <time>2010-10-28T12:56:46Z</time>
      </trkpt>
      <trkpt lat="45.64958" lon="4.64276">
        <ele>556.74</ele>
        <time>2010-10-28T12:56:47Z</time>
      </trkpt>
      <trkpt lat="45.6496" lon="4.64279">
        <ele>555.3</ele>
        <time>2010-10-28T12:56:48Z</time>
      </trkpt>
      <trkpt lat="45.64961" lon="4.64282">
        <ele>555.78</ele>
        <time>2010-10-28T12:56:49Z</time>
      </trkpt>
      <trkpt lat="45.64963" lon="4.64286">
        <ele>555.78</ele>
        <time>2010-10-28T12:56:50Z</time>
      </trkpt>
      <trkpt lat="45.64965" lon="4.64289">
        <ele>555.78</ele>
        <time>2010-10-28T12:56:51Z</time>
      </trkpt>
      <trkpt lat="45.64978" lon="4.64316">
        <ele>553.38</ele>
        <time>2010-10-28T12:56:59Z</time>
      </trkpt>
      <trkpt lat="45.64984" lon="4.64331">
        <ele>552.41</ele>
        <time>2010-10-28T12:57:03Z</time>
      </trkpt>
      <trkpt lat="45.64998" lon="4.64361">
        <ele>549.53</ele>
        <time>2010-10-28T12:57:11Z</time>
      </trkpt>
      <trkpt lat="45.6501" lon="4.64378">
        <ele>548.09</ele>
        <time>2010-10-28T12:57:17Z</time>
      </trkpt>
      <trkpt lat="45.6503" lon="4.64407">
        <ele>546.65</ele>
        <time>2010-10-28T12:57:26Z</time>
      </trkpt>
      <trkpt lat="45.65046" lon="4.64435">
        <ele>546.17</ele>
        <time>2010-10-28T12:57:34Z</time>
      </trkpt>
      <trkpt lat="45.6505" lon="4.64441">
        <ele>547.61</ele>
        <time>2010-10-28T12:57:36Z</time>
      </trkpt>
      <trkpt lat="45.65064" lon="4.64476">
        <ele>545.2</ele>
        <time>2010-10-28T12:57:47Z</time>
      </trkpt>
      <trkpt lat="45.65066" lon="4.64478">
        <ele>545.2</ele>
        <time>2010-10-28T12:57:48Z</time>
      </trkpt>
      <trkpt lat="45.65067" lon="4.64482">
        <ele>545.69</ele>
        <time>2010-10-28T12:57:49Z</time>
      </trkpt>
      <trkpt lat="45.65082" lon="4.64511">
        <ele>545.69</ele>
        <time>2010-10-28T12:57:58Z</time>
      </trkpt>
      <trkpt lat="45.65096" lon="4.64539">
        <ele>546.65</ele>
        <time>2010-10-28T12:58:07Z</time>
      </trkpt>
      <trkpt lat="45.65111" lon="4.64566">
        <ele>546.65</ele>
        <time>2010-10-28T12:58:15Z</time>
      </trkpt>
      <trkpt lat="45.65126" lon="4.64599">
        <ele>546.17</ele>
        <time>2010-10-28T12:58:24Z</time>
      </trkpt>
      <trkpt lat="45.65138" lon="4.64624">
        <ele>547.61</ele>
        <time>2010-10-28T12:58:31Z</time>
      </trkpt>
      <trkpt lat="45.6515" lon="4.64652">
        <ele>547.13</ele>
        <time>2010-10-28T12:58:39Z</time>
      </trkpt>
      <trkpt lat="45.65161" lon="4.64678">
        <ele>547.13</ele>
        <time>2010-10-28T12:58:46Z</time>
      </trkpt>
      <trkpt lat="45.65171" lon="4.64706">
        <ele>548.57</ele>
        <time>2010-10-28T12:58:54Z</time>
      </trkpt>
      <trkpt lat="45.65177" lon="4.64733">
        <ele>548.57</ele>
        <time>2010-10-28T12:59:01Z</time>
      </trkpt>
      <trkpt lat="45.65184" lon="4.64767">
        <ele>549.53</ele>
        <time>2010-10-28T12:59:10Z</time>
      </trkpt>
      <trkpt lat="45.65201" lon="4.64792">
        <ele>549.53</ele>
        <time>2010-10-28T12:59:18Z</time>
      </trkpt>
      <trkpt lat="45.65221" lon="4.64812">
        <ele>549.53</ele>
        <time>2010-10-28T12:59:26Z</time>
      </trkpt>
      <trkpt lat="45.65234" lon="4.64823">
        <ele>550.49</ele>
        <time>2010-10-28T12:59:31Z</time>
      </trkpt>
      <trkpt lat="45.65236" lon="4.64827">
        <ele>550.01</ele>
        <time>2010-10-28T12:59:32Z</time>
      </trkpt>
      <trkpt lat="45.65238" lon="4.64829">
        <ele>549.53</ele>
        <time>2010-10-28T12:59:33Z</time>
      </trkpt>
      <trkpt lat="45.65255" lon="4.64848">
        <ele>550.01</ele>
        <time>2010-10-28T12:59:40Z</time>
      </trkpt>
      <trkpt lat="45.65265" lon="4.64864">
        <ele>550.49</ele>
        <time>2010-10-28T12:59:45Z</time>
      </trkpt>
      <trkpt lat="45.65267" lon="4.64867">
        <ele>550.97</ele>
        <time>2010-10-28T12:59:46Z</time>
      </trkpt>
      <trkpt lat="45.6527" lon="4.64869">
        <ele>550.97</ele>
        <time>2010-10-28T12:59:47Z</time>
      </trkpt>
      <trkpt lat="45.65272" lon="4.64871">
        <ele>550.97</ele>
        <time>2010-10-28T12:59:48Z</time>
      </trkpt>
      <trkpt lat="45.65275" lon="4.64873">
        <ele>550.97</ele>
        <time>2010-10-28T12:59:49Z</time>
      </trkpt>
      <trkpt lat="45.65302" lon="4.64902">
        <ele>551.93</ele>
        <time>2010-10-28T13:00:00Z</time>
      </trkpt>
      <trkpt lat="45.65321" lon="4.64926">
        <ele>554.34</ele>
        <time>2010-10-28T13:00:09Z</time>
      </trkpt>
      <trkpt lat="45.65336" lon="4.64943">
        <ele>553.86</ele>
        <time>2010-10-28T13:00:16Z</time>
      </trkpt>
      <trkpt lat="45.65347" lon="4.64955">
        <ele>554.82</ele>
        <time>2010-10-28T13:00:21Z</time>
      </trkpt>
      <trkpt lat="45.65349" lon="4.64958">
        <ele>555.3</ele>
        <time>2010-10-28T13:00:22Z</time>
      </trkpt>
      <trkpt lat="45.65351" lon="4.6496">
        <ele>555.3</ele>
        <time>2010-10-28T13:00:23Z</time>
      </trkpt>
      <trkpt lat="45.65353" lon="4.64963">
        <ele>555.3</ele>
        <time>2010-10-28T13:00:24Z</time>
      </trkpt>
      <trkpt lat="45.65355" lon="4.64966">
        <ele>554.82</ele>
        <time>2010-10-28T13:00:25Z</time>
      </trkpt>
      <trkpt lat="45.65357" lon="4.64968">
        <ele>554.34</ele>
        <time>2010-10-28T13:00:26Z</time>
      </trkpt>
      <trkpt lat="45.6536" lon="4.64971">
        <ele>553.86</ele>
        <time>2010-10-28T13:00:27Z</time>
      </trkpt>
      <trkpt lat="45.65366" lon="4.64978">
        <ele>555.3</ele>
        <time>2010-10-28T13:00:30Z</time>
      </trkpt>
      <trkpt lat="45.65368" lon="4.6498">
        <ele>555.3</ele>
        <time>2010-10-28T13:00:31Z</time>
      </trkpt>
      <trkpt lat="45.65371" lon="4.64983">
        <ele>555.78</ele>
        <time>2010-10-28T13:00:32Z</time>
      </trkpt>
      <trkpt lat="45.65392" lon="4.65008">
        <ele>552.9</ele>
        <time>2010-10-28T13:00:42Z</time>
      </trkpt>
      <trkpt lat="45.65412" lon="4.65038">
        <ele>550.97</ele>
        <time>2010-10-28T13:00:51Z</time>
      </trkpt>
      <trkpt lat="45.65423" lon="4.65056">
        <ele>550.97</ele>
        <time>2010-10-28T13:00:56Z</time>
      </trkpt>
      <trkpt lat="45.65433" lon="4.6507">
        <ele>549.53</ele>
        <time>2010-10-28T13:01:05Z</time>
      </trkpt>
      <trkpt lat="45.65447" lon="4.6509">
        <ele>548.57</ele>
        <time>2010-10-28T13:01:15Z</time>
      </trkpt>
      <trkpt lat="45.65461" lon="4.6511">
        <ele>546.65</ele>
        <time>2010-10-28T13:01:23Z</time>
      </trkpt>
      <trkpt lat="45.65474" lon="4.65127">
        <ele>545.2</ele>
        <time>2010-10-28T13:01:31Z</time>
      </trkpt>
      <trkpt lat="45.65475" lon="4.65129">
        <ele>545.2</ele>
        <time>2010-10-28T13:01:32Z</time>
      </trkpt>
      <trkpt lat="45.65477" lon="4.65131">
        <ele>544.72</ele>
        <time>2010-10-28T13:01:33Z</time>
      </trkpt>
      <trkpt lat="45.65479" lon="4.65133">
        <ele>544.72</ele>
        <time>2010-10-28T13:01:34Z</time>
      </trkpt>
      <trkpt lat="45.65481" lon="4.65136">
        <ele>544.72</ele>
        <time>2010-10-28T13:01:35Z</time>
      </trkpt>
      <trkpt lat="45.65483" lon="4.65138">
        <ele>544.24</ele>
        <time>2010-10-28T13:01:36Z</time>
      </trkpt>
      <trkpt lat="45.65485" lon="4.6514">
        <ele>543.76</ele>
        <time>2010-10-28T13:01:37Z</time>
      </trkpt>
      <trkpt lat="45.65487" lon="4.65142">
        <ele>544.72</ele>
        <time>2010-10-28T13:01:38Z</time>
      </trkpt>
      <trkpt lat="45.65489" lon="4.65145">
        <ele>544.24</ele>
        <time>2010-10-28T13:01:39Z</time>
      </trkpt>
      <trkpt lat="45.65509" lon="4.65168">
        <ele>541.84</ele>
        <time>2010-10-28T13:01:48Z</time>
      </trkpt>
      <trkpt lat="45.6553" lon="4.65191">
        <ele>539.44</ele>
        <time>2010-10-28T13:01:57Z</time>
      </trkpt>
      <trkpt lat="45.65551" lon="4.65216">
        <ele>537.03</ele>
        <time>2010-10-28T13:02:07Z</time>
      </trkpt>
      <trkpt lat="45.65558" lon="4.65226">
        <ele>535.59</ele>
        <time>2010-10-28T13:02:16Z</time>
      </trkpt>
      <trkpt lat="45.6557" lon="4.65236">
        <ele>534.63</ele>
        <time>2010-10-28T13:02:26Z</time>
      </trkpt>
      <trkpt lat="45.65572" lon="4.65237">
        <ele>534.63</ele>
        <time>2010-10-28T13:02:27Z</time>
      </trkpt>
      <trkpt lat="45.65574" lon="4.65239">
        <ele>534.15</ele>
        <time>2010-10-28T13:02:28Z</time>
      </trkpt>
      <trkpt lat="45.65596" lon="4.65255">
        <ele>532.23</ele>
        <time>2010-10-28T13:02:38Z</time>
      </trkpt>
      <trkpt lat="45.65599" lon="4.65257">
        <ele>531.75</ele>
        <time>2010-10-28T13:02:39Z</time>
      </trkpt>
      <trkpt lat="45.65602" lon="4.65258">
        <ele>532.71</ele>
        <time>2010-10-28T13:02:40Z</time>
      </trkpt>
      <trkpt lat="45.65604" lon="4.65259">
        <ele>532.23</ele>
        <time>2010-10-28T13:02:41Z</time>
      </trkpt>
      <trkpt lat="45.65606" lon="4.6526">
        <ele>531.75</ele>
        <time>2010-10-28T13:02:42Z</time>
      </trkpt>
      <trkpt lat="45.65608" lon="4.65261">
        <ele>532.23</ele>
        <time>2010-10-28T13:02:43Z</time>
      </trkpt>
      <trkpt lat="45.6561" lon="4.65263">
        <ele>531.27</ele>
        <time>2010-10-28T13:02:44Z</time>
      </trkpt>
      <trkpt lat="45.65613" lon="4.65264">
        <ele>531.27</ele>
        <time>2010-10-28T13:02:45Z</time>
      </trkpt>
      <trkpt lat="45.65639" lon="4.65287">
        <ele>528.86</ele>
        <time>2010-10-28T13:02:56Z</time>
      </trkpt>
      <trkpt lat="45.65654" lon="4.65317">
        <ele>528.38</ele>
        <time>2010-10-28T13:03:05Z</time>
      </trkpt>
      <trkpt lat="45.65656" lon="4.65329">
        <ele>526.94</ele>
        <time>2010-10-28T13:03:08Z</time>
      </trkpt>
      <trkpt lat="45.65657" lon="4.65333">
        <ele>527.42</ele>
        <time>2010-10-28T13:03:09Z</time>
      </trkpt>
      <trkpt lat="45.65657" lon="4.65337">
        <ele>527.42</ele>
        <time>2010-10-28T13:03:10Z</time>
      </trkpt>
      <trkpt lat="45.65658" lon="4.6534">
        <ele>525.5</ele>
        <time>2010-10-28T13:03:11Z</time>
      </trkpt>
      <trkpt lat="45.65658" lon="4.65344">
        <ele>526.46</ele>
        <time>2010-10-28T13:03:12Z</time>
      </trkpt>
      <trkpt lat="45.65659" lon="4.65348">
        <ele>527.42</ele>
        <time>2010-10-28T13:03:13Z</time>
      </trkpt>
      <trkpt lat="45.65659" lon="4.65352">
        <ele>526.46</ele>
        <time>2010-10-28T13:03:14Z</time>
      </trkpt>
      <trkpt lat="45.6566" lon="4.65357">
        <ele>525.98</ele>
        <time>2010-10-28T13:03:15Z</time>
      </trkpt>
      <trkpt lat="45.65661" lon="4.65361">
        <ele>526.94</ele>
        <time>2010-10-28T13:03:16Z</time>
      </trkpt>
      <trkpt lat="45.65662" lon="4.65394">
        <ele>525.98</ele>
        <time>2010-10-28T13:03:24Z</time>
      </trkpt>
      <trkpt lat="45.65666" lon="4.65425">
        <ele>526.46</ele>
        <time>2010-10-28T13:03:32Z</time>
      </trkpt>
      <trkpt lat="45.65667" lon="4.65437">
        <ele>525.5</ele>
        <time>2010-10-28T13:03:36Z</time>
      </trkpt>
      <trkpt lat="45.65667" lon="4.6544">
        <ele>525.98</ele>
        <time>2010-10-28T13:03:37Z</time>
      </trkpt>
      <trkpt lat="45.65666" lon="4.65445">
        <ele>525.5</ele>
        <time>2010-10-28T13:03:38Z</time>
      </trkpt>
      <trkpt lat="45.65666" lon="4.6545">
        <ele>524.54</ele>
        <time>2010-10-28T13:03:39Z</time>
      </trkpt>
      <trkpt lat="45.65666" lon="4.65456">
        <ele>524.54</ele>
        <time>2010-10-28T13:03:40Z</time>
      </trkpt>
      <trkpt lat="45.65666" lon="4.65461">
        <ele>525.02</ele>
        <time>2010-10-28T13:03:41Z</time>
      </trkpt>
      <trkpt lat="45.65667" lon="4.65466">
        <ele>525.5</ele>
        <time>2010-10-28T13:03:42Z</time>
      </trkpt>
      <trkpt lat="45.65668" lon="4.65471">
        <ele>524.54</ele>
        <time>2010-10-28T13:03:43Z</time>
      </trkpt>
      <trkpt lat="45.65669" lon="4.65476">
        <ele>525.02</ele>
        <time>2010-10-28T13:03:44Z</time>
      </trkpt>
      <trkpt lat="45.65669" lon="4.65481">
        <ele>524.54</ele>
        <time>2010-10-28T13:03:45Z</time>
      </trkpt>
      <trkpt lat="45.6567" lon="4.65486">
        <ele>525.02</ele>
        <time>2010-10-28T13:03:46Z</time>
      </trkpt>
      <trkpt lat="45.65671" lon="4.6549">
        <ele>524.54</ele>
        <time>2010-10-28T13:03:47Z</time>
      </trkpt>
      <trkpt lat="45.65671" lon="4.65494">
        <ele>524.06</ele>
        <time>2010-10-28T13:03:48Z</time>
      </trkpt>
      <trkpt lat="45.6568" lon="4.65529">
        <ele>523.58</ele>
        <time>2010-10-28T13:03:56Z</time>
      </trkpt>
      <trkpt lat="45.65693" lon="4.65566">
        <ele>522.61</ele>
        <time>2010-10-28T13:04:05Z</time>
      </trkpt>
      <trkpt lat="45.65694" lon="4.65571">
        <ele>522.61</ele>
        <time>2010-10-28T13:04:06Z</time>
      </trkpt>
      <trkpt lat="45.65696" lon="4.65576">
        <ele>522.61</ele>
        <time>2010-10-28T13:04:07Z</time>
      </trkpt>
      <trkpt lat="45.65698" lon="4.6558">
        <ele>522.61</ele>
        <time>2010-10-28T13:04:08Z</time>
      </trkpt>
      <trkpt lat="45.65699" lon="4.65585">
        <ele>522.13</ele>
        <time>2010-10-28T13:04:09Z</time>
      </trkpt>
      <trkpt lat="45.657" lon="4.65589">
        <ele>521.65</ele>
        <time>2010-10-28T13:04:10Z</time>
      </trkpt>
      <trkpt lat="45.65701" lon="4.65594">
        <ele>521.65</ele>
        <time>2010-10-28T13:04:11Z</time>
      </trkpt>
      <trkpt lat="45.65703" lon="4.65599">
        <ele>521.65</ele>
        <time>2010-10-28T13:04:12Z</time>
      </trkpt>
      <trkpt lat="45.65704" lon="4.65603">
        <ele>521.65</ele>
        <time>2010-10-28T13:04:13Z</time>
      </trkpt>
      <trkpt lat="45.65705" lon="4.65608">
        <ele>520.69</ele>
        <time>2010-10-28T13:04:14Z</time>
      </trkpt>
      <trkpt lat="45.65707" lon="4.65611">
        <ele>521.65</ele>
        <time>2010-10-28T13:04:15Z</time>
      </trkpt>
      <trkpt lat="45.65708" lon="4.65614">
        <ele>521.65</ele>
        <time>2010-10-28T13:04:16Z</time>
      </trkpt>
      <trkpt lat="45.6571" lon="4.65617">
        <ele>520.69</ele>
        <time>2010-10-28T13:04:17Z</time>
      </trkpt>
      <trkpt lat="45.65711" lon="4.65621">
        <ele>521.17</ele>
        <time>2010-10-28T13:04:18Z</time>
      </trkpt>
      <trkpt lat="45.65713" lon="4.65624">
        <ele>520.69</ele>
        <time>2010-10-28T13:04:19Z</time>
      </trkpt>
      <trkpt lat="45.65715" lon="4.65627">
        <ele>520.21</ele>
        <time>2010-10-28T13:04:20Z</time>
      </trkpt>
      <trkpt lat="45.65718" lon="4.6563">
        <ele>519.73</ele>
        <time>2010-10-28T13:04:21Z</time>
      </trkpt>
      <trkpt lat="45.6572" lon="4.65633">
        <ele>520.21</ele>
        <time>2010-10-28T13:04:22Z</time>
      </trkpt>
      <trkpt lat="45.65722" lon="4.65636">
        <ele>520.21</ele>
        <time>2010-10-28T13:04:23Z</time>
      </trkpt>
      <trkpt lat="45.65725" lon="4.65638">
        <ele>519.25</ele>
        <time>2010-10-28T13:04:24Z</time>
      </trkpt>
      <trkpt lat="45.65751" lon="4.65661">
        <ele>518.77</ele>
        <time>2010-10-28T13:04:34Z</time>
      </trkpt>
      <trkpt lat="45.65778" lon="4.65675">
        <ele>515.88</ele>
        <time>2010-10-28T13:04:43Z</time>
      </trkpt>
      <trkpt lat="45.65786" lon="4.65677">
        <ele>516.85</ele>
        <time>2010-10-28T13:04:46Z</time>
      </trkpt>
      <trkpt lat="45.65788" lon="4.65678">
        <ele>516.37</ele>
        <time>2010-10-28T13:04:47Z</time>
      </trkpt>
      <trkpt lat="45.65791" lon="4.65679">
        <ele>515.4</ele>
        <time>2010-10-28T13:04:48Z</time>
      </trkpt>
      <trkpt lat="45.65793" lon="4.6568">
        <ele>514.92</ele>
        <time>2010-10-28T13:04:49Z</time>
      </trkpt>
      <trkpt lat="45.65796" lon="4.65681">
        <ele>514.44</ele>
        <time>2010-10-28T13:04:50Z</time>
      </trkpt>
      <trkpt lat="45.6582" lon="4.65696">
        <ele>512.52</ele>
        <time>2010-10-28T13:04:59Z</time>
      </trkpt>
      <trkpt lat="45.65825" lon="4.657">
        <ele>512.04</ele>
        <time>2010-10-28T13:05:01Z</time>
      </trkpt>
      <trkpt lat="45.65848" lon="4.65717">
        <ele>510.12</ele>
        <time>2010-10-28T13:05:09Z</time>
      </trkpt>
      <trkpt lat="45.65868" lon="4.65732">
        <ele>507.23</ele>
        <time>2010-10-28T13:05:17Z</time>
      </trkpt>
      <trkpt lat="45.65891" lon="4.65752">
        <ele>506.75</ele>
        <time>2010-10-28T13:05:26Z</time>
      </trkpt>
      <trkpt lat="45.6591" lon="4.65773">
        <ele>503.87</ele>
        <time>2010-10-28T13:05:34Z</time>
      </trkpt>
      <trkpt lat="45.65927" lon="4.65795">
        <ele>503.87</ele>
        <time>2010-10-28T13:05:41Z</time>
      </trkpt>
      <trkpt lat="45.65947" lon="4.65823">
        <ele>503.87</ele>
        <time>2010-10-28T13:05:50Z</time>
      </trkpt>
      <trkpt lat="45.65964" lon="4.65867">
        <ele>503.39</ele>
        <time>2010-10-28T13:06:01Z</time>
      </trkpt>
      <trkpt lat="45.65974" lon="4.65896">
        <ele>502.43</ele>
        <time>2010-10-28T13:06:09Z</time>
      </trkpt>
      <trkpt lat="45.6598" lon="4.65911">
        <ele>502.43</ele>
        <time>2010-10-28T13:06:13Z</time>
      </trkpt>
      <trkpt lat="45.65982" lon="4.65913">
        <ele>501.46</ele>
        <time>2010-10-28T13:06:14Z</time>
      </trkpt>
      <trkpt lat="45.65982" lon="4.65916">
        <ele>501.95</ele>
        <time>2010-10-28T13:06:15Z</time>
      </trkpt>
      <trkpt lat="45.65983" lon="4.65919">
        <ele>501.95</ele>
        <time>2010-10-28T13:06:16Z</time>
      </trkpt>
      <trkpt lat="45.65984" lon="4.65922">
        <ele>501.46</ele>
        <time>2010-10-28T13:06:17Z</time>
      </trkpt>
      <trkpt lat="45.65985" lon="4.65924">
        <ele>501.95</ele>
        <time>2010-10-28T13:06:18Z</time>
      </trkpt>
      <trkpt lat="45.65996" lon="4.65954">
        <ele>500.02</ele>
        <time>2010-10-28T13:06:28Z</time>
      </trkpt>
      <trkpt lat="45.66007" lon="4.65985">
        <ele>498.58</ele>
        <time>2010-10-28T13:06:37Z</time>
      </trkpt>
      <trkpt lat="45.66017" lon="4.66006">
        <ele>498.1</ele>
        <time>2010-10-28T13:06:45Z</time>
      </trkpt>
      <trkpt lat="45.6602" lon="4.66014">
        <ele>498.58</ele>
        <time>2010-10-28T13:06:48Z</time>
      </trkpt>
      <trkpt lat="45.66024" lon="4.66026">
        <ele>498.58</ele>
        <time>2010-10-28T13:06:51Z</time>
      </trkpt>
      <trkpt lat="45.66025" lon="4.6603">
        <ele>498.58</ele>
        <time>2010-10-28T13:06:52Z</time>
      </trkpt>
      <trkpt lat="45.66027" lon="4.66034">
        <ele>498.58</ele>
        <time>2010-10-28T13:06:53Z</time>
      </trkpt>
      <trkpt lat="45.66033" lon="4.66062">
        <ele>498.1</ele>
        <time>2010-10-28T13:07:01Z</time>
      </trkpt>
      <trkpt lat="45.66037" lon="4.66069">
        <ele>497.62</ele>
        <time>2010-10-28T13:07:04Z</time>
      </trkpt>
      <trkpt lat="45.66038" lon="4.66071">
        <ele>498.1</ele>
        <time>2010-10-28T13:07:05Z</time>
      </trkpt>
      <trkpt lat="45.66038" lon="4.66073">
        <ele>497.62</ele>
        <time>2010-10-28T13:07:06Z</time>
      </trkpt>
      <trkpt lat="45.66038" lon="4.66075">
        <ele>497.62</ele>
        <time>2010-10-28T13:07:07Z</time>
      </trkpt>
      <trkpt lat="45.66039" lon="4.66077">
        <ele>497.14</ele>
        <time>2010-10-28T13:07:08Z</time>
      </trkpt>
      <trkpt lat="45.6604" lon="4.6608">
        <ele>497.62</ele>
        <time>2010-10-28T13:07:09Z</time>
      </trkpt>
      <trkpt lat="45.66041" lon="4.66084">
        <ele>497.14</ele>
        <time>2010-10-28T13:07:10Z</time>
      </trkpt>
      <trkpt lat="45.66042" lon="4.66087">
        <ele>497.14</ele>
        <time>2010-10-28T13:07:11Z</time>
      </trkpt>
      <trkpt lat="45.66043" lon="4.66091">
        <ele>497.62</ele>
        <time>2010-10-28T13:07:12Z</time>
      </trkpt>
      <trkpt lat="45.66044" lon="4.66095">
        <ele>496.66</ele>
        <time>2010-10-28T13:07:13Z</time>
      </trkpt>
      <trkpt lat="45.66045" lon="4.66098">
        <ele>496.18</ele>
        <time>2010-10-28T13:07:14Z</time>
      </trkpt>
      <trkpt lat="45.66048" lon="4.66114">
        <ele>496.66</ele>
        <time>2010-10-28T13:07:17Z</time>
      </trkpt>
      <trkpt lat="45.66048" lon="4.6612">
        <ele>496.18</ele>
        <time>2010-10-28T13:07:18Z</time>
      </trkpt>
      <trkpt lat="45.66051" lon="4.66151">
        <ele>495.7</ele>
        <time>2010-10-28T13:07:24Z</time>
      </trkpt>
      <trkpt lat="45.66058" lon="4.66181">
        <ele>495.7</ele>
        <time>2010-10-28T13:07:32Z</time>
      </trkpt>
      <trkpt lat="45.66065" lon="4.66221">
        <ele>494.26</ele>
        <time>2010-10-28T13:07:42Z</time>
      </trkpt>
      <trkpt lat="45.66065" lon="4.66226">
        <ele>493.77</ele>
        <time>2010-10-28T13:07:43Z</time>
      </trkpt>
      <trkpt lat="45.66069" lon="4.66255">
        <ele>492.33</ele>
        <time>2010-10-28T13:07:50Z</time>
      </trkpt>
      <trkpt lat="45.66069" lon="4.66297">
        <ele>489.93</ele>
        <time>2010-10-28T13:08:00Z</time>
      </trkpt>
      <trkpt lat="45.66069" lon="4.66301">
        <ele>489.93</ele>
        <time>2010-10-28T13:08:01Z</time>
      </trkpt>
      <trkpt lat="45.66069" lon="4.66306">
        <ele>488.97</ele>
        <time>2010-10-28T13:08:02Z</time>
      </trkpt>
      <trkpt lat="45.66069" lon="4.66309">
        <ele>489.93</ele>
        <time>2010-10-28T13:08:03Z</time>
      </trkpt>
      <trkpt lat="45.66069" lon="4.66313">
        <ele>488.97</ele>
        <time>2010-10-28T13:08:04Z</time>
      </trkpt>
      <trkpt lat="45.66069" lon="4.66317">
        <ele>488.97</ele>
        <time>2010-10-28T13:08:05Z</time>
      </trkpt>
      <trkpt lat="45.66069" lon="4.66321">
        <ele>488.97</ele>
        <time>2010-10-28T13:08:06Z</time>
      </trkpt>
      <trkpt lat="45.66069" lon="4.66325">
        <ele>487.53</ele>
        <time>2010-10-28T13:08:07Z</time>
      </trkpt>
      <trkpt lat="45.6607" lon="4.66328">
        <ele>487.53</ele>
        <time>2010-10-28T13:08:08Z</time>
      </trkpt>
      <trkpt lat="45.66069" lon="4.66332">
        <ele>488.01</ele>
        <time>2010-10-28T13:08:09Z</time>
      </trkpt>
      <trkpt lat="45.66069" lon="4.66335">
        <ele>488.01</ele>
        <time>2010-10-28T13:08:10Z</time>
      </trkpt>
      <trkpt lat="45.66069" lon="4.66339">
        <ele>487.53</ele>
        <time>2010-10-28T13:08:11Z</time>
      </trkpt>
      <trkpt lat="45.66069" lon="4.66344">
        <ele>488.01</ele>
        <time>2010-10-28T13:08:12Z</time>
      </trkpt>
      <trkpt lat="45.6607" lon="4.66388">
        <ele>485.6</ele>
        <time>2010-10-28T13:08:22Z</time>
      </trkpt>
      <trkpt lat="45.66071" lon="4.66427">
        <ele>484.16</ele>
        <time>2010-10-28T13:08:32Z</time>
      </trkpt>
      <trkpt lat="45.66072" lon="4.66431">
        <ele>483.2</ele>
        <time>2010-10-28T13:08:33Z</time>
      </trkpt>
      <trkpt lat="45.66072" lon="4.66435">
        <ele>483.68</ele>
        <time>2010-10-28T13:08:34Z</time>
      </trkpt>
      <trkpt lat="45.66073" lon="4.6644">
        <ele>483.68</ele>
        <time>2010-10-28T13:08:35Z</time>
      </trkpt>
      <trkpt lat="45.66073" lon="4.66444">
        <ele>483.68</ele>
        <time>2010-10-28T13:08:36Z</time>
      </trkpt>
      <trkpt lat="45.66074" lon="4.66448">
        <ele>482.72</ele>
        <time>2010-10-28T13:08:37Z</time>
      </trkpt>
      <trkpt lat="45.66075" lon="4.66452">
        <ele>482.72</ele>
        <time>2010-10-28T13:08:38Z</time>
      </trkpt>
      <trkpt lat="45.66076" lon="4.66456">
        <ele>482.24</ele>
        <time>2010-10-28T13:08:39Z</time>
      </trkpt>
      <trkpt lat="45.66078" lon="4.66463">
        <ele>481.76</ele>
        <time>2010-10-28T13:08:41Z</time>
      </trkpt>
      <trkpt lat="45.66078" lon="4.66467">
        <ele>481.76</ele>
        <time>2010-10-28T13:08:42Z</time>
      </trkpt>
      <trkpt lat="45.66079" lon="4.66472">
        <ele>481.76</ele>
        <time>2010-10-28T13:08:43Z</time>
      </trkpt>
      <trkpt lat="45.66079" lon="4.66484">
        <ele>480.32</ele>
        <time>2010-10-28T13:08:46Z</time>
      </trkpt>
      <trkpt lat="45.6608" lon="4.66496">
        <ele>478.87</ele>
        <time>2010-10-28T13:08:50Z</time>
      </trkpt>
      <trkpt lat="45.6608" lon="4.66499">
        <ele>479.35</ele>
        <time>2010-10-28T13:08:51Z</time>
      </trkpt>
      <trkpt lat="45.6608" lon="4.66502">
        <ele>478.39</ele>
        <time>2010-10-28T13:08:52Z</time>
      </trkpt>
      <trkpt lat="45.6608" lon="4.66505">
        <ele>478.39</ele>
        <time>2010-10-28T13:08:53Z</time>
      </trkpt>
      <trkpt lat="45.6608" lon="4.66508">
        <ele>477.43</ele>
        <time>2010-10-28T13:08:54Z</time>
      </trkpt>
      <trkpt lat="45.6608" lon="4.66511">
        <ele>476.95</ele>
        <time>2010-10-28T13:08:55Z</time>
      </trkpt>
      <trkpt lat="45.6608" lon="4.66524">
        <ele>475.51</ele>
        <time>2010-10-28T13:08:58Z</time>
      </trkpt>
      <trkpt lat="45.66079" lon="4.66527">
        <ele>475.03</ele>
        <time>2010-10-28T13:08:59Z</time>
      </trkpt>
      <trkpt lat="45.6608" lon="4.6653">
        <ele>475.03</ele>
        <time>2010-10-28T13:09:00Z</time>
      </trkpt>
      <trkpt lat="45.6608" lon="4.66534">
        <ele>474.55</ele>
        <time>2010-10-28T13:09:01Z</time>
      </trkpt>
      <trkpt lat="45.6608" lon="4.66537">
        <ele>474.07</ele>
        <time>2010-10-28T13:09:02Z</time>
      </trkpt>
      <trkpt lat="45.6608" lon="4.6654">
        <ele>473.11</ele>
        <time>2010-10-28T13:09:03Z</time>
      </trkpt>
      <trkpt lat="45.6608" lon="4.66548">
        <ele>472.63</ele>
        <time>2010-10-28T13:09:05Z</time>
      </trkpt>
      <trkpt lat="45.66081" lon="4.66552">
        <ele>472.63</ele>
        <time>2010-10-28T13:09:06Z</time>
      </trkpt>
      <trkpt lat="45.66082" lon="4.66556">
        <ele>471.66</ele>
        <time>2010-10-28T13:09:07Z</time>
      </trkpt>
      <trkpt lat="45.66083" lon="4.66561">
        <ele>470.22</ele>
        <time>2010-10-28T13:09:08Z</time>
      </trkpt>
      <trkpt lat="45.66085" lon="4.66565">
        <ele>470.7</ele>
        <time>2010-10-28T13:09:09Z</time>
      </trkpt>
      <trkpt lat="45.66087" lon="4.66568">
        <ele>469.74</ele>
        <time>2010-10-28T13:09:10Z</time>
      </trkpt>
      <trkpt lat="45.6609" lon="4.6657">
        <ele>469.74</ele>
        <time>2010-10-28T13:09:11Z</time>
      </trkpt>
      <trkpt lat="45.66093" lon="4.66572">
        <ele>469.26</ele>
        <time>2010-10-28T13:09:12Z</time>
      </trkpt>
      <trkpt lat="45.66096" lon="4.66575">
        <ele>468.78</ele>
        <time>2010-10-28T13:09:13Z</time>
      </trkpt>
      <trkpt lat="45.66098" lon="4.66577">
        <ele>467.82</ele>
        <time>2010-10-28T13:09:14Z</time>
      </trkpt>
      <trkpt lat="45.66101" lon="4.6658">
        <ele>466.86</ele>
        <time>2010-10-28T13:09:15Z</time>
      </trkpt>
      <trkpt lat="45.66104" lon="4.66583">
        <ele>466.86</ele>
        <time>2010-10-28T13:09:16Z</time>
      </trkpt>
      <trkpt lat="45.66107" lon="4.66586">
        <ele>466.86</ele>
        <time>2010-10-28T13:09:17Z</time>
      </trkpt>
      <trkpt lat="45.66126" lon="4.66605">
        <ele>463.49</ele>
        <time>2010-10-28T13:09:24Z</time>
      </trkpt>
      <trkpt lat="45.66136" lon="4.66617">
        <ele>463.49</ele>
        <time>2010-10-28T13:09:28Z</time>
      </trkpt>
      <trkpt lat="45.6614" lon="4.66621">
        <ele>462.53</ele>
        <time>2010-10-28T13:09:29Z</time>
      </trkpt>
      <trkpt lat="45.66143" lon="4.66624">
        <ele>462.53</ele>
        <time>2010-10-28T13:09:30Z</time>
      </trkpt>
      <trkpt lat="45.66145" lon="4.66626">
        <ele>462.53</ele>
        <time>2010-10-28T13:09:31Z</time>
      </trkpt>
      <trkpt lat="45.66147" lon="4.66629">
        <ele>462.05</ele>
        <time>2010-10-28T13:09:32Z</time>
      </trkpt>
      <trkpt lat="45.66149" lon="4.66631">
        <ele>461.57</ele>
        <time>2010-10-28T13:09:33Z</time>
      </trkpt>
      <trkpt lat="45.66152" lon="4.66634">
        <ele>461.09</ele>
        <time>2010-10-28T13:09:34Z</time>
      </trkpt>
      <trkpt lat="45.66169" lon="4.66652">
        <ele>460.13</ele>
        <time>2010-10-28T13:09:44Z</time>
      </trkpt>
      <trkpt lat="45.6619" lon="4.66672">
        <ele>458.21</ele>
        <time>2010-10-28T13:09:55Z</time>
      </trkpt>
      <trkpt lat="45.66211" lon="4.66691">
        <ele>456.28</ele>
        <time>2010-10-28T13:10:05Z</time>
      </trkpt>
      <trkpt lat="45.66219" lon="4.66702">
        <ele>455.8</ele>
        <time>2010-10-28T13:10:10Z</time>
      </trkpt>
      <trkpt lat="45.6622" lon="4.66705">
        <ele>455.32</ele>
        <time>2010-10-28T13:10:11Z</time>
      </trkpt>
      <trkpt lat="45.66221" lon="4.66708">
        <ele>454.84</ele>
        <time>2010-10-28T13:10:12Z</time>
      </trkpt>
      <trkpt lat="45.66223" lon="4.66711">
        <ele>454.84</ele>
        <time>2010-10-28T13:10:13Z</time>
      </trkpt>
      <trkpt lat="45.66224" lon="4.66715">
        <ele>453.4</ele>
        <time>2010-10-28T13:10:14Z</time>
      </trkpt>
      <trkpt lat="45.66225" lon="4.66718">
        <ele>453.88</ele>
        <time>2010-10-28T13:10:15Z</time>
      </trkpt>
      <trkpt lat="45.66226" lon="4.66721">
        <ele>453.4</ele>
        <time>2010-10-28T13:10:16Z</time>
      </trkpt>
      <trkpt lat="45.66227" lon="4.66724">
        <ele>453.4</ele>
        <time>2010-10-28T13:10:17Z</time>
      </trkpt>
      <trkpt lat="45.66228" lon="4.66728">
        <ele>452.44</ele>
        <time>2010-10-28T13:10:18Z</time>
      </trkpt>
      <trkpt lat="45.6623" lon="4.6673">
        <ele>453.4</ele>
        <time>2010-10-28T13:10:19Z</time>
      </trkpt>
      <trkpt lat="45.6623" lon="4.66732">
        <ele>452.92</ele>
        <time>2010-10-28T13:10:20Z</time>
      </trkpt>
      <trkpt lat="45.66231" lon="4.66734">
        <ele>452.92</ele>
        <time>2010-10-28T13:10:21Z</time>
      </trkpt>
      <trkpt lat="45.6624" lon="4.66742">
        <ele>452.44</ele>
        <time>2010-10-28T13:10:27Z</time>
      </trkpt>
      <trkpt lat="45.66242" lon="4.66743">
        <ele>451.48</ele>
        <time>2010-10-28T13:10:28Z</time>
      </trkpt>
      <trkpt lat="45.66244" lon="4.66746">
        <ele>451.48</ele>
        <time>2010-10-28T13:10:29Z</time>
      </trkpt>
      <trkpt lat="45.66246" lon="4.66747">
        <ele>451.48</ele>
        <time>2010-10-28T13:10:30Z</time>
      </trkpt>
      <trkpt lat="45.66248" lon="4.66749">
        <ele>451.48</ele>
        <time>2010-10-28T13:10:31Z</time>
      </trkpt>
      <trkpt lat="45.66251" lon="4.6675">
        <ele>450.52</ele>
        <time>2010-10-28T13:10:32Z</time>
      </trkpt>
      <trkpt lat="45.66253" lon="4.66751">
        <ele>450.03</ele>
        <time>2010-10-28T13:10:33Z</time>
      </trkpt>
      <trkpt lat="45.66255" lon="4.66753">
        <ele>450.03</ele>
        <time>2010-10-28T13:10:34Z</time>
      </trkpt>
      <trkpt lat="45.66258" lon="4.66755">
        <ele>450.52</ele>
        <time>2010-10-28T13:10:35Z</time>
      </trkpt>
      <trkpt lat="45.66261" lon="4.66756">
        <ele>450.52</ele>
        <time>2010-10-28T13:10:36Z</time>
      </trkpt>
      <trkpt lat="45.66264" lon="4.66758">
        <ele>450.52</ele>
        <time>2010-10-28T13:10:37Z</time>
      </trkpt>
      <trkpt lat="45.66266" lon="4.66759">
        <ele>450.03</ele>
        <time>2010-10-28T13:10:38Z</time>
      </trkpt>
      <trkpt lat="45.66268" lon="4.66759">
        <ele>450.03</ele>
        <time>2010-10-28T13:10:39Z</time>
      </trkpt>
      <trkpt lat="45.6627" lon="4.66761">
        <ele>449.55</ele>
        <time>2010-10-28T13:10:40Z</time>
      </trkpt>
      <trkpt lat="45.66272" lon="4.66763">
        <ele>449.07</ele>
        <time>2010-10-28T13:10:41Z</time>
      </trkpt>
      <trkpt lat="45.66275" lon="4.66765">
        <ele>449.07</ele>
        <time>2010-10-28T13:10:42Z</time>
      </trkpt>
      <trkpt lat="45.66278" lon="4.66768">
        <ele>449.55</ele>
        <time>2010-10-28T13:10:43Z</time>
      </trkpt>
      <trkpt lat="45.66281" lon="4.66769">
        <ele>449.07</ele>
        <time>2010-10-28T13:10:44Z</time>
      </trkpt>
      <trkpt lat="45.66283" lon="4.66771">
        <ele>449.07</ele>
        <time>2010-10-28T13:10:45Z</time>
      </trkpt>
      <trkpt lat="45.66286" lon="4.66772">
        <ele>448.11</ele>
        <time>2010-10-28T13:10:46Z</time>
      </trkpt>
      <trkpt lat="45.66288" lon="4.66773">
        <ele>447.63</ele>
        <time>2010-10-28T13:10:47Z</time>
      </trkpt>
      <trkpt lat="45.66291" lon="4.66775">
        <ele>448.11</ele>
        <time>2010-10-28T13:10:48Z</time>
      </trkpt>
      <trkpt lat="45.6631" lon="4.66784">
        <ele>446.67</ele>
        <time>2010-10-28T13:10:55Z</time>
      </trkpt>
      <trkpt lat="45.66312" lon="4.66785">
        <ele>446.67</ele>
        <time>2010-10-28T13:10:56Z</time>
      </trkpt>
      <trkpt lat="45.66315" lon="4.66785">
        <ele>445.71</ele>
        <time>2010-10-28T13:10:57Z</time>
      </trkpt>
      <trkpt lat="45.66318" lon="4.66785">
        <ele>445.71</ele>
        <time>2010-10-28T13:10:58Z</time>
      </trkpt>
      <trkpt lat="45.66321" lon="4.66786">
        <ele>446.67</ele>
        <time>2010-10-28T13:10:59Z</time>
      </trkpt>
      <trkpt lat="45.66341" lon="4.66791">
        <ele>444.75</ele>
        <time>2010-10-28T13:11:06Z</time>
      </trkpt>
      <trkpt lat="45.66366" lon="4.66795">
        <ele>443.31</ele>
        <time>2010-10-28T13:11:15Z</time>
      </trkpt>
      <trkpt lat="45.66391" lon="4.66798">
        <ele>441.38</ele>
        <time>2010-10-28T13:11:24Z</time>
      </trkpt>
      <trkpt lat="45.66413" lon="4.66803">
        <ele>440.42</ele>
        <time>2010-10-28T13:11:34Z</time>
      </trkpt>
      <trkpt lat="45.66419" lon="4.66803">
        <ele>439.94</ele>
        <time>2010-10-28T13:12:04Z</time>
      </trkpt>
      <trkpt lat="45.6642" lon="4.66803">
        <ele>439.94</ele>
        <time>2010-10-28T13:12:05Z</time>
      </trkpt>
      <trkpt lat="45.66422" lon="4.66803">
        <ele>439.46</ele>
        <time>2010-10-28T13:12:06Z</time>
      </trkpt>
      <trkpt lat="45.66423" lon="4.66803">
        <ele>439.94</ele>
        <time>2010-10-28T13:12:07Z</time>
      </trkpt>
      <trkpt lat="45.66425" lon="4.66804">
        <ele>439.94</ele>
        <time>2010-10-28T13:12:08Z</time>
      </trkpt>
      <trkpt lat="45.66426" lon="4.66804">
        <ele>439.46</ele>
        <time>2010-10-28T13:12:09Z</time>
      </trkpt>
      <trkpt lat="45.66427" lon="4.66804">
        <ele>438.98</ele>
        <time>2010-10-28T13:12:10Z</time>
      </trkpt>
      <trkpt lat="45.66448" lon="4.66812">
        <ele>438.5</ele>
        <time>2010-10-28T13:12:26Z</time>
      </trkpt>
      <trkpt lat="45.66471" lon="4.66817">
        <ele>437.06</ele>
        <time>2010-10-28T13:12:44Z</time>
      </trkpt>
      <trkpt lat="45.66492" lon="4.6682">
        <ele>437.06</ele>
        <time>2010-10-28T13:12:56Z</time>
      </trkpt>
      <trkpt lat="45.6651" lon="4.66826">
        <ele>435.61</ele>
        <time>2010-10-28T13:13:07Z</time>
      </trkpt>
      <trkpt lat="45.66529" lon="4.66831">
        <ele>436.1</ele>
        <time>2010-10-28T13:13:15Z</time>
      </trkpt>
      <trkpt lat="45.66531" lon="4.66832">
        <ele>435.61</ele>
        <time>2010-10-28T13:13:16Z</time>
      </trkpt>
      <trkpt lat="45.66533" lon="4.66833">
        <ele>436.1</ele>
        <time>2010-10-28T13:13:17Z</time>
      </trkpt>
      <trkpt lat="45.66536" lon="4.66834">
        <ele>436.1</ele>
        <time>2010-10-28T13:13:18Z</time>
      </trkpt>
      <trkpt lat="45.66538" lon="4.66834">
        <ele>435.61</ele>
        <time>2010-10-28T13:13:19Z</time>
      </trkpt>
      <trkpt lat="45.6654" lon="4.66834">
        <ele>435.13</ele>
        <time>2010-10-28T13:13:20Z</time>
      </trkpt>
      <trkpt lat="45.66543" lon="4.66835">
        <ele>436.1</ele>
        <time>2010-10-28T13:13:21Z</time>
      </trkpt>
      <trkpt lat="45.66545" lon="4.66836">
        <ele>435.61</ele>
        <time>2010-10-28T13:13:22Z</time>
      </trkpt>
      <trkpt lat="45.66547" lon="4.66837">
        <ele>435.13</ele>
        <time>2010-10-28T13:13:23Z</time>
      </trkpt>
      <trkpt lat="45.6655" lon="4.66838">
        <ele>435.61</ele>
        <time>2010-10-28T13:13:24Z</time>
      </trkpt>
      <trkpt lat="45.66552" lon="4.6684">
        <ele>436.1</ele>
        <time>2010-10-28T13:13:25Z</time>
      </trkpt>
      <trkpt lat="45.66555" lon="4.66841">
        <ele>435.61</ele>
        <time>2010-10-28T13:13:26Z</time>
      </trkpt>
      <trkpt lat="45.66557" lon="4.66842">
        <ele>435.61</ele>
        <time>2010-10-28T13:13:27Z</time>
      </trkpt>
      <trkpt lat="45.66559" lon="4.66844">
        <ele>435.13</ele>
        <time>2010-10-28T13:13:28Z</time>
      </trkpt>
      <trkpt lat="45.66583" lon="4.6686">
        <ele>436.1</ele>
        <time>2010-10-28T13:13:38Z</time>
      </trkpt>
      <trkpt lat="45.66599" lon="4.66873">
        <ele>435.61</ele>
        <time>2010-10-28T13:13:45Z</time>
      </trkpt>
      <trkpt lat="45.66601" lon="4.66875">
        <ele>435.61</ele>
        <time>2010-10-28T13:13:46Z</time>
      </trkpt>
      <trkpt lat="45.66603" lon="4.66877">
        <ele>435.13</ele>
        <time>2010-10-28T13:13:47Z</time>
      </trkpt>
      <trkpt lat="45.66605" lon="4.6688">
        <ele>436.1</ele>
        <time>2010-10-28T13:13:48Z</time>
      </trkpt>
      <trkpt lat="45.66607" lon="4.66881">
        <ele>436.58</ele>
        <time>2010-10-28T13:13:49Z</time>
      </trkpt>
      <trkpt lat="45.66609" lon="4.66883">
        <ele>435.61</ele>
        <time>2010-10-28T13:13:50Z</time>
      </trkpt>
      <trkpt lat="45.66611" lon="4.66885">
        <ele>436.58</ele>
        <time>2010-10-28T13:13:51Z</time>
      </trkpt>
      <trkpt lat="45.66613" lon="4.66886">
        <ele>435.61</ele>
        <time>2010-10-28T13:13:52Z</time>
      </trkpt>
      <trkpt lat="45.66615" lon="4.66888">
        <ele>435.61</ele>
        <time>2010-10-28T13:13:53Z</time>
      </trkpt>
      <trkpt lat="45.66617" lon="4.66889">
        <ele>435.61</ele>
        <time>2010-10-28T13:13:54Z</time>
      </trkpt>
      <trkpt lat="45.66619" lon="4.66891">
        <ele>435.61</ele>
        <time>2010-10-28T13:13:55Z</time>
      </trkpt>
      <trkpt lat="45.66621" lon="4.66893">
        <ele>435.61</ele>
        <time>2010-10-28T13:13:56Z</time>
      </trkpt>
      <trkpt lat="45.66623" lon="4.66894">
        <ele>435.61</ele>
        <time>2010-10-28T13:13:57Z</time>
      </trkpt>
      <trkpt lat="45.66626" lon="4.66896">
        <ele>435.61</ele>
        <time>2010-10-28T13:13:58Z</time>
      </trkpt>
      <trkpt lat="45.66628" lon="4.66898">
        <ele>435.61</ele>
        <time>2010-10-28T13:13:59Z</time>
      </trkpt>
      <trkpt lat="45.6665" lon="4.66908">
        <ele>436.1</ele>
        <time>2010-10-28T13:14:07Z</time>
      </trkpt>
      <trkpt lat="45.66666" lon="4.66907">
        <ele>437.54</ele>
        <time>2010-10-28T13:14:13Z</time>
      </trkpt>
      <trkpt lat="45.66668" lon="4.66904">
        <ele>438.02</ele>
        <time>2010-10-28T13:14:14Z</time>
      </trkpt>
      <trkpt lat="45.6667" lon="4.66901">
        <ele>438.02</ele>
        <time>2010-10-28T13:14:15Z</time>
      </trkpt>
      <trkpt lat="45.66671" lon="4.66898">
        <ele>437.54</ele>
        <time>2010-10-28T13:14:16Z</time>
      </trkpt>
      <trkpt lat="45.66672" lon="4.66894">
        <ele>438.5</ele>
        <time>2010-10-28T13:14:17Z</time>
      </trkpt>
      <trkpt lat="45.66673" lon="4.66891">
        <ele>438.02</ele>
        <time>2010-10-28T13:14:18Z</time>
      </trkpt>
      <trkpt lat="45.66674" lon="4.66888">
        <ele>437.54</ele>
        <time>2010-10-28T13:14:19Z</time>
      </trkpt>
      <trkpt lat="45.66687" lon="4.66863">
        <ele>438.5</ele>
        <time>2010-10-28T13:14:27Z</time>
      </trkpt>
      <trkpt lat="45.66702" lon="4.66846">
        <ele>439.46</ele>
        <time>2010-10-28T13:14:34Z</time>
      </trkpt>
      <trkpt lat="45.66704" lon="4.66844">
        <ele>438.98</ele>
        <time>2010-10-28T13:14:35Z</time>
      </trkpt>
      <trkpt lat="45.66706" lon="4.66841">
        <ele>439.94</ele>
        <time>2010-10-28T13:14:36Z</time>
      </trkpt>
      <trkpt lat="45.66708" lon="4.66838">
        <ele>439.94</ele>
        <time>2010-10-28T13:14:37Z</time>
      </trkpt>
      <trkpt lat="45.6671" lon="4.66836">
        <ele>439.46</ele>
        <time>2010-10-28T13:14:38Z</time>
      </trkpt>
      <trkpt lat="45.66722" lon="4.66805">
        <ele>438.98</ele>
        <time>2010-10-28T13:14:48Z</time>
      </trkpt>
      <trkpt lat="45.66732" lon="4.66776">
        <ele>439.46</ele>
        <time>2010-10-28T13:14:57Z</time>
      </trkpt>
      <trkpt lat="45.66736" lon="4.66752">
        <ele>438.5</ele>
        <time>2010-10-28T13:15:05Z</time>
      </trkpt>
      <trkpt lat="45.66738" lon="4.66752">
        <ele>438.02</ele>
        <time>2010-10-28T13:15:15Z</time>
      </trkpt>
      <trkpt lat="45.66737" lon="4.66753">
        <ele>438.98</ele>
        <time>2010-10-28T13:15:33Z</time>
      </trkpt>
      <trkpt lat="45.66738" lon="4.66752">
        <ele>438.98</ele>
        <time>2010-10-28T13:15:52Z</time>
      </trkpt>
      <trkpt lat="45.66739" lon="4.66754">
        <ele>438.02</ele>
        <time>2010-10-28T13:16:01Z</time>
      </trkpt>
      <trkpt lat="45.66742" lon="4.66757">
        <ele>437.54</ele>
        <time>2010-10-28T13:16:03Z</time>
      </trkpt>
      <trkpt lat="45.66743" lon="4.66759">
        <ele>437.06</ele>
        <time>2010-10-28T13:16:04Z</time>
      </trkpt>
      <trkpt lat="45.66745" lon="4.6676">
        <ele>437.06</ele>
        <time>2010-10-28T13:16:05Z</time>
      </trkpt>
      <trkpt lat="45.66748" lon="4.66765">
        <ele>435.13</ele>
        <time>2010-10-28T13:16:08Z</time>
      </trkpt>
      <trkpt lat="45.66753" lon="4.66771">
        <ele>433.21</ele>
        <time>2010-10-28T13:16:12Z</time>
      </trkpt>
      <trkpt lat="45.66763" lon="4.66783">
        <ele>431.29</ele>
        <time>2010-10-28T13:16:17Z</time>
      </trkpt>
      <trkpt lat="45.66782" lon="4.66806">
        <ele>428.89</ele>
        <time>2010-10-28T13:16:27Z</time>
      </trkpt>
      <trkpt lat="45.66787" lon="4.66815">
        <ele>428.4</ele>
        <time>2010-10-28T13:16:30Z</time>
      </trkpt>
      <trkpt lat="45.66789" lon="4.66819">
        <ele>429.37</ele>
        <time>2010-10-28T13:16:31Z</time>
      </trkpt>
      <trkpt lat="45.66791" lon="4.66823">
        <ele>429.37</ele>
        <time>2010-10-28T13:16:32Z</time>
      </trkpt>
      <trkpt lat="45.66793" lon="4.66826">
        <ele>428.4</ele>
        <time>2010-10-28T13:16:33Z</time>
      </trkpt>
      <trkpt lat="45.66795" lon="4.66828">
        <ele>428.4</ele>
        <time>2010-10-28T13:16:34Z</time>
      </trkpt>
      <trkpt lat="45.66796" lon="4.6683">
        <ele>428.4</ele>
        <time>2010-10-28T13:16:35Z</time>
      </trkpt>
      <trkpt lat="45.66798" lon="4.66832">
        <ele>427.92</ele>
        <time>2010-10-28T13:16:36Z</time>
      </trkpt>
      <trkpt lat="45.668" lon="4.66835">
        <ele>428.4</ele>
        <time>2010-10-28T13:16:37Z</time>
      </trkpt>
      <trkpt lat="45.66802" lon="4.66837">
        <ele>426.96</ele>
        <time>2010-10-28T13:16:38Z</time>
      </trkpt>
      <trkpt lat="45.66804" lon="4.6684">
        <ele>427.92</ele>
        <time>2010-10-28T13:16:39Z</time>
      </trkpt>
      <trkpt lat="45.66823" lon="4.66863">
        <ele>426.48</ele>
        <time>2010-10-28T13:16:48Z</time>
      </trkpt>
      <trkpt lat="45.66836" lon="4.66886">
        <ele>425.52</ele>
        <time>2010-10-28T13:16:55Z</time>
      </trkpt>
      <trkpt lat="45.66844" lon="4.66906">
        <ele>425.04</ele>
        <time>2010-10-28T13:17:02Z</time>
      </trkpt>
      <trkpt lat="45.66844" lon="4.6691">
        <ele>425.52</ele>
        <time>2010-10-28T13:17:03Z</time>
      </trkpt>
      <trkpt lat="45.66846" lon="4.66914">
        <ele>424.56</ele>
        <time>2010-10-28T13:17:04Z</time>
      </trkpt>
      <trkpt lat="45.6686" lon="4.66937">
        <ele>423.12</ele>
        <time>2010-10-28T13:17:13Z</time>
      </trkpt>
      <trkpt lat="45.66875" lon="4.66962">
        <ele>424.08</ele>
        <time>2010-10-28T13:17:21Z</time>
      </trkpt>
      <trkpt lat="45.6689" lon="4.66997">
        <ele>420.71</ele>
        <time>2010-10-28T13:17:31Z</time>
      </trkpt>
      <trkpt lat="45.66901" lon="4.67016">
        <ele>420.71</ele>
        <time>2010-10-28T13:17:38Z</time>
      </trkpt>
      <trkpt lat="45.6691" lon="4.67039">
        <ele>420.71</ele>
        <time>2010-10-28T13:17:46Z</time>
      </trkpt>
      <trkpt lat="45.66915" lon="4.6705">
        <ele>420.23</ele>
        <time>2010-10-28T13:17:49Z</time>
      </trkpt>
      <trkpt lat="45.66918" lon="4.67053">
        <ele>419.75</ele>
        <time>2010-10-28T13:17:50Z</time>
      </trkpt>
      <trkpt lat="45.66919" lon="4.67057">
        <ele>419.75</ele>
        <time>2010-10-28T13:17:51Z</time>
      </trkpt>
      <trkpt lat="45.66921" lon="4.6706">
        <ele>419.75</ele>
        <time>2010-10-28T13:17:52Z</time>
      </trkpt>
      <trkpt lat="45.66923" lon="4.67063">
        <ele>419.27</ele>
        <time>2010-10-28T13:17:53Z</time>
      </trkpt>
      <trkpt lat="45.66925" lon="4.67067">
        <ele>420.23</ele>
        <time>2010-10-28T13:17:54Z</time>
      </trkpt>
      <trkpt lat="45.66927" lon="4.67071">
        <ele>418.79</ele>
        <time>2010-10-28T13:17:55Z</time>
      </trkpt>
      <trkpt lat="45.66936" lon="4.67092">
        <ele>417.35</ele>
        <time>2010-10-28T13:18:01Z</time>
      </trkpt>
      <trkpt lat="45.66936" lon="4.67096">
        <ele>417.35</ele>
        <time>2010-10-28T13:18:02Z</time>
      </trkpt>
      <trkpt lat="45.66936" lon="4.67099">
        <ele>416.87</ele>
        <time>2010-10-28T13:18:03Z</time>
      </trkpt>
      <trkpt lat="45.66937" lon="4.67103">
        <ele>416.87</ele>
        <time>2010-10-28T13:18:04Z</time>
      </trkpt>
      <trkpt lat="45.66939" lon="4.67107">
        <ele>416.39</ele>
        <time>2010-10-28T13:18:05Z</time>
      </trkpt>
      <trkpt lat="45.66941" lon="4.6711">
        <ele>415.91</ele>
        <time>2010-10-28T13:18:06Z</time>
      </trkpt>
      <trkpt lat="45.66943" lon="4.67114">
        <ele>415.91</ele>
        <time>2010-10-28T13:18:07Z</time>
      </trkpt>
      <trkpt lat="45.66946" lon="4.67118">
        <ele>415.91</ele>
        <time>2010-10-28T13:18:08Z</time>
      </trkpt>
      <trkpt lat="45.66948" lon="4.67121">
        <ele>415.43</ele>
        <time>2010-10-28T13:18:09Z</time>
      </trkpt>
      <trkpt lat="45.6695" lon="4.67122">
        <ele>416.39</ele>
        <time>2010-10-28T13:18:10Z</time>
      </trkpt>
      <trkpt lat="45.66953" lon="4.67123">
        <ele>415.91</ele>
        <time>2010-10-28T13:18:11Z</time>
      </trkpt>
      <trkpt lat="45.66956" lon="4.67123">
        <ele>415.91</ele>
        <time>2010-10-28T13:18:12Z</time>
      </trkpt>
      <trkpt lat="45.66959" lon="4.67124">
        <ele>415.43</ele>
        <time>2010-10-28T13:18:13Z</time>
      </trkpt>
      <trkpt lat="45.66974" lon="4.67149">
        <ele>415.43</ele>
        <time>2010-10-28T13:18:23Z</time>
      </trkpt>
      <trkpt lat="45.66981" lon="4.67178">
        <ele>413.98</ele>
        <time>2010-10-28T13:18:31Z</time>
      </trkpt>
      <trkpt lat="45.66989" lon="4.67214">
        <ele>414.47</ele>
        <time>2010-10-28T13:18:41Z</time>
      </trkpt>
      <trkpt lat="45.67004" lon="4.67245">
        <ele>415.91</ele>
        <time>2010-10-28T13:18:50Z</time>
      </trkpt>
      <trkpt lat="45.67006" lon="4.67248">
        <ele>416.39</ele>
        <time>2010-10-28T13:18:51Z</time>
      </trkpt>
      <trkpt lat="45.67008" lon="4.6725">
        <ele>415.91</ele>
        <time>2010-10-28T13:18:52Z</time>
      </trkpt>
      <trkpt lat="45.67014" lon="4.67261">
        <ele>416.39</ele>
        <time>2010-10-28T13:18:56Z</time>
      </trkpt>
      <trkpt lat="45.67016" lon="4.67263">
        <ele>416.39</ele>
        <time>2010-10-28T13:18:57Z</time>
      </trkpt>
      <trkpt lat="45.67017" lon="4.67265">
        <ele>416.39</ele>
        <time>2010-10-28T13:18:58Z</time>
      </trkpt>
      <trkpt lat="45.67019" lon="4.67268">
        <ele>416.39</ele>
        <time>2010-10-28T13:18:59Z</time>
      </trkpt>
      <trkpt lat="45.67021" lon="4.67272">
        <ele>416.39</ele>
        <time>2010-10-28T13:19:00Z</time>
      </trkpt>
      <trkpt lat="45.67033" lon="4.67308">
        <ele>416.39</ele>
        <time>2010-10-28T13:19:10Z</time>
      </trkpt>
      <trkpt lat="45.67047" lon="4.67346">
        <ele>414.95</ele>
        <time>2010-10-28T13:19:20Z</time>
      </trkpt>
      <trkpt lat="45.67059" lon="4.67378">
        <ele>414.95</ele>
        <time>2010-10-28T13:19:29Z</time>
      </trkpt>
      <trkpt lat="45.67066" lon="4.67388">
        <ele>414.95</ele>
        <time>2010-10-28T13:19:32Z</time>
      </trkpt>
      <trkpt lat="45.67068" lon="4.67391">
        <ele>414.47</ele>
        <time>2010-10-28T13:19:33Z</time>
      </trkpt>
      <trkpt lat="45.67069" lon="4.67394">
        <ele>414.47</ele>
        <time>2010-10-28T13:19:34Z</time>
      </trkpt>
      <trkpt lat="45.6707" lon="4.67397">
        <ele>414.95</ele>
        <time>2010-10-28T13:19:35Z</time>
      </trkpt>
      <trkpt lat="45.67072" lon="4.674">
        <ele>413.98</ele>
        <time>2010-10-28T13:19:36Z</time>
      </trkpt>
      <trkpt lat="45.67073" lon="4.67402">
        <ele>413.98</ele>
        <time>2010-10-28T13:19:37Z</time>
      </trkpt>
      <trkpt lat="45.67074" lon="4.67405">
        <ele>414.95</ele>
        <time>2010-10-28T13:19:38Z</time>
      </trkpt>
      <trkpt lat="45.67084" lon="4.67428">
        <ele>412.54</ele>
        <time>2010-10-28T13:19:45Z</time>
      </trkpt>
      <trkpt lat="45.67085" lon="4.67431">
        <ele>413.5</ele>
        <time>2010-10-28T13:19:46Z</time>
      </trkpt>
      <trkpt lat="45.67089" lon="4.67443">
        <ele>412.06</ele>
        <time>2010-10-28T13:19:49Z</time>
      </trkpt>
      <trkpt lat="45.67091" lon="4.67448">
        <ele>412.06</ele>
        <time>2010-10-28T13:19:50Z</time>
      </trkpt>
      <trkpt lat="45.67093" lon="4.67452">
        <ele>411.58</ele>
        <time>2010-10-28T13:19:51Z</time>
      </trkpt>
      <trkpt lat="45.67094" lon="4.67456">
        <ele>412.06</ele>
        <time>2010-10-28T13:19:52Z</time>
      </trkpt>
      <trkpt lat="45.67095" lon="4.6746">
        <ele>410.62</ele>
        <time>2010-10-28T13:19:53Z</time>
      </trkpt>
      <trkpt lat="45.67097" lon="4.67463">
        <ele>411.1</ele>
        <time>2010-10-28T13:19:54Z</time>
      </trkpt>
      <trkpt lat="45.671" lon="4.67472">
        <ele>410.14</ele>
        <time>2010-10-28T13:19:57Z</time>
      </trkpt>
      <trkpt lat="45.67101" lon="4.67475">
        <ele>410.62</ele>
        <time>2010-10-28T13:19:58Z</time>
      </trkpt>
      <trkpt lat="45.67111" lon="4.67502">
        <ele>410.14</ele>
        <time>2010-10-28T13:20:06Z</time>
      </trkpt>
      <trkpt lat="45.67118" lon="4.67526">
        <ele>410.14</ele>
        <time>2010-10-28T13:20:13Z</time>
      </trkpt>
      <trkpt lat="45.67124" lon="4.67554">
        <ele>410.62</ele>
        <time>2010-10-28T13:20:20Z</time>
      </trkpt>
      <trkpt lat="45.67127" lon="4.67583">
        <ele>410.62</ele>
        <time>2010-10-28T13:20:27Z</time>
      </trkpt>
      <trkpt lat="45.67127" lon="4.67587">
        <ele>411.1</ele>
        <time>2010-10-28T13:20:28Z</time>
      </trkpt>
      <trkpt lat="45.67127" lon="4.67591">
        <ele>412.06</ele>
        <time>2010-10-28T13:20:29Z</time>
      </trkpt>
      <trkpt lat="45.67127" lon="4.67595">
        <ele>411.1</ele>
        <time>2010-10-28T13:20:30Z</time>
      </trkpt>
      <trkpt lat="45.67126" lon="4.67598">
        <ele>411.1</ele>
        <time>2010-10-28T13:20:31Z</time>
      </trkpt>
      <trkpt lat="45.67125" lon="4.67601">
        <ele>411.1</ele>
        <time>2010-10-28T13:20:32Z</time>
      </trkpt>
      <trkpt lat="45.67124" lon="4.67605">
        <ele>411.1</ele>
        <time>2010-10-28T13:20:33Z</time>
      </trkpt>
      <trkpt lat="45.67123" lon="4.67609">
        <ele>411.1</ele>
        <time>2010-10-28T13:20:34Z</time>
      </trkpt>
      <trkpt lat="45.67122" lon="4.67621">
        <ele>411.1</ele>
        <time>2010-10-28T13:20:37Z</time>
      </trkpt>
      <trkpt lat="45.67122" lon="4.67625">
        <ele>411.1</ele>
        <time>2010-10-28T13:20:38Z</time>
      </trkpt>
      <trkpt lat="45.67123" lon="4.67636">
        <ele>411.58</ele>
        <time>2010-10-28T13:20:41Z</time>
      </trkpt>
      <trkpt lat="45.67124" lon="4.67641">
        <ele>411.58</ele>
        <time>2010-10-28T13:20:42Z</time>
      </trkpt>
      <trkpt lat="45.67124" lon="4.67646">
        <ele>410.62</ele>
        <time>2010-10-28T13:20:43Z</time>
      </trkpt>
      <trkpt lat="45.67134" lon="4.67674">
        <ele>410.14</ele>
        <time>2010-10-28T13:20:51Z</time>
      </trkpt>
      <trkpt lat="45.67146" lon="4.67706">
        <ele>408.22</ele>
        <time>2010-10-28T13:20:59Z</time>
      </trkpt>
      <trkpt lat="45.6715" lon="4.67751">
        <ele>406.77</ele>
        <time>2010-10-28T13:21:09Z</time>
      </trkpt>
      <trkpt lat="45.6715" lon="4.67755">
        <ele>406.29</ele>
        <time>2010-10-28T13:21:10Z</time>
      </trkpt>
      <trkpt lat="45.6715" lon="4.67788">
        <ele>404.85</ele>
        <time>2010-10-28T13:21:17Z</time>
      </trkpt>
      <trkpt lat="45.67153" lon="4.67815">
        <ele>404.37</ele>
        <time>2010-10-28T13:21:23Z</time>
      </trkpt>
      <trkpt lat="45.67152" lon="4.67819">
        <ele>403.89</ele>
        <time>2010-10-28T13:21:24Z</time>
      </trkpt>
      <trkpt lat="45.67153" lon="4.67823">
        <ele>403.89</ele>
        <time>2010-10-28T13:21:25Z</time>
      </trkpt>
      <trkpt lat="45.67154" lon="4.67827">
        <ele>403.41</ele>
        <time>2010-10-28T13:21:26Z</time>
      </trkpt>
      <trkpt lat="45.67155" lon="4.67831">
        <ele>403.89</ele>
        <time>2010-10-28T13:21:27Z</time>
      </trkpt>
      <trkpt lat="45.67155" lon="4.67835">
        <ele>403.89</ele>
        <time>2010-10-28T13:21:28Z</time>
      </trkpt>
      <trkpt lat="45.67157" lon="4.67844">
        <ele>403.41</ele>
        <time>2010-10-28T13:21:30Z</time>
      </trkpt>
      <trkpt lat="45.67158" lon="4.67848">
        <ele>403.41</ele>
        <time>2010-10-28T13:21:31Z</time>
      </trkpt>
      <trkpt lat="45.67159" lon="4.67853">
        <ele>402.93</ele>
        <time>2010-10-28T13:21:32Z</time>
      </trkpt>
      <trkpt lat="45.67161" lon="4.67881">
        <ele>401.01</ele>
        <time>2010-10-28T13:21:38Z</time>
      </trkpt>
      <trkpt lat="45.6717" lon="4.67918">
        <ele>399.08</ele>
        <time>2010-10-28T13:21:47Z</time>
      </trkpt>
      <trkpt lat="45.67171" lon="4.67922">
        <ele>399.08</ele>
        <time>2010-10-28T13:21:48Z</time>
      </trkpt>
      <trkpt lat="45.67172" lon="4.67925">
        <ele>399.08</ele>
        <time>2010-10-28T13:21:49Z</time>
      </trkpt>
      <trkpt lat="45.67172" lon="4.67928">
        <ele>398.6</ele>
        <time>2010-10-28T13:21:50Z</time>
      </trkpt>
      <trkpt lat="45.67183" lon="4.67966">
        <ele>397.16</ele>
        <time>2010-10-28T13:21:59Z</time>
      </trkpt>
      <trkpt lat="45.67184" lon="4.6797">
        <ele>397.16</ele>
        <time>2010-10-28T13:22:00Z</time>
      </trkpt>
      <trkpt lat="45.67184" lon="4.67974">
        <ele>397.64</ele>
        <time>2010-10-28T13:22:01Z</time>
      </trkpt>
      <trkpt lat="45.67185" lon="4.67978">
        <ele>397.16</ele>
        <time>2010-10-28T13:22:02Z</time>
      </trkpt>
      <trkpt lat="45.67186" lon="4.67982">
        <ele>397.16</ele>
        <time>2010-10-28T13:22:03Z</time>
      </trkpt>
      <trkpt lat="45.67187" lon="4.67987">
        <ele>397.16</ele>
        <time>2010-10-28T13:22:04Z</time>
      </trkpt>
      <trkpt lat="45.67188" lon="4.67991">
        <ele>396.2</ele>
        <time>2010-10-28T13:22:05Z</time>
      </trkpt>
      <trkpt lat="45.6719" lon="4.67995">
        <ele>396.68</ele>
        <time>2010-10-28T13:22:06Z</time>
      </trkpt>
      <trkpt lat="45.67191" lon="4.67999">
        <ele>396.2</ele>
        <time>2010-10-28T13:22:07Z</time>
      </trkpt>
      <trkpt lat="45.67191" lon="4.68003">
        <ele>396.68</ele>
        <time>2010-10-28T13:22:08Z</time>
      </trkpt>
      <trkpt lat="45.67192" lon="4.68007">
        <ele>395.72</ele>
        <time>2010-10-28T13:22:09Z</time>
      </trkpt>
      <trkpt lat="45.67193" lon="4.6801">
        <ele>395.72</ele>
        <time>2010-10-28T13:22:10Z</time>
      </trkpt>
      <trkpt lat="45.67194" lon="4.68014">
        <ele>396.2</ele>
        <time>2010-10-28T13:22:11Z</time>
      </trkpt>
      <trkpt lat="45.67207" lon="4.68051">
        <ele>394.28</ele>
        <time>2010-10-28T13:22:20Z</time>
      </trkpt>
      <trkpt lat="45.67216" lon="4.68073">
        <ele>392.36</ele>
        <time>2010-10-28T13:22:25Z</time>
      </trkpt>
      <trkpt lat="45.67222" lon="4.6811">
        <ele>390.91</ele>
        <time>2010-10-28T13:22:34Z</time>
      </trkpt>
      <trkpt lat="45.67219" lon="4.68117">
        <ele>390.91</ele>
        <time>2010-10-28T13:22:36Z</time>
      </trkpt>
      <trkpt lat="45.67218" lon="4.6812">
        <ele>391.39</ele>
        <time>2010-10-28T13:22:37Z</time>
      </trkpt>
      <trkpt lat="45.67216" lon="4.68123">
        <ele>390.91</ele>
        <time>2010-10-28T13:22:38Z</time>
      </trkpt>
      <trkpt lat="45.67215" lon="4.68127">
        <ele>390.91</ele>
        <time>2010-10-28T13:22:39Z</time>
      </trkpt>
      <trkpt lat="45.67215" lon="4.68132">
        <ele>391.39</ele>
        <time>2010-10-28T13:22:40Z</time>
      </trkpt>
      <trkpt lat="45.67213" lon="4.68136">
        <ele>391.39</ele>
        <time>2010-10-28T13:22:41Z</time>
      </trkpt>
      <trkpt lat="45.67212" lon="4.6814">
        <ele>390.91</ele>
        <time>2010-10-28T13:22:42Z</time>
      </trkpt>
      <trkpt lat="45.67203" lon="4.68171">
        <ele>389.47</ele>
        <time>2010-10-28T13:22:50Z</time>
      </trkpt>
      <trkpt lat="45.67199" lon="4.68204">
        <ele>388.51</ele>
        <time>2010-10-28T13:22:57Z</time>
      </trkpt>
      <trkpt lat="45.67199" lon="4.68209">
        <ele>388.99</ele>
        <time>2010-10-28T13:22:58Z</time>
      </trkpt>
      <trkpt lat="45.67204" lon="4.6825">
        <ele>388.51</ele>
        <time>2010-10-28T13:23:08Z</time>
      </trkpt>
      <trkpt lat="45.67201" lon="4.68267">
        <ele>387.07</ele>
        <time>2010-10-28T13:23:12Z</time>
      </trkpt>
      <trkpt lat="45.67201" lon="4.68301">
        <ele>387.55</ele>
        <time>2010-10-28T13:23:20Z</time>
      </trkpt>
      <trkpt lat="45.67201" lon="4.68305">
        <ele>387.55</ele>
        <time>2010-10-28T13:23:21Z</time>
      </trkpt>
      <trkpt lat="45.67201" lon="4.68309">
        <ele>387.55</ele>
        <time>2010-10-28T13:23:22Z</time>
      </trkpt>
      <trkpt lat="45.672" lon="4.68313">
        <ele>387.55</ele>
        <time>2010-10-28T13:23:23Z</time>
      </trkpt>
      <trkpt lat="45.672" lon="4.68318">
        <ele>386.59</ele>
        <time>2010-10-28T13:23:24Z</time>
      </trkpt>
      <trkpt lat="45.67201" lon="4.68323">
        <ele>386.59</ele>
        <time>2010-10-28T13:23:25Z</time>
      </trkpt>
      <trkpt lat="45.67203" lon="4.68363">
        <ele>386.59</ele>
        <time>2010-10-28T13:23:34Z</time>
      </trkpt>
      <trkpt lat="45.67203" lon="4.6837">
        <ele>386.11</ele>
        <time>2010-10-28T13:23:36Z</time>
      </trkpt>
      <trkpt lat="45.67203" lon="4.68374">
        <ele>386.11</ele>
        <time>2010-10-28T13:23:37Z</time>
      </trkpt>
      <trkpt lat="45.67202" lon="4.68377">
        <ele>386.11</ele>
        <time>2010-10-28T13:23:38Z</time>
      </trkpt>
      <trkpt lat="45.67202" lon="4.68381">
        <ele>385.63</ele>
        <time>2010-10-28T13:23:39Z</time>
      </trkpt>
      <trkpt lat="45.67202" lon="4.68385">
        <ele>385.15</ele>
        <time>2010-10-28T13:23:40Z</time>
      </trkpt>
      <trkpt lat="45.67203" lon="4.6839">
        <ele>385.63</ele>
        <time>2010-10-28T13:23:41Z</time>
      </trkpt>
      <trkpt lat="45.67203" lon="4.68396">
        <ele>385.63</ele>
        <time>2010-10-28T13:23:42Z</time>
      </trkpt>
      <trkpt lat="45.67205" lon="4.68416">
        <ele>386.59</ele>
        <time>2010-10-28T13:23:46Z</time>
      </trkpt>
      <trkpt lat="45.67203" lon="4.6842">
        <ele>385.15</ele>
        <time>2010-10-28T13:23:47Z</time>
      </trkpt>
      <trkpt lat="45.67202" lon="4.68425">
        <ele>385.63</ele>
        <time>2010-10-28T13:23:48Z</time>
      </trkpt>
      <trkpt lat="45.672" lon="4.68442">
        <ele>385.15</ele>
        <time>2010-10-28T13:23:52Z</time>
      </trkpt>
      <trkpt lat="45.672" lon="4.68445">
        <ele>385.63</ele>
        <time>2010-10-28T13:23:53Z</time>
      </trkpt>
      <trkpt lat="45.67215" lon="4.6847">
        <ele>384.66</ele>
        <time>2010-10-28T13:24:02Z</time>
      </trkpt>
      <trkpt lat="45.67232" lon="4.68486">
        <ele>384.66</ele>
        <time>2010-10-28T13:24:09Z</time>
      </trkpt>
      <trkpt lat="45.67248" lon="4.68505">
        <ele>383.7</ele>
        <time>2010-10-28T13:24:17Z</time>
      </trkpt>
      <trkpt lat="45.67271" lon="4.68522">
        <ele>382.26</ele>
        <time>2010-10-28T13:24:25Z</time>
      </trkpt>
      <trkpt lat="45.67294" lon="4.68532">
        <ele>381.78</ele>
        <time>2010-10-28T13:24:33Z</time>
      </trkpt>
      <trkpt lat="45.67306" lon="4.6854">
        <ele>381.3</ele>
        <time>2010-10-28T13:24:37Z</time>
      </trkpt>
      <trkpt lat="45.67325" lon="4.68568">
        <ele>380.82</ele>
        <time>2010-10-28T13:24:46Z</time>
      </trkpt>
      <trkpt lat="45.67336" lon="4.68597">
        <ele>380.34</ele>
        <time>2010-10-28T13:24:56Z</time>
      </trkpt>
      <trkpt lat="45.67337" lon="4.68601">
        <ele>380.82</ele>
        <time>2010-10-28T13:24:58Z</time>
      </trkpt>
      <trkpt lat="45.67339" lon="4.68603">
        <ele>379.86</ele>
        <time>2010-10-28T13:24:59Z</time>
      </trkpt>
      <trkpt lat="45.67341" lon="4.68606">
        <ele>380.34</ele>
        <time>2010-10-28T13:25:00Z</time>
      </trkpt>
      <trkpt lat="45.67353" lon="4.6863">
        <ele>379.38</ele>
        <time>2010-10-28T13:25:09Z</time>
      </trkpt>
      <trkpt lat="45.67355" lon="4.68635">
        <ele>378.9</ele>
        <time>2010-10-28T13:25:11Z</time>
      </trkpt>
      <trkpt lat="45.67356" lon="4.68637">
        <ele>379.86</ele>
        <time>2010-10-28T13:25:12Z</time>
      </trkpt>
      <trkpt lat="45.67356" lon="4.6864">
        <ele>379.38</ele>
        <time>2010-10-28T13:25:13Z</time>
      </trkpt>
      <trkpt lat="45.67357" lon="4.68643">
        <ele>378.9</ele>
        <time>2010-10-28T13:25:14Z</time>
      </trkpt>
      <trkpt lat="45.67358" lon="4.68646">
        <ele>379.38</ele>
        <time>2010-10-28T13:25:15Z</time>
      </trkpt>
      <trkpt lat="45.6736" lon="4.6865">
        <ele>379.86</ele>
        <time>2010-10-28T13:25:16Z</time>
      </trkpt>
      <trkpt lat="45.67361" lon="4.68654">
        <ele>379.38</ele>
        <time>2010-10-28T13:25:17Z</time>
      </trkpt>
      <trkpt lat="45.67361" lon="4.68658">
        <ele>379.38</ele>
        <time>2010-10-28T13:25:18Z</time>
      </trkpt>
      <trkpt lat="45.67362" lon="4.68662">
        <ele>379.86</ele>
        <time>2010-10-28T13:25:19Z</time>
      </trkpt>
      <trkpt lat="45.67363" lon="4.68666">
        <ele>379.86</ele>
        <time>2010-10-28T13:25:20Z</time>
      </trkpt>
      <trkpt lat="45.67365" lon="4.6867">
        <ele>378.9</ele>
        <time>2010-10-28T13:25:21Z</time>
      </trkpt>
      <trkpt lat="45.67366" lon="4.68674">
        <ele>379.38</ele>
        <time>2010-10-28T13:25:22Z</time>
      </trkpt>
      <trkpt lat="45.6737" lon="4.68685">
        <ele>379.38</ele>
        <time>2010-10-28T13:25:25Z</time>
      </trkpt>
      <trkpt lat="45.67371" lon="4.68689">
        <ele>379.38</ele>
        <time>2010-10-28T13:25:26Z</time>
      </trkpt>
      <trkpt lat="45.67372" lon="4.68692">
        <ele>378.9</ele>
        <time>2010-10-28T13:25:27Z</time>
      </trkpt>
      <trkpt lat="45.67384" lon="4.6872">
        <ele>379.38</ele>
        <time>2010-10-28T13:25:36Z</time>
      </trkpt>
      <trkpt lat="45.67398" lon="4.68753">
        <ele>379.38</ele>
        <time>2010-10-28T13:25:46Z</time>
      </trkpt>
      <trkpt lat="45.674" lon="4.68759">
        <ele>379.86</ele>
        <time>2010-10-28T13:25:48Z</time>
      </trkpt>
      <trkpt lat="45.674" lon="4.68762">
        <ele>378.9</ele>
        <time>2010-10-28T13:25:49Z</time>
      </trkpt>
      <trkpt lat="45.67401" lon="4.68765">
        <ele>378.9</ele>
        <time>2010-10-28T13:25:50Z</time>
      </trkpt>
      <trkpt lat="45.67403" lon="4.68768">
        <ele>379.38</ele>
        <time>2010-10-28T13:25:51Z</time>
      </trkpt>
      <trkpt lat="45.67405" lon="4.68771">
        <ele>379.38</ele>
        <time>2010-10-28T13:25:52Z</time>
      </trkpt>
      <trkpt lat="45.67417" lon="4.68801">
        <ele>379.86</ele>
        <time>2010-10-28T13:26:01Z</time>
      </trkpt>
      <trkpt lat="45.67427" lon="4.68829">
        <ele>379.86</ele>
        <time>2010-10-28T13:26:09Z</time>
      </trkpt>
      <trkpt lat="45.67431" lon="4.68848">
        <ele>379.86</ele>
        <time>2010-10-28T13:26:14Z</time>
      </trkpt>
      <trkpt lat="45.67433" lon="4.68875">
        <ele>381.3</ele>
        <time>2010-10-28T13:26:21Z</time>
      </trkpt>
      <trkpt lat="45.67432" lon="4.68879">
        <ele>381.78</ele>
        <time>2010-10-28T13:26:22Z</time>
      </trkpt>
      <trkpt lat="45.67433" lon="4.68883">
        <ele>381.3</ele>
        <time>2010-10-28T13:26:23Z</time>
      </trkpt>
      <trkpt lat="45.67433" lon="4.68887">
        <ele>381.78</ele>
        <time>2010-10-28T13:26:24Z</time>
      </trkpt>
      <trkpt lat="45.67434" lon="4.68891">
        <ele>381.78</ele>
        <time>2010-10-28T13:26:25Z</time>
      </trkpt>
      <trkpt lat="45.67435" lon="4.68895">
        <ele>381.78</ele>
        <time>2010-10-28T13:26:26Z</time>
      </trkpt>
      <trkpt lat="45.67435" lon="4.68899">
        <ele>382.74</ele>
        <time>2010-10-28T13:26:27Z</time>
      </trkpt>
      <trkpt lat="45.67437" lon="4.68904">
        <ele>381.78</ele>
        <time>2010-10-28T13:26:28Z</time>
      </trkpt>
      <trkpt lat="45.67437" lon="4.68908">
        <ele>381.78</ele>
        <time>2010-10-28T13:26:29Z</time>
      </trkpt>
      <trkpt lat="45.67438" lon="4.68917">
        <ele>382.26</ele>
        <time>2010-10-28T13:26:32Z</time>
      </trkpt>
      <trkpt lat="45.67439" lon="4.68921">
        <ele>382.26</ele>
        <time>2010-10-28T13:26:33Z</time>
      </trkpt>
      <trkpt lat="45.6744" lon="4.68925">
        <ele>382.26</ele>
        <time>2010-10-28T13:26:34Z</time>
      </trkpt>
      <trkpt lat="45.67442" lon="4.68929">
        <ele>381.78</ele>
        <time>2010-10-28T13:26:35Z</time>
      </trkpt>
      <trkpt lat="45.67443" lon="4.68934">
        <ele>382.26</ele>
        <time>2010-10-28T13:26:36Z</time>
      </trkpt>
      <trkpt lat="45.67445" lon="4.68938">
        <ele>381.78</ele>
        <time>2010-10-28T13:26:37Z</time>
      </trkpt>
      <trkpt lat="45.67445" lon="4.68942">
        <ele>382.26</ele>
        <time>2010-10-28T13:26:39Z</time>
      </trkpt>
      <trkpt lat="45.67445" lon="4.68945">
        <ele>382.26</ele>
        <time>2010-10-28T13:26:40Z</time>
      </trkpt>
      <trkpt lat="45.67445" lon="4.68949">
        <ele>382.26</ele>
        <time>2010-10-28T13:26:41Z</time>
      </trkpt>
      <trkpt lat="45.67446" lon="4.68953">
        <ele>381.78</ele>
        <time>2010-10-28T13:26:42Z</time>
      </trkpt>
      <trkpt lat="45.67447" lon="4.68958">
        <ele>382.26</ele>
        <time>2010-10-28T13:26:43Z</time>
      </trkpt>
      <trkpt lat="45.67449" lon="4.68963">
        <ele>382.74</ele>
        <time>2010-10-28T13:26:44Z</time>
      </trkpt>
      <trkpt lat="45.67454" lon="4.6898">
        <ele>382.26</ele>
        <time>2010-10-28T13:26:48Z</time>
      </trkpt>
      <trkpt lat="45.67456" lon="4.68984">
        <ele>382.26</ele>
        <time>2010-10-28T13:26:49Z</time>
      </trkpt>
      <trkpt lat="45.67457" lon="4.68987">
        <ele>382.26</ele>
        <time>2010-10-28T13:26:50Z</time>
      </trkpt>
      <trkpt lat="45.67467" lon="4.69013">
        <ele>382.26</ele>
        <time>2010-10-28T13:26:57Z</time>
      </trkpt>
      <trkpt lat="45.67473" lon="4.69027">
        <ele>381.78</ele>
        <time>2010-10-28T13:27:01Z</time>
      </trkpt>
      <trkpt lat="45.67474" lon="4.6903">
        <ele>382.26</ele>
        <time>2010-10-28T13:27:02Z</time>
      </trkpt>
      <trkpt lat="45.6748" lon="4.69038">
        <ele>382.74</ele>
        <time>2010-10-28T13:27:05Z</time>
      </trkpt>
      <trkpt lat="45.67497" lon="4.69055">
        <ele>381.78</ele>
        <time>2010-10-28T13:27:12Z</time>
      </trkpt>
      <trkpt lat="45.67524" lon="4.69077">
        <ele>381.78</ele>
        <time>2010-10-28T13:27:23Z</time>
      </trkpt>
      <trkpt lat="45.6753" lon="4.69083">
        <ele>381.3</ele>
        <time>2010-10-28T13:27:27Z</time>
      </trkpt>
      <trkpt lat="45.67533" lon="4.6909">
        <ele>381.78</ele>
        <time>2010-10-28T13:27:30Z</time>
      </trkpt>
      <trkpt lat="45.67534" lon="4.69092">
        <ele>381.3</ele>
        <time>2010-10-28T13:27:31Z</time>
      </trkpt>
      <trkpt lat="45.67536" lon="4.69094">
        <ele>380.82</ele>
        <time>2010-10-28T13:27:32Z</time>
      </trkpt>
      <trkpt lat="45.67537" lon="4.69096">
        <ele>381.78</ele>
        <time>2010-10-28T13:27:33Z</time>
      </trkpt>
      <trkpt lat="45.67538" lon="4.69098">
        <ele>380.82</ele>
        <time>2010-10-28T13:27:34Z</time>
      </trkpt>
      <trkpt lat="45.67545" lon="4.69106">
        <ele>380.82</ele>
        <time>2010-10-28T13:27:39Z</time>
      </trkpt>
      <trkpt lat="45.67547" lon="4.69108">
        <ele>382.26</ele>
        <time>2010-10-28T13:27:41Z</time>
      </trkpt>
      <trkpt lat="45.67548" lon="4.69109">
        <ele>381.78</ele>
        <time>2010-10-28T13:27:42Z</time>
      </trkpt>
      <trkpt lat="45.67549" lon="4.69111">
        <ele>381.3</ele>
        <time>2010-10-28T13:27:43Z</time>
      </trkpt>
      <trkpt lat="45.67551" lon="4.69112">
        <ele>381.3</ele>
        <time>2010-10-28T13:27:44Z</time>
      </trkpt>
      <trkpt lat="45.67553" lon="4.69114">
        <ele>380.82</ele>
        <time>2010-10-28T13:27:45Z</time>
      </trkpt>
      <trkpt lat="45.67554" lon="4.69117">
        <ele>381.3</ele>
        <time>2010-10-28T13:27:46Z</time>
      </trkpt>
      <trkpt lat="45.67556" lon="4.6912">
        <ele>380.82</ele>
        <time>2010-10-28T13:27:47Z</time>
      </trkpt>
      <trkpt lat="45.67558" lon="4.69122">
        <ele>380.82</ele>
        <time>2010-10-28T13:27:48Z</time>
      </trkpt>
      <trkpt lat="45.67572" lon="4.69133">
        <ele>380.34</ele>
        <time>2010-10-28T13:27:55Z</time>
      </trkpt>
      <trkpt lat="45.67573" lon="4.69134">
        <ele>380.82</ele>
        <time>2010-10-28T13:27:56Z</time>
      </trkpt>
      <trkpt lat="45.67575" lon="4.69136">
        <ele>380.82</ele>
        <time>2010-10-28T13:27:57Z</time>
      </trkpt>
      <trkpt lat="45.67576" lon="4.69138">
        <ele>379.86</ele>
        <time>2010-10-28T13:27:58Z</time>
      </trkpt>
      <trkpt lat="45.67578" lon="4.69139">
        <ele>380.34</ele>
        <time>2010-10-28T13:27:59Z</time>
      </trkpt>
      <trkpt lat="45.6758" lon="4.6914">
        <ele>379.86</ele>
        <time>2010-10-28T13:28:00Z</time>
      </trkpt>
      <trkpt lat="45.67597" lon="4.69151">
        <ele>379.38</ele>
        <time>2010-10-28T13:28:08Z</time>
      </trkpt>
      <trkpt lat="45.67623" lon="4.69166">
        <ele>377.94</ele>
        <time>2010-10-28T13:28:20Z</time>
      </trkpt>
      <trkpt lat="45.67647" lon="4.69178">
        <ele>377.94</ele>
        <time>2010-10-28T13:28:29Z</time>
      </trkpt>
      <trkpt lat="45.67671" lon="4.69194">
        <ele>376.97</ele>
        <time>2010-10-28T13:28:39Z</time>
      </trkpt>
      <trkpt lat="45.67691" lon="4.69213">
        <ele>375.53</ele>
        <time>2010-10-28T13:28:48Z</time>
      </trkpt>
      <trkpt lat="45.67703" lon="4.69226">
        <ele>374.57</ele>
        <time>2010-10-28T13:28:54Z</time>
      </trkpt>
      <trkpt lat="45.67705" lon="4.69229">
        <ele>375.05</ele>
        <time>2010-10-28T13:28:55Z</time>
      </trkpt>
      <trkpt lat="45.67707" lon="4.69232">
        <ele>373.13</ele>
        <time>2010-10-28T13:28:56Z</time>
      </trkpt>
      <trkpt lat="45.67709" lon="4.69235">
        <ele>375.53</ele>
        <time>2010-10-28T13:28:57Z</time>
      </trkpt>
      <trkpt lat="45.6771" lon="4.69238">
        <ele>375.05</ele>
        <time>2010-10-28T13:28:58Z</time>
      </trkpt>
      <trkpt lat="45.67712" lon="4.69241">
        <ele>374.09</ele>
        <time>2010-10-28T13:28:59Z</time>
      </trkpt>
      <trkpt lat="45.67714" lon="4.69245">
        <ele>374.09</ele>
        <time>2010-10-28T13:29:00Z</time>
      </trkpt>
      <trkpt lat="45.67716" lon="4.69249">
        <ele>374.09</ele>
        <time>2010-10-28T13:29:01Z</time>
      </trkpt>
      <trkpt lat="45.67718" lon="4.69253">
        <ele>373.61</ele>
        <time>2010-10-28T13:29:02Z</time>
      </trkpt>
      <trkpt lat="45.6772" lon="4.69257">
        <ele>374.57</ele>
        <time>2010-10-28T13:29:03Z</time>
      </trkpt>
      <trkpt lat="45.67736" lon="4.69285">
        <ele>373.13</ele>
        <time>2010-10-28T13:29:12Z</time>
      </trkpt>
      <trkpt lat="45.67742" lon="4.69299">
        <ele>371.69</ele>
        <time>2010-10-28T13:29:17Z</time>
      </trkpt>
      <trkpt lat="45.67742" lon="4.69301">
        <ele>372.17</ele>
        <time>2010-10-28T13:29:18Z</time>
      </trkpt>
      <trkpt lat="45.6775" lon="4.6933">
        <ele>371.69</ele>
        <time>2010-10-28T13:29:29Z</time>
      </trkpt>
      <trkpt lat="45.67765" lon="4.69352">
        <ele>371.69</ele>
        <time>2010-10-28T13:29:37Z</time>
      </trkpt>
      <trkpt lat="45.67777" lon="4.69387">
        <ele>372.65</ele>
        <time>2010-10-28T13:29:47Z</time>
      </trkpt>
      <trkpt lat="45.67777" lon="4.69389">
        <ele>371.69</ele>
        <time>2010-10-28T13:29:48Z</time>
      </trkpt>
      <trkpt lat="45.67777" lon="4.69393">
        <ele>372.17</ele>
        <time>2010-10-28T13:29:49Z</time>
      </trkpt>
      <trkpt lat="45.67778" lon="4.69397">
        <ele>372.17</ele>
        <time>2010-10-28T13:29:50Z</time>
      </trkpt>
      <trkpt lat="45.67778" lon="4.69401">
        <ele>372.17</ele>
        <time>2010-10-28T13:29:51Z</time>
      </trkpt>
      <trkpt lat="45.67779" lon="4.69405">
        <ele>372.65</ele>
        <time>2010-10-28T13:29:52Z</time>
      </trkpt>
      <trkpt lat="45.67779" lon="4.69408">
        <ele>372.65</ele>
        <time>2010-10-28T13:29:53Z</time>
      </trkpt>
      <trkpt lat="45.6778" lon="4.69411">
        <ele>373.13</ele>
        <time>2010-10-28T13:29:54Z</time>
      </trkpt>
      <trkpt lat="45.6778" lon="4.69413">
        <ele>373.61</ele>
        <time>2010-10-28T13:29:55Z</time>
      </trkpt>
      <trkpt lat="45.6778" lon="4.69414">
        <ele>373.61</ele>
        <time>2010-10-28T13:29:56Z</time>
      </trkpt>
      <trkpt lat="45.6778" lon="4.69416">
        <ele>373.13</ele>
        <time>2010-10-28T13:29:57Z</time>
      </trkpt>
      <trkpt lat="45.67782" lon="4.69422">
        <ele>373.13</ele>
        <time>2010-10-28T13:30:05Z</time>
      </trkpt>
      <trkpt lat="45.67782" lon="4.69424">
        <ele>373.13</ele>
        <time>2010-10-28T13:30:06Z</time>
      </trkpt>
      <trkpt lat="45.67782" lon="4.69426">
        <ele>373.13</ele>
        <time>2010-10-28T13:30:07Z</time>
      </trkpt>
      <trkpt lat="45.67781" lon="4.69449">
        <ele>373.13</ele>
        <time>2010-10-28T13:30:20Z</time>
      </trkpt>
      <trkpt lat="45.67783" lon="4.69461">
        <ele>373.13</ele>
        <time>2010-10-28T13:30:25Z</time>
      </trkpt>
      <trkpt lat="45.67782" lon="4.6949">
        <ele>373.13</ele>
        <time>2010-10-28T13:30:35Z</time>
      </trkpt>
      <trkpt lat="45.67784" lon="4.69497">
        <ele>373.13</ele>
        <time>2010-10-28T13:30:37Z</time>
      </trkpt>
      <trkpt lat="45.67792" lon="4.69526">
        <ele>372.65</ele>
        <time>2010-10-28T13:30:45Z</time>
      </trkpt>
      <trkpt lat="45.67796" lon="4.6955">
        <ele>371.21</ele>
        <time>2010-10-28T13:30:51Z</time>
      </trkpt>
      <trkpt lat="45.67795" lon="4.69574">
        <ele>370.73</ele>
        <time>2010-10-28T13:30:57Z</time>
      </trkpt>
      <trkpt lat="45.67798" lon="4.69581">
        <ele>370.73</ele>
        <time>2010-10-28T13:30:59Z</time>
      </trkpt>
      <trkpt lat="45.67806" lon="4.69601">
        <ele>370.73</ele>
        <time>2010-10-28T13:31:06Z</time>
      </trkpt>
      <trkpt lat="45.67818" lon="4.69637">
        <ele>369.28</ele>
        <time>2010-10-28T13:31:17Z</time>
      </trkpt>
      <trkpt lat="45.67824" lon="4.69665">
        <ele>368.32</ele>
        <time>2010-10-28T13:31:25Z</time>
      </trkpt>
      <trkpt lat="45.67828" lon="4.69676">
        <ele>367.84</ele>
        <time>2010-10-28T13:31:28Z</time>
      </trkpt>
      <trkpt lat="45.6783" lon="4.69689">
        <ele>368.32</ele>
        <time>2010-10-28T13:31:32Z</time>
      </trkpt>
      <trkpt lat="45.67834" lon="4.69723">
        <ele>365.92</ele>
        <time>2010-10-28T13:31:41Z</time>
      </trkpt>
      <trkpt lat="45.67834" lon="4.69744">
        <ele>365.92</ele>
        <time>2010-10-28T13:31:46Z</time>
      </trkpt>
      <trkpt lat="45.67836" lon="4.69786">
        <ele>364</ele>
        <time>2010-10-28T13:31:56Z</time>
      </trkpt>
      <trkpt lat="45.67836" lon="4.69818">
        <ele>363.52</ele>
        <time>2010-10-28T13:32:04Z</time>
      </trkpt>
      <trkpt lat="45.67836" lon="4.69851">
        <ele>362.07</ele>
        <time>2010-10-28T13:32:11Z</time>
      </trkpt>
      <trkpt lat="45.67836" lon="4.69879">
        <ele>361.11</ele>
        <time>2010-10-28T13:32:18Z</time>
      </trkpt>
      <trkpt lat="45.67842" lon="4.69926">
        <ele>359.67</ele>
        <time>2010-10-28T13:32:30Z</time>
      </trkpt>
      <trkpt lat="45.67853" lon="4.69966">
        <ele>358.23</ele>
        <time>2010-10-28T13:32:40Z</time>
      </trkpt>
      <trkpt lat="45.67862" lon="4.70006">
        <ele>357.27</ele>
        <time>2010-10-28T13:32:50Z</time>
      </trkpt>
      <trkpt lat="45.67863" lon="4.70015">
        <ele>356.79</ele>
        <time>2010-10-28T13:32:52Z</time>
      </trkpt>
      <trkpt lat="45.67867" lon="4.70031">
        <ele>356.31</ele>
        <time>2010-10-28T13:32:56Z</time>
      </trkpt>
      <trkpt lat="45.67868" lon="4.7007">
        <ele>355.34</ele>
        <time>2010-10-28T13:33:04Z</time>
      </trkpt>
      <trkpt lat="45.67874" lon="4.70101">
        <ele>352.94</ele>
        <time>2010-10-28T13:33:11Z</time>
      </trkpt>
      <trkpt lat="45.67875" lon="4.70105">
        <ele>353.42</ele>
        <time>2010-10-28T13:33:12Z</time>
      </trkpt>
      <trkpt lat="45.67877" lon="4.70141">
        <ele>352.94</ele>
        <time>2010-10-28T13:33:21Z</time>
      </trkpt>
      <trkpt lat="45.67877" lon="4.7016">
        <ele>351.98</ele>
        <time>2010-10-28T13:33:26Z</time>
      </trkpt>
      <trkpt lat="45.6788" lon="4.70192">
        <ele>350.06</ele>
        <time>2010-10-28T13:33:35Z</time>
      </trkpt>
      <trkpt lat="45.67883" lon="4.70206">
        <ele>350.06</ele>
        <time>2010-10-28T13:33:38Z</time>
      </trkpt>
      <trkpt lat="45.67883" lon="4.70229">
        <ele>349.1</ele>
        <time>2010-10-28T13:33:43Z</time>
      </trkpt>
      <trkpt lat="45.67881" lon="4.70234">
        <ele>348.62</ele>
        <time>2010-10-28T13:33:44Z</time>
      </trkpt>
      <trkpt lat="45.67879" lon="4.70239">
        <ele>349.58</ele>
        <time>2010-10-28T13:33:45Z</time>
      </trkpt>
      <trkpt lat="45.67875" lon="4.70252">
        <ele>348.13</ele>
        <time>2010-10-28T13:33:48Z</time>
      </trkpt>
      <trkpt lat="45.67857" lon="4.70295">
        <ele>346.69</ele>
        <time>2010-10-28T13:33:58Z</time>
      </trkpt>
      <trkpt lat="45.67866" lon="4.70323">
        <ele>345.73</ele>
        <time>2010-10-28T13:34:06Z</time>
      </trkpt>
      <trkpt lat="45.6788" lon="4.70335">
        <ele>346.69</ele>
        <time>2010-10-28T13:34:12Z</time>
      </trkpt>
      <trkpt lat="45.67883" lon="4.70336">
        <ele>346.69</ele>
        <time>2010-10-28T13:34:13Z</time>
      </trkpt>
      <trkpt lat="45.67886" lon="4.70336">
        <ele>345.73</ele>
        <time>2010-10-28T13:34:14Z</time>
      </trkpt>
      <trkpt lat="45.67909" lon="4.7035">
        <ele>345.25</ele>
        <time>2010-10-28T13:34:23Z</time>
      </trkpt>
      <trkpt lat="45.67931" lon="4.70374">
        <ele>346.69</ele>
        <time>2010-10-28T13:34:31Z</time>
      </trkpt>
      <trkpt lat="45.67937" lon="4.70377">
        <ele>347.17</ele>
        <time>2010-10-28T13:34:33Z</time>
      </trkpt>
      <trkpt lat="45.6794" lon="4.70378">
        <ele>346.69</ele>
        <time>2010-10-28T13:34:34Z</time>
      </trkpt>
      <trkpt lat="45.67961" lon="4.70388">
        <ele>347.65</ele>
        <time>2010-10-28T13:34:42Z</time>
      </trkpt>
      <trkpt lat="45.67965" lon="4.70391">
        <ele>348.62</ele>
        <time>2010-10-28T13:34:44Z</time>
      </trkpt>
      <trkpt lat="45.67966" lon="4.70391">
        <ele>347.65</ele>
        <time>2010-10-28T13:34:45Z</time>
      </trkpt>
      <trkpt lat="45.67969" lon="4.70392">
        <ele>348.13</ele>
        <time>2010-10-28T13:34:47Z</time>
      </trkpt>
      <trkpt lat="45.67971" lon="4.70392">
        <ele>348.13</ele>
        <time>2010-10-28T13:34:48Z</time>
      </trkpt>
      <trkpt lat="45.67974" lon="4.70393">
        <ele>348.62</ele>
        <time>2010-10-28T13:34:49Z</time>
      </trkpt>
      <trkpt lat="45.67976" lon="4.70392">
        <ele>348.13</ele>
        <time>2010-10-28T13:34:50Z</time>
      </trkpt>
      <trkpt lat="45.67979" lon="4.70391">
        <ele>348.13</ele>
        <time>2010-10-28T13:34:51Z</time>
      </trkpt>
      <trkpt lat="45.67981" lon="4.7039">
        <ele>348.62</ele>
        <time>2010-10-28T13:34:52Z</time>
      </trkpt>
      <trkpt lat="45.67983" lon="4.7039">
        <ele>348.62</ele>
        <time>2010-10-28T13:34:53Z</time>
      </trkpt>
      <trkpt lat="45.67985" lon="4.7039">
        <ele>349.1</ele>
        <time>2010-10-28T13:34:54Z</time>
      </trkpt>
      <trkpt lat="45.67987" lon="4.70391">
        <ele>349.58</ele>
        <time>2010-10-28T13:34:56Z</time>
      </trkpt>
      <trkpt lat="45.67989" lon="4.70393">
        <ele>349.1</ele>
        <time>2010-10-28T13:34:57Z</time>
      </trkpt>
      <trkpt lat="45.67992" lon="4.70394">
        <ele>348.62</ele>
        <time>2010-10-28T13:34:58Z</time>
      </trkpt>
      <trkpt lat="45.67994" lon="4.70394">
        <ele>349.1</ele>
        <time>2010-10-28T13:34:59Z</time>
      </trkpt>
      <trkpt lat="45.67996" lon="4.70393">
        <ele>349.58</ele>
        <time>2010-10-28T13:35:00Z</time>
      </trkpt>
      <trkpt lat="45.67999" lon="4.70392">
        <ele>349.58</ele>
        <time>2010-10-28T13:35:01Z</time>
      </trkpt>
      <trkpt lat="45.68012" lon="4.70386">
        <ele>350.06</ele>
        <time>2010-10-28T13:35:06Z</time>
      </trkpt>
      <trkpt lat="45.68015" lon="4.70385">
        <ele>350.06</ele>
        <time>2010-10-28T13:35:07Z</time>
      </trkpt>
      <trkpt lat="45.68018" lon="4.70384">
        <ele>350.06</ele>
        <time>2010-10-28T13:35:08Z</time>
      </trkpt>
      <trkpt lat="45.68021" lon="4.70383">
        <ele>350.06</ele>
        <time>2010-10-28T13:35:09Z</time>
      </trkpt>
      <trkpt lat="45.68023" lon="4.70381">
        <ele>349.58</ele>
        <time>2010-10-28T13:35:10Z</time>
      </trkpt>
      <trkpt lat="45.68026" lon="4.70379">
        <ele>350.54</ele>
        <time>2010-10-28T13:35:11Z</time>
      </trkpt>
      <trkpt lat="45.68029" lon="4.70377">
        <ele>350.06</ele>
        <time>2010-10-28T13:35:12Z</time>
      </trkpt>
      <trkpt lat="45.68031" lon="4.70376">
        <ele>350.06</ele>
        <time>2010-10-28T13:35:13Z</time>
      </trkpt>
      <trkpt lat="45.68034" lon="4.70374">
        <ele>350.06</ele>
        <time>2010-10-28T13:35:14Z</time>
      </trkpt>
      <trkpt lat="45.68037" lon="4.70372">
        <ele>350.06</ele>
        <time>2010-10-28T13:35:15Z</time>
      </trkpt>
      <trkpt lat="45.68044" lon="4.70368">
        <ele>349.58</ele>
        <time>2010-10-28T13:35:17Z</time>
      </trkpt>
      <trkpt lat="45.68046" lon="4.70366">
        <ele>349.58</ele>
        <time>2010-10-28T13:35:18Z</time>
      </trkpt>
      <trkpt lat="45.68049" lon="4.70364">
        <ele>349.58</ele>
        <time>2010-10-28T13:35:19Z</time>
      </trkpt>
      <trkpt lat="45.68052" lon="4.70362">
        <ele>350.54</ele>
        <time>2010-10-28T13:35:20Z</time>
      </trkpt>
      <trkpt lat="45.68055" lon="4.70361">
        <ele>349.1</ele>
        <time>2010-10-28T13:35:21Z</time>
      </trkpt>
      <trkpt lat="45.68058" lon="4.70357">
        <ele>349.58</ele>
        <time>2010-10-28T13:35:22Z</time>
      </trkpt>
      <trkpt lat="45.6806" lon="4.70354">
        <ele>350.06</ele>
        <time>2010-10-28T13:35:23Z</time>
      </trkpt>
      <trkpt lat="45.68061" lon="4.70351">
        <ele>350.06</ele>
        <time>2010-10-28T13:35:24Z</time>
      </trkpt>
      <trkpt lat="45.68063" lon="4.70349">
        <ele>349.58</ele>
        <time>2010-10-28T13:35:25Z</time>
      </trkpt>
      <trkpt lat="45.68066" lon="4.70348">
        <ele>349.58</ele>
        <time>2010-10-28T13:35:26Z</time>
      </trkpt>
      <trkpt lat="45.68069" lon="4.70347">
        <ele>349.58</ele>
        <time>2010-10-28T13:35:27Z</time>
      </trkpt>
      <trkpt lat="45.68072" lon="4.70346">
        <ele>349.58</ele>
        <time>2010-10-28T13:35:28Z</time>
      </trkpt>
      <trkpt lat="45.68075" lon="4.70344">
        <ele>349.1</ele>
        <time>2010-10-28T13:35:29Z</time>
      </trkpt>
      <trkpt lat="45.68078" lon="4.70341">
        <ele>348.62</ele>
        <time>2010-10-28T13:35:30Z</time>
      </trkpt>
      <trkpt lat="45.6808" lon="4.70339">
        <ele>349.1</ele>
        <time>2010-10-28T13:35:31Z</time>
      </trkpt>
      <trkpt lat="45.68082" lon="4.70336">
        <ele>349.58</ele>
        <time>2010-10-28T13:35:32Z</time>
      </trkpt>
      <trkpt lat="45.68083" lon="4.70335">
        <ele>349.1</ele>
        <time>2010-10-28T13:35:33Z</time>
      </trkpt>
      <trkpt lat="45.68086" lon="4.70333">
        <ele>349.58</ele>
        <time>2010-10-28T13:35:34Z</time>
      </trkpt>
      <trkpt lat="45.68088" lon="4.70332">
        <ele>349.1</ele>
        <time>2010-10-28T13:35:35Z</time>
      </trkpt>
      <trkpt lat="45.6809" lon="4.7033">
        <ele>348.62</ele>
        <time>2010-10-28T13:35:36Z</time>
      </trkpt>
      <trkpt lat="45.68092" lon="4.70328">
        <ele>348.13</ele>
        <time>2010-10-28T13:35:37Z</time>
      </trkpt>
      <trkpt lat="45.68096" lon="4.70329">
        <ele>348.62</ele>
        <time>2010-10-28T13:35:38Z</time>
      </trkpt>
      <trkpt lat="45.68099" lon="4.7033">
        <ele>349.1</ele>
        <time>2010-10-28T13:35:39Z</time>
      </trkpt>
      <trkpt lat="45.68101" lon="4.7033">
        <ele>348.62</ele>
        <time>2010-10-28T13:35:40Z</time>
      </trkpt>
      <trkpt lat="45.68104" lon="4.70329">
        <ele>347.65</ele>
        <time>2010-10-28T13:35:41Z</time>
      </trkpt>
      <trkpt lat="45.68108" lon="4.70328">
        <ele>347.65</ele>
        <time>2010-10-28T13:35:42Z</time>
      </trkpt>
      <trkpt lat="45.68111" lon="4.70326">
        <ele>348.62</ele>
        <time>2010-10-28T13:35:43Z</time>
      </trkpt>
      <trkpt lat="45.68114" lon="4.70326">
        <ele>348.13</ele>
        <time>2010-10-28T13:35:44Z</time>
      </trkpt>
      <trkpt lat="45.68117" lon="4.70325">
        <ele>347.65</ele>
        <time>2010-10-28T13:35:45Z</time>
      </trkpt>
      <trkpt lat="45.68146" lon="4.7032">
        <ele>348.13</ele>
        <time>2010-10-28T13:35:54Z</time>
      </trkpt>
      <trkpt lat="45.68173" lon="4.70318">
        <ele>347.17</ele>
        <time>2010-10-28T13:36:02Z</time>
      </trkpt>
      <trkpt lat="45.68197" lon="4.70318">
        <ele>348.62</ele>
        <time>2010-10-28T13:36:10Z</time>
      </trkpt>
      <trkpt lat="45.68219" lon="4.70316">
        <ele>349.1</ele>
        <time>2010-10-28T13:36:18Z</time>
      </trkpt>
      <trkpt lat="45.68229" lon="4.70319">
        <ele>349.58</ele>
        <time>2010-10-28T13:36:22Z</time>
      </trkpt>
      <trkpt lat="45.68234" lon="4.70327">
        <ele>349.58</ele>
        <time>2010-10-28T13:36:25Z</time>
      </trkpt>
      <trkpt lat="45.68234" lon="4.7033">
        <ele>349.58</ele>
        <time>2010-10-28T13:36:26Z</time>
      </trkpt>
      <trkpt lat="45.68233" lon="4.70346">
        <ele>349.1</ele>
        <time>2010-10-28T13:36:37Z</time>
      </trkpt>
      <trkpt lat="45.68234" lon="4.70348">
        <ele>349.1</ele>
        <time>2010-10-28T13:36:42Z</time>
      </trkpt>
      <trkpt lat="45.68235" lon="4.70349">
        <ele>349.1</ele>
        <time>2010-10-28T13:36:43Z</time>
      </trkpt>
      <trkpt lat="45.68236" lon="4.70351">
        <ele>349.1</ele>
        <time>2010-10-28T13:36:44Z</time>
      </trkpt>
      <trkpt lat="45.68237" lon="4.70352">
        <ele>349.58</ele>
        <time>2010-10-28T13:36:45Z</time>
      </trkpt>
      <trkpt lat="45.68239" lon="4.70354">
        <ele>349.1</ele>
        <time>2010-10-28T13:36:46Z</time>
      </trkpt>
      <trkpt lat="45.68249" lon="4.70365">
        <ele>349.1</ele>
        <time>2010-10-28T13:36:54Z</time>
      </trkpt>
      <trkpt lat="45.68251" lon="4.70368">
        <ele>349.58</ele>
        <time>2010-10-28T13:36:55Z</time>
      </trkpt>
      <trkpt lat="45.68268" lon="4.70385">
        <ele>349.58</ele>
        <time>2010-10-28T13:37:03Z</time>
      </trkpt>
      <trkpt lat="45.68287" lon="4.70404">
        <ele>350.06</ele>
        <time>2010-10-28T13:37:12Z</time>
      </trkpt>
      <trkpt lat="45.68307" lon="4.70429">
        <ele>351.02</ele>
        <time>2010-10-28T13:37:21Z</time>
      </trkpt>
      <trkpt lat="45.68313" lon="4.7044">
        <ele>352.46</ele>
        <time>2010-10-28T13:37:25Z</time>
      </trkpt>
      <trkpt lat="45.68326" lon="4.7046">
        <ele>353.9</ele>
        <time>2010-10-28T13:37:32Z</time>
      </trkpt>
      <trkpt lat="45.68343" lon="4.7049">
        <ele>352.46</ele>
        <time>2010-10-28T13:37:41Z</time>
      </trkpt>
      <trkpt lat="45.68354" lon="4.70513">
        <ele>352.94</ele>
        <time>2010-10-28T13:37:49Z</time>
      </trkpt>
      <trkpt lat="45.68357" lon="4.70515">
        <ele>352.94</ele>
        <time>2010-10-28T13:37:50Z</time>
      </trkpt>
      <trkpt lat="45.68359" lon="4.70517">
        <ele>352.94</ele>
        <time>2010-10-28T13:37:51Z</time>
      </trkpt>
      <trkpt lat="45.68361" lon="4.70519">
        <ele>353.42</ele>
        <time>2010-10-28T13:37:52Z</time>
      </trkpt>
      <trkpt lat="45.68364" lon="4.70522">
        <ele>352.46</ele>
        <time>2010-10-28T13:37:53Z</time>
      </trkpt>
      <trkpt lat="45.68381" lon="4.70542">
        <ele>352.46</ele>
        <time>2010-10-28T13:38:00Z</time>
      </trkpt>
      <trkpt lat="45.68404" lon="4.70572">
        <ele>351.02</ele>
        <time>2010-10-28T13:38:10Z</time>
      </trkpt>
      <trkpt lat="45.68423" lon="4.70598">
        <ele>350.54</ele>
        <time>2010-10-28T13:38:18Z</time>
      </trkpt>
      <trkpt lat="45.68429" lon="4.70609">
        <ele>351.02</ele>
        <time>2010-10-28T13:38:23Z</time>
      </trkpt>
      <trkpt lat="45.6843" lon="4.7061">
        <ele>351.02</ele>
        <time>2010-10-28T13:38:24Z</time>
      </trkpt>
      <trkpt lat="45.68435" lon="4.7062">
        <ele>350.54</ele>
        <time>2010-10-28T13:38:39Z</time>
      </trkpt>
      <trkpt lat="45.6845" lon="4.70639">
        <ele>350.06</ele>
        <time>2010-10-28T13:38:55Z</time>
      </trkpt>
      <trkpt lat="45.68457" lon="4.70644">
        <ele>349.1</ele>
        <time>2010-10-28T13:39:03Z</time>
      </trkpt>
      <trkpt lat="45.68464" lon="4.70653">
        <ele>349.1</ele>
        <time>2010-10-28T13:39:14Z</time>
      </trkpt>
      <trkpt lat="45.68466" lon="4.70658">
        <ele>349.58</ele>
        <time>2010-10-28T13:39:29Z</time>
      </trkpt>
      <trkpt lat="45.68467" lon="4.70661">
        <ele>348.62</ele>
        <time>2010-10-28T13:39:45Z</time>
      </trkpt>
      <trkpt lat="45.68468" lon="4.70662">
        <ele>348.62</ele>
        <time>2010-10-28T13:39:53Z</time>
      </trkpt>
      <trkpt lat="45.68468" lon="4.70664">
        <ele>349.1</ele>
        <time>2010-10-28T13:39:54Z</time>
      </trkpt>
      <trkpt lat="45.68469" lon="4.70665">
        <ele>348.62</ele>
        <time>2010-10-28T13:39:55Z</time>
      </trkpt>
      <trkpt lat="45.68469" lon="4.70669">
        <ele>348.62</ele>
        <time>2010-10-28T13:40:14Z</time>
      </trkpt>
      <trkpt lat="45.68474" lon="4.70677">
        <ele>347.65</ele>
        <time>2010-10-28T13:40:30Z</time>
      </trkpt>
      <trkpt lat="45.68476" lon="4.70679">
        <ele>347.65</ele>
        <time>2010-10-28T13:40:32Z</time>
      </trkpt>
      <trkpt lat="45.68477" lon="4.70681">
        <ele>347.17</ele>
        <time>2010-10-28T13:40:33Z</time>
      </trkpt>
      <trkpt lat="45.68478" lon="4.70682">
        <ele>347.17</ele>
        <time>2010-10-28T13:40:34Z</time>
      </trkpt>
      <trkpt lat="45.68492" lon="4.70701">
        <ele>345.25</ele>
        <time>2010-10-28T13:40:45Z</time>
      </trkpt>
      <trkpt lat="45.68515" lon="4.70732">
        <ele>342.37</ele>
        <time>2010-10-28T13:40:54Z</time>
      </trkpt>
      <trkpt lat="45.68527" lon="4.70746">
        <ele>341.89</ele>
        <time>2010-10-28T13:40:58Z</time>
      </trkpt>
      <trkpt lat="45.6853" lon="4.7075">
        <ele>341.89</ele>
        <time>2010-10-28T13:40:59Z</time>
      </trkpt>
      <trkpt lat="45.68533" lon="4.70754">
        <ele>339.96</ele>
        <time>2010-10-28T13:41:00Z</time>
      </trkpt>
      <trkpt lat="45.68536" lon="4.70758">
        <ele>341.41</ele>
        <time>2010-10-28T13:41:01Z</time>
      </trkpt>
      <trkpt lat="45.68538" lon="4.70761">
        <ele>340.44</ele>
        <time>2010-10-28T13:41:02Z</time>
      </trkpt>
      <trkpt lat="45.68542" lon="4.70767">
        <ele>339.96</ele>
        <time>2010-10-28T13:41:04Z</time>
      </trkpt>
      <trkpt lat="45.68555" lon="4.70787">
        <ele>338.52</ele>
        <time>2010-10-28T13:41:11Z</time>
      </trkpt>
      <trkpt lat="45.68572" lon="4.70809">
        <ele>336.6</ele>
        <time>2010-10-28T13:41:19Z</time>
      </trkpt>
      <trkpt lat="45.6859" lon="4.70831">
        <ele>335.64</ele>
        <time>2010-10-28T13:41:27Z</time>
      </trkpt>
      <trkpt lat="45.6861" lon="4.70847">
        <ele>334.68</ele>
        <time>2010-10-28T13:41:35Z</time>
      </trkpt>
      <trkpt lat="45.68615" lon="4.70851">
        <ele>333.23</ele>
        <time>2010-10-28T13:41:37Z</time>
      </trkpt>
      <trkpt lat="45.68617" lon="4.70854">
        <ele>334.2</ele>
        <time>2010-10-28T13:41:38Z</time>
      </trkpt>
      <trkpt lat="45.68619" lon="4.70857">
        <ele>335.16</ele>
        <time>2010-10-28T13:41:39Z</time>
      </trkpt>
      <trkpt lat="45.68621" lon="4.70859">
        <ele>333.71</ele>
        <time>2010-10-28T13:41:40Z</time>
      </trkpt>
      <trkpt lat="45.68623" lon="4.70862">
        <ele>333.71</ele>
        <time>2010-10-28T13:41:41Z</time>
      </trkpt>
      <trkpt lat="45.68626" lon="4.70864">
        <ele>334.2</ele>
        <time>2010-10-28T13:41:42Z</time>
      </trkpt>
      <trkpt lat="45.68628" lon="4.70867">
        <ele>333.23</ele>
        <time>2010-10-28T13:41:43Z</time>
      </trkpt>
      <trkpt lat="45.68631" lon="4.7087">
        <ele>333.71</ele>
        <time>2010-10-28T13:41:44Z</time>
      </trkpt>
      <trkpt lat="45.68633" lon="4.70873">
        <ele>333.71</ele>
        <time>2010-10-28T13:41:45Z</time>
      </trkpt>
      <trkpt lat="45.68652" lon="4.70892">
        <ele>332.75</ele>
        <time>2010-10-28T13:41:53Z</time>
      </trkpt>
      <trkpt lat="45.68655" lon="4.70894">
        <ele>332.27</ele>
        <time>2010-10-28T13:41:54Z</time>
      </trkpt>
      <trkpt lat="45.68657" lon="4.70895">
        <ele>332.27</ele>
        <time>2010-10-28T13:41:55Z</time>
      </trkpt>
      <trkpt lat="45.6866" lon="4.70898">
        <ele>332.75</ele>
        <time>2010-10-28T13:41:56Z</time>
      </trkpt>
      <trkpt lat="45.68677" lon="4.70915">
        <ele>330.83</ele>
        <time>2010-10-28T13:42:03Z</time>
      </trkpt>
      <trkpt lat="45.6868" lon="4.70918">
        <ele>331.31</ele>
        <time>2010-10-28T13:42:04Z</time>
      </trkpt>
      <trkpt lat="45.68682" lon="4.7092">
        <ele>331.79</ele>
        <time>2010-10-28T13:42:05Z</time>
      </trkpt>
      <trkpt lat="45.68685" lon="4.70921">
        <ele>332.27</ele>
        <time>2010-10-28T13:42:06Z</time>
      </trkpt>
      <trkpt lat="45.68687" lon="4.70923">
        <ele>331.31</ele>
        <time>2010-10-28T13:42:07Z</time>
      </trkpt>
      <trkpt lat="45.6869" lon="4.70925">
        <ele>331.79</ele>
        <time>2010-10-28T13:42:08Z</time>
      </trkpt>
      <trkpt lat="45.68692" lon="4.70927">
        <ele>331.79</ele>
        <time>2010-10-28T13:42:09Z</time>
      </trkpt>
      <trkpt lat="45.68707" lon="4.70943">
        <ele>331.79</ele>
        <time>2010-10-28T13:42:16Z</time>
      </trkpt>
      <trkpt lat="45.68709" lon="4.70946">
        <ele>331.31</ele>
        <time>2010-10-28T13:42:17Z</time>
      </trkpt>
      <trkpt lat="45.68712" lon="4.70949">
        <ele>331.79</ele>
        <time>2010-10-28T13:42:18Z</time>
      </trkpt>
      <trkpt lat="45.68714" lon="4.70952">
        <ele>331.31</ele>
        <time>2010-10-28T13:42:19Z</time>
      </trkpt>
      <trkpt lat="45.68716" lon="4.70956">
        <ele>331.79</ele>
        <time>2010-10-28T13:42:20Z</time>
      </trkpt>
      <trkpt lat="45.68716" lon="4.7096">
        <ele>330.83</ele>
        <time>2010-10-28T13:42:21Z</time>
      </trkpt>
      <trkpt lat="45.68716" lon="4.70963">
        <ele>331.31</ele>
        <time>2010-10-28T13:42:22Z</time>
      </trkpt>
      <trkpt lat="45.68715" lon="4.7097">
        <ele>330.83</ele>
        <time>2010-10-28T13:42:24Z</time>
      </trkpt>
      <trkpt lat="45.68715" lon="4.70974">
        <ele>329.87</ele>
        <time>2010-10-28T13:42:25Z</time>
      </trkpt>
      <trkpt lat="45.68714" lon="4.70977">
        <ele>329.87</ele>
        <time>2010-10-28T13:42:26Z</time>
      </trkpt>
      <trkpt lat="45.68714" lon="4.70981">
        <ele>329.87</ele>
        <time>2010-10-28T13:42:27Z</time>
      </trkpt>
      <trkpt lat="45.68713" lon="4.70986">
        <ele>329.39</ele>
        <time>2010-10-28T13:42:28Z</time>
      </trkpt>
      <trkpt lat="45.68713" lon="4.70989">
        <ele>329.39</ele>
        <time>2010-10-28T13:42:29Z</time>
      </trkpt>
      <trkpt lat="45.68712" lon="4.70992">
        <ele>329.39</ele>
        <time>2010-10-28T13:42:30Z</time>
      </trkpt>
      <trkpt lat="45.68711" lon="4.70997">
        <ele>329.87</ele>
        <time>2010-10-28T13:42:31Z</time>
      </trkpt>
      <trkpt lat="45.68711" lon="4.71001">
        <ele>328.91</ele>
        <time>2010-10-28T13:42:32Z</time>
      </trkpt>
      <trkpt lat="45.68711" lon="4.71005">
        <ele>329.87</ele>
        <time>2010-10-28T13:42:33Z</time>
      </trkpt>
      <trkpt lat="45.68713" lon="4.71017">
        <ele>328.43</ele>
        <time>2010-10-28T13:42:36Z</time>
      </trkpt>
      <trkpt lat="45.68714" lon="4.71021">
        <ele>328.91</ele>
        <time>2010-10-28T13:42:37Z</time>
      </trkpt>
      <trkpt lat="45.68715" lon="4.71025">
        <ele>327.95</ele>
        <time>2010-10-28T13:42:38Z</time>
      </trkpt>
      <trkpt lat="45.68716" lon="4.71029">
        <ele>328.43</ele>
        <time>2010-10-28T13:42:39Z</time>
      </trkpt>
      <trkpt lat="45.68722" lon="4.7105">
        <ele>326.99</ele>
        <time>2010-10-28T13:42:44Z</time>
      </trkpt>
      <trkpt lat="45.68723" lon="4.71054">
        <ele>326.5</ele>
        <time>2010-10-28T13:42:45Z</time>
      </trkpt>
      <trkpt lat="45.68725" lon="4.71058">
        <ele>326.5</ele>
        <time>2010-10-28T13:42:46Z</time>
      </trkpt>
      <trkpt lat="45.68734" lon="4.71084">
        <ele>325.06</ele>
        <time>2010-10-28T13:42:53Z</time>
      </trkpt>
      <trkpt lat="45.68735" lon="4.71087">
        <ele>325.06</ele>
        <time>2010-10-28T13:42:54Z</time>
      </trkpt>
      <trkpt lat="45.68736" lon="4.71091">
        <ele>325.06</ele>
        <time>2010-10-28T13:42:55Z</time>
      </trkpt>
      <trkpt lat="45.68738" lon="4.71095">
        <ele>324.58</ele>
        <time>2010-10-28T13:42:56Z</time>
      </trkpt>
      <trkpt lat="45.68739" lon="4.71098">
        <ele>325.06</ele>
        <time>2010-10-28T13:42:57Z</time>
      </trkpt>
      <trkpt lat="45.68741" lon="4.71102">
        <ele>324.1</ele>
        <time>2010-10-28T13:42:58Z</time>
      </trkpt>
      <trkpt lat="45.68742" lon="4.71107">
        <ele>324.1</ele>
        <time>2010-10-28T13:42:59Z</time>
      </trkpt>
      <trkpt lat="45.68742" lon="4.71111">
        <ele>324.1</ele>
        <time>2010-10-28T13:43:00Z</time>
      </trkpt>
      <trkpt lat="45.68742" lon="4.71115">
        <ele>323.62</ele>
        <time>2010-10-28T13:43:01Z</time>
      </trkpt>
      <trkpt lat="45.68743" lon="4.71119">
        <ele>323.62</ele>
        <time>2010-10-28T13:43:02Z</time>
      </trkpt>
      <trkpt lat="45.68749" lon="4.71147">
        <ele>321.22</ele>
        <time>2010-10-28T13:43:09Z</time>
      </trkpt>
      <trkpt lat="45.68759" lon="4.71183">
        <ele>320.74</ele>
        <time>2010-10-28T13:43:17Z</time>
      </trkpt>
      <trkpt lat="45.6877" lon="4.71222">
        <ele>319.78</ele>
        <time>2010-10-28T13:43:26Z</time>
      </trkpt>
      <trkpt lat="45.68775" lon="4.71246">
        <ele>319.78</ele>
        <time>2010-10-28T13:43:32Z</time>
      </trkpt>
      <trkpt lat="45.68776" lon="4.7125">
        <ele>319.3</ele>
        <time>2010-10-28T13:43:33Z</time>
      </trkpt>
      <trkpt lat="45.68778" lon="4.71262">
        <ele>318.81</ele>
        <time>2010-10-28T13:43:36Z</time>
      </trkpt>
      <trkpt lat="45.68777" lon="4.71266">
        <ele>318.81</ele>
        <time>2010-10-28T13:43:37Z</time>
      </trkpt>
      <trkpt lat="45.68778" lon="4.71269">
        <ele>318.81</ele>
        <time>2010-10-28T13:43:38Z</time>
      </trkpt>
      <trkpt lat="45.688" lon="4.71307">
        <ele>316.41</ele>
        <time>2010-10-28T13:43:48Z</time>
      </trkpt>
      <trkpt lat="45.68823" lon="4.7133">
        <ele>315.45</ele>
        <time>2010-10-28T13:43:56Z</time>
      </trkpt>
      <trkpt lat="45.68844" lon="4.71347">
        <ele>314.01</ele>
        <time>2010-10-28T13:44:04Z</time>
      </trkpt>
      <trkpt lat="45.68852" lon="4.71352">
        <ele>313.53</ele>
        <time>2010-10-28T13:44:07Z</time>
      </trkpt>
      <trkpt lat="45.68873" lon="4.71369">
        <ele>313.53</ele>
        <time>2010-10-28T13:44:15Z</time>
      </trkpt>
      <trkpt lat="45.68879" lon="4.71373">
        <ele>313.05</ele>
        <time>2010-10-28T13:44:17Z</time>
      </trkpt>
      <trkpt lat="45.68881" lon="4.71376">
        <ele>313.05</ele>
        <time>2010-10-28T13:44:18Z</time>
      </trkpt>
      <trkpt lat="45.68884" lon="4.71377">
        <ele>312.57</ele>
        <time>2010-10-28T13:44:19Z</time>
      </trkpt>
      <trkpt lat="45.68886" lon="4.71379">
        <ele>312.57</ele>
        <time>2010-10-28T13:44:20Z</time>
      </trkpt>
      <trkpt lat="45.68889" lon="4.71381">
        <ele>312.09</ele>
        <time>2010-10-28T13:44:21Z</time>
      </trkpt>
      <trkpt lat="45.68891" lon="4.71383">
        <ele>312.57</ele>
        <time>2010-10-28T13:44:22Z</time>
      </trkpt>
      <trkpt lat="45.68894" lon="4.71386">
        <ele>313.05</ele>
        <time>2010-10-28T13:44:23Z</time>
      </trkpt>
      <trkpt lat="45.68896" lon="4.71389">
        <ele>311.12</ele>
        <time>2010-10-28T13:44:24Z</time>
      </trkpt>
      <trkpt lat="45.6892" lon="4.71409">
        <ele>311.12</ele>
        <time>2010-10-28T13:44:33Z</time>
      </trkpt>
      <trkpt lat="45.68937" lon="4.71418">
        <ele>309.68</ele>
        <time>2010-10-28T13:44:39Z</time>
      </trkpt>
      <trkpt lat="45.6894" lon="4.7142">
        <ele>309.68</ele>
        <time>2010-10-28T13:44:40Z</time>
      </trkpt>
      <trkpt lat="45.68942" lon="4.71422">
        <ele>310.16</ele>
        <time>2010-10-28T13:44:41Z</time>
      </trkpt>
      <trkpt lat="45.68951" lon="4.71427">
        <ele>309.2</ele>
        <time>2010-10-28T13:44:44Z</time>
      </trkpt>
      <trkpt lat="45.68953" lon="4.7143">
        <ele>309.68</ele>
        <time>2010-10-28T13:44:45Z</time>
      </trkpt>
      <trkpt lat="45.68963" lon="4.71439">
        <ele>309.68</ele>
        <time>2010-10-28T13:44:49Z</time>
      </trkpt>
      <trkpt lat="45.68965" lon="4.71441">
        <ele>310.16</ele>
        <time>2010-10-28T13:44:50Z</time>
      </trkpt>
      <trkpt lat="45.68968" lon="4.71443">
        <ele>309.2</ele>
        <time>2010-10-28T13:44:51Z</time>
      </trkpt>
      <trkpt lat="45.6897" lon="4.71446">
        <ele>309.68</ele>
        <time>2010-10-28T13:44:52Z</time>
      </trkpt>
      <trkpt lat="45.68973" lon="4.71448">
        <ele>309.2</ele>
        <time>2010-10-28T13:44:53Z</time>
      </trkpt>
      <trkpt lat="45.68976" lon="4.7145">
        <ele>309.68</ele>
        <time>2010-10-28T13:44:54Z</time>
      </trkpt>
      <trkpt lat="45.68978" lon="4.71452">
        <ele>308.72</ele>
        <time>2010-10-28T13:44:55Z</time>
      </trkpt>
      <trkpt lat="45.6898" lon="4.71454">
        <ele>309.2</ele>
        <time>2010-10-28T13:44:56Z</time>
      </trkpt>
      <trkpt lat="45.68983" lon="4.71456">
        <ele>309.2</ele>
        <time>2010-10-28T13:44:57Z</time>
      </trkpt>
      <trkpt lat="45.68986" lon="4.71458">
        <ele>309.2</ele>
        <time>2010-10-28T13:44:58Z</time>
      </trkpt>
      <trkpt lat="45.68989" lon="4.7146">
        <ele>308.72</ele>
        <time>2010-10-28T13:44:59Z</time>
      </trkpt>
      <trkpt lat="45.68992" lon="4.71462">
        <ele>309.2</ele>
        <time>2010-10-28T13:45:00Z</time>
      </trkpt>
      <trkpt lat="45.68994" lon="4.71464">
        <ele>309.2</ele>
        <time>2010-10-28T13:45:01Z</time>
      </trkpt>
      <trkpt lat="45.68995" lon="4.71466">
        <ele>308.24</ele>
        <time>2010-10-28T13:45:02Z</time>
      </trkpt>
      <trkpt lat="45.68997" lon="4.71468">
        <ele>308.24</ele>
        <time>2010-10-28T13:45:03Z</time>
      </trkpt>
      <trkpt lat="45.68999" lon="4.7147">
        <ele>308.72</ele>
        <time>2010-10-28T13:45:04Z</time>
      </trkpt>
      <trkpt lat="45.69002" lon="4.71472">
        <ele>309.68</ele>
        <time>2010-10-28T13:45:05Z</time>
      </trkpt>
      <trkpt lat="45.69027" lon="4.71489">
        <ele>307.76</ele>
        <time>2010-10-28T13:45:14Z</time>
      </trkpt>
      <trkpt lat="45.69049" lon="4.71505">
        <ele>307.76</ele>
        <time>2010-10-28T13:45:22Z</time>
      </trkpt>
      <trkpt lat="45.69051" lon="4.71506">
        <ele>307.28</ele>
        <time>2010-10-28T13:45:23Z</time>
      </trkpt>
      <trkpt lat="45.69054" lon="4.71508">
        <ele>307.28</ele>
        <time>2010-10-28T13:45:24Z</time>
      </trkpt>
      <trkpt lat="45.69078" lon="4.71521">
        <ele>307.28</ele>
        <time>2010-10-28T13:45:32Z</time>
      </trkpt>
      <trkpt lat="45.69101" lon="4.71534">
        <ele>306.32</ele>
        <time>2010-10-28T13:45:40Z</time>
      </trkpt>
      <trkpt lat="45.69123" lon="4.71543">
        <ele>305.36</ele>
        <time>2010-10-28T13:45:48Z</time>
      </trkpt>
      <trkpt lat="45.69146" lon="4.71548">
        <ele>305.84</ele>
        <time>2010-10-28T13:45:57Z</time>
      </trkpt>
      <trkpt lat="45.69148" lon="4.71549">
        <ele>306.8</ele>
        <time>2010-10-28T13:45:58Z</time>
      </trkpt>
      <trkpt lat="45.69149" lon="4.71549">
        <ele>307.28</ele>
        <time>2010-10-28T13:45:59Z</time>
      </trkpt>
      <trkpt lat="45.69152" lon="4.71549">
        <ele>306.32</ele>
        <time>2010-10-28T13:46:00Z</time>
      </trkpt>
      <trkpt lat="45.69154" lon="4.7155">
        <ele>305.84</ele>
        <time>2010-10-28T13:46:01Z</time>
      </trkpt>
      <trkpt lat="45.69158" lon="4.71551">
        <ele>306.8</ele>
        <time>2010-10-28T13:46:02Z</time>
      </trkpt>
      <trkpt lat="45.69162" lon="4.71552">
        <ele>305.84</ele>
        <time>2010-10-28T13:46:03Z</time>
      </trkpt>
      <trkpt lat="45.69165" lon="4.71553">
        <ele>306.32</ele>
        <time>2010-10-28T13:46:04Z</time>
      </trkpt>
      <trkpt lat="45.69168" lon="4.71554">
        <ele>306.8</ele>
        <time>2010-10-28T13:46:05Z</time>
      </trkpt>
      <trkpt lat="45.6917" lon="4.71555">
        <ele>306.8</ele>
        <time>2010-10-28T13:46:06Z</time>
      </trkpt>
      <trkpt lat="45.69174" lon="4.71557">
        <ele>306.32</ele>
        <time>2010-10-28T13:46:07Z</time>
      </trkpt>
      <trkpt lat="45.69176" lon="4.71558">
        <ele>305.84</ele>
        <time>2010-10-28T13:46:08Z</time>
      </trkpt>
      <trkpt lat="45.69179" lon="4.71559">
        <ele>306.8</ele>
        <time>2010-10-28T13:46:09Z</time>
      </trkpt>
      <trkpt lat="45.69183" lon="4.71561">
        <ele>307.28</ele>
        <time>2010-10-28T13:46:10Z</time>
      </trkpt>
      <trkpt lat="45.69186" lon="4.71563">
        <ele>305.84</ele>
        <time>2010-10-28T13:46:11Z</time>
      </trkpt>
      <trkpt lat="45.6919" lon="4.71565">
        <ele>306.32</ele>
        <time>2010-10-28T13:46:12Z</time>
      </trkpt>
      <trkpt lat="45.69205" lon="4.71577">
        <ele>306.32</ele>
        <time>2010-10-28T13:46:17Z</time>
      </trkpt>
      <trkpt lat="45.69208" lon="4.71579">
        <ele>306.32</ele>
        <time>2010-10-28T13:46:18Z</time>
      </trkpt>
      <trkpt lat="45.6921" lon="4.71582">
        <ele>306.32</ele>
        <time>2010-10-28T13:46:19Z</time>
      </trkpt>
      <trkpt lat="45.69227" lon="4.71608">
        <ele>305.84</ele>
        <time>2010-10-28T13:46:27Z</time>
      </trkpt>
      <trkpt lat="45.69239" lon="4.71632">
        <ele>305.36</ele>
        <time>2010-10-28T13:46:34Z</time>
      </trkpt>
      <trkpt lat="45.69239" lon="4.71635">
        <ele>304.88</ele>
        <time>2010-10-28T13:46:35Z</time>
      </trkpt>
      <trkpt lat="45.6924" lon="4.7164">
        <ele>305.36</ele>
        <time>2010-10-28T13:46:36Z</time>
      </trkpt>
      <trkpt lat="45.69242" lon="4.71644">
        <ele>305.36</ele>
        <time>2010-10-28T13:46:37Z</time>
      </trkpt>
      <trkpt lat="45.69243" lon="4.71647">
        <ele>305.36</ele>
        <time>2010-10-28T13:46:38Z</time>
      </trkpt>
      <trkpt lat="45.69245" lon="4.7165">
        <ele>305.36</ele>
        <time>2010-10-28T13:46:39Z</time>
      </trkpt>
      <trkpt lat="45.69247" lon="4.71654">
        <ele>306.32</ele>
        <time>2010-10-28T13:46:40Z</time>
      </trkpt>
      <trkpt lat="45.69249" lon="4.71657">
        <ele>305.84</ele>
        <time>2010-10-28T13:46:41Z</time>
      </trkpt>
      <trkpt lat="45.69251" lon="4.71661">
        <ele>305.36</ele>
        <time>2010-10-28T13:46:42Z</time>
      </trkpt>
      <trkpt lat="45.69254" lon="4.71664">
        <ele>305.84</ele>
        <time>2010-10-28T13:46:43Z</time>
      </trkpt>
      <trkpt lat="45.69271" lon="4.71691">
        <ele>305.84</ele>
        <time>2010-10-28T13:46:52Z</time>
      </trkpt>
      <trkpt lat="45.69278" lon="4.71702">
        <ele>304.88</ele>
        <time>2010-10-28T13:46:55Z</time>
      </trkpt>
      <trkpt lat="45.6928" lon="4.71705">
        <ele>305.36</ele>
        <time>2010-10-28T13:46:56Z</time>
      </trkpt>
      <trkpt lat="45.69282" lon="4.71708">
        <ele>304.88</ele>
        <time>2010-10-28T13:46:57Z</time>
      </trkpt>
      <trkpt lat="45.69283" lon="4.71711">
        <ele>304.88</ele>
        <time>2010-10-28T13:46:58Z</time>
      </trkpt>
      <trkpt lat="45.69285" lon="4.71714">
        <ele>305.36</ele>
        <time>2010-10-28T13:46:59Z</time>
      </trkpt>
      <trkpt lat="45.69287" lon="4.71716">
        <ele>304.39</ele>
        <time>2010-10-28T13:47:00Z</time>
      </trkpt>
      <trkpt lat="45.69304" lon="4.71746">
        <ele>302.95</ele>
        <time>2010-10-28T13:47:10Z</time>
      </trkpt>
      <trkpt lat="45.69312" lon="4.71757">
        <ele>302.47</ele>
        <time>2010-10-28T13:47:13Z</time>
      </trkpt>
      <trkpt lat="45.69332" lon="4.71787">
        <ele>300.07</ele>
        <time>2010-10-28T13:47:22Z</time>
      </trkpt>
      <trkpt lat="45.69358" lon="4.71823">
        <ele>297.67</ele>
        <time>2010-10-28T13:47:34Z</time>
      </trkpt>
      <trkpt lat="45.69373" lon="4.71847">
        <ele>297.18</ele>
        <time>2010-10-28T13:47:42Z</time>
      </trkpt>
      <trkpt lat="45.69392" lon="4.71874">
        <ele>295.74</ele>
        <time>2010-10-28T13:47:52Z</time>
      </trkpt>
      <trkpt lat="45.69412" lon="4.71902">
        <ele>295.26</ele>
        <time>2010-10-28T13:48:01Z</time>
      </trkpt>
      <trkpt lat="45.6943" lon="4.71933">
        <ele>295.26</ele>
        <time>2010-10-28T13:48:10Z</time>
      </trkpt>
      <trkpt lat="45.69443" lon="4.71965">
        <ele>294.3</ele>
        <time>2010-10-28T13:48:19Z</time>
      </trkpt>
      <trkpt lat="45.69443" lon="4.71969">
        <ele>294.78</ele>
        <time>2010-10-28T13:48:20Z</time>
      </trkpt>
      <trkpt lat="45.69443" lon="4.71973">
        <ele>294.3</ele>
        <time>2010-10-28T13:48:21Z</time>
      </trkpt>
      <trkpt lat="45.69444" lon="4.71976">
        <ele>294.78</ele>
        <time>2010-10-28T13:48:22Z</time>
      </trkpt>
      <trkpt lat="45.69443" lon="4.7198">
        <ele>294.78</ele>
        <time>2010-10-28T13:48:24Z</time>
      </trkpt>
      <trkpt lat="45.69443" lon="4.71983">
        <ele>294.78</ele>
        <time>2010-10-28T13:48:25Z</time>
      </trkpt>
      <trkpt lat="45.69442" lon="4.71986">
        <ele>295.74</ele>
        <time>2010-10-28T13:48:26Z</time>
      </trkpt>
      <trkpt lat="45.69442" lon="4.71988">
        <ele>294.78</ele>
        <time>2010-10-28T13:48:27Z</time>
      </trkpt>
      <trkpt lat="45.6944" lon="4.71994">
        <ele>294.3</ele>
        <time>2010-10-28T13:48:29Z</time>
      </trkpt>
      <trkpt lat="45.6944" lon="4.71998">
        <ele>295.26</ele>
        <time>2010-10-28T13:48:30Z</time>
      </trkpt>
      <trkpt lat="45.6944" lon="4.72002">
        <ele>293.82</ele>
        <time>2010-10-28T13:48:31Z</time>
      </trkpt>
      <trkpt lat="45.6944" lon="4.72006">
        <ele>294.78</ele>
        <time>2010-10-28T13:48:32Z</time>
      </trkpt>
      <trkpt lat="45.6944" lon="4.72008">
        <ele>294.78</ele>
        <time>2010-10-28T13:48:33Z</time>
      </trkpt>
      <trkpt lat="45.69439" lon="4.7201">
        <ele>294.78</ele>
        <time>2010-10-28T13:48:34Z</time>
      </trkpt>
      <trkpt lat="45.69439" lon="4.72013">
        <ele>294.78</ele>
        <time>2010-10-28T13:48:35Z</time>
      </trkpt>
      <trkpt lat="45.69439" lon="4.72015">
        <ele>294.78</ele>
        <time>2010-10-28T13:48:36Z</time>
      </trkpt>
      <trkpt lat="45.69438" lon="4.72018">
        <ele>294.3</ele>
        <time>2010-10-28T13:48:37Z</time>
      </trkpt>
      <trkpt lat="45.69438" lon="4.72035">
        <ele>294.78</ele>
        <time>2010-10-28T13:48:45Z</time>
      </trkpt>
      <trkpt lat="45.69438" lon="4.72038">
        <ele>293.82</ele>
        <time>2010-10-28T13:48:46Z</time>
      </trkpt>
      <trkpt lat="45.69437" lon="4.72057">
        <ele>292.38</ele>
        <time>2010-10-28T13:48:52Z</time>
      </trkpt>
      <trkpt lat="45.69437" lon="4.72067">
        <ele>290.46</ele>
        <time>2010-10-28T13:48:56Z</time>
      </trkpt>
      <trkpt lat="45.69435" lon="4.7208">
        <ele>289.49</ele>
        <time>2010-10-28T13:49:00Z</time>
      </trkpt>
      <trkpt lat="45.69435" lon="4.7209">
        <ele>287.57</ele>
        <time>2010-10-28T13:49:03Z</time>
      </trkpt>
      <trkpt lat="45.69438" lon="4.72113">
        <ele>284.69</ele>
        <time>2010-10-28T13:49:08Z</time>
      </trkpt>
      <trkpt lat="45.69438" lon="4.72146">
        <ele>280.36</ele>
        <time>2010-10-28T13:49:17Z</time>
      </trkpt>
      <trkpt lat="45.69439" lon="4.72153">
        <ele>280.36</ele>
        <time>2010-10-28T13:49:19Z</time>
      </trkpt>
      <trkpt lat="45.69439" lon="4.72171">
        <ele>277.96</ele>
        <time>2010-10-28T13:49:24Z</time>
      </trkpt>
      <trkpt lat="45.69442" lon="4.72182">
        <ele>277</ele>
        <time>2010-10-28T13:49:27Z</time>
      </trkpt>
      <trkpt lat="45.69444" lon="4.72192">
        <ele>275.56</ele>
        <time>2010-10-28T13:49:30Z</time>
      </trkpt>
      <trkpt lat="45.69446" lon="4.72215">
        <ele>272.19</ele>
        <time>2010-10-28T13:49:35Z</time>
      </trkpt>
      <trkpt lat="45.69447" lon="4.72241">
        <ele>271.71</ele>
        <time>2010-10-28T13:49:41Z</time>
      </trkpt>
      <trkpt lat="45.69448" lon="4.72275">
        <ele>267.86</ele>
        <time>2010-10-28T13:49:51Z</time>
      </trkpt>
      <trkpt lat="45.69448" lon="4.72291">
        <ele>265.94</ele>
        <time>2010-10-28T13:49:55Z</time>
      </trkpt>
      <trkpt lat="45.69448" lon="4.72294">
        <ele>265.94</ele>
        <time>2010-10-28T13:49:56Z</time>
      </trkpt>
      <trkpt lat="45.69446" lon="4.72305">
        <ele>264.5</ele>
        <time>2010-10-28T13:49:59Z</time>
      </trkpt>
      <trkpt lat="45.69444" lon="4.72315">
        <ele>263.06</ele>
        <time>2010-10-28T13:50:02Z</time>
      </trkpt>
      <trkpt lat="45.69438" lon="4.7233">
        <ele>260.65</ele>
        <time>2010-10-28T13:50:07Z</time>
      </trkpt>
      <trkpt lat="45.69436" lon="4.72336">
        <ele>259.69</ele>
        <time>2010-10-28T13:50:09Z</time>
      </trkpt>
      <trkpt lat="45.69433" lon="4.72341">
        <ele>258.73</ele>
        <time>2010-10-28T13:50:11Z</time>
      </trkpt>
      <trkpt lat="45.69438" lon="4.72361">
        <ele>255.37</ele>
        <time>2010-10-28T13:50:23Z</time>
      </trkpt>
      <trkpt lat="45.69438" lon="4.72361">
        <ele>255.85</ele>
        <time>2010-10-28T13:50:27Z</time>
      </trkpt>
      <trkpt lat="45.69446" lon="4.72375">
        <ele>254.41</ele>
        <time>2010-10-28T13:50:36Z</time>
      </trkpt>
      <trkpt lat="45.69458" lon="4.72388">
        <ele>252</ele>
        <time>2010-10-28T13:50:44Z</time>
      </trkpt>
      <trkpt lat="45.69471" lon="4.72407">
        <ele>248.16</ele>
        <time>2010-10-28T13:50:53Z</time>
      </trkpt>
      <trkpt lat="45.69475" lon="4.72415">
        <ele>247.2</ele>
        <time>2010-10-28T13:50:57Z</time>
      </trkpt>
      <trkpt lat="45.69461" lon="4.72421">
        <ele>244.79</ele>
        <time>2010-10-28T13:51:05Z</time>
      </trkpt>
      <trkpt lat="45.69455" lon="4.72419">
        <ele>243.83</ele>
        <time>2010-10-28T13:51:08Z</time>
      </trkpt>
      <trkpt lat="45.69451" lon="4.72416">
        <ele>242.39</ele>
        <time>2010-10-28T13:51:11Z</time>
      </trkpt>
      <trkpt lat="45.69436" lon="4.72406">
        <ele>240.47</ele>
        <time>2010-10-28T13:51:20Z</time>
      </trkpt>
      <trkpt lat="45.69423" lon="4.72396">
        <ele>240.95</ele>
        <time>2010-10-28T13:51:24Z</time>
      </trkpt>
      <trkpt lat="45.69412" lon="4.72389">
        <ele>240.47</ele>
        <time>2010-10-28T13:51:29Z</time>
      </trkpt>
      <trkpt lat="45.69406" lon="4.7239">
        <ele>239.99</ele>
        <time>2010-10-28T13:51:40Z</time>
      </trkpt>
      <trkpt lat="45.69406" lon="4.72413">
        <ele>238.54</ele>
        <time>2010-10-28T13:51:50Z</time>
      </trkpt>
      <trkpt lat="45.69409" lon="4.72419">
        <ele>238.06</ele>
        <time>2010-10-28T13:51:53Z</time>
      </trkpt>
      <trkpt lat="45.69415" lon="4.72447">
        <ele>236.62</ele>
        <time>2010-10-28T13:52:03Z</time>
      </trkpt>
      <trkpt lat="45.69421" lon="4.72476">
        <ele>237.1</ele>
        <time>2010-10-28T13:52:11Z</time>
      </trkpt>
      <trkpt lat="45.69422" lon="4.72509">
        <ele>235.66</ele>
        <time>2010-10-28T13:52:18Z</time>
      </trkpt>
      <trkpt lat="45.69423" lon="4.72524">
        <ele>236.14</ele>
        <time>2010-10-28T13:52:23Z</time>
      </trkpt>
      <trkpt lat="45.69414" lon="4.72559">
        <ele>234.7</ele>
        <time>2010-10-28T13:52:33Z</time>
      </trkpt>
      <trkpt lat="45.69411" lon="4.72577">
        <ele>233.74</ele>
        <time>2010-10-28T13:52:37Z</time>
      </trkpt>
      <trkpt lat="45.69407" lon="4.72595">
        <ele>234.22</ele>
        <time>2010-10-28T13:52:42Z</time>
      </trkpt>
      <trkpt lat="45.69406" lon="4.726">
        <ele>234.7</ele>
        <time>2010-10-28T13:52:44Z</time>
      </trkpt>
      <trkpt lat="45.69406" lon="4.72608">
        <ele>236.62</ele>
        <time>2010-10-28T13:52:47Z</time>
      </trkpt>
      <trkpt lat="45.69413" lon="4.72621">
        <ele>234.22</ele>
        <time>2010-10-28T13:52:57Z</time>
      </trkpt>
      <trkpt lat="45.69413" lon="4.72622">
        <ele>234.22</ele>
        <time>2010-10-28T13:53:02Z</time>
      </trkpt>
      <trkpt lat="45.69419" lon="4.72616">
        <ele>233.74</ele>
        <time>2010-10-28T13:53:08Z</time>
      </trkpt>
      <trkpt lat="45.69424" lon="4.72611">
        <ele>233.74</ele>
        <time>2010-10-28T13:53:13Z</time>
      </trkpt>
      <trkpt lat="45.69429" lon="4.72614">
        <ele>236.14</ele>
        <time>2010-10-28T13:53:16Z</time>
      </trkpt>
      <trkpt lat="45.69431" lon="4.72617">
        <ele>236.14</ele>
        <time>2010-10-28T13:53:18Z</time>
      </trkpt>
      <trkpt lat="45.69433" lon="4.72623">
        <ele>238.06</ele>
        <time>2010-10-28T13:53:21Z</time>
      </trkpt>
      <trkpt lat="45.69434" lon="4.72642">
        <ele>239.99</ele>
        <time>2010-10-28T13:53:30Z</time>
      </trkpt>
      <trkpt lat="45.69427" lon="4.7266">
        <ele>241.43</ele>
        <time>2010-10-28T13:53:37Z</time>
      </trkpt>
      <trkpt lat="45.69423" lon="4.72678">
        <ele>243.83</ele>
        <time>2010-10-28T13:53:43Z</time>
      </trkpt>
      <trkpt lat="45.69423" lon="4.72682">
        <ele>244.79</ele>
        <time>2010-10-28T13:53:45Z</time>
      </trkpt>
      <trkpt lat="45.6942" lon="4.72701">
        <ele>247.2</ele>
        <time>2010-10-28T13:53:52Z</time>
      </trkpt>
      <trkpt lat="45.69415" lon="4.72715">
        <ele>250.56</ele>
        <time>2010-10-28T13:53:58Z</time>
      </trkpt>
      <trkpt lat="45.69412" lon="4.72728">
        <ele>252</ele>
        <time>2010-10-28T13:54:03Z</time>
      </trkpt>
      <trkpt lat="45.69412" lon="4.72731">
        <ele>252.48</ele>
        <time>2010-10-28T13:54:09Z</time>
      </trkpt>
      <trkpt lat="45.69412" lon="4.72735">
        <ele>252.96</ele>
        <time>2010-10-28T13:54:11Z</time>
      </trkpt>
      <trkpt lat="45.6941" lon="4.72758">
        <ele>254.41</ele>
        <time>2010-10-28T13:54:21Z</time>
      </trkpt>
      <trkpt lat="45.69409" lon="4.72766">
        <ele>255.37</ele>
        <time>2010-10-28T13:54:24Z</time>
      </trkpt>
      <trkpt lat="45.69408" lon="4.72786">
        <ele>257.77</ele>
        <time>2010-10-28T13:54:33Z</time>
      </trkpt>
      <trkpt lat="45.69407" lon="4.72791">
        <ele>259.69</ele>
        <time>2010-10-28T13:54:39Z</time>
      </trkpt>
      <trkpt lat="45.69407" lon="4.72794">
        <ele>259.69</ele>
        <time>2010-10-28T13:54:40Z</time>
      </trkpt>
      <trkpt lat="45.69406" lon="4.7281">
        <ele>262.1</ele>
        <time>2010-10-28T13:54:46Z</time>
      </trkpt>
      <trkpt lat="45.69405" lon="4.72828">
        <ele>263.54</ele>
        <time>2010-10-28T13:54:53Z</time>
      </trkpt>
      <trkpt lat="45.69395" lon="4.7284">
        <ele>267.38</ele>
        <time>2010-10-28T13:55:03Z</time>
      </trkpt>
      <trkpt lat="45.69378" lon="4.72844">
        <ele>269.31</ele>
        <time>2010-10-28T13:55:14Z</time>
      </trkpt>
      <trkpt lat="45.69377" lon="4.72844">
        <ele>269.79</ele>
        <time>2010-10-28T13:55:15Z</time>
      </trkpt>
      <trkpt lat="45.69375" lon="4.72846">
        <ele>270.27</ele>
        <time>2010-10-28T13:55:17Z</time>
      </trkpt>
      <trkpt lat="45.69366" lon="4.72853">
        <ele>272.19</ele>
        <time>2010-10-28T13:55:24Z</time>
      </trkpt>
      <trkpt lat="45.69362" lon="4.72856">
        <ele>273.63</ele>
        <time>2010-10-28T13:55:30Z</time>
      </trkpt>
      <trkpt lat="45.69349" lon="4.72863">
        <ele>276.04</ele>
        <time>2010-10-28T13:55:40Z</time>
      </trkpt>
      <trkpt lat="45.69334" lon="4.72869">
        <ele>279.4</ele>
        <time>2010-10-28T13:55:49Z</time>
      </trkpt>
      <trkpt lat="45.69332" lon="4.72872">
        <ele>279.4</ele>
        <time>2010-10-28T13:55:51Z</time>
      </trkpt>
      <trkpt lat="45.69324" lon="4.72881">
        <ele>280.84</ele>
        <time>2010-10-28T13:55:56Z</time>
      </trkpt>
      <trkpt lat="45.69319" lon="4.72894">
        <ele>282.77</ele>
        <time>2010-10-28T13:56:03Z</time>
      </trkpt>
      <trkpt lat="45.69322" lon="4.72903">
        <ele>282.77</ele>
        <time>2010-10-28T13:56:08Z</time>
      </trkpt>
      <trkpt lat="45.69324" lon="4.72915">
        <ele>284.21</ele>
        <time>2010-10-28T13:56:16Z</time>
      </trkpt>
      <trkpt lat="45.69328" lon="4.72918">
        <ele>284.21</ele>
        <time>2010-10-28T13:56:28Z</time>
      </trkpt>
      <trkpt lat="45.69333" lon="4.72919">
        <ele>284.21</ele>
        <time>2010-10-28T13:56:41Z</time>
      </trkpt>
      <trkpt lat="45.69333" lon="4.72919">
        <ele>284.21</ele>
        <time>2010-10-28T13:56:48Z</time>
      </trkpt>
      <trkpt lat="45.69329" lon="4.72917">
        <ele>284.21</ele>
        <time>2010-10-28T13:56:54Z</time>
      </trkpt>
      <trkpt lat="45.69328" lon="4.72918">
        <ele>284.21</ele>
        <time>2010-10-28T13:57:06Z</time>
      </trkpt>
      <trkpt lat="45.69328" lon="4.72918">
        <ele>283.73</ele>
        <time>2010-10-28T13:57:12Z</time>
      </trkpt>
      <trkpt lat="45.69332" lon="4.72914">
        <ele>283.73</ele>
        <time>2010-10-28T13:57:23Z</time>
      </trkpt>
      <trkpt lat="45.69331" lon="4.72915">
        <ele>284.21</ele>
        <time>2010-10-28T13:57:30Z</time>
      </trkpt>
      <trkpt lat="45.69332" lon="4.72918">
        <ele>284.21</ele>
        <time>2010-10-28T13:57:39Z</time>
      </trkpt>
      <trkpt lat="45.69332" lon="4.72918">
        <ele>284.69</ele>
        <time>2010-10-28T13:57:45Z</time>
      </trkpt>
      <trkpt lat="45.69336" lon="4.7292">
        <ele>285.17</ele>
        <time>2010-10-28T13:57:49Z</time>
      </trkpt>
      <trkpt lat="45.69349" lon="4.72923">
        <ele>285.17</ele>
        <time>2010-10-28T13:58:00Z</time>
      </trkpt>
      <trkpt lat="45.69363" lon="4.72926">
        <ele>287.09</ele>
        <time>2010-10-28T13:58:11Z</time>
      </trkpt>
      <trkpt lat="45.69377" lon="4.72931">
        <ele>287.09</ele>
        <time>2010-10-28T13:58:20Z</time>
      </trkpt>
      <trkpt lat="45.69404" lon="4.72936">
        <ele>289.97</ele>
        <time>2010-10-28T13:58:33Z</time>
      </trkpt>
      <trkpt lat="45.69411" lon="4.72938">
        <ele>290.46</ele>
        <time>2010-10-28T13:58:37Z</time>
      </trkpt>
      <trkpt lat="45.69425" lon="4.72943">
        <ele>291.9</ele>
        <time>2010-10-28T13:58:48Z</time>
      </trkpt>
      <trkpt lat="45.69428" lon="4.72943">
        <ele>292.38</ele>
        <time>2010-10-28T13:58:50Z</time>
      </trkpt>
      <trkpt lat="45.69433" lon="4.72944">
        <ele>292.86</ele>
        <time>2010-10-28T13:58:54Z</time>
      </trkpt>
      <trkpt lat="45.69446" lon="4.72948">
        <ele>293.34</ele>
        <time>2010-10-28T13:59:02Z</time>
      </trkpt>
      <trkpt lat="45.69458" lon="4.72946">
        <ele>294.78</ele>
        <time>2010-10-28T13:59:12Z</time>
      </trkpt>
      <trkpt lat="45.69459" lon="4.72947">
        <ele>293.82</ele>
        <time>2010-10-28T13:59:28Z</time>
      </trkpt>
      <trkpt lat="45.69459" lon="4.72946">
        <ele>294.3</ele>
        <time>2010-10-28T13:59:52Z</time>
      </trkpt>
      <trkpt lat="45.6946" lon="4.72945">
        <ele>294.3</ele>
        <time>2010-10-28T14:00:08Z</time>
      </trkpt>
      <trkpt lat="45.6946" lon="4.72945">
        <ele>294.3</ele>
        <time>2010-10-28T14:00:23Z</time>
      </trkpt>
      <trkpt lat="45.69459" lon="4.72945">
        <ele>294.78</ele>
        <time>2010-10-28T14:00:41Z</time>
      </trkpt>
      <trkpt lat="45.69459" lon="4.72945">
        <ele>292.38</ele>
        <time>2010-10-28T14:00:45Z</time>
      </trkpt>
      <trkpt lat="45.69458" lon="4.72952">
        <ele>294.78</ele>
        <time>2010-10-28T14:00:53Z</time>
      </trkpt>
      <trkpt lat="45.69458" lon="4.72952">
        <ele>294.3</ele>
        <time>2010-10-28T14:01:22Z</time>
      </trkpt>
      <trkpt lat="45.69459" lon="4.72949">
        <ele>294.78</ele>
        <time>2010-10-28T14:01:51Z</time>
      </trkpt>
      <trkpt lat="45.69461" lon="4.72952">
        <ele>294.78</ele>
        <time>2010-10-28T14:02:57Z</time>
      </trkpt>
      <trkpt lat="45.69461" lon="4.72952">
        <ele>295.26</ele>
        <time>2010-10-28T14:03:11Z</time>
      </trkpt>
      <trkpt lat="45.69462" lon="4.72954">
        <ele>294.78</ele>
        <time>2010-10-28T14:03:21Z</time>
      </trkpt>
      <trkpt lat="45.69466" lon="4.72959">
        <ele>295.26</ele>
        <time>2010-10-28T14:03:25Z</time>
      </trkpt>
      <trkpt lat="45.69473" lon="4.72965">
        <ele>296.22</ele>
        <time>2010-10-28T14:03:30Z</time>
      </trkpt>
      <trkpt lat="45.69485" lon="4.72972">
        <ele>295.26</ele>
        <time>2010-10-28T14:03:37Z</time>
      </trkpt>
      <trkpt lat="45.69506" lon="4.72985">
        <ele>296.7</ele>
        <time>2010-10-28T14:03:47Z</time>
      </trkpt>
      <trkpt lat="45.69526" lon="4.72995">
        <ele>298.15</ele>
        <time>2010-10-28T14:03:55Z</time>
      </trkpt>
      <trkpt lat="45.69537" lon="4.73004">
        <ele>298.15</ele>
        <time>2010-10-28T14:04:00Z</time>
      </trkpt>
      <trkpt lat="45.69555" lon="4.73017">
        <ele>298.15</ele>
        <time>2010-10-28T14:04:08Z</time>
      </trkpt>
      <trkpt lat="45.69562" lon="4.73022">
        <ele>298.63</ele>
        <time>2010-10-28T14:04:11Z</time>
      </trkpt>
      <trkpt lat="45.69583" lon="4.73036">
        <ele>299.59</ele>
        <time>2010-10-28T14:04:20Z</time>
      </trkpt>
      <trkpt lat="45.69602" lon="4.73047">
        <ele>299.59</ele>
        <time>2010-10-28T14:04:29Z</time>
      </trkpt>
      <trkpt lat="45.69605" lon="4.73049">
        <ele>300.55</ele>
        <time>2010-10-28T14:04:30Z</time>
      </trkpt>
      <trkpt lat="45.69624" lon="4.73061">
        <ele>300.07</ele>
        <time>2010-10-28T14:04:38Z</time>
      </trkpt>
      <trkpt lat="45.6963" lon="4.73065">
        <ele>300.55</ele>
        <time>2010-10-28T14:04:41Z</time>
      </trkpt>
      <trkpt lat="45.69649" lon="4.73076">
        <ele>300.07</ele>
        <time>2010-10-28T14:04:50Z</time>
      </trkpt>
      <trkpt lat="45.6967" lon="4.73086">
        <ele>301.03</ele>
        <time>2010-10-28T14:04:59Z</time>
      </trkpt>
      <trkpt lat="45.69675" lon="4.73088">
        <ele>301.99</ele>
        <time>2010-10-28T14:05:01Z</time>
      </trkpt>
      <trkpt lat="45.69703" lon="4.73099">
        <ele>301.03</ele>
        <time>2010-10-28T14:05:12Z</time>
      </trkpt>
      <trkpt lat="45.69708" lon="4.73101">
        <ele>301.51</ele>
        <time>2010-10-28T14:05:14Z</time>
      </trkpt>
      <trkpt lat="45.69726" lon="4.73107">
        <ele>301.99</ele>
        <time>2010-10-28T14:05:22Z</time>
      </trkpt>
      <trkpt lat="45.69752" lon="4.73115">
        <ele>302.95</ele>
        <time>2010-10-28T14:05:31Z</time>
      </trkpt>
      <trkpt lat="45.69772" lon="4.73116">
        <ele>304.39</ele>
        <time>2010-10-28T14:05:38Z</time>
      </trkpt>
      <trkpt lat="45.69795" lon="4.73117">
        <ele>305.36</ele>
        <time>2010-10-28T14:05:47Z</time>
      </trkpt>
      <trkpt lat="45.69798" lon="4.73117">
        <ele>305.36</ele>
        <time>2010-10-28T14:05:48Z</time>
      </trkpt>
      <trkpt lat="45.69815" lon="4.73124">
        <ele>306.32</ele>
        <time>2010-10-28T14:05:54Z</time>
      </trkpt>
      <trkpt lat="45.69842" lon="4.73142">
        <ele>306.8</ele>
        <time>2010-10-28T14:06:05Z</time>
      </trkpt>
      <trkpt lat="45.69865" lon="4.73158">
        <ele>307.76</ele>
        <time>2010-10-28T14:06:15Z</time>
      </trkpt>
      <trkpt lat="45.69885" lon="4.73168">
        <ele>308.72</ele>
        <time>2010-10-28T14:06:23Z</time>
      </trkpt>
      <trkpt lat="45.69906" lon="4.73175">
        <ele>309.2</ele>
        <time>2010-10-28T14:06:31Z</time>
      </trkpt>
      <trkpt lat="45.69932" lon="4.73184">
        <ele>309.68</ele>
        <time>2010-10-28T14:06:40Z</time>
      </trkpt>
      <trkpt lat="45.69949" lon="4.73193">
        <ele>310.16</ele>
        <time>2010-10-28T14:06:48Z</time>
      </trkpt>
      <trkpt lat="45.69973" lon="4.73207">
        <ele>310.16</ele>
        <time>2010-10-28T14:06:57Z</time>
      </trkpt>
      <trkpt lat="45.69993" lon="4.73223">
        <ele>310.16</ele>
        <time>2010-10-28T14:07:05Z</time>
      </trkpt>
      <trkpt lat="45.7" lon="4.73233">
        <ele>310.16</ele>
        <time>2010-10-28T14:07:09Z</time>
      </trkpt>
      <trkpt lat="45.70004" lon="4.73238">
        <ele>311.12</ele>
        <time>2010-10-28T14:07:12Z</time>
      </trkpt>
      <trkpt lat="45.70012" lon="4.73245">
        <ele>310.64</ele>
        <time>2010-10-28T14:07:16Z</time>
      </trkpt>
      <trkpt lat="45.70034" lon="4.73273">
        <ele>310.64</ele>
        <time>2010-10-28T14:07:27Z</time>
      </trkpt>
      <trkpt lat="45.70055" lon="4.73294">
        <ele>311.6</ele>
        <time>2010-10-28T14:07:36Z</time>
      </trkpt>
      <trkpt lat="45.70072" lon="4.73313">
        <ele>311.6</ele>
        <time>2010-10-28T14:07:44Z</time>
      </trkpt>
      <trkpt lat="45.7009" lon="4.7334">
        <ele>313.05</ele>
        <time>2010-10-28T14:07:54Z</time>
      </trkpt>
      <trkpt lat="45.70099" lon="4.73353">
        <ele>313.05</ele>
        <time>2010-10-28T14:07:59Z</time>
      </trkpt>
      <trkpt lat="45.70107" lon="4.73365">
        <ele>312.57</ele>
        <time>2010-10-28T14:08:03Z</time>
      </trkpt>
      <trkpt lat="45.70125" lon="4.7339">
        <ele>312.57</ele>
        <time>2010-10-28T14:08:12Z</time>
      </trkpt>
      <trkpt lat="45.70142" lon="4.73414">
        <ele>312.09</ele>
        <time>2010-10-28T14:08:20Z</time>
      </trkpt>
      <trkpt lat="45.70162" lon="4.73441">
        <ele>312.09</ele>
        <time>2010-10-28T14:08:30Z</time>
      </trkpt>
      <trkpt lat="45.70182" lon="4.7346">
        <ele>312.57</ele>
        <time>2010-10-28T14:08:41Z</time>
      </trkpt>
      <trkpt lat="45.70187" lon="4.73464">
        <ele>313.05</ele>
        <time>2010-10-28T14:08:43Z</time>
      </trkpt>
      <trkpt lat="45.70204" lon="4.73482">
        <ele>312.09</ele>
        <time>2010-10-28T14:08:50Z</time>
      </trkpt>
      <trkpt lat="45.70221" lon="4.735">
        <ele>313.05</ele>
        <time>2010-10-28T14:08:57Z</time>
      </trkpt>
      <trkpt lat="45.70231" lon="4.73516">
        <ele>313.05</ele>
        <time>2010-10-28T14:09:03Z</time>
      </trkpt>
      <trkpt lat="45.70257" lon="4.73546">
        <ele>313.05</ele>
        <time>2010-10-28T14:09:15Z</time>
      </trkpt>
      <trkpt lat="45.70278" lon="4.73558">
        <ele>314.01</ele>
        <time>2010-10-28T14:09:23Z</time>
      </trkpt>
      <trkpt lat="45.70304" lon="4.73579">
        <ele>314.49</ele>
        <time>2010-10-28T14:09:34Z</time>
      </trkpt>
      <trkpt lat="45.70324" lon="4.73602">
        <ele>314.01</ele>
        <time>2010-10-28T14:09:43Z</time>
      </trkpt>
      <trkpt lat="45.70343" lon="4.73631">
        <ele>314.01</ele>
        <time>2010-10-28T14:09:53Z</time>
      </trkpt>
      <trkpt lat="45.7036" lon="4.73654">
        <ele>315.45</ele>
        <time>2010-10-28T14:10:01Z</time>
      </trkpt>
      <trkpt lat="45.70379" lon="4.73685">
        <ele>314.97</ele>
        <time>2010-10-28T14:10:11Z</time>
      </trkpt>
      <trkpt lat="45.70384" lon="4.73691">
        <ele>315.93</ele>
        <time>2010-10-28T14:10:13Z</time>
      </trkpt>
      <trkpt lat="45.70403" lon="4.73711">
        <ele>316.41</ele>
        <time>2010-10-28T14:10:22Z</time>
      </trkpt>
      <trkpt lat="45.70427" lon="4.7373">
        <ele>318.81</ele>
        <time>2010-10-28T14:10:31Z</time>
      </trkpt>
      <trkpt lat="45.70454" lon="4.73755">
        <ele>317.85</ele>
        <time>2010-10-28T14:10:42Z</time>
      </trkpt>
      <trkpt lat="45.70464" lon="4.73761">
        <ele>317.37</ele>
        <time>2010-10-28T14:10:46Z</time>
      </trkpt>
      <trkpt lat="45.70482" lon="4.73768">
        <ele>319.3</ele>
        <time>2010-10-28T14:10:53Z</time>
      </trkpt>
      <trkpt lat="45.70485" lon="4.73768">
        <ele>319.3</ele>
        <time>2010-10-28T14:10:54Z</time>
      </trkpt>
      <trkpt lat="45.70502" lon="4.73778">
        <ele>319.3</ele>
        <time>2010-10-28T14:11:02Z</time>
      </trkpt>
      <trkpt lat="45.70506" lon="4.73785">
        <ele>319.3</ele>
        <time>2010-10-28T14:11:05Z</time>
      </trkpt>
      <trkpt lat="45.70509" lon="4.73796">
        <ele>318.81</ele>
        <time>2010-10-28T14:11:10Z</time>
      </trkpt>
      <trkpt lat="45.70514" lon="4.73807">
        <ele>317.85</ele>
        <time>2010-10-28T14:11:15Z</time>
      </trkpt>
      <trkpt lat="45.70516" lon="4.73814">
        <ele>319.3</ele>
        <time>2010-10-28T14:11:18Z</time>
      </trkpt>
      <trkpt lat="45.70523" lon="4.7383">
        <ele>318.81</ele>
        <time>2010-10-28T14:11:26Z</time>
      </trkpt>
      <trkpt lat="45.70531" lon="4.73849">
        <ele>318.33</ele>
        <time>2010-10-28T14:11:36Z</time>
      </trkpt>
      <trkpt lat="45.70541" lon="4.73869">
        <ele>318.33</ele>
        <time>2010-10-28T14:11:47Z</time>
      </trkpt>
      <trkpt lat="45.70544" lon="4.73874">
        <ele>317.85</ele>
        <time>2010-10-28T14:11:52Z</time>
      </trkpt>
      <trkpt lat="45.70547" lon="4.73894">
        <ele>316.89</ele>
        <time>2010-10-28T14:12:01Z</time>
      </trkpt>
      <trkpt lat="45.70551" lon="4.73922">
        <ele>316.41</ele>
        <time>2010-10-28T14:12:09Z</time>
      </trkpt>
      <trkpt lat="45.70553" lon="4.7394">
        <ele>317.37</ele>
        <time>2010-10-28T14:12:15Z</time>
      </trkpt>
      <trkpt lat="45.70552" lon="4.73956">
        <ele>315.93</ele>
        <time>2010-10-28T14:12:20Z</time>
      </trkpt>
      <trkpt lat="45.70555" lon="4.73984">
        <ele>314.97</ele>
        <time>2010-10-28T14:12:29Z</time>
      </trkpt>
      <trkpt lat="45.70556" lon="4.73988">
        <ele>315.45</ele>
        <time>2010-10-28T14:12:30Z</time>
      </trkpt>
      <trkpt lat="45.70557" lon="4.74014">
        <ele>314.97</ele>
        <time>2010-10-28T14:12:38Z</time>
      </trkpt>
      <trkpt lat="45.70559" lon="4.74042">
        <ele>314.01</ele>
        <time>2010-10-28T14:12:47Z</time>
      </trkpt>
      <trkpt lat="45.70561" lon="4.74053">
        <ele>314.01</ele>
        <time>2010-10-28T14:12:50Z</time>
      </trkpt>
      <trkpt lat="45.70563" lon="4.74063">
        <ele>313.53</ele>
        <time>2010-10-28T14:12:53Z</time>
      </trkpt>
      <trkpt lat="45.70567" lon="4.74093">
        <ele>314.01</ele>
        <time>2010-10-28T14:13:02Z</time>
      </trkpt>
      <trkpt lat="45.70569" lon="4.74103">
        <ele>314.01</ele>
        <time>2010-10-28T14:13:05Z</time>
      </trkpt>
      <trkpt lat="45.70571" lon="4.74111">
        <ele>314.01</ele>
        <time>2010-10-28T14:13:07Z</time>
      </trkpt>
      <trkpt lat="45.70572" lon="4.7414">
        <ele>313.05</ele>
        <time>2010-10-28T14:13:15Z</time>
      </trkpt>
      <trkpt lat="45.70575" lon="4.74152">
        <ele>313.53</ele>
        <time>2010-10-28T14:13:19Z</time>
      </trkpt>
      <trkpt lat="45.70579" lon="4.7417">
        <ele>313.53</ele>
        <time>2010-10-28T14:13:24Z</time>
      </trkpt>
      <trkpt lat="45.70584" lon="4.74175">
        <ele>313.05</ele>
        <time>2010-10-28T14:13:28Z</time>
      </trkpt>
      <trkpt lat="45.70601" lon="4.74177">
        <ele>313.05</ele>
        <time>2010-10-28T14:13:36Z</time>
      </trkpt>
      <trkpt lat="45.70613" lon="4.74178">
        <ele>312.09</ele>
        <time>2010-10-28T14:13:41Z</time>
      </trkpt>
      <trkpt lat="45.70635" lon="4.74198">
        <ele>311.12</ele>
        <time>2010-10-28T14:13:52Z</time>
      </trkpt>
      <trkpt lat="45.70642" lon="4.74217">
        <ele>311.12</ele>
        <time>2010-10-28T14:13:58Z</time>
      </trkpt>
      <trkpt lat="45.70647" lon="4.74229">
        <ele>310.64</ele>
        <time>2010-10-28T14:14:02Z</time>
      </trkpt>
      <trkpt lat="45.70651" lon="4.74245">
        <ele>311.12</ele>
        <time>2010-10-28T14:14:07Z</time>
      </trkpt>
      <trkpt lat="45.70655" lon="4.74253">
        <ele>309.68</ele>
        <time>2010-10-28T14:14:10Z</time>
      </trkpt>
      <trkpt lat="45.70678" lon="4.74278">
        <ele>309.68</ele>
        <time>2010-10-28T14:14:22Z</time>
      </trkpt>
      <trkpt lat="45.707" lon="4.74286">
        <ele>309.2</ele>
        <time>2010-10-28T14:14:31Z</time>
      </trkpt>
      <trkpt lat="45.70721" lon="4.74292">
        <ele>309.2</ele>
        <time>2010-10-28T14:14:39Z</time>
      </trkpt>
      <trkpt lat="45.70751" lon="4.74302">
        <ele>308.72</ele>
        <time>2010-10-28T14:14:48Z</time>
      </trkpt>
      <trkpt lat="45.70775" lon="4.7431">
        <ele>307.76</ele>
        <time>2010-10-28T14:14:58Z</time>
      </trkpt>
      <trkpt lat="45.70798" lon="4.74321">
        <ele>307.76</ele>
        <time>2010-10-28T14:15:07Z</time>
      </trkpt>
      <trkpt lat="45.70814" lon="4.74343">
        <ele>307.28</ele>
        <time>2010-10-28T14:15:16Z</time>
      </trkpt>
      <trkpt lat="45.70815" lon="4.74345">
        <ele>308.24</ele>
        <time>2010-10-28T14:15:17Z</time>
      </trkpt>
      <trkpt lat="45.70829" lon="4.74368">
        <ele>307.76</ele>
        <time>2010-10-28T14:15:25Z</time>
      </trkpt>
      <trkpt lat="45.70832" lon="4.7437">
        <ele>308.24</ele>
        <time>2010-10-28T14:15:26Z</time>
      </trkpt>
      <trkpt lat="45.70834" lon="4.74372">
        <ele>309.2</ele>
        <time>2010-10-28T14:15:27Z</time>
      </trkpt>
      <trkpt lat="45.70837" lon="4.74375">
        <ele>308.72</ele>
        <time>2010-10-28T14:15:28Z</time>
      </trkpt>
      <trkpt lat="45.70838" lon="4.74378">
        <ele>308.72</ele>
        <time>2010-10-28T14:15:29Z</time>
      </trkpt>
      <trkpt lat="45.7084" lon="4.74381">
        <ele>308.72</ele>
        <time>2010-10-28T14:15:30Z</time>
      </trkpt>
      <trkpt lat="45.70842" lon="4.74383">
        <ele>308.72</ele>
        <time>2010-10-28T14:15:31Z</time>
      </trkpt>
      <trkpt lat="45.70844" lon="4.74385">
        <ele>308.72</ele>
        <time>2010-10-28T14:15:32Z</time>
      </trkpt>
      <trkpt lat="45.70846" lon="4.74387">
        <ele>308.72</ele>
        <time>2010-10-28T14:15:33Z</time>
      </trkpt>
      <trkpt lat="45.70848" lon="4.74387">
        <ele>307.28</ele>
        <time>2010-10-28T14:15:34Z</time>
      </trkpt>
      <trkpt lat="45.70859" lon="4.7439">
        <ele>308.24</ele>
        <time>2010-10-28T14:15:39Z</time>
      </trkpt>
      <trkpt lat="45.70861" lon="4.74391">
        <ele>307.76</ele>
        <time>2010-10-28T14:15:40Z</time>
      </trkpt>
      <trkpt lat="45.70862" lon="4.74391">
        <ele>307.76</ele>
        <time>2010-10-28T14:15:41Z</time>
      </trkpt>
      <trkpt lat="45.70864" lon="4.74391">
        <ele>309.2</ele>
        <time>2010-10-28T14:15:42Z</time>
      </trkpt>
      <trkpt lat="45.70867" lon="4.74392">
        <ele>308.72</ele>
        <time>2010-10-28T14:15:43Z</time>
      </trkpt>
      <trkpt lat="45.70869" lon="4.74392">
        <ele>309.2</ele>
        <time>2010-10-28T14:15:44Z</time>
      </trkpt>
      <trkpt lat="45.70895" lon="4.74404">
        <ele>310.16</ele>
        <time>2010-10-28T14:15:53Z</time>
      </trkpt>
      <trkpt lat="45.70899" lon="4.74405">
        <ele>309.68</ele>
        <time>2010-10-28T14:15:55Z</time>
      </trkpt>
      <trkpt lat="45.70908" lon="4.7441">
        <ele>308.72</ele>
        <time>2010-10-28T14:15:59Z</time>
      </trkpt>
      <trkpt lat="45.70911" lon="4.74411">
        <ele>309.68</ele>
        <time>2010-10-28T14:16:00Z</time>
      </trkpt>
      <trkpt lat="45.70913" lon="4.74412">
        <ele>310.16</ele>
        <time>2010-10-28T14:16:01Z</time>
      </trkpt>
      <trkpt lat="45.70915" lon="4.74412">
        <ele>309.2</ele>
        <time>2010-10-28T14:16:02Z</time>
      </trkpt>
      <trkpt lat="45.70917" lon="4.74413">
        <ele>309.68</ele>
        <time>2010-10-28T14:16:03Z</time>
      </trkpt>
      <trkpt lat="45.70919" lon="4.74414">
        <ele>309.2</ele>
        <time>2010-10-28T14:16:04Z</time>
      </trkpt>
      <trkpt lat="45.70921" lon="4.74415">
        <ele>309.2</ele>
        <time>2010-10-28T14:16:05Z</time>
      </trkpt>
      <trkpt lat="45.70922" lon="4.74416">
        <ele>309.68</ele>
        <time>2010-10-28T14:16:06Z</time>
      </trkpt>
      <trkpt lat="45.70924" lon="4.74416">
        <ele>309.2</ele>
        <time>2010-10-28T14:16:07Z</time>
      </trkpt>
      <trkpt lat="45.70926" lon="4.74417">
        <ele>309.68</ele>
        <time>2010-10-28T14:16:08Z</time>
      </trkpt>
      <trkpt lat="45.70928" lon="4.74418">
        <ele>310.64</ele>
        <time>2010-10-28T14:16:09Z</time>
      </trkpt>
      <trkpt lat="45.70931" lon="4.7442">
        <ele>309.68</ele>
        <time>2010-10-28T14:16:10Z</time>
      </trkpt>
      <trkpt lat="45.70939" lon="4.74423">
        <ele>309.2</ele>
        <time>2010-10-28T14:16:13Z</time>
      </trkpt>
      <trkpt lat="45.70942" lon="4.74424">
        <ele>308.24</ele>
        <time>2010-10-28T14:16:14Z</time>
      </trkpt>
      <trkpt lat="45.70944" lon="4.74425">
        <ele>308.72</ele>
        <time>2010-10-28T14:16:15Z</time>
      </trkpt>
      <trkpt lat="45.70946" lon="4.74427">
        <ele>308.24</ele>
        <time>2010-10-28T14:16:16Z</time>
      </trkpt>
      <trkpt lat="45.70949" lon="4.74428">
        <ele>308.24</ele>
        <time>2010-10-28T14:16:17Z</time>
      </trkpt>
      <trkpt lat="45.70951" lon="4.74429">
        <ele>308.24</ele>
        <time>2010-10-28T14:16:18Z</time>
      </trkpt>
      <trkpt lat="45.70953" lon="4.7443">
        <ele>308.24</ele>
        <time>2010-10-28T14:16:19Z</time>
      </trkpt>
      <trkpt lat="45.70956" lon="4.74431">
        <ele>308.72</ele>
        <time>2010-10-28T14:16:20Z</time>
      </trkpt>
      <trkpt lat="45.70958" lon="4.74433">
        <ele>308.72</ele>
        <time>2010-10-28T14:16:21Z</time>
      </trkpt>
      <trkpt lat="45.7096" lon="4.74435">
        <ele>308.72</ele>
        <time>2010-10-28T14:16:22Z</time>
      </trkpt>
      <trkpt lat="45.70964" lon="4.74439">
        <ele>308.24</ele>
        <time>2010-10-28T14:16:25Z</time>
      </trkpt>
      <trkpt lat="45.70967" lon="4.7444">
        <ele>307.76</ele>
        <time>2010-10-28T14:16:26Z</time>
      </trkpt>
      <trkpt lat="45.70969" lon="4.74441">
        <ele>307.76</ele>
        <time>2010-10-28T14:16:27Z</time>
      </trkpt>
      <trkpt lat="45.70972" lon="4.74442">
        <ele>307.76</ele>
        <time>2010-10-28T14:16:28Z</time>
      </trkpt>
      <trkpt lat="45.70974" lon="4.74444">
        <ele>307.76</ele>
        <time>2010-10-28T14:16:29Z</time>
      </trkpt>
      <trkpt lat="45.70976" lon="4.74446">
        <ele>307.76</ele>
        <time>2010-10-28T14:16:30Z</time>
      </trkpt>
      <trkpt lat="45.70979" lon="4.74447">
        <ele>307.28</ele>
        <time>2010-10-28T14:16:31Z</time>
      </trkpt>
      <trkpt lat="45.70981" lon="4.74447">
        <ele>307.28</ele>
        <time>2010-10-28T14:16:32Z</time>
      </trkpt>
      <trkpt lat="45.70985" lon="4.74449">
        <ele>307.76</ele>
        <time>2010-10-28T14:16:33Z</time>
      </trkpt>
      <trkpt lat="45.71006" lon="4.74466">
        <ele>307.76</ele>
        <time>2010-10-28T14:16:40Z</time>
      </trkpt>
      <trkpt lat="45.71008" lon="4.74467">
        <ele>307.76</ele>
        <time>2010-10-28T14:16:41Z</time>
      </trkpt>
      <trkpt lat="45.71011" lon="4.74468">
        <ele>307.76</ele>
        <time>2010-10-28T14:16:42Z</time>
      </trkpt>
      <trkpt lat="45.71013" lon="4.7447">
        <ele>307.76</ele>
        <time>2010-10-28T14:16:43Z</time>
      </trkpt>
      <trkpt lat="45.71016" lon="4.74472">
        <ele>308.24</ele>
        <time>2010-10-28T14:16:44Z</time>
      </trkpt>
      <trkpt lat="45.71019" lon="4.74474">
        <ele>308.72</ele>
        <time>2010-10-28T14:16:45Z</time>
      </trkpt>
      <trkpt lat="45.71021" lon="4.74476">
        <ele>308.24</ele>
        <time>2010-10-28T14:16:46Z</time>
      </trkpt>
      <trkpt lat="45.71028" lon="4.74493">
        <ele>308.24</ele>
        <time>2010-10-28T14:16:51Z</time>
      </trkpt>
      <trkpt lat="45.71029" lon="4.74496">
        <ele>308.72</ele>
        <time>2010-10-28T14:16:52Z</time>
      </trkpt>
      <trkpt lat="45.71031" lon="4.745">
        <ele>308.72</ele>
        <time>2010-10-28T14:16:53Z</time>
      </trkpt>
      <trkpt lat="45.71032" lon="4.74503">
        <ele>308.72</ele>
        <time>2010-10-28T14:16:54Z</time>
      </trkpt>
      <trkpt lat="45.71035" lon="4.74512">
        <ele>307.76</ele>
        <time>2010-10-28T14:16:57Z</time>
      </trkpt>
      <trkpt lat="45.71035" lon="4.74515">
        <ele>308.24</ele>
        <time>2010-10-28T14:16:58Z</time>
      </trkpt>
      <trkpt lat="45.71035" lon="4.74518">
        <ele>307.76</ele>
        <time>2010-10-28T14:16:59Z</time>
      </trkpt>
      <trkpt lat="45.71035" lon="4.74522">
        <ele>308.72</ele>
        <time>2010-10-28T14:17:00Z</time>
      </trkpt>
      <trkpt lat="45.71036" lon="4.74525">
        <ele>308.24</ele>
        <time>2010-10-28T14:17:01Z</time>
      </trkpt>
      <trkpt lat="45.71037" lon="4.74528">
        <ele>307.28</ele>
        <time>2010-10-28T14:17:02Z</time>
      </trkpt>
      <trkpt lat="45.71039" lon="4.74531">
        <ele>308.24</ele>
        <time>2010-10-28T14:17:03Z</time>
      </trkpt>
      <trkpt lat="45.71041" lon="4.74535">
        <ele>307.76</ele>
        <time>2010-10-28T14:17:04Z</time>
      </trkpt>
      <trkpt lat="45.71042" lon="4.74539">
        <ele>307.76</ele>
        <time>2010-10-28T14:17:05Z</time>
      </trkpt>
      <trkpt lat="45.71042" lon="4.74542">
        <ele>307.76</ele>
        <time>2010-10-28T14:17:06Z</time>
      </trkpt>
      <trkpt lat="45.71042" lon="4.74545">
        <ele>307.76</ele>
        <time>2010-10-28T14:17:07Z</time>
      </trkpt>
      <trkpt lat="45.71042" lon="4.74549">
        <ele>307.28</ele>
        <time>2010-10-28T14:17:08Z</time>
      </trkpt>
      <trkpt lat="45.71042" lon="4.74553">
        <ele>307.28</ele>
        <time>2010-10-28T14:17:09Z</time>
      </trkpt>
      <trkpt lat="45.71041" lon="4.74557">
        <ele>305.84</ele>
        <time>2010-10-28T14:17:10Z</time>
      </trkpt>
      <trkpt lat="45.7104" lon="4.74562">
        <ele>306.8</ele>
        <time>2010-10-28T14:17:11Z</time>
      </trkpt>
      <trkpt lat="45.71039" lon="4.74566">
        <ele>306.32</ele>
        <time>2010-10-28T14:17:12Z</time>
      </trkpt>
      <trkpt lat="45.71037" lon="4.74575">
        <ele>305.36</ele>
        <time>2010-10-28T14:17:14Z</time>
      </trkpt>
      <trkpt lat="45.71037" lon="4.7458">
        <ele>305.84</ele>
        <time>2010-10-28T14:17:21Z</time>
      </trkpt>
      <trkpt lat="45.71039" lon="4.74581">
        <ele>306.32</ele>
        <time>2010-10-28T14:17:22Z</time>
      </trkpt>
      <trkpt lat="45.71041" lon="4.74583">
        <ele>306.32</ele>
        <time>2010-10-28T14:17:23Z</time>
      </trkpt>
      <trkpt lat="45.71042" lon="4.74585">
        <ele>306.8</ele>
        <time>2010-10-28T14:17:24Z</time>
      </trkpt>
      <trkpt lat="45.71044" lon="4.74587">
        <ele>306.8</ele>
        <time>2010-10-28T14:17:25Z</time>
      </trkpt>
      <trkpt lat="45.71046" lon="4.74588">
        <ele>306.32</ele>
        <time>2010-10-28T14:17:26Z</time>
      </trkpt>
      <trkpt lat="45.71047" lon="4.7459">
        <ele>306.8</ele>
        <time>2010-10-28T14:17:27Z</time>
      </trkpt>
      <trkpt lat="45.71048" lon="4.74593">
        <ele>306.8</ele>
        <time>2010-10-28T14:17:28Z</time>
      </trkpt>
      <trkpt lat="45.71049" lon="4.74596">
        <ele>307.28</ele>
        <time>2010-10-28T14:17:29Z</time>
      </trkpt>
      <trkpt lat="45.71053" lon="4.7461">
        <ele>306.8</ele>
        <time>2010-10-28T14:17:34Z</time>
      </trkpt>
      <trkpt lat="45.71055" lon="4.74612">
        <ele>304.88</ele>
        <time>2010-10-28T14:17:44Z</time>
      </trkpt>
      <trkpt lat="45.71056" lon="4.74614">
        <ele>300.07</ele>
        <time>2010-10-28T14:17:46Z</time>
      </trkpt>
      <trkpt lat="45.71057" lon="4.74611">
        <ele>311.12</ele>
        <time>2010-10-28T14:17:47Z</time>
      </trkpt>
      <trkpt lat="45.71058" lon="4.74604">
        <ele>309.68</ele>
        <time>2010-10-28T14:17:48Z</time>
      </trkpt>
      <trkpt lat="45.71059" lon="4.74599">
        <ele>305.36</ele>
        <time>2010-10-28T14:17:49Z</time>
      </trkpt>
      <trkpt lat="45.71061" lon="4.74596">
        <ele>310.64</ele>
        <time>2010-10-28T14:17:50Z</time>
      </trkpt>
      <trkpt lat="45.71063" lon="4.74598">
        <ele>307.28</ele>
        <time>2010-10-28T14:17:51Z</time>
      </trkpt>
      <trkpt lat="45.71064" lon="4.74603">
        <ele>305.84</ele>
        <time>2010-10-28T14:17:52Z</time>
      </trkpt>
      <trkpt lat="45.71065" lon="4.74606">
        <ele>306.32</ele>
        <time>2010-10-28T14:17:53Z</time>
      </trkpt>
      <trkpt lat="45.71069" lon="4.74637">
        <ele>303.43</ele>
        <time>2010-10-28T14:18:00Z</time>
      </trkpt>
      <trkpt lat="45.71071" lon="4.74655">
        <ele>301.99</ele>
        <time>2010-10-28T14:18:04Z</time>
      </trkpt>
      <trkpt lat="45.71071" lon="4.7466">
        <ele>302.47</ele>
        <time>2010-10-28T14:18:05Z</time>
      </trkpt>
      <trkpt lat="45.71071" lon="4.74666">
        <ele>302.95</ele>
        <time>2010-10-28T14:18:06Z</time>
      </trkpt>
      <trkpt lat="45.71072" lon="4.74671">
        <ele>302.47</ele>
        <time>2010-10-28T14:18:07Z</time>
      </trkpt>
      <trkpt lat="45.71074" lon="4.74675">
        <ele>301.03</ele>
        <time>2010-10-28T14:18:08Z</time>
      </trkpt>
      <trkpt lat="45.71076" lon="4.74678">
        <ele>300.55</ele>
        <time>2010-10-28T14:18:09Z</time>
      </trkpt>
      <trkpt lat="45.71079" lon="4.74682">
        <ele>298.15</ele>
        <time>2010-10-28T14:18:10Z</time>
      </trkpt>
      <trkpt lat="45.71081" lon="4.74686">
        <ele>299.11</ele>
        <time>2010-10-28T14:18:11Z</time>
      </trkpt>
      <trkpt lat="45.71083" lon="4.7469">
        <ele>296.7</ele>
        <time>2010-10-28T14:18:12Z</time>
      </trkpt>
      <trkpt lat="45.71091" lon="4.74714">
        <ele>295.74</ele>
        <time>2010-10-28T14:18:16Z</time>
      </trkpt>
      <trkpt lat="45.71093" lon="4.74719">
        <ele>297.18</ele>
        <time>2010-10-28T14:18:17Z</time>
      </trkpt>
      <trkpt lat="45.71094" lon="4.74723">
        <ele>296.7</ele>
        <time>2010-10-28T14:18:18Z</time>
      </trkpt>
      <trkpt lat="45.71096" lon="4.74728">
        <ele>296.7</ele>
        <time>2010-10-28T14:18:19Z</time>
      </trkpt>
      <trkpt lat="45.71097" lon="4.74732">
        <ele>296.7</ele>
        <time>2010-10-28T14:18:20Z</time>
      </trkpt>
      <trkpt lat="45.71099" lon="4.74739">
        <ele>296.22</ele>
        <time>2010-10-28T14:18:22Z</time>
      </trkpt>
      <trkpt lat="45.711" lon="4.74743">
        <ele>297.18</ele>
        <time>2010-10-28T14:18:23Z</time>
      </trkpt>
      <trkpt lat="45.711" lon="4.74749">
        <ele>297.18</ele>
        <time>2010-10-28T14:18:24Z</time>
      </trkpt>
      <trkpt lat="45.711" lon="4.74752">
        <ele>297.18</ele>
        <time>2010-10-28T14:18:25Z</time>
      </trkpt>
      <trkpt lat="45.711" lon="4.74756">
        <ele>297.18</ele>
        <time>2010-10-28T14:18:26Z</time>
      </trkpt>
      <trkpt lat="45.71101" lon="4.74763">
        <ele>297.18</ele>
        <time>2010-10-28T14:18:29Z</time>
      </trkpt>
      <trkpt lat="45.71101" lon="4.74766">
        <ele>295.74</ele>
        <time>2010-10-28T14:18:30Z</time>
      </trkpt>
      <trkpt lat="45.71101" lon="4.74771">
        <ele>297.18</ele>
        <time>2010-10-28T14:18:31Z</time>
      </trkpt>
      <trkpt lat="45.71101" lon="4.74776">
        <ele>296.7</ele>
        <time>2010-10-28T14:18:32Z</time>
      </trkpt>
      <trkpt lat="45.71101" lon="4.74781">
        <ele>296.7</ele>
        <time>2010-10-28T14:18:33Z</time>
      </trkpt>
      <trkpt lat="45.71101" lon="4.74786">
        <ele>297.18</ele>
        <time>2010-10-28T14:18:34Z</time>
      </trkpt>
      <trkpt lat="45.71101" lon="4.74791">
        <ele>297.18</ele>
        <time>2010-10-28T14:18:35Z</time>
      </trkpt>
      <trkpt lat="45.71101" lon="4.74794">
        <ele>297.18</ele>
        <time>2010-10-28T14:18:36Z</time>
      </trkpt>
      <trkpt lat="45.71101" lon="4.74797">
        <ele>296.7</ele>
        <time>2010-10-28T14:18:37Z</time>
      </trkpt>
      <trkpt lat="45.71101" lon="4.74801">
        <ele>296.7</ele>
        <time>2010-10-28T14:18:38Z</time>
      </trkpt>
      <trkpt lat="45.71098" lon="4.74815">
        <ele>296.7</ele>
        <time>2010-10-28T14:18:43Z</time>
      </trkpt>
      <trkpt lat="45.71096" lon="4.74818">
        <ele>297.18</ele>
        <time>2010-10-28T14:18:44Z</time>
      </trkpt>
      <trkpt lat="45.71094" lon="4.74821">
        <ele>296.22</ele>
        <time>2010-10-28T14:18:45Z</time>
      </trkpt>
      <trkpt lat="45.71074" lon="4.74833">
        <ele>295.26</ele>
        <time>2010-10-28T14:18:52Z</time>
      </trkpt>
      <trkpt lat="45.71072" lon="4.74835">
        <ele>295.26</ele>
        <time>2010-10-28T14:18:53Z</time>
      </trkpt>
      <trkpt lat="45.71069" lon="4.74836">
        <ele>295.26</ele>
        <time>2010-10-28T14:18:54Z</time>
      </trkpt>
      <trkpt lat="45.71066" lon="4.74838">
        <ele>295.26</ele>
        <time>2010-10-28T14:18:55Z</time>
      </trkpt>
      <trkpt lat="45.71063" lon="4.74839">
        <ele>294.3</ele>
        <time>2010-10-28T14:18:56Z</time>
      </trkpt>
      <trkpt lat="45.7106" lon="4.7484">
        <ele>294.3</ele>
        <time>2010-10-28T14:18:57Z</time>
      </trkpt>
      <trkpt lat="45.71052" lon="4.74841">
        <ele>294.3</ele>
        <time>2010-10-28T14:19:00Z</time>
      </trkpt>
      <trkpt lat="45.7105" lon="4.74842">
        <ele>293.34</ele>
        <time>2010-10-28T14:19:01Z</time>
      </trkpt>
      <trkpt lat="45.71048" lon="4.74842">
        <ele>293.82</ele>
        <time>2010-10-28T14:19:02Z</time>
      </trkpt>
      <trkpt lat="45.71045" lon="4.74842">
        <ele>294.3</ele>
        <time>2010-10-28T14:19:03Z</time>
      </trkpt>
      <trkpt lat="45.71043" lon="4.74843">
        <ele>293.34</ele>
        <time>2010-10-28T14:19:04Z</time>
      </trkpt>
      <trkpt lat="45.7104" lon="4.74843">
        <ele>293.82</ele>
        <time>2010-10-28T14:19:05Z</time>
      </trkpt>
      <trkpt lat="45.71038" lon="4.74844">
        <ele>292.86</ele>
        <time>2010-10-28T14:19:06Z</time>
      </trkpt>
      <trkpt lat="45.71033" lon="4.74846">
        <ele>292.86</ele>
        <time>2010-10-28T14:19:08Z</time>
      </trkpt>
      <trkpt lat="45.71031" lon="4.74848">
        <ele>292.86</ele>
        <time>2010-10-28T14:19:09Z</time>
      </trkpt>
      <trkpt lat="45.70995" lon="4.74866">
        <ele>292.38</ele>
        <time>2010-10-28T14:19:22Z</time>
      </trkpt>
      <trkpt lat="45.70978" lon="4.74878">
        <ele>291.42</ele>
        <time>2010-10-28T14:19:29Z</time>
      </trkpt>
      <trkpt lat="45.70975" lon="4.74879">
        <ele>290.94</ele>
        <time>2010-10-28T14:19:30Z</time>
      </trkpt>
      <trkpt lat="45.70973" lon="4.74881">
        <ele>290.94</ele>
        <time>2010-10-28T14:19:31Z</time>
      </trkpt>
      <trkpt lat="45.7097" lon="4.74883">
        <ele>290.46</ele>
        <time>2010-10-28T14:19:32Z</time>
      </trkpt>
      <trkpt lat="45.70956" lon="4.74885">
        <ele>289.97</ele>
        <time>2010-10-28T14:19:36Z</time>
      </trkpt>
      <trkpt lat="45.70954" lon="4.74886">
        <ele>290.46</ele>
        <time>2010-10-28T14:19:37Z</time>
      </trkpt>
      <trkpt lat="45.70951" lon="4.74888">
        <ele>290.46</ele>
        <time>2010-10-28T14:19:38Z</time>
      </trkpt>
      <trkpt lat="45.70949" lon="4.7489">
        <ele>290.46</ele>
        <time>2010-10-28T14:19:39Z</time>
      </trkpt>
      <trkpt lat="45.70947" lon="4.74891">
        <ele>290.46</ele>
        <time>2010-10-28T14:19:40Z</time>
      </trkpt>
      <trkpt lat="45.70945" lon="4.74892">
        <ele>289.97</ele>
        <time>2010-10-28T14:19:41Z</time>
      </trkpt>
      <trkpt lat="45.70935" lon="4.74895">
        <ele>289.01</ele>
        <time>2010-10-28T14:19:45Z</time>
      </trkpt>
      <trkpt lat="45.70929" lon="4.74893">
        <ele>289.49</ele>
        <time>2010-10-28T14:19:47Z</time>
      </trkpt>
      <trkpt lat="45.70918" lon="4.74895">
        <ele>288.53</ele>
        <time>2010-10-28T14:19:50Z</time>
      </trkpt>
      <trkpt lat="45.70914" lon="4.74895">
        <ele>289.01</ele>
        <time>2010-10-28T14:19:51Z</time>
      </trkpt>
      <trkpt lat="45.7091" lon="4.74896">
        <ele>288.05</ele>
        <time>2010-10-28T14:19:52Z</time>
      </trkpt>
      <trkpt lat="45.70893" lon="4.74897">
        <ele>288.05</ele>
        <time>2010-10-28T14:19:57Z</time>
      </trkpt>
      <trkpt lat="45.7089" lon="4.74897">
        <ele>288.05</ele>
        <time>2010-10-28T14:19:58Z</time>
      </trkpt>
      <trkpt lat="45.70887" lon="4.74897">
        <ele>287.57</ele>
        <time>2010-10-28T14:19:59Z</time>
      </trkpt>
      <trkpt lat="45.70877" lon="4.74902">
        <ele>287.09</ele>
        <time>2010-10-28T14:20:03Z</time>
      </trkpt>
      <trkpt lat="45.70875" lon="4.74903">
        <ele>286.61</ele>
        <time>2010-10-28T14:20:04Z</time>
      </trkpt>
      <trkpt lat="45.70851" lon="4.74914">
        <ele>285.65</ele>
        <time>2010-10-28T14:20:12Z</time>
      </trkpt>
      <trkpt lat="45.70821" lon="4.74925">
        <ele>285.65</ele>
        <time>2010-10-28T14:20:21Z</time>
      </trkpt>
      <trkpt lat="45.70815" lon="4.74928">
        <ele>284.69</ele>
        <time>2010-10-28T14:20:23Z</time>
      </trkpt>
      <trkpt lat="45.70812" lon="4.7493">
        <ele>284.21</ele>
        <time>2010-10-28T14:20:24Z</time>
      </trkpt>
      <trkpt lat="45.70809" lon="4.74932">
        <ele>284.69</ele>
        <time>2010-10-28T14:20:25Z</time>
      </trkpt>
      <trkpt lat="45.70807" lon="4.74933">
        <ele>285.17</ele>
        <time>2010-10-28T14:20:26Z</time>
      </trkpt>
      <trkpt lat="45.70804" lon="4.74935">
        <ele>283.73</ele>
        <time>2010-10-28T14:20:27Z</time>
      </trkpt>
      <trkpt lat="45.70802" lon="4.74937">
        <ele>284.69</ele>
        <time>2010-10-28T14:20:28Z</time>
      </trkpt>
      <trkpt lat="45.70799" lon="4.74938">
        <ele>283.73</ele>
        <time>2010-10-28T14:20:29Z</time>
      </trkpt>
      <trkpt lat="45.70796" lon="4.7494">
        <ele>284.21</ele>
        <time>2010-10-28T14:20:30Z</time>
      </trkpt>
      <trkpt lat="45.70794" lon="4.74942">
        <ele>283.73</ele>
        <time>2010-10-28T14:20:31Z</time>
      </trkpt>
      <trkpt lat="45.7078" lon="4.74961">
        <ele>283.25</ele>
        <time>2010-10-28T14:20:37Z</time>
      </trkpt>
      <trkpt lat="45.70778" lon="4.74964">
        <ele>282.77</ele>
        <time>2010-10-28T14:20:38Z</time>
      </trkpt>
      <trkpt lat="45.70759" lon="4.74997">
        <ele>282.28</ele>
        <time>2010-10-28T14:20:49Z</time>
      </trkpt>
      <trkpt lat="45.70756" lon="4.75">
        <ele>282.28</ele>
        <time>2010-10-28T14:20:50Z</time>
      </trkpt>
      <trkpt lat="45.70751" lon="4.75012">
        <ele>282.28</ele>
        <time>2010-10-28T14:20:53Z</time>
      </trkpt>
      <trkpt lat="45.7075" lon="4.75018">
        <ele>281.8</ele>
        <time>2010-10-28T14:20:54Z</time>
      </trkpt>
      <trkpt lat="45.70749" lon="4.75022">
        <ele>281.8</ele>
        <time>2010-10-28T14:20:55Z</time>
      </trkpt>
      <trkpt lat="45.70749" lon="4.75027">
        <ele>281.8</ele>
        <time>2010-10-28T14:20:56Z</time>
      </trkpt>
      <trkpt lat="45.70749" lon="4.75031">
        <ele>282.28</ele>
        <time>2010-10-28T14:20:57Z</time>
      </trkpt>
      <trkpt lat="45.7075" lon="4.75036">
        <ele>280.84</ele>
        <time>2010-10-28T14:20:58Z</time>
      </trkpt>
      <trkpt lat="45.70751" lon="4.75041">
        <ele>281.32</ele>
        <time>2010-10-28T14:20:59Z</time>
      </trkpt>
      <trkpt lat="45.70751" lon="4.75046">
        <ele>281.32</ele>
        <time>2010-10-28T14:21:00Z</time>
      </trkpt>
      <trkpt lat="45.70751" lon="4.7505">
        <ele>282.77</ele>
        <time>2010-10-28T14:21:01Z</time>
      </trkpt>
      <trkpt lat="45.70751" lon="4.75053">
        <ele>282.28</ele>
        <time>2010-10-28T14:21:02Z</time>
      </trkpt>
      <trkpt lat="45.70751" lon="4.75064">
        <ele>282.28</ele>
        <time>2010-10-28T14:21:04Z</time>
      </trkpt>
      <trkpt lat="45.70751" lon="4.75069">
        <ele>282.28</ele>
        <time>2010-10-28T14:21:05Z</time>
      </trkpt>
      <trkpt lat="45.70751" lon="4.75073">
        <ele>282.28</ele>
        <time>2010-10-28T14:21:06Z</time>
      </trkpt>
      <trkpt lat="45.70751" lon="4.75078">
        <ele>282.28</ele>
        <time>2010-10-28T14:21:07Z</time>
      </trkpt>
      <trkpt lat="45.70751" lon="4.75082">
        <ele>282.28</ele>
        <time>2010-10-28T14:21:08Z</time>
      </trkpt>
      <trkpt lat="45.70751" lon="4.75085">
        <ele>282.28</ele>
        <time>2010-10-28T14:21:09Z</time>
      </trkpt>
      <trkpt lat="45.70752" lon="4.75089">
        <ele>282.77</ele>
        <time>2010-10-28T14:21:10Z</time>
      </trkpt>
      <trkpt lat="45.70748" lon="4.75122">
        <ele>282.28</ele>
        <time>2010-10-28T14:21:18Z</time>
      </trkpt>
      <trkpt lat="45.70745" lon="4.75124">
        <ele>282.77</ele>
        <time>2010-10-28T14:21:19Z</time>
      </trkpt>
      <trkpt lat="45.70742" lon="4.75125">
        <ele>282.77</ele>
        <time>2010-10-28T14:21:20Z</time>
      </trkpt>
      <trkpt lat="45.7074" lon="4.75126">
        <ele>281.8</ele>
        <time>2010-10-28T14:21:21Z</time>
      </trkpt>
      <trkpt lat="45.70737" lon="4.75128">
        <ele>281.8</ele>
        <time>2010-10-28T14:21:22Z</time>
      </trkpt>
      <trkpt lat="45.70734" lon="4.7513">
        <ele>282.77</ele>
        <time>2010-10-28T14:21:23Z</time>
      </trkpt>
      <trkpt lat="45.70731" lon="4.75132">
        <ele>282.28</ele>
        <time>2010-10-28T14:21:24Z</time>
      </trkpt>
      <trkpt lat="45.70728" lon="4.75133">
        <ele>282.28</ele>
        <time>2010-10-28T14:21:25Z</time>
      </trkpt>
      <trkpt lat="45.70725" lon="4.75134">
        <ele>281.32</ele>
        <time>2010-10-28T14:21:26Z</time>
      </trkpt>
      <trkpt lat="45.70721" lon="4.75135">
        <ele>282.77</ele>
        <time>2010-10-28T14:21:27Z</time>
      </trkpt>
      <trkpt lat="45.70717" lon="4.75136">
        <ele>282.77</ele>
        <time>2010-10-28T14:21:28Z</time>
      </trkpt>
      <trkpt lat="45.70714" lon="4.75136">
        <ele>282.77</ele>
        <time>2010-10-28T14:21:29Z</time>
      </trkpt>
      <trkpt lat="45.70713" lon="4.75137">
        <ele>282.28</ele>
        <time>2010-10-28T14:21:30Z</time>
      </trkpt>
      <trkpt lat="45.70711" lon="4.75137">
        <ele>282.77</ele>
        <time>2010-10-28T14:21:31Z</time>
      </trkpt>
      <trkpt lat="45.70709" lon="4.75138">
        <ele>282.28</ele>
        <time>2010-10-28T14:21:32Z</time>
      </trkpt>
      <trkpt lat="45.70707" lon="4.75139">
        <ele>282.28</ele>
        <time>2010-10-28T14:21:33Z</time>
      </trkpt>
      <trkpt lat="45.70697" lon="4.75142">
        <ele>282.77</ele>
        <time>2010-10-28T14:21:37Z</time>
      </trkpt>
      <trkpt lat="45.70693" lon="4.75143">
        <ele>282.28</ele>
        <time>2010-10-28T14:21:38Z</time>
      </trkpt>
      <trkpt lat="45.70689" lon="4.75142">
        <ele>282.28</ele>
        <time>2010-10-28T14:21:39Z</time>
      </trkpt>
      <trkpt lat="45.70673" lon="4.75141">
        <ele>281.8</ele>
        <time>2010-10-28T14:21:46Z</time>
      </trkpt>
      <trkpt lat="45.70671" lon="4.75142">
        <ele>281.8</ele>
        <time>2010-10-28T14:21:47Z</time>
      </trkpt>
      <trkpt lat="45.70669" lon="4.75142">
        <ele>281.32</ele>
        <time>2010-10-28T14:21:48Z</time>
      </trkpt>
      <trkpt lat="45.70663" lon="4.75144">
        <ele>279.4</ele>
        <time>2010-10-28T14:21:52Z</time>
      </trkpt>
      <trkpt lat="45.70661" lon="4.75143">
        <ele>277.96</ele>
        <time>2010-10-28T14:21:53Z</time>
      </trkpt>
      <trkpt lat="45.70658" lon="4.75144">
        <ele>278.92</ele>
        <time>2010-10-28T14:21:54Z</time>
      </trkpt>
      <trkpt lat="45.70656" lon="4.75145">
        <ele>279.4</ele>
        <time>2010-10-28T14:21:55Z</time>
      </trkpt>
      <trkpt lat="45.70653" lon="4.75146">
        <ele>277.96</ele>
        <time>2010-10-28T14:21:56Z</time>
      </trkpt>
      <trkpt lat="45.70649" lon="4.75146">
        <ele>277.48</ele>
        <time>2010-10-28T14:21:57Z</time>
      </trkpt>
      <trkpt lat="45.7063" lon="4.75147">
        <ele>276.52</ele>
        <time>2010-10-28T14:22:03Z</time>
      </trkpt>
      <trkpt lat="45.70627" lon="4.75147">
        <ele>276.52</ele>
        <time>2010-10-28T14:22:04Z</time>
      </trkpt>
      <trkpt lat="45.70625" lon="4.75148">
        <ele>277.48</ele>
        <time>2010-10-28T14:22:05Z</time>
      </trkpt>
      <trkpt lat="45.70622" lon="4.75149">
        <ele>276.52</ele>
        <time>2010-10-28T14:22:06Z</time>
      </trkpt>
      <trkpt lat="45.70619" lon="4.7515">
        <ele>276.04</ele>
        <time>2010-10-28T14:22:07Z</time>
      </trkpt>
      <trkpt lat="45.70616" lon="4.75151">
        <ele>277</ele>
        <time>2010-10-28T14:22:08Z</time>
      </trkpt>
      <trkpt lat="45.70614" lon="4.75153">
        <ele>274.11</ele>
        <time>2010-10-28T14:22:09Z</time>
      </trkpt>
      <trkpt lat="45.70612" lon="4.75156">
        <ele>277</ele>
        <time>2010-10-28T14:22:10Z</time>
      </trkpt>
      <trkpt lat="45.70611" lon="4.75158">
        <ele>275.07</ele>
        <time>2010-10-28T14:22:11Z</time>
      </trkpt>
      <trkpt lat="45.70609" lon="4.7516">
        <ele>276.04</ele>
        <time>2010-10-28T14:22:12Z</time>
      </trkpt>
      <trkpt lat="45.70606" lon="4.75162">
        <ele>275.07</ele>
        <time>2010-10-28T14:22:13Z</time>
      </trkpt>
      <trkpt lat="45.70604" lon="4.75165">
        <ele>276.04</ele>
        <time>2010-10-28T14:22:14Z</time>
      </trkpt>
      <trkpt lat="45.70601" lon="4.75167">
        <ele>276.04</ele>
        <time>2010-10-28T14:22:15Z</time>
      </trkpt>
      <trkpt lat="45.70599" lon="4.75169">
        <ele>275.56</ele>
        <time>2010-10-28T14:22:16Z</time>
      </trkpt>
      <trkpt lat="45.70592" lon="4.75173">
        <ele>274.59</ele>
        <time>2010-10-28T14:22:19Z</time>
      </trkpt>
      <trkpt lat="45.70588" lon="4.75178">
        <ele>274.59</ele>
        <time>2010-10-28T14:22:21Z</time>
      </trkpt>
      <trkpt lat="45.70584" lon="4.7518">
        <ele>275.07</ele>
        <time>2010-10-28T14:22:22Z</time>
      </trkpt>
      <trkpt lat="45.70573" lon="4.75187">
        <ele>274.11</ele>
        <time>2010-10-28T14:22:26Z</time>
      </trkpt>
      <trkpt lat="45.70562" lon="4.75205">
        <ele>274.11</ele>
        <time>2010-10-28T14:22:32Z</time>
      </trkpt>
      <trkpt lat="45.70559" lon="4.75208">
        <ele>273.15</ele>
        <time>2010-10-28T14:22:33Z</time>
      </trkpt>
      <trkpt lat="45.7055" lon="4.75225">
        <ele>273.15</ele>
        <time>2010-10-28T14:22:38Z</time>
      </trkpt>
      <trkpt lat="45.70547" lon="4.75228">
        <ele>273.15</ele>
        <time>2010-10-28T14:22:39Z</time>
      </trkpt>
      <trkpt lat="45.70545" lon="4.75231">
        <ele>273.15</ele>
        <time>2010-10-28T14:22:40Z</time>
      </trkpt>
      <trkpt lat="45.70542" lon="4.75233">
        <ele>273.63</ele>
        <time>2010-10-28T14:22:41Z</time>
      </trkpt>
      <trkpt lat="45.7054" lon="4.75236">
        <ele>273.15</ele>
        <time>2010-10-28T14:22:42Z</time>
      </trkpt>
      <trkpt lat="45.70538" lon="4.75239">
        <ele>272.67</ele>
        <time>2010-10-28T14:22:43Z</time>
      </trkpt>
      <trkpt lat="45.70537" lon="4.75241">
        <ele>272.67</ele>
        <time>2010-10-28T14:22:44Z</time>
      </trkpt>
      <trkpt lat="45.70523" lon="4.7526">
        <ele>271.71</ele>
        <time>2010-10-28T14:22:51Z</time>
      </trkpt>
      <trkpt lat="45.70522" lon="4.75262">
        <ele>271.71</ele>
        <time>2010-10-28T14:22:52Z</time>
      </trkpt>
      <trkpt lat="45.7052" lon="4.75263">
        <ele>271.71</ele>
        <time>2010-10-28T14:22:53Z</time>
      </trkpt>
      <trkpt lat="45.70518" lon="4.75266">
        <ele>271.23</ele>
        <time>2010-10-28T14:22:54Z</time>
      </trkpt>
      <trkpt lat="45.70515" lon="4.7527">
        <ele>271.71</ele>
        <time>2010-10-28T14:22:55Z</time>
      </trkpt>
      <trkpt lat="45.70511" lon="4.7528">
        <ele>272.19</ele>
        <time>2010-10-28T14:22:57Z</time>
      </trkpt>
      <trkpt lat="45.70508" lon="4.75284">
        <ele>271.23</ele>
        <time>2010-10-28T14:22:58Z</time>
      </trkpt>
      <trkpt lat="45.70506" lon="4.75289">
        <ele>271.23</ele>
        <time>2010-10-28T14:22:59Z</time>
      </trkpt>
      <trkpt lat="45.70503" lon="4.75297">
        <ele>270.75</ele>
        <time>2010-10-28T14:23:00Z</time>
      </trkpt>
      <trkpt lat="45.70502" lon="4.753">
        <ele>271.23</ele>
        <time>2010-10-28T14:23:01Z</time>
      </trkpt>
      <trkpt lat="45.70498" lon="4.7531">
        <ele>270.75</ele>
        <time>2010-10-28T14:23:04Z</time>
      </trkpt>
      <trkpt lat="45.70495" lon="4.75315">
        <ele>271.71</ele>
        <time>2010-10-28T14:23:05Z</time>
      </trkpt>
      <trkpt lat="45.70492" lon="4.7532">
        <ele>271.23</ele>
        <time>2010-10-28T14:23:06Z</time>
      </trkpt>
      <trkpt lat="45.70484" lon="4.75333">
        <ele>270.27</ele>
        <time>2010-10-28T14:23:10Z</time>
      </trkpt>
      <trkpt lat="45.70483" lon="4.75335">
        <ele>271.23</ele>
        <time>2010-10-28T14:23:11Z</time>
      </trkpt>
      <trkpt lat="45.70479" lon="4.75343">
        <ele>271.71</ele>
        <time>2010-10-28T14:23:18Z</time>
      </trkpt>
      <trkpt lat="45.70465" lon="4.75356">
        <ele>271.23</ele>
        <time>2010-10-28T14:23:28Z</time>
      </trkpt>
      <trkpt lat="45.70464" lon="4.75358">
        <ele>271.23</ele>
        <time>2010-10-28T14:23:29Z</time>
      </trkpt>
      <trkpt lat="45.70447" lon="4.75369">
        <ele>271.71</ele>
        <time>2010-10-28T14:23:37Z</time>
      </trkpt>
      <trkpt lat="45.7044" lon="4.75377">
        <ele>272.19</ele>
        <time>2010-10-28T14:23:43Z</time>
      </trkpt>
      <trkpt lat="45.70431" lon="4.75388">
        <ele>273.63</ele>
        <time>2010-10-28T14:23:50Z</time>
      </trkpt>
      <trkpt lat="45.70424" lon="4.75405">
        <ele>275.07</ele>
        <time>2010-10-28T14:24:02Z</time>
      </trkpt>
      <trkpt lat="45.70428" lon="4.75416">
        <ele>276.52</ele>
        <time>2010-10-28T14:24:12Z</time>
      </trkpt>
      <trkpt lat="45.70429" lon="4.75424">
        <ele>277.48</ele>
        <time>2010-10-28T14:24:17Z</time>
      </trkpt>
      <trkpt lat="45.70431" lon="4.75433">
        <ele>277.96</ele>
        <time>2010-10-28T14:24:22Z</time>
      </trkpt>
      <trkpt lat="45.70437" lon="4.7546">
        <ele>281.8</ele>
        <time>2010-10-28T14:24:32Z</time>
      </trkpt>
      <trkpt lat="45.70443" lon="4.75477">
        <ele>284.21</ele>
        <time>2010-10-28T14:24:36Z</time>
      </trkpt>
      <trkpt lat="45.70445" lon="4.75487">
        <ele>285.65</ele>
        <time>2010-10-28T14:24:39Z</time>
      </trkpt>
      <trkpt lat="45.7045" lon="4.75499">
        <ele>288.05</ele>
        <time>2010-10-28T14:24:43Z</time>
      </trkpt>
      <trkpt lat="45.70452" lon="4.75504">
        <ele>289.49</ele>
        <time>2010-10-28T14:24:45Z</time>
      </trkpt>
      <trkpt lat="45.70458" lon="4.75514">
        <ele>292.38</ele>
        <time>2010-10-28T14:24:49Z</time>
      </trkpt>
      <trkpt lat="45.70459" lon="4.75515">
        <ele>292.38</ele>
        <time>2010-10-28T14:24:50Z</time>
      </trkpt>
      <trkpt lat="45.70465" lon="4.75515">
        <ele>292.38</ele>
        <time>2010-10-28T14:24:57Z</time>
      </trkpt>
      <trkpt lat="45.70476" lon="4.75513">
        <ele>293.34</ele>
        <time>2010-10-28T14:25:06Z</time>
      </trkpt>
      <trkpt lat="45.70482" lon="4.75514">
        <ele>293.82</ele>
        <time>2010-10-28T14:25:11Z</time>
      </trkpt>
      <trkpt lat="45.70488" lon="4.75512">
        <ele>293.82</ele>
        <time>2010-10-28T14:25:15Z</time>
      </trkpt>
      <trkpt lat="45.70505" lon="4.75512">
        <ele>295.26</ele>
        <time>2010-10-28T14:25:27Z</time>
      </trkpt>
      <trkpt lat="45.70518" lon="4.75511">
        <ele>296.22</ele>
        <time>2010-10-28T14:25:37Z</time>
      </trkpt>
      <trkpt lat="45.70533" lon="4.75517">
        <ele>296.22</ele>
        <time>2010-10-28T14:25:47Z</time>
      </trkpt>
      <trkpt lat="45.70536" lon="4.75516">
        <ele>297.18</ele>
        <time>2010-10-28T14:25:54Z</time>
      </trkpt>
      <trkpt lat="45.70545" lon="4.75521">
        <ele>298.15</ele>
        <time>2010-10-28T14:26:04Z</time>
      </trkpt>
      <trkpt lat="45.70554" lon="4.75532">
        <ele>300.07</ele>
        <time>2010-10-28T14:26:14Z</time>
      </trkpt>
      <trkpt lat="45.70565" lon="4.75547">
        <ele>301.51</ele>
        <time>2010-10-28T14:26:24Z</time>
      </trkpt>
      <trkpt lat="45.70565" lon="4.75549">
        <ele>301.51</ele>
        <time>2010-10-28T14:26:25Z</time>
      </trkpt>
      <trkpt lat="45.70568" lon="4.75556">
        <ele>302.47</ele>
        <time>2010-10-28T14:26:30Z</time>
      </trkpt>
      <trkpt lat="45.70574" lon="4.75569">
        <ele>302.95</ele>
        <time>2010-10-28T14:26:40Z</time>
      </trkpt>
      <trkpt lat="45.70576" lon="4.75589">
        <ele>304.88</ele>
        <time>2010-10-28T14:26:49Z</time>
      </trkpt>
      <trkpt lat="45.70579" lon="4.75608">
        <ele>306.32</ele>
        <time>2010-10-28T14:26:59Z</time>
      </trkpt>
      <trkpt lat="45.70579" lon="4.75612">
        <ele>306.8</ele>
        <time>2010-10-28T14:27:01Z</time>
      </trkpt>
      <trkpt lat="45.7058" lon="4.75627">
        <ele>309.2</ele>
        <time>2010-10-28T14:27:12Z</time>
      </trkpt>
      <trkpt lat="45.70579" lon="4.75632">
        <ele>308.72</ele>
        <time>2010-10-28T14:27:23Z</time>
      </trkpt>
      <trkpt lat="45.70578" lon="4.75638">
        <ele>309.2</ele>
        <time>2010-10-28T14:27:31Z</time>
      </trkpt>
      <trkpt lat="45.7058" lon="4.75635">
        <ele>308.24</ele>
        <time>2010-10-28T14:28:08Z</time>
      </trkpt>
      <trkpt lat="45.7058" lon="4.75636">
        <ele>308.72</ele>
        <time>2010-10-28T14:28:09Z</time>
      </trkpt>
      <trkpt lat="45.7058" lon="4.75637">
        <ele>309.2</ele>
        <time>2010-10-28T14:28:12Z</time>
      </trkpt>
      <trkpt lat="45.70579" lon="4.75637">
        <ele>308.24</ele>
        <time>2010-10-28T14:28:28Z</time>
      </trkpt>
      <trkpt lat="45.70579" lon="4.75639">
        <ele>308.72</ele>
        <time>2010-10-28T14:28:35Z</time>
      </trkpt>
      <trkpt lat="45.70578" lon="4.75644">
        <ele>308.24</ele>
        <time>2010-10-28T14:28:47Z</time>
      </trkpt>
      <trkpt lat="45.70576" lon="4.75644">
        <ele>308.24</ele>
        <time>2010-10-28T14:28:50Z</time>
      </trkpt>
      <trkpt lat="45.70577" lon="4.75649">
        <ele>308.72</ele>
        <time>2010-10-28T14:28:54Z</time>
      </trkpt>
      <trkpt lat="45.70579" lon="4.75651">
        <ele>308.72</ele>
        <time>2010-10-28T14:28:57Z</time>
      </trkpt>
      <trkpt lat="45.70579" lon="4.75653">
        <ele>309.68</ele>
        <time>2010-10-28T14:28:59Z</time>
      </trkpt>
      <trkpt lat="45.7058" lon="4.7566">
        <ele>309.2</ele>
        <time>2010-10-28T14:29:10Z</time>
      </trkpt>
      <trkpt lat="45.7058" lon="4.75662">
        <ele>309.68</ele>
        <time>2010-10-28T14:29:11Z</time>
      </trkpt>
      <trkpt lat="45.70581" lon="4.75672">
        <ele>310.16</ele>
        <time>2010-10-28T14:29:16Z</time>
      </trkpt>
      <trkpt lat="45.70583" lon="4.7568">
        <ele>310.16</ele>
        <time>2010-10-28T14:29:20Z</time>
      </trkpt>
      <trkpt lat="45.70585" lon="4.75686">
        <ele>310.64</ele>
        <time>2010-10-28T14:29:24Z</time>
      </trkpt>
      <trkpt lat="45.70586" lon="4.75694">
        <ele>311.12</ele>
        <time>2010-10-28T14:29:30Z</time>
      </trkpt>
      <trkpt lat="45.70588" lon="4.75702">
        <ele>311.6</ele>
        <time>2010-10-28T14:29:34Z</time>
      </trkpt>
      <trkpt lat="45.70596" lon="4.75729">
        <ele>312.09</ele>
        <time>2010-10-28T14:29:47Z</time>
      </trkpt>
      <trkpt lat="45.70598" lon="4.75732">
        <ele>313.05</ele>
        <time>2010-10-28T14:29:48Z</time>
      </trkpt>
      <trkpt lat="45.70605" lon="4.75763">
        <ele>311.6</ele>
        <time>2010-10-28T14:29:57Z</time>
      </trkpt>
      <trkpt lat="45.70607" lon="4.7577">
        <ele>311.12</ele>
        <time>2010-10-28T14:29:59Z</time>
      </trkpt>
      <trkpt lat="45.70609" lon="4.75773">
        <ele>313.53</ele>
        <time>2010-10-28T14:30:00Z</time>
      </trkpt>
      <trkpt lat="45.70612" lon="4.75782">
        <ele>312.09</ele>
        <time>2010-10-28T14:30:03Z</time>
      </trkpt>
      <trkpt lat="45.70615" lon="4.75782">
        <ele>311.6</ele>
        <time>2010-10-28T14:30:04Z</time>
      </trkpt>
      <trkpt lat="45.70627" lon="4.75785">
        <ele>312.57</ele>
        <time>2010-10-28T14:30:10Z</time>
      </trkpt>
      <trkpt lat="45.70626" lon="4.75784">
        <ele>311.6</ele>
        <time>2010-10-28T14:30:12Z</time>
      </trkpt>
      <trkpt lat="45.70622" lon="4.75787">
        <ele>311.6</ele>
        <time>2010-10-28T14:30:17Z</time>
      </trkpt>
      <trkpt lat="45.70624" lon="4.75789">
        <ele>311.6</ele>
        <time>2010-10-28T14:30:19Z</time>
      </trkpt>
      <trkpt lat="45.70624" lon="4.75792">
        <ele>310.16</ele>
        <time>2010-10-28T14:30:21Z</time>
      </trkpt>
      <trkpt lat="45.70626" lon="4.75799">
        <ele>310.16</ele>
        <time>2010-10-28T14:30:23Z</time>
      </trkpt>
      <trkpt lat="45.70625" lon="4.75821">
        <ele>309.2</ele>
        <time>2010-10-28T14:30:30Z</time>
      </trkpt>
      <trkpt lat="45.70629" lon="4.75835">
        <ele>308.24</ele>
        <time>2010-10-28T14:30:34Z</time>
      </trkpt>
      <trkpt lat="45.70631" lon="4.75839">
        <ele>308.72</ele>
        <time>2010-10-28T14:30:36Z</time>
      </trkpt>
      <trkpt lat="45.70635" lon="4.75851">
        <ele>308.24</ele>
        <time>2010-10-28T14:30:40Z</time>
      </trkpt>
      <trkpt lat="45.70635" lon="4.75871">
        <ele>306.8</ele>
        <time>2010-10-28T14:30:45Z</time>
      </trkpt>
      <trkpt lat="45.70638" lon="4.75889">
        <ele>308.24</ele>
        <time>2010-10-28T14:30:49Z</time>
      </trkpt>
      <trkpt lat="45.70636" lon="4.759">
        <ele>307.76</ele>
        <time>2010-10-28T14:30:50Z</time>
      </trkpt>
      <trkpt lat="45.70636" lon="4.75906">
        <ele>307.28</ele>
        <time>2010-10-28T14:30:51Z</time>
      </trkpt>
      <trkpt lat="45.70636" lon="4.75911">
        <ele>307.76</ele>
        <time>2010-10-28T14:30:52Z</time>
      </trkpt>
      <trkpt lat="45.70637" lon="4.75914">
        <ele>307.28</ele>
        <time>2010-10-28T14:30:53Z</time>
      </trkpt>
      <trkpt lat="45.70637" lon="4.75918">
        <ele>307.28</ele>
        <time>2010-10-28T14:30:54Z</time>
      </trkpt>
      <trkpt lat="45.70637" lon="4.75922">
        <ele>307.76</ele>
        <time>2010-10-28T14:30:55Z</time>
      </trkpt>
      <trkpt lat="45.70638" lon="4.75925">
        <ele>306.32</ele>
        <time>2010-10-28T14:30:56Z</time>
      </trkpt>
      <trkpt lat="45.7064" lon="4.75928">
        <ele>307.28</ele>
        <time>2010-10-28T14:30:57Z</time>
      </trkpt>
      <trkpt lat="45.70641" lon="4.7593">
        <ele>306.8</ele>
        <time>2010-10-28T14:30:58Z</time>
      </trkpt>
      <trkpt lat="45.70641" lon="4.75935">
        <ele>307.28</ele>
        <time>2010-10-28T14:30:59Z</time>
      </trkpt>
      <trkpt lat="45.70642" lon="4.75939">
        <ele>306.8</ele>
        <time>2010-10-28T14:31:00Z</time>
      </trkpt>
      <trkpt lat="45.70644" lon="4.75941">
        <ele>308.24</ele>
        <time>2010-10-28T14:31:01Z</time>
      </trkpt>
      <trkpt lat="45.70644" lon="4.75946">
        <ele>307.28</ele>
        <time>2010-10-28T14:31:02Z</time>
      </trkpt>
      <trkpt lat="45.70644" lon="4.7595">
        <ele>307.28</ele>
        <time>2010-10-28T14:31:03Z</time>
      </trkpt>
      <trkpt lat="45.70644" lon="4.75954">
        <ele>307.28</ele>
        <time>2010-10-28T14:31:04Z</time>
      </trkpt>
      <trkpt lat="45.70644" lon="4.75959">
        <ele>306.8</ele>
        <time>2010-10-28T14:31:05Z</time>
      </trkpt>
      <trkpt lat="45.70643" lon="4.75962">
        <ele>306.8</ele>
        <time>2010-10-28T14:31:06Z</time>
      </trkpt>
      <trkpt lat="45.70643" lon="4.75966">
        <ele>306.8</ele>
        <time>2010-10-28T14:31:07Z</time>
      </trkpt>
      <trkpt lat="45.70642" lon="4.75969">
        <ele>306.8</ele>
        <time>2010-10-28T14:31:08Z</time>
      </trkpt>
      <trkpt lat="45.70642" lon="4.75972">
        <ele>305.84</ele>
        <time>2010-10-28T14:31:09Z</time>
      </trkpt>
      <trkpt lat="45.70642" lon="4.75975">
        <ele>306.32</ele>
        <time>2010-10-28T14:31:10Z</time>
      </trkpt>
      <trkpt lat="45.70641" lon="4.75979">
        <ele>306.8</ele>
        <time>2010-10-28T14:31:11Z</time>
      </trkpt>
      <trkpt lat="45.7064" lon="4.75982">
        <ele>306.32</ele>
        <time>2010-10-28T14:31:12Z</time>
      </trkpt>
      <trkpt lat="45.70631" lon="4.76026">
        <ele>304.88</ele>
        <time>2010-10-28T14:31:20Z</time>
      </trkpt>
      <trkpt lat="45.70631" lon="4.7603">
        <ele>304.88</ele>
        <time>2010-10-28T14:31:21Z</time>
      </trkpt>
      <trkpt lat="45.70631" lon="4.76034">
        <ele>304.88</ele>
        <time>2010-10-28T14:31:22Z</time>
      </trkpt>
      <trkpt lat="45.70632" lon="4.76038">
        <ele>304.39</ele>
        <time>2010-10-28T14:31:23Z</time>
      </trkpt>
      <trkpt lat="45.70631" lon="4.76043">
        <ele>304.39</ele>
        <time>2010-10-28T14:31:24Z</time>
      </trkpt>
      <trkpt lat="45.7063" lon="4.76048">
        <ele>304.88</ele>
        <time>2010-10-28T14:31:25Z</time>
      </trkpt>
      <trkpt lat="45.70629" lon="4.76053">
        <ele>304.39</ele>
        <time>2010-10-28T14:31:26Z</time>
      </trkpt>
      <trkpt lat="45.70629" lon="4.76056">
        <ele>303.43</ele>
        <time>2010-10-28T14:31:27Z</time>
      </trkpt>
      <trkpt lat="45.7063" lon="4.76061">
        <ele>304.88</ele>
        <time>2010-10-28T14:31:28Z</time>
      </trkpt>
      <trkpt lat="45.7063" lon="4.76064">
        <ele>303.91</ele>
        <time>2010-10-28T14:31:29Z</time>
      </trkpt>
      <trkpt lat="45.7063" lon="4.76067">
        <ele>303.43</ele>
        <time>2010-10-28T14:31:30Z</time>
      </trkpt>
      <trkpt lat="45.70631" lon="4.76077">
        <ele>302.47</ele>
        <time>2010-10-28T14:31:34Z</time>
      </trkpt>
      <trkpt lat="45.70631" lon="4.7608">
        <ele>302.95</ele>
        <time>2010-10-28T14:31:35Z</time>
      </trkpt>
      <trkpt lat="45.70631" lon="4.76084">
        <ele>302.47</ele>
        <time>2010-10-28T14:31:36Z</time>
      </trkpt>
      <trkpt lat="45.70632" lon="4.76089">
        <ele>301.99</ele>
        <time>2010-10-28T14:31:37Z</time>
      </trkpt>
      <trkpt lat="45.70633" lon="4.76093">
        <ele>300.55</ele>
        <time>2010-10-28T14:31:38Z</time>
      </trkpt>
      <trkpt lat="45.70634" lon="4.76094">
        <ele>303.43</ele>
        <time>2010-10-28T14:31:39Z</time>
      </trkpt>
      <trkpt lat="45.70636" lon="4.76095">
        <ele>303.43</ele>
        <time>2010-10-28T14:31:40Z</time>
      </trkpt>
      <trkpt lat="45.70638" lon="4.76097">
        <ele>301.51</ele>
        <time>2010-10-28T14:31:41Z</time>
      </trkpt>
      <trkpt lat="45.7064" lon="4.76097">
        <ele>302.95</ele>
        <time>2010-10-28T14:31:42Z</time>
      </trkpt>
      <trkpt lat="45.70643" lon="4.76099">
        <ele>301.51</ele>
        <time>2010-10-28T14:31:44Z</time>
      </trkpt>
      <trkpt lat="45.70648" lon="4.761">
        <ele>303.43</ele>
        <time>2010-10-28T14:31:46Z</time>
      </trkpt>
      <trkpt lat="45.70649" lon="4.76101">
        <ele>303.91</ele>
        <time>2010-10-28T14:31:47Z</time>
      </trkpt>
      <trkpt lat="45.70651" lon="4.76104">
        <ele>302.95</ele>
        <time>2010-10-28T14:31:48Z</time>
      </trkpt>
      <trkpt lat="45.70654" lon="4.76105">
        <ele>302.95</ele>
        <time>2010-10-28T14:31:50Z</time>
      </trkpt>
      <trkpt lat="45.70656" lon="4.76104">
        <ele>303.43</ele>
        <time>2010-10-28T14:31:51Z</time>
      </trkpt>
      <trkpt lat="45.70659" lon="4.76103">
        <ele>303.91</ele>
        <time>2010-10-28T14:31:52Z</time>
      </trkpt>
      <trkpt lat="45.7066" lon="4.76103">
        <ele>304.39</ele>
        <time>2010-10-28T14:31:53Z</time>
      </trkpt>
      <trkpt lat="45.70662" lon="4.76104">
        <ele>304.88</ele>
        <time>2010-10-28T14:31:54Z</time>
      </trkpt>
      <trkpt lat="45.70663" lon="4.76104">
        <ele>304.39</ele>
        <time>2010-10-28T14:31:55Z</time>
      </trkpt>
      <trkpt lat="45.70664" lon="4.76105">
        <ele>303.43</ele>
        <time>2010-10-28T14:31:56Z</time>
      </trkpt>
      <trkpt lat="45.70666" lon="4.76106">
        <ele>304.39</ele>
        <time>2010-10-28T14:31:57Z</time>
      </trkpt>
      <trkpt lat="45.70669" lon="4.76106">
        <ele>304.39</ele>
        <time>2010-10-28T14:31:58Z</time>
      </trkpt>
      <trkpt lat="45.70671" lon="4.76107">
        <ele>304.39</ele>
        <time>2010-10-28T14:31:59Z</time>
      </trkpt>
      <trkpt lat="45.70673" lon="4.76107">
        <ele>304.88</ele>
        <time>2010-10-28T14:32:00Z</time>
      </trkpt>
      <trkpt lat="45.70674" lon="4.76107">
        <ele>305.36</ele>
        <time>2010-10-28T14:32:01Z</time>
      </trkpt>
      <trkpt lat="45.70676" lon="4.76106">
        <ele>304.88</ele>
        <time>2010-10-28T14:32:02Z</time>
      </trkpt>
      <trkpt lat="45.70693" lon="4.76108">
        <ele>305.84</ele>
        <time>2010-10-28T14:32:08Z</time>
      </trkpt>
      <trkpt lat="45.70695" lon="4.76109">
        <ele>306.8</ele>
        <time>2010-10-28T14:32:09Z</time>
      </trkpt>
      <trkpt lat="45.70698" lon="4.76109">
        <ele>306.32</ele>
        <time>2010-10-28T14:32:10Z</time>
      </trkpt>
      <trkpt lat="45.70701" lon="4.76109">
        <ele>306.32</ele>
        <time>2010-10-28T14:32:11Z</time>
      </trkpt>
      <trkpt lat="45.70703" lon="4.76109">
        <ele>306.8</ele>
        <time>2010-10-28T14:32:12Z</time>
      </trkpt>
      <trkpt lat="45.70706" lon="4.76109">
        <ele>306.8</ele>
        <time>2010-10-28T14:32:13Z</time>
      </trkpt>
      <trkpt lat="45.70709" lon="4.76108">
        <ele>305.84</ele>
        <time>2010-10-28T14:32:14Z</time>
      </trkpt>
      <trkpt lat="45.70711" lon="4.76109">
        <ele>307.28</ele>
        <time>2010-10-28T14:32:15Z</time>
      </trkpt>
      <trkpt lat="45.70714" lon="4.76109">
        <ele>307.76</ele>
        <time>2010-10-28T14:32:16Z</time>
      </trkpt>
      <trkpt lat="45.70716" lon="4.76109">
        <ele>307.28</ele>
        <time>2010-10-28T14:32:17Z</time>
      </trkpt>
      <trkpt lat="45.70718" lon="4.76109">
        <ele>307.76</ele>
        <time>2010-10-28T14:32:18Z</time>
      </trkpt>
      <trkpt lat="45.70721" lon="4.76108">
        <ele>308.72</ele>
        <time>2010-10-28T14:32:19Z</time>
      </trkpt>
      <trkpt lat="45.70723" lon="4.76107">
        <ele>306.8</ele>
        <time>2010-10-28T14:32:20Z</time>
      </trkpt>
      <trkpt lat="45.70725" lon="4.76108">
        <ele>308.24</ele>
        <time>2010-10-28T14:32:21Z</time>
      </trkpt>
      <trkpt lat="45.70728" lon="4.76109">
        <ele>308.24</ele>
        <time>2010-10-28T14:32:22Z</time>
      </trkpt>
      <trkpt lat="45.70736" lon="4.76111">
        <ele>308.72</ele>
        <time>2010-10-28T14:32:26Z</time>
      </trkpt>
      <trkpt lat="45.70738" lon="4.7611">
        <ele>308.72</ele>
        <time>2010-10-28T14:32:27Z</time>
      </trkpt>
      <trkpt lat="45.70741" lon="4.76111">
        <ele>308.72</ele>
        <time>2010-10-28T14:32:28Z</time>
      </trkpt>
      <trkpt lat="45.70743" lon="4.76111">
        <ele>309.68</ele>
        <time>2010-10-28T14:32:29Z</time>
      </trkpt>
      <trkpt lat="45.70745" lon="4.76111">
        <ele>309.68</ele>
        <time>2010-10-28T14:32:30Z</time>
      </trkpt>
      <trkpt lat="45.70748" lon="4.7611">
        <ele>308.72</ele>
        <time>2010-10-28T14:32:31Z</time>
      </trkpt>
      <trkpt lat="45.7075" lon="4.7611">
        <ele>309.2</ele>
        <time>2010-10-28T14:32:32Z</time>
      </trkpt>
      <trkpt lat="45.70752" lon="4.7611">
        <ele>309.68</ele>
        <time>2010-10-28T14:32:33Z</time>
      </trkpt>
      <trkpt lat="45.70755" lon="4.76111">
        <ele>309.68</ele>
        <time>2010-10-28T14:32:34Z</time>
      </trkpt>
      <trkpt lat="45.70757" lon="4.76111">
        <ele>310.64</ele>
        <time>2010-10-28T14:32:35Z</time>
      </trkpt>
      <trkpt lat="45.70768" lon="4.76113">
        <ele>311.12</ele>
        <time>2010-10-28T14:32:39Z</time>
      </trkpt>
      <trkpt lat="45.70771" lon="4.76115">
        <ele>310.16</ele>
        <time>2010-10-28T14:32:40Z</time>
      </trkpt>
      <trkpt lat="45.70773" lon="4.76115">
        <ele>311.6</ele>
        <time>2010-10-28T14:32:41Z</time>
      </trkpt>
      <trkpt lat="45.70776" lon="4.76115">
        <ele>311.12</ele>
        <time>2010-10-28T14:32:42Z</time>
      </trkpt>
      <trkpt lat="45.70779" lon="4.76115">
        <ele>311.12</ele>
        <time>2010-10-28T14:32:43Z</time>
      </trkpt>
      <trkpt lat="45.70782" lon="4.76115">
        <ele>311.12</ele>
        <time>2010-10-28T14:32:44Z</time>
      </trkpt>
      <trkpt lat="45.70784" lon="4.76115">
        <ele>311.12</ele>
        <time>2010-10-28T14:32:45Z</time>
      </trkpt>
      <trkpt lat="45.70787" lon="4.76114">
        <ele>311.6</ele>
        <time>2010-10-28T14:32:46Z</time>
      </trkpt>
      <trkpt lat="45.70789" lon="4.76113">
        <ele>311.6</ele>
        <time>2010-10-28T14:32:47Z</time>
      </trkpt>
      <trkpt lat="45.70792" lon="4.76112">
        <ele>312.09</ele>
        <time>2010-10-28T14:32:48Z</time>
      </trkpt>
      <trkpt lat="45.7082" lon="4.76097">
        <ele>313.05</ele>
        <time>2010-10-28T14:32:59Z</time>
      </trkpt>
      <trkpt lat="45.70832" lon="4.76088">
        <ele>314.01</ele>
        <time>2010-10-28T14:33:04Z</time>
      </trkpt>
      <trkpt lat="45.70834" lon="4.76087">
        <ele>314.01</ele>
        <time>2010-10-28T14:33:05Z</time>
      </trkpt>
      <trkpt lat="45.70836" lon="4.76086">
        <ele>314.01</ele>
        <time>2010-10-28T14:33:06Z</time>
      </trkpt>
      <trkpt lat="45.70839" lon="4.76085">
        <ele>314.01</ele>
        <time>2010-10-28T14:33:07Z</time>
      </trkpt>
      <trkpt lat="45.70841" lon="4.76083">
        <ele>314.49</ele>
        <time>2010-10-28T14:33:08Z</time>
      </trkpt>
      <trkpt lat="45.70843" lon="4.76081">
        <ele>314.49</ele>
        <time>2010-10-28T14:33:09Z</time>
      </trkpt>
      <trkpt lat="45.70868" lon="4.76077">
        <ele>315.93</ele>
        <time>2010-10-28T14:33:19Z</time>
      </trkpt>
      <trkpt lat="45.70874" lon="4.7608">
        <ele>316.89</ele>
        <time>2010-10-28T14:33:21Z</time>
      </trkpt>
      <trkpt lat="45.70892" lon="4.76086">
        <ele>316.89</ele>
        <time>2010-10-28T14:33:28Z</time>
      </trkpt>
      <trkpt lat="45.70913" lon="4.76089">
        <ele>316.41</ele>
        <time>2010-10-28T14:33:37Z</time>
      </trkpt>
      <trkpt lat="45.70915" lon="4.76089">
        <ele>317.37</ele>
        <time>2010-10-28T14:33:38Z</time>
      </trkpt>
      <trkpt lat="45.7094" lon="4.7609">
        <ele>317.85</ele>
        <time>2010-10-28T14:33:48Z</time>
      </trkpt>
      <trkpt lat="45.70953" lon="4.76093">
        <ele>318.81</ele>
        <time>2010-10-28T14:33:54Z</time>
      </trkpt>
      <trkpt lat="45.70955" lon="4.76094">
        <ele>319.78</ele>
        <time>2010-10-28T14:33:55Z</time>
      </trkpt>
      <trkpt lat="45.7096" lon="4.76096">
        <ele>320.26</ele>
        <time>2010-10-28T14:33:57Z</time>
      </trkpt>
      <trkpt lat="45.70964" lon="4.76096">
        <ele>320.26</ele>
        <time>2010-10-28T14:33:58Z</time>
      </trkpt>
      <trkpt lat="45.70992" lon="4.76094">
        <ele>321.7</ele>
        <time>2010-10-28T14:34:08Z</time>
      </trkpt>
      <trkpt lat="45.70995" lon="4.76093">
        <ele>321.22</ele>
        <time>2010-10-28T14:34:09Z</time>
      </trkpt>
      <trkpt lat="45.70997" lon="4.76093">
        <ele>321.7</ele>
        <time>2010-10-28T14:34:10Z</time>
      </trkpt>
      <trkpt lat="45.71018" lon="4.76088">
        <ele>323.14</ele>
        <time>2010-10-28T14:34:19Z</time>
      </trkpt>
      <trkpt lat="45.71028" lon="4.76085">
        <ele>323.62</ele>
        <time>2010-10-28T14:34:24Z</time>
      </trkpt>
      <trkpt lat="45.7103" lon="4.76087">
        <ele>323.62</ele>
        <time>2010-10-28T14:34:25Z</time>
      </trkpt>
      <trkpt lat="45.71036" lon="4.76092">
        <ele>322.18</ele>
        <time>2010-10-28T14:34:36Z</time>
      </trkpt>
      <trkpt lat="45.71036" lon="4.76092">
        <ele>322.18</ele>
        <time>2010-10-28T14:34:45Z</time>
      </trkpt>
      <trkpt lat="45.71034" lon="4.7609">
        <ele>322.18</ele>
        <time>2010-10-28T14:34:48Z</time>
      </trkpt>
      <trkpt lat="45.71033" lon="4.76089">
        <ele>323.14</ele>
        <time>2010-10-28T14:34:57Z</time>
      </trkpt>
      <trkpt lat="45.71033" lon="4.76091">
        <ele>322.66</ele>
        <time>2010-10-28T14:34:58Z</time>
      </trkpt>
      <trkpt lat="45.71033" lon="4.76093">
        <ele>323.62</ele>
        <time>2010-10-28T14:34:59Z</time>
      </trkpt>
      <trkpt lat="45.71035" lon="4.76094">
        <ele>322.66</ele>
        <time>2010-10-28T14:35:00Z</time>
      </trkpt>
      <trkpt lat="45.71036" lon="4.76095">
        <ele>322.66</ele>
        <time>2010-10-28T14:35:01Z</time>
      </trkpt>
      <trkpt lat="45.71042" lon="4.76099">
        <ele>320.26</ele>
        <time>2010-10-28T14:35:06Z</time>
      </trkpt>
      <trkpt lat="45.71045" lon="4.761">
        <ele>321.7</ele>
        <time>2010-10-28T14:35:07Z</time>
      </trkpt>
      <trkpt lat="45.71048" lon="4.761">
        <ele>321.22</ele>
        <time>2010-10-28T14:35:08Z</time>
      </trkpt>
      <trkpt lat="45.71051" lon="4.761">
        <ele>319.78</ele>
        <time>2010-10-28T14:35:09Z</time>
      </trkpt>
      <trkpt lat="45.71054" lon="4.76103">
        <ele>321.22</ele>
        <time>2010-10-28T14:35:10Z</time>
      </trkpt>
      <trkpt lat="45.71057" lon="4.76105">
        <ele>319.78</ele>
        <time>2010-10-28T14:35:11Z</time>
      </trkpt>
      <trkpt lat="45.71061" lon="4.76106">
        <ele>319.3</ele>
        <time>2010-10-28T14:35:12Z</time>
      </trkpt>
      <trkpt lat="45.71065" lon="4.76107">
        <ele>317.85</ele>
        <time>2010-10-28T14:35:13Z</time>
      </trkpt>
      <trkpt lat="45.71069" lon="4.76109">
        <ele>319.3</ele>
        <time>2010-10-28T14:35:14Z</time>
      </trkpt>
      <trkpt lat="45.71072" lon="4.76112">
        <ele>319.3</ele>
        <time>2010-10-28T14:35:15Z</time>
      </trkpt>
      <trkpt lat="45.71074" lon="4.76115">
        <ele>317.85</ele>
        <time>2010-10-28T14:35:16Z</time>
      </trkpt>
      <trkpt lat="45.71077" lon="4.76117">
        <ele>317.37</ele>
        <time>2010-10-28T14:35:17Z</time>
      </trkpt>
      <trkpt lat="45.7108" lon="4.7612">
        <ele>316.89</ele>
        <time>2010-10-28T14:35:18Z</time>
      </trkpt>
      <trkpt lat="45.71083" lon="4.76124">
        <ele>316.89</ele>
        <time>2010-10-28T14:35:19Z</time>
      </trkpt>
      <trkpt lat="45.71085" lon="4.76128">
        <ele>316.41</ele>
        <time>2010-10-28T14:35:20Z</time>
      </trkpt>
      <trkpt lat="45.71087" lon="4.76132">
        <ele>316.41</ele>
        <time>2010-10-28T14:35:21Z</time>
      </trkpt>
      <trkpt lat="45.71088" lon="4.76137">
        <ele>316.41</ele>
        <time>2010-10-28T14:35:22Z</time>
      </trkpt>
      <trkpt lat="45.71089" lon="4.76142">
        <ele>315.45</ele>
        <time>2010-10-28T14:35:23Z</time>
      </trkpt>
      <trkpt lat="45.71089" lon="4.76147">
        <ele>315.45</ele>
        <time>2010-10-28T14:35:24Z</time>
      </trkpt>
      <trkpt lat="45.71089" lon="4.76155">
        <ele>314.01</ele>
        <time>2010-10-28T14:35:27Z</time>
      </trkpt>
      <trkpt lat="45.71087" lon="4.76187">
        <ele>311.6</ele>
        <time>2010-10-28T14:35:36Z</time>
      </trkpt>
      <trkpt lat="45.71087" lon="4.76201">
        <ele>310.16</ele>
        <time>2010-10-28T14:35:40Z</time>
      </trkpt>
      <trkpt lat="45.71086" lon="4.76206">
        <ele>309.68</ele>
        <time>2010-10-28T14:35:41Z</time>
      </trkpt>
      <trkpt lat="45.71086" lon="4.7621">
        <ele>309.68</ele>
        <time>2010-10-28T14:35:42Z</time>
      </trkpt>
      <trkpt lat="45.71085" lon="4.76214">
        <ele>309.68</ele>
        <time>2010-10-28T14:35:43Z</time>
      </trkpt>
      <trkpt lat="45.71085" lon="4.76244">
        <ele>306.32</ele>
        <time>2010-10-28T14:35:52Z</time>
      </trkpt>
      <trkpt lat="45.71083" lon="4.76257">
        <ele>304.88</ele>
        <time>2010-10-28T14:35:56Z</time>
      </trkpt>
      <trkpt lat="45.71082" lon="4.7626">
        <ele>305.36</ele>
        <time>2010-10-28T14:35:57Z</time>
      </trkpt>
      <trkpt lat="45.71081" lon="4.76262">
        <ele>305.36</ele>
        <time>2010-10-28T14:35:58Z</time>
      </trkpt>
      <trkpt lat="45.71081" lon="4.76265">
        <ele>304.39</ele>
        <time>2010-10-28T14:35:59Z</time>
      </trkpt>
      <trkpt lat="45.71078" lon="4.76272">
        <ele>303.91</ele>
        <time>2010-10-28T14:36:11Z</time>
      </trkpt>
      <trkpt lat="45.71077" lon="4.76274">
        <ele>302.47</ele>
        <time>2010-10-28T14:36:16Z</time>
      </trkpt>
      <trkpt lat="45.71076" lon="4.76279">
        <ele>302.47</ele>
        <time>2010-10-28T14:36:18Z</time>
      </trkpt>
      <trkpt lat="45.71076" lon="4.76283">
        <ele>302.47</ele>
        <time>2010-10-28T14:36:19Z</time>
      </trkpt>
      <trkpt lat="45.71076" lon="4.76287">
        <ele>302.47</ele>
        <time>2010-10-28T14:36:20Z</time>
      </trkpt>
      <trkpt lat="45.71074" lon="4.7629">
        <ele>301.03</ele>
        <time>2010-10-28T14:36:22Z</time>
      </trkpt>
      <trkpt lat="45.71068" lon="4.76301">
        <ele>299.59</ele>
        <time>2010-10-28T14:36:37Z</time>
      </trkpt>
      <trkpt lat="45.71067" lon="4.76305">
        <ele>299.59</ele>
        <time>2010-10-28T14:36:38Z</time>
      </trkpt>
      <trkpt lat="45.71063" lon="4.7632">
        <ele>297.67</ele>
        <time>2010-10-28T14:36:44Z</time>
      </trkpt>
      <trkpt lat="45.71056" lon="4.76336">
        <ele>296.7</ele>
        <time>2010-10-28T14:36:49Z</time>
      </trkpt>
      <trkpt lat="45.71056" lon="4.76338">
        <ele>296.7</ele>
        <time>2010-10-28T14:36:50Z</time>
      </trkpt>
      <trkpt lat="45.71054" lon="4.76346">
        <ele>296.7</ele>
        <time>2010-10-28T14:36:54Z</time>
      </trkpt>
      <trkpt lat="45.71053" lon="4.76348">
        <ele>295.26</ele>
        <time>2010-10-28T14:36:55Z</time>
      </trkpt>
      <trkpt lat="45.71052" lon="4.76349">
        <ele>295.26</ele>
        <time>2010-10-28T14:36:56Z</time>
      </trkpt>
      <trkpt lat="45.71052" lon="4.76352">
        <ele>294.78</ele>
        <time>2010-10-28T14:36:58Z</time>
      </trkpt>
      <trkpt lat="45.71052" lon="4.76354">
        <ele>293.82</ele>
        <time>2010-10-28T14:36:59Z</time>
      </trkpt>
      <trkpt lat="45.71053" lon="4.76356">
        <ele>293.82</ele>
        <time>2010-10-28T14:37:00Z</time>
      </trkpt>
      <trkpt lat="45.71052" lon="4.76363">
        <ele>291.9</ele>
        <time>2010-10-28T14:37:06Z</time>
      </trkpt>
      <trkpt lat="45.71049" lon="4.76374">
        <ele>289.97</ele>
        <time>2010-10-28T14:37:14Z</time>
      </trkpt>
      <trkpt lat="45.71047" lon="4.76387">
        <ele>288.05</ele>
        <time>2010-10-28T14:37:26Z</time>
      </trkpt>
      <trkpt lat="45.71043" lon="4.76411">
        <ele>285.65</ele>
        <time>2010-10-28T14:37:38Z</time>
      </trkpt>
      <trkpt lat="45.71045" lon="4.7642">
        <ele>285.17</ele>
        <time>2010-10-28T14:37:54Z</time>
      </trkpt>
      <trkpt lat="45.71048" lon="4.76424">
        <ele>284.21</ele>
        <time>2010-10-28T14:37:57Z</time>
      </trkpt>
      <trkpt lat="45.71054" lon="4.76426">
        <ele>282.28</ele>
        <time>2010-10-28T14:38:01Z</time>
      </trkpt>
      <trkpt lat="45.71067" lon="4.76432">
        <ele>279.88</ele>
        <time>2010-10-28T14:38:08Z</time>
      </trkpt>
      <trkpt lat="45.71072" lon="4.76439">
        <ele>277.96</ele>
        <time>2010-10-28T14:38:14Z</time>
      </trkpt>
      <trkpt lat="45.71066" lon="4.76459">
        <ele>275.56</ele>
        <time>2010-10-28T14:38:23Z</time>
      </trkpt>
      <trkpt lat="45.71061" lon="4.76469">
        <ele>273.15</ele>
        <time>2010-10-28T14:38:28Z</time>
      </trkpt>
      <trkpt lat="45.71058" lon="4.76474">
        <ele>271.23</ele>
        <time>2010-10-28T14:38:32Z</time>
      </trkpt>
      <trkpt lat="45.71058" lon="4.76476">
        <ele>271.71</ele>
        <time>2010-10-28T14:38:34Z</time>
      </trkpt>
      <trkpt lat="45.71053" lon="4.76491">
        <ele>267.86</ele>
        <time>2010-10-28T14:38:40Z</time>
      </trkpt>
      <trkpt lat="45.7105" lon="4.76512">
        <ele>265.94</ele>
        <time>2010-10-28T14:38:46Z</time>
      </trkpt>
      <trkpt lat="45.7105" lon="4.76517">
        <ele>266.42</ele>
        <time>2010-10-28T14:38:48Z</time>
      </trkpt>
      <trkpt lat="45.71048" lon="4.76538">
        <ele>264.5</ele>
        <time>2010-10-28T14:38:53Z</time>
      </trkpt>
      <trkpt lat="45.7105" lon="4.76565">
        <ele>261.62</ele>
        <time>2010-10-28T14:39:03Z</time>
      </trkpt>
      <trkpt lat="45.7105" lon="4.76599">
        <ele>259.21</ele>
        <time>2010-10-28T14:39:13Z</time>
      </trkpt>
      <trkpt lat="45.7105" lon="4.76605">
        <ele>258.73</ele>
        <time>2010-10-28T14:39:15Z</time>
      </trkpt>
      <trkpt lat="45.71052" lon="4.76612">
        <ele>257.29</ele>
        <time>2010-10-28T14:39:17Z</time>
      </trkpt>
      <trkpt lat="45.71052" lon="4.76621">
        <ele>256.81</ele>
        <time>2010-10-28T14:39:21Z</time>
      </trkpt>
      <trkpt lat="45.71052" lon="4.76624">
        <ele>256.33</ele>
        <time>2010-10-28T14:39:22Z</time>
      </trkpt>
      <trkpt lat="45.71049" lon="4.76636">
        <ele>255.37</ele>
        <time>2010-10-28T14:39:28Z</time>
      </trkpt>
      <trkpt lat="45.71052" lon="4.76663">
        <ele>254.41</ele>
        <time>2010-10-28T14:39:41Z</time>
      </trkpt>
      <trkpt lat="45.71056" lon="4.76675">
        <ele>252.96</ele>
        <time>2010-10-28T14:39:50Z</time>
      </trkpt>
      <trkpt lat="45.71055" lon="4.76674">
        <ele>253.44</ele>
        <time>2010-10-28T14:39:51Z</time>
      </trkpt>
      <trkpt lat="45.71054" lon="4.76667">
        <ele>253.44</ele>
        <time>2010-10-28T14:39:56Z</time>
      </trkpt>
      <trkpt lat="45.71053" lon="4.76663">
        <ele>253.93</ele>
        <time>2010-10-28T14:40:02Z</time>
      </trkpt>
      <trkpt lat="45.71056" lon="4.76672">
        <ele>253.44</ele>
        <time>2010-10-28T14:40:13Z</time>
      </trkpt>
      <trkpt lat="45.71055" lon="4.76674">
        <ele>253.44</ele>
        <time>2010-10-28T14:40:27Z</time>
      </trkpt>
      <trkpt lat="45.71054" lon="4.7668">
        <ele>252.96</ele>
        <time>2010-10-28T14:40:52Z</time>
      </trkpt>
      <trkpt lat="45.71055" lon="4.76679">
        <ele>252.96</ele>
        <time>2010-10-28T14:41:15Z</time>
      </trkpt>
      <trkpt lat="45.71057" lon="4.76679">
        <ele>252.48</ele>
        <time>2010-10-28T14:41:38Z</time>
      </trkpt>
      <trkpt lat="45.71057" lon="4.76681">
        <ele>252.48</ele>
        <time>2010-10-28T14:41:40Z</time>
      </trkpt>
      <trkpt lat="45.71065" lon="4.76695">
        <ele>251.52</ele>
        <time>2010-10-28T14:41:48Z</time>
      </trkpt>
      <trkpt lat="45.71065" lon="4.76701">
        <ele>250.56</ele>
        <time>2010-10-28T14:41:51Z</time>
      </trkpt>
      <trkpt lat="45.71077" lon="4.7672">
        <ele>249.6</ele>
        <time>2010-10-28T14:41:59Z</time>
      </trkpt>
      <trkpt lat="45.71078" lon="4.76723">
        <ele>250.08</ele>
        <time>2010-10-28T14:42:00Z</time>
      </trkpt>
      <trkpt lat="45.71079" lon="4.76734">
        <ele>249.12</ele>
        <time>2010-10-28T14:42:03Z</time>
      </trkpt>
      <trkpt lat="45.71083" lon="4.76755">
        <ele>247.68</ele>
        <time>2010-10-28T14:42:08Z</time>
      </trkpt>
      <trkpt lat="45.71084" lon="4.76762">
        <ele>248.64</ele>
        <time>2010-10-28T14:42:10Z</time>
      </trkpt>
      <trkpt lat="45.71089" lon="4.76801">
        <ele>247.2</ele>
        <time>2010-10-28T14:42:22Z</time>
      </trkpt>
      <trkpt lat="45.71093" lon="4.76811">
        <ele>246.23</ele>
        <time>2010-10-28T14:42:30Z</time>
      </trkpt>
      <trkpt lat="45.71096" lon="4.76805">
        <ele>247.2</ele>
        <time>2010-10-28T14:42:34Z</time>
      </trkpt>
      <trkpt lat="45.71102" lon="4.76805">
        <ele>247.68</ele>
        <time>2010-10-28T14:42:38Z</time>
      </trkpt>
      <trkpt lat="45.71127" lon="4.76808">
        <ele>246.23</ele>
        <time>2010-10-28T14:42:48Z</time>
      </trkpt>
      <trkpt lat="45.71143" lon="4.76813">
        <ele>246.72</ele>
        <time>2010-10-28T14:42:55Z</time>
      </trkpt>
      <trkpt lat="45.71157" lon="4.76821">
        <ele>247.68</ele>
        <time>2010-10-28T14:43:00Z</time>
      </trkpt>
      <trkpt lat="45.71169" lon="4.76825">
        <ele>247.2</ele>
        <time>2010-10-28T14:43:05Z</time>
      </trkpt>
      <trkpt lat="45.71185" lon="4.76834">
        <ele>247.68</ele>
        <time>2010-10-28T14:43:12Z</time>
      </trkpt>
      <trkpt lat="45.71195" lon="4.76837">
        <ele>247.2</ele>
        <time>2010-10-28T14:43:16Z</time>
      </trkpt>
      <trkpt lat="45.71214" lon="4.76852">
        <ele>247.68</ele>
        <time>2010-10-28T14:43:22Z</time>
      </trkpt>
      <trkpt lat="45.71222" lon="4.76858">
        <ele>247.68</ele>
        <time>2010-10-28T14:43:26Z</time>
      </trkpt>
      <trkpt lat="45.71248" lon="4.76866">
        <ele>249.12</ele>
        <time>2010-10-28T14:43:36Z</time>
      </trkpt>
      <trkpt lat="45.71269" lon="4.76875">
        <ele>248.16</ele>
        <time>2010-10-28T14:43:44Z</time>
      </trkpt>
      <trkpt lat="45.71274" lon="4.76878">
        <ele>248.64</ele>
        <time>2010-10-28T14:43:46Z</time>
      </trkpt>
      <trkpt lat="45.7128" lon="4.76881">
        <ele>249.6</ele>
        <time>2010-10-28T14:43:48Z</time>
      </trkpt>
      <trkpt lat="45.71298" lon="4.76892">
        <ele>249.6</ele>
        <time>2010-10-28T14:43:56Z</time>
      </trkpt>
      <trkpt lat="45.71303" lon="4.76894">
        <ele>250.08</ele>
        <time>2010-10-28T14:43:58Z</time>
      </trkpt>
      <trkpt lat="45.71308" lon="4.76899">
        <ele>249.6</ele>
        <time>2010-10-28T14:44:01Z</time>
      </trkpt>
      <trkpt lat="45.7133" lon="4.76907">
        <ele>249.12</ele>
        <time>2010-10-28T14:44:11Z</time>
      </trkpt>
      <trkpt lat="45.7134" lon="4.76912">
        <ele>249.12</ele>
        <time>2010-10-28T14:44:15Z</time>
      </trkpt>
      <trkpt lat="45.71344" lon="4.76915">
        <ele>249.6</ele>
        <time>2010-10-28T14:44:17Z</time>
      </trkpt>
      <trkpt lat="45.71348" lon="4.76919">
        <ele>250.08</ele>
        <time>2010-10-28T14:44:20Z</time>
      </trkpt>
      <trkpt lat="45.7137" lon="4.76926">
        <ele>250.56</ele>
        <time>2010-10-28T14:44:28Z</time>
      </trkpt>
      <trkpt lat="45.71379" lon="4.76928">
        <ele>250.56</ele>
        <time>2010-10-28T14:44:31Z</time>
      </trkpt>
      <trkpt lat="45.71387" lon="4.76931">
        <ele>250.56</ele>
        <time>2010-10-28T14:44:34Z</time>
      </trkpt>
      <trkpt lat="45.71395" lon="4.76936">
        <ele>251.52</ele>
        <time>2010-10-28T14:44:38Z</time>
      </trkpt>
      <trkpt lat="45.71403" lon="4.7694">
        <ele>252</ele>
        <time>2010-10-28T14:44:41Z</time>
      </trkpt>
      <trkpt lat="45.71413" lon="4.76942">
        <ele>251.52</ele>
        <time>2010-10-28T14:44:47Z</time>
      </trkpt>
      <trkpt lat="45.71422" lon="4.76946">
        <ele>252</ele>
        <time>2010-10-28T14:44:51Z</time>
      </trkpt>
      <trkpt lat="45.71424" lon="4.76947">
        <ele>252.48</ele>
        <time>2010-10-28T14:44:53Z</time>
      </trkpt>
      <trkpt lat="45.71443" lon="4.7696">
        <ele>252.48</ele>
        <time>2010-10-28T14:45:04Z</time>
      </trkpt>
      <trkpt lat="45.71447" lon="4.76963">
        <ele>252.48</ele>
        <time>2010-10-28T14:45:06Z</time>
      </trkpt>
      <trkpt lat="45.71465" lon="4.76967">
        <ele>252.96</ele>
        <time>2010-10-28T14:45:15Z</time>
      </trkpt>
      <trkpt lat="45.71472" lon="4.76969">
        <ele>252.96</ele>
        <time>2010-10-28T14:45:18Z</time>
      </trkpt>
      <trkpt lat="45.71484" lon="4.76971">
        <ele>253.44</ele>
        <time>2010-10-28T14:45:25Z</time>
      </trkpt>
      <trkpt lat="45.71512" lon="4.76962">
        <ele>254.41</ele>
        <time>2010-10-28T14:45:35Z</time>
      </trkpt>
      <trkpt lat="45.71515" lon="4.76961">
        <ele>253.93</ele>
        <time>2010-10-28T14:45:36Z</time>
      </trkpt>
      <trkpt lat="45.71533" lon="4.76959">
        <ele>254.41</ele>
        <time>2010-10-28T14:45:43Z</time>
      </trkpt>
      <trkpt lat="45.71549" lon="4.76949">
        <ele>254.41</ele>
        <time>2010-10-28T14:45:50Z</time>
      </trkpt>
      <trkpt lat="45.71553" lon="4.76947">
        <ele>254.41</ele>
        <time>2010-10-28T14:45:52Z</time>
      </trkpt>
      <trkpt lat="45.71562" lon="4.76942">
        <ele>254.89</ele>
        <time>2010-10-28T14:45:56Z</time>
      </trkpt>
      <trkpt lat="45.7158" lon="4.76937">
        <ele>254.89</ele>
        <time>2010-10-28T14:46:04Z</time>
      </trkpt>
      <trkpt lat="45.71594" lon="4.76934">
        <ele>255.37</ele>
        <time>2010-10-28T14:46:09Z</time>
      </trkpt>
      <trkpt lat="45.71614" lon="4.76924">
        <ele>255.37</ele>
        <time>2010-10-28T14:46:18Z</time>
      </trkpt>
      <trkpt lat="45.71619" lon="4.76923">
        <ele>255.37</ele>
        <time>2010-10-28T14:46:20Z</time>
      </trkpt>
      <trkpt lat="45.71625" lon="4.76916">
        <ele>256.33</ele>
        <time>2010-10-28T14:46:24Z</time>
      </trkpt>
      <trkpt lat="45.71635" lon="4.76906">
        <ele>256.81</ele>
        <time>2010-10-28T14:46:29Z</time>
      </trkpt>
      <trkpt lat="45.71647" lon="4.76893">
        <ele>258.73</ele>
        <time>2010-10-28T14:46:38Z</time>
      </trkpt>
      <trkpt lat="45.71656" lon="4.76883">
        <ele>258.73</ele>
        <time>2010-10-28T14:46:42Z</time>
      </trkpt>
      <trkpt lat="45.71665" lon="4.76876">
        <ele>259.69</ele>
        <time>2010-10-28T14:46:46Z</time>
      </trkpt>
      <trkpt lat="45.71692" lon="4.76843">
        <ele>260.17</ele>
        <time>2010-10-28T14:46:56Z</time>
      </trkpt>
      <trkpt lat="45.71709" lon="4.76831">
        <ele>261.62</ele>
        <time>2010-10-28T14:47:04Z</time>
      </trkpt>
      <trkpt lat="45.7171" lon="4.76829">
        <ele>261.62</ele>
        <time>2010-10-28T14:47:05Z</time>
      </trkpt>
      <trkpt lat="45.71712" lon="4.76827">
        <ele>261.14</ele>
        <time>2010-10-28T14:47:06Z</time>
      </trkpt>
      <trkpt lat="45.71714" lon="4.76824">
        <ele>261.62</ele>
        <time>2010-10-28T14:47:07Z</time>
      </trkpt>
      <trkpt lat="45.71716" lon="4.76822">
        <ele>262.58</ele>
        <time>2010-10-28T14:47:08Z</time>
      </trkpt>
      <trkpt lat="45.71718" lon="4.76819">
        <ele>263.06</ele>
        <time>2010-10-28T14:47:09Z</time>
      </trkpt>
      <trkpt lat="45.71721" lon="4.76817">
        <ele>263.06</ele>
        <time>2010-10-28T14:47:10Z</time>
      </trkpt>
      <trkpt lat="45.7173" lon="4.76803">
        <ele>263.54</ele>
        <time>2010-10-28T14:47:18Z</time>
      </trkpt>
      <trkpt lat="45.71743" lon="4.76791">
        <ele>264.98</ele>
        <time>2010-10-28T14:47:23Z</time>
      </trkpt>
      <trkpt lat="45.71745" lon="4.7679">
        <ele>264.98</ele>
        <time>2010-10-28T14:47:24Z</time>
      </trkpt>
      <trkpt lat="45.71748" lon="4.76787">
        <ele>264.02</ele>
        <time>2010-10-28T14:47:25Z</time>
      </trkpt>
      <trkpt lat="45.71751" lon="4.76783">
        <ele>264.98</ele>
        <time>2010-10-28T14:47:26Z</time>
      </trkpt>
      <trkpt lat="45.71753" lon="4.7678">
        <ele>264.98</ele>
        <time>2010-10-28T14:47:27Z</time>
      </trkpt>
      <trkpt lat="45.71755" lon="4.76778">
        <ele>265.46</ele>
        <time>2010-10-28T14:47:28Z</time>
      </trkpt>
      <trkpt lat="45.71757" lon="4.76776">
        <ele>265.46</ele>
        <time>2010-10-28T14:47:29Z</time>
      </trkpt>
      <trkpt lat="45.7176" lon="4.76773">
        <ele>264.5</ele>
        <time>2010-10-28T14:47:30Z</time>
      </trkpt>
      <trkpt lat="45.71762" lon="4.7677">
        <ele>265.46</ele>
        <time>2010-10-28T14:47:31Z</time>
      </trkpt>
      <trkpt lat="45.71767" lon="4.76764">
        <ele>264.98</ele>
        <time>2010-10-28T14:47:33Z</time>
      </trkpt>
      <trkpt lat="45.7177" lon="4.76763">
        <ele>265.94</ele>
        <time>2010-10-28T14:47:34Z</time>
      </trkpt>
      <trkpt lat="45.71772" lon="4.76761">
        <ele>265.94</ele>
        <time>2010-10-28T14:47:35Z</time>
      </trkpt>
      <trkpt lat="45.71775" lon="4.76759">
        <ele>264.02</ele>
        <time>2010-10-28T14:47:36Z</time>
      </trkpt>
      <trkpt lat="45.71777" lon="4.76757">
        <ele>265.94</ele>
        <time>2010-10-28T14:47:37Z</time>
      </trkpt>
      <trkpt lat="45.71779" lon="4.76756">
        <ele>266.42</ele>
        <time>2010-10-28T14:47:38Z</time>
      </trkpt>
      <trkpt lat="45.71781" lon="4.76753">
        <ele>265.94</ele>
        <time>2010-10-28T14:47:40Z</time>
      </trkpt>
      <trkpt lat="45.71783" lon="4.76752">
        <ele>265.94</ele>
        <time>2010-10-28T14:47:41Z</time>
      </trkpt>
      <trkpt lat="45.71797" lon="4.76747">
        <ele>265.94</ele>
        <time>2010-10-28T14:47:48Z</time>
      </trkpt>
      <trkpt lat="45.71813" lon="4.76743">
        <ele>266.9</ele>
        <time>2010-10-28T14:47:56Z</time>
      </trkpt>
      <trkpt lat="45.71821" lon="4.76739">
        <ele>267.86</ele>
        <time>2010-10-28T14:48:00Z</time>
      </trkpt>
      <trkpt lat="45.71822" lon="4.76738">
        <ele>266.9</ele>
        <time>2010-10-28T14:48:01Z</time>
      </trkpt>
      <trkpt lat="45.71824" lon="4.76738">
        <ele>267.38</ele>
        <time>2010-10-28T14:48:02Z</time>
      </trkpt>
      <trkpt lat="45.71827" lon="4.76737">
        <ele>267.86</ele>
        <time>2010-10-28T14:48:03Z</time>
      </trkpt>
      <trkpt lat="45.7183" lon="4.76737">
        <ele>267.38</ele>
        <time>2010-10-28T14:48:04Z</time>
      </trkpt>
      <trkpt lat="45.71832" lon="4.76736">
        <ele>267.38</ele>
        <time>2010-10-28T14:48:05Z</time>
      </trkpt>
      <trkpt lat="45.71835" lon="4.76735">
        <ele>266.9</ele>
        <time>2010-10-28T14:48:06Z</time>
      </trkpt>
      <trkpt lat="45.71837" lon="4.76733">
        <ele>267.86</ele>
        <time>2010-10-28T14:48:07Z</time>
      </trkpt>
      <trkpt lat="45.7184" lon="4.76733">
        <ele>267.86</ele>
        <time>2010-10-28T14:48:08Z</time>
      </trkpt>
      <trkpt lat="45.71842" lon="4.76732">
        <ele>267.38</ele>
        <time>2010-10-28T14:48:09Z</time>
      </trkpt>
      <trkpt lat="45.71847" lon="4.76731">
        <ele>267.86</ele>
        <time>2010-10-28T14:48:12Z</time>
      </trkpt>
      <trkpt lat="45.71848" lon="4.76731">
        <ele>267.38</ele>
        <time>2010-10-28T14:48:13Z</time>
      </trkpt>
      <trkpt lat="45.7185" lon="4.7673">
        <ele>267.86</ele>
        <time>2010-10-28T14:48:14Z</time>
      </trkpt>
      <trkpt lat="45.71852" lon="4.76728">
        <ele>267.38</ele>
        <time>2010-10-28T14:48:15Z</time>
      </trkpt>
      <trkpt lat="45.71854" lon="4.76728">
        <ele>267.86</ele>
        <time>2010-10-28T14:48:16Z</time>
      </trkpt>
      <trkpt lat="45.71857" lon="4.76727">
        <ele>267.86</ele>
        <time>2010-10-28T14:48:17Z</time>
      </trkpt>
      <trkpt lat="45.71859" lon="4.76726">
        <ele>267.86</ele>
        <time>2010-10-28T14:48:18Z</time>
      </trkpt>
      <trkpt lat="45.7187" lon="4.7672">
        <ele>267.38</ele>
        <time>2010-10-28T14:48:22Z</time>
      </trkpt>
      <trkpt lat="45.71872" lon="4.76718">
        <ele>267.86</ele>
        <time>2010-10-28T14:48:23Z</time>
      </trkpt>
      <trkpt lat="45.71874" lon="4.76716">
        <ele>267.86</ele>
        <time>2010-10-28T14:48:24Z</time>
      </trkpt>
      <trkpt lat="45.71877" lon="4.76714">
        <ele>268.35</ele>
        <time>2010-10-28T14:48:25Z</time>
      </trkpt>
      <trkpt lat="45.7188" lon="4.76712">
        <ele>268.83</ele>
        <time>2010-10-28T14:48:26Z</time>
      </trkpt>
      <trkpt lat="45.71883" lon="4.76709">
        <ele>267.86</ele>
        <time>2010-10-28T14:48:27Z</time>
      </trkpt>
      <trkpt lat="45.71885" lon="4.76706">
        <ele>267.86</ele>
        <time>2010-10-28T14:48:28Z</time>
      </trkpt>
      <trkpt lat="45.71885" lon="4.76704">
        <ele>267.86</ele>
        <time>2010-10-28T14:48:29Z</time>
      </trkpt>
      <trkpt lat="45.71912" lon="4.76692">
        <ele>269.79</ele>
        <time>2010-10-28T14:48:38Z</time>
      </trkpt>
      <trkpt lat="45.71916" lon="4.76692">
        <ele>269.31</ele>
        <time>2010-10-28T14:48:39Z</time>
      </trkpt>
      <trkpt lat="45.71922" lon="4.76694">
        <ele>269.79</ele>
        <time>2010-10-28T14:48:41Z</time>
      </trkpt>
      <trkpt lat="45.71934" lon="4.76691">
        <ele>269.31</ele>
        <time>2010-10-28T14:48:46Z</time>
      </trkpt>
      <trkpt lat="45.71943" lon="4.76695">
        <ele>271.23</ele>
        <time>2010-10-28T14:48:50Z</time>
      </trkpt>
      <trkpt lat="45.71951" lon="4.7669">
        <ele>272.19</ele>
        <time>2010-10-28T14:48:56Z</time>
      </trkpt>
      <trkpt lat="45.71952" lon="4.7669">
        <ele>272.19</ele>
        <time>2010-10-28T14:48:57Z</time>
      </trkpt>
      <trkpt lat="45.7197" lon="4.76698">
        <ele>273.15</ele>
        <time>2010-10-28T14:49:07Z</time>
      </trkpt>
      <trkpt lat="45.71975" lon="4.76697">
        <ele>274.59</ele>
        <time>2010-10-28T14:49:17Z</time>
      </trkpt>
      <trkpt lat="45.71977" lon="4.76704">
        <ele>274.59</ele>
        <time>2010-10-28T14:49:32Z</time>
      </trkpt>
      <trkpt lat="45.71977" lon="4.76706">
        <ele>274.59</ele>
        <time>2010-10-28T14:49:33Z</time>
      </trkpt>
      <trkpt lat="45.71982" lon="4.76708">
        <ele>273.15</ele>
        <time>2010-10-28T14:49:36Z</time>
      </trkpt>
      <trkpt lat="45.71987" lon="4.76722">
        <ele>273.15</ele>
        <time>2010-10-28T14:49:42Z</time>
      </trkpt>
      <trkpt lat="45.71988" lon="4.76734">
        <ele>272.19</ele>
        <time>2010-10-28T14:49:48Z</time>
      </trkpt>
      <trkpt lat="45.71983" lon="4.76767">
        <ele>270.27</ele>
        <time>2010-10-28T14:50:03Z</time>
      </trkpt>
      <trkpt lat="45.71985" lon="4.768">
        <ele>268.83</ele>
        <time>2010-10-28T14:50:11Z</time>
      </trkpt>
      <trkpt lat="45.71985" lon="4.76824">
        <ele>267.86</ele>
        <time>2010-10-28T14:50:17Z</time>
      </trkpt>
      <trkpt lat="45.7199" lon="4.76856">
        <ele>267.38</ele>
        <time>2010-10-28T14:50:25Z</time>
      </trkpt>
      <trkpt lat="45.71991" lon="4.76861">
        <ele>267.38</ele>
        <time>2010-10-28T14:50:26Z</time>
      </trkpt>
      <trkpt lat="45.71995" lon="4.76877">
        <ele>266.9</ele>
        <time>2010-10-28T14:50:30Z</time>
      </trkpt>
      <trkpt lat="45.71998" lon="4.76892">
        <ele>265.94</ele>
        <time>2010-10-28T14:50:35Z</time>
      </trkpt>
      <trkpt lat="45.71999" lon="4.76899">
        <ele>265.46</ele>
        <time>2010-10-28T14:50:37Z</time>
      </trkpt>
      <trkpt lat="45.72008" lon="4.76931">
        <ele>264.5</ele>
        <time>2010-10-28T14:50:46Z</time>
      </trkpt>
      <trkpt lat="45.72014" lon="4.76956">
        <ele>264.02</ele>
        <time>2010-10-28T14:50:54Z</time>
      </trkpt>
      <trkpt lat="45.72016" lon="4.76965">
        <ele>262.58</ele>
        <time>2010-10-28T14:50:57Z</time>
      </trkpt>
      <trkpt lat="45.72018" lon="4.76988">
        <ele>261.14</ele>
        <time>2010-10-28T14:51:05Z</time>
      </trkpt>
      <trkpt lat="45.72018" lon="4.76988">
        <ele>262.58</ele>
        <time>2010-10-28T14:51:07Z</time>
      </trkpt>
      <trkpt lat="45.72019" lon="4.76987">
        <ele>262.58</ele>
        <time>2010-10-28T14:51:09Z</time>
      </trkpt>
      <trkpt lat="45.72034" lon="4.76995">
        <ele>261.14</ele>
        <time>2010-10-28T14:51:15Z</time>
      </trkpt>
      <trkpt lat="45.72045" lon="4.77011">
        <ele>258.25</ele>
        <time>2010-10-28T14:51:20Z</time>
      </trkpt>
      <trkpt lat="45.72047" lon="4.77019">
        <ele>257.29</ele>
        <time>2010-10-28T14:51:22Z</time>
      </trkpt>
      <trkpt lat="45.7206" lon="4.77039">
        <ele>257.77</ele>
        <time>2010-10-28T14:51:31Z</time>
      </trkpt>
      <trkpt lat="45.72066" lon="4.77042">
        <ele>256.81</ele>
        <time>2010-10-28T14:51:39Z</time>
      </trkpt>
      <trkpt lat="45.72062" lon="4.77045">
        <ele>256.33</ele>
        <time>2010-10-28T14:51:43Z</time>
      </trkpt>
      <trkpt lat="45.72065" lon="4.7706">
        <ele>254.89</ele>
        <time>2010-10-28T14:51:48Z</time>
      </trkpt>
      <trkpt lat="45.7207" lon="4.77076">
        <ele>254.41</ele>
        <time>2010-10-28T14:51:53Z</time>
      </trkpt>
      <trkpt lat="45.72067" lon="4.77082">
        <ele>253.93</ele>
        <time>2010-10-28T14:51:55Z</time>
      </trkpt>
      <trkpt lat="45.72054" lon="4.77095">
        <ele>253.44</ele>
        <time>2010-10-28T14:52:00Z</time>
      </trkpt>
      <trkpt lat="45.72025" lon="4.77119">
        <ele>251.52</ele>
        <time>2010-10-28T14:52:11Z</time>
      </trkpt>
      <trkpt lat="45.72012" lon="4.77132">
        <ele>250.08</ele>
        <time>2010-10-28T14:52:16Z</time>
      </trkpt>
      <trkpt lat="45.7199" lon="4.77149">
        <ele>250.08</ele>
        <time>2010-10-28T14:52:24Z</time>
      </trkpt>
      <trkpt lat="45.71984" lon="4.77152">
        <ele>249.12</ele>
        <time>2010-10-28T14:52:26Z</time>
      </trkpt>
      <trkpt lat="45.71969" lon="4.77165">
        <ele>248.16</ele>
        <time>2010-10-28T14:52:32Z</time>
      </trkpt>
      <trkpt lat="45.71947" lon="4.77184">
        <ele>247.68</ele>
        <time>2010-10-28T14:52:41Z</time>
      </trkpt>
      <trkpt lat="45.7193" lon="4.77201">
        <ele>247.68</ele>
        <time>2010-10-28T14:52:49Z</time>
      </trkpt>
      <trkpt lat="45.7193" lon="4.77201">
        <ele>247.2</ele>
        <time>2010-10-28T14:52:51Z</time>
      </trkpt>
      <trkpt lat="45.71928" lon="4.77204">
        <ele>245.75</ele>
        <time>2010-10-28T14:52:54Z</time>
      </trkpt>
      <trkpt lat="45.71926" lon="4.77252">
        <ele>246.72</ele>
        <time>2010-10-28T14:53:04Z</time>
      </trkpt>
      <trkpt lat="45.71926" lon="4.77256">
        <ele>246.23</ele>
        <time>2010-10-28T14:53:05Z</time>
      </trkpt>
      <trkpt lat="45.71932" lon="4.77266">
        <ele>245.75</ele>
        <time>2010-10-28T14:53:09Z</time>
      </trkpt>
      <trkpt lat="45.71937" lon="4.77266">
        <ele>245.27</ele>
        <time>2010-10-28T14:53:11Z</time>
      </trkpt>
      <trkpt lat="45.71955" lon="4.77256">
        <ele>246.23</ele>
        <time>2010-10-28T14:53:18Z</time>
      </trkpt>
      <trkpt lat="45.71969" lon="4.77256">
        <ele>244.79</ele>
        <time>2010-10-28T14:53:25Z</time>
      </trkpt>
      <trkpt lat="45.71983" lon="4.77248">
        <ele>244.79</ele>
        <time>2010-10-28T14:53:31Z</time>
      </trkpt>
      <trkpt lat="45.71992" lon="4.77238">
        <ele>244.79</ele>
        <time>2010-10-28T14:53:34Z</time>
      </trkpt>
      <trkpt lat="45.71998" lon="4.77238">
        <ele>245.75</ele>
        <time>2010-10-28T14:53:37Z</time>
      </trkpt>
      <trkpt lat="45.72016" lon="4.77234">
        <ele>244.79</ele>
        <time>2010-10-28T14:53:44Z</time>
      </trkpt>
      <trkpt lat="45.72038" lon="4.77238">
        <ele>244.31</ele>
        <time>2010-10-28T14:53:54Z</time>
      </trkpt>
      <trkpt lat="45.72042" lon="4.77252">
        <ele>243.35</ele>
        <time>2010-10-28T14:53:58Z</time>
      </trkpt>
      <trkpt lat="45.72051" lon="4.77267">
        <ele>242.39</ele>
        <time>2010-10-28T14:54:03Z</time>
      </trkpt>
      <trkpt lat="45.72057" lon="4.77308">
        <ele>240.95</ele>
        <time>2010-10-28T14:54:13Z</time>
      </trkpt>
      <trkpt lat="45.72064" lon="4.77336">
        <ele>239.51</ele>
        <time>2010-10-28T14:54:21Z</time>
      </trkpt>
      <trkpt lat="45.72066" lon="4.77344">
        <ele>238.54</ele>
        <time>2010-10-28T14:54:23Z</time>
      </trkpt>
      <trkpt lat="45.72061" lon="4.77379">
        <ele>236.14</ele>
        <time>2010-10-28T14:54:34Z</time>
      </trkpt>
      <trkpt lat="45.72059" lon="4.77391">
        <ele>233.74</ele>
        <time>2010-10-28T14:54:40Z</time>
      </trkpt>
      <trkpt lat="45.72061" lon="4.77406">
        <ele>230.85</ele>
        <time>2010-10-28T14:54:46Z</time>
      </trkpt>
      <trkpt lat="45.72062" lon="4.77409">
        <ele>230.37</ele>
        <time>2010-10-28T14:54:47Z</time>
      </trkpt>
      <trkpt lat="45.72065" lon="4.77428">
        <ele>229.41</ele>
        <time>2010-10-28T14:54:51Z</time>
      </trkpt>
      <trkpt lat="45.72091" lon="4.77448">
        <ele>226.53</ele>
        <time>2010-10-28T14:55:01Z</time>
      </trkpt>
      <trkpt lat="45.72093" lon="4.77449">
        <ele>227.01</ele>
        <time>2010-10-28T14:55:02Z</time>
      </trkpt>
      <trkpt lat="45.72122" lon="4.77461">
        <ele>224.61</ele>
        <time>2010-10-28T14:55:11Z</time>
      </trkpt>
      <trkpt lat="45.72148" lon="4.77479">
        <ele>222.68</ele>
        <time>2010-10-28T14:55:20Z</time>
      </trkpt>
      <trkpt lat="45.72161" lon="4.77483">
        <ele>221.24</ele>
        <time>2010-10-28T14:55:25Z</time>
      </trkpt>
      <trkpt lat="45.72176" lon="4.77493">
        <ele>220.76</ele>
        <time>2010-10-28T14:55:31Z</time>
      </trkpt>
      <trkpt lat="45.722" lon="4.77508">
        <ele>218.36</ele>
        <time>2010-10-28T14:55:42Z</time>
      </trkpt>
      <trkpt lat="45.72213" lon="4.7751">
        <ele>218.36</ele>
        <time>2010-10-28T14:55:46Z</time>
      </trkpt>
      <trkpt lat="45.7222" lon="4.77516">
        <ele>217.88</ele>
        <time>2010-10-28T14:55:50Z</time>
      </trkpt>
      <trkpt lat="45.72245" lon="4.77541">
        <ele>217.4</ele>
        <time>2010-10-28T14:55:59Z</time>
      </trkpt>
      <trkpt lat="45.7225" lon="4.77546">
        <ele>216.91</ele>
        <time>2010-10-28T14:56:01Z</time>
      </trkpt>
      <trkpt lat="45.72269" lon="4.77557">
        <ele>215.95</ele>
        <time>2010-10-28T14:56:07Z</time>
      </trkpt>
      <trkpt lat="45.72296" lon="4.77575">
        <ele>214.03</ele>
        <time>2010-10-28T14:56:18Z</time>
      </trkpt>
      <trkpt lat="45.72314" lon="4.77591">
        <ele>211.63</ele>
        <time>2010-10-28T14:56:25Z</time>
      </trkpt>
      <trkpt lat="45.72332" lon="4.77611">
        <ele>209.22</ele>
        <time>2010-10-28T14:56:33Z</time>
      </trkpt>
      <trkpt lat="45.72341" lon="4.7762">
        <ele>208.74</ele>
        <time>2010-10-28T14:56:36Z</time>
      </trkpt>
      <trkpt lat="45.7237" lon="4.77629">
        <ele>206.34</ele>
        <time>2010-10-28T14:56:46Z</time>
      </trkpt>
      <trkpt lat="45.72385" lon="4.77634">
        <ele>205.38</ele>
        <time>2010-10-28T14:56:52Z</time>
      </trkpt>
      <trkpt lat="45.72397" lon="4.77631">
        <ele>205.38</ele>
        <time>2010-10-28T14:56:58Z</time>
      </trkpt>
      <trkpt lat="45.72412" lon="4.77628">
        <ele>206.34</ele>
        <time>2010-10-28T14:57:04Z</time>
      </trkpt>
      <trkpt lat="45.72428" lon="4.77626">
        <ele>206.34</ele>
        <time>2010-10-28T14:57:13Z</time>
      </trkpt>
      <trkpt lat="45.72421" lon="4.7763">
        <ele>205.86</ele>
        <time>2010-10-28T14:57:17Z</time>
      </trkpt>
      <trkpt lat="45.72413" lon="4.77641">
        <ele>204.9</ele>
        <time>2010-10-28T14:57:22Z</time>
      </trkpt>
      <trkpt lat="45.72413" lon="4.7766">
        <ele>203.46</ele>
        <time>2010-10-28T14:57:27Z</time>
      </trkpt>
      <trkpt lat="45.72427" lon="4.7769">
        <ele>201.53</ele>
        <time>2010-10-28T14:57:36Z</time>
      </trkpt>
      <trkpt lat="45.72432" lon="4.77696">
        <ele>201.05</ele>
        <time>2010-10-28T14:57:39Z</time>
      </trkpt>
      <trkpt lat="45.72434" lon="4.77698">
        <ele>201.53</ele>
        <time>2010-10-28T14:57:41Z</time>
      </trkpt>
      <trkpt lat="45.72449" lon="4.77705">
        <ele>200.09</ele>
        <time>2010-10-28T14:57:47Z</time>
      </trkpt>
      <trkpt lat="45.72451" lon="4.77708">
        <ele>199.13</ele>
        <time>2010-10-28T14:57:48Z</time>
      </trkpt>
      <trkpt lat="45.72458" lon="4.77713">
        <ele>199.61</ele>
        <time>2010-10-28T14:57:51Z</time>
      </trkpt>
      <trkpt lat="45.72471" lon="4.77721">
        <ele>198.65</ele>
        <time>2010-10-28T14:57:56Z</time>
      </trkpt>
      <trkpt lat="45.72487" lon="4.77737">
        <ele>198.17</ele>
        <time>2010-10-28T14:58:04Z</time>
      </trkpt>
      <trkpt lat="45.72495" lon="4.77747">
        <ele>198.17</ele>
        <time>2010-10-28T14:58:08Z</time>
      </trkpt>
      <trkpt lat="45.725" lon="4.77751">
        <ele>196.73</ele>
        <time>2010-10-28T14:58:10Z</time>
      </trkpt>
      <trkpt lat="45.72523" lon="4.77771">
        <ele>195.77</ele>
        <time>2010-10-28T14:58:21Z</time>
      </trkpt>
      <trkpt lat="45.72526" lon="4.77778">
        <ele>194.8</ele>
        <time>2010-10-28T14:58:23Z</time>
      </trkpt>
      <trkpt lat="45.72536" lon="4.77806">
        <ele>191.44</ele>
        <time>2010-10-28T14:58:32Z</time>
      </trkpt>
      <trkpt lat="45.72536" lon="4.77808">
        <ele>190.96</ele>
        <time>2010-10-28T14:58:33Z</time>
      </trkpt>
      <trkpt lat="45.72538" lon="4.77818">
        <ele>189.52</ele>
        <time>2010-10-28T14:58:36Z</time>
      </trkpt>
      <trkpt lat="45.72541" lon="4.7785">
        <ele>186.15</ele>
        <time>2010-10-28T14:58:46Z</time>
      </trkpt>
      <trkpt lat="45.72539" lon="4.77862">
        <ele>185.67</ele>
        <time>2010-10-28T14:58:56Z</time>
      </trkpt>
      <trkpt lat="45.72539" lon="4.77864">
        <ele>185.67</ele>
        <time>2010-10-28T14:58:57Z</time>
      </trkpt>
      <trkpt lat="45.72543" lon="4.77888">
        <ele>185.19</ele>
        <time>2010-10-28T14:59:09Z</time>
      </trkpt>
      <trkpt lat="45.72544" lon="4.7789">
        <ele>185.19</ele>
        <time>2010-10-28T14:59:10Z</time>
      </trkpt>
      <trkpt lat="45.72546" lon="4.77891">
        <ele>184.71</ele>
        <time>2010-10-28T14:59:13Z</time>
      </trkpt>
      <trkpt lat="45.72553" lon="4.77889">
        <ele>185.19</ele>
        <time>2010-10-28T14:59:20Z</time>
      </trkpt>
      <trkpt lat="45.72559" lon="4.77901">
        <ele>186.15</ele>
        <time>2010-10-28T14:59:24Z</time>
      </trkpt>
      <trkpt lat="45.7256" lon="4.77905">
        <ele>184.71</ele>
        <time>2010-10-28T14:59:25Z</time>
      </trkpt>
      <trkpt lat="45.7256" lon="4.7791">
        <ele>184.71</ele>
        <time>2010-10-28T14:59:27Z</time>
      </trkpt>
      <trkpt lat="45.72564" lon="4.77906">
        <ele>184.71</ele>
        <time>2010-10-28T14:59:30Z</time>
      </trkpt>
      <trkpt lat="45.7258" lon="4.77891">
        <ele>184.23</ele>
        <time>2010-10-28T14:59:40Z</time>
      </trkpt>
      <trkpt lat="45.72588" lon="4.77887">
        <ele>184.71</ele>
        <time>2010-10-28T14:59:47Z</time>
      </trkpt>
      <trkpt lat="45.72595" lon="4.77887">
        <ele>185.19</ele>
        <time>2010-10-28T14:59:52Z</time>
      </trkpt>
      <trkpt lat="45.72615" lon="4.77883">
        <ele>185.19</ele>
        <time>2010-10-28T15:00:03Z</time>
      </trkpt>
      <trkpt lat="45.72618" lon="4.77882">
        <ele>185.19</ele>
        <time>2010-10-28T15:00:05Z</time>
      </trkpt>
      <trkpt lat="45.72622" lon="4.77886">
        <ele>185.19</ele>
        <time>2010-10-28T15:00:08Z</time>
      </trkpt>
      <trkpt lat="45.72624" lon="4.779">
        <ele>183.75</ele>
        <time>2010-10-28T15:00:15Z</time>
      </trkpt>
      <trkpt lat="45.72626" lon="4.77923">
        <ele>183.27</ele>
        <time>2010-10-28T15:00:27Z</time>
      </trkpt>
      <trkpt lat="45.72626" lon="4.77933">
        <ele>183.27</ele>
        <time>2010-10-28T15:00:36Z</time>
      </trkpt>
      <trkpt lat="45.72627" lon="4.77934">
        <ele>183.75</ele>
        <time>2010-10-28T15:00:38Z</time>
      </trkpt>
      <trkpt lat="45.72625" lon="4.77935">
        <ele>182.79</ele>
        <time>2010-10-28T15:00:49Z</time>
      </trkpt>
    </trkseg>
  </trk>
</gpx>